# Wetter Temperatur Luftdruck Luftfeuchtigkeit Sichtweite Windgeschwindigkeit Windrichtung Zeit
1 Clouds 11 1024 87 0 1.34 269 07:19 11.07.2020
2 Clouds 10 1020 96 0 1.34 269 06:46 11.07.2020
3 Clouds 7 1017 99 0 1.09 269 06:18 11.07.2020
4 Clouds 8 1019 95 0 1.2 276 05:20 11.07.2020
5 Clouds 8 1019 96 0 1.2 276 04:53 11.07.2020
6 Clouds 8 1019 95 0 1.2 276 04:31 11.07.2020
7 Clouds 9 1019 95 0 1.27 283 02:57 11.07.2020
8 Clouds 9 1019 95 0 1.27 283 02:35 11.07.2020
9 Clouds 10 1018 94 0 1 289 01:27 11.07.2020
10 Clouds 10 1018 93 0 1 289 00:59 11.07.2020
11 Clouds 10 1018 91 0 1 289 00:38 11.07.2020
12 Clouds 11 1014 93 0 1.13 300 00:19 11.07.2020
13 Clouds 11 1017 91 0 1.13 300 23:56 10.07.2020
14 Clouds 11 1014 92 0 1.13 300 23:38 10.07.2020
15 Clouds 12 1013 90 0 1.31 315 23:18 10.07.2020
16 Clouds 13 1017 88 0 1.31 315 22:42 10.07.2020
17 Clouds 13 1013 85 0 1.73 321 22:19 10.07.2020
18 Clouds 14 1016 87 0 1.73 321 21:40 10.07.2020
19 Clouds 14 1016 87 0 2.61 317 21:21 10.07.2020
20 Clouds 14 1016 87 0 0.45 275 20:59 10.07.2020
21 Clouds 15 1011 82 0 2.61 317 20:40 10.07.2020
22 Clouds 15 1014 82 0 3.35 319 20:21 10.07.2020
23 Clouds 15 1014 84 0 3.35 319 19:57 10.07.2020
24 Clouds 15 1014 86 0 1.34 288 19:39 10.07.2020
25 Rain 15 1010 83 0 3.86 314 19:19 10.07.2020
26 Rain 15 1010 83 0 3.86 314 18:41 10.07.2020
27 Clouds 15 1009 83 0 4.57 308 18:20 10.07.2020
28 Clouds 14 1013 93 0 1.34 299 17:57 10.07.2020
29 Clouds 15 1009 87 0 4.57 308 17:39 10.07.2020
30 Rain 15 1009 91 0 5.91 300 17:20 10.07.2020
31 Rain 17 1007 85 0 5.91 300 16:43 10.07.2020
32 Rain 18 1011 87 0 1.34 292 16:21 10.07.2020
33 Rain 18 1010 82 0 4.47 229 15:48 10.07.2020
34 Rain 19 1009 87 0 0.45 270 15:26 10.07.2020
35 Rain 20 1010 74 0 5.36 199 14:59 10.07.2020
36 Rain 20 1005 72 0 7.18 268 14:40 10.07.2020
37 Rain 20 1005 73 0 8.16 257 14:20 10.07.2020
38 Rain 20 1007 87 0 0.89 292 13:58 10.07.2020
39 Rain 20 1005 78 0 8.16 257 13:38 10.07.2020
40 Rain 20 1007 80 0 1.79 270 13:20 10.07.2020
41 Rain 20 1007 71 0 1.79 292 12:57 10.07.2020
42 Rain 20 1008 77 0 5.36 247 12:37 10.07.2020
43 Rain 20 1004 79 0 6.98 252 12:19 10.07.2020
44 Rain 20 1004 80 0 6.98 252 11:42 10.07.2020
45 Rain 21 1003 79 0 5.03 250 11:21 10.07.2020
46 Rain 21 1005 77 0 1.79 292 10:58 10.07.2020
47 Rain 21 1007 85 0 5.03 250 10:39 10.07.2020
48 Rain 20 1005 79 0 1.34 292 10:20 10.07.2020
49 Rain 20 1007 84 0 3.68 241 09:41 10.07.2020
50 Rain 19 1003 10 0 3.11 222 09:23 10.07.2020
51 Rain 17 1005 90 0 4.07 227 08:59 10.07.2020
52 Rain 16 1004 10 0 4.07 227 08:41 10.07.2020
53 Rain 16 1004 10 0 2.82 198 08:23 10.07.2020
54 Rain 16 1004 10 0 2.82 198 07:48 10.07.2020
55 Rain 16 1004 10 0 2.05 168 07:24 10.07.2020
56 Rain 16 1006 91 0 2.05 168 06:58 10.07.2020
57 Rain 15 1006 91 0 2.05 168 06:40 10.07.2020
58 Rain 15 1005 10 0 1.46 155 05:50 10.07.2020
59 Rain 15 1010 97 0 0.45 44 04:29 10.07.2020
60 Clouds 15 1011 97 0 0.45 34 02:55 10.07.2020
61 Clouds 16 1008 10 0 1.8 190 02:35 10.07.2020
62 Clouds 16 1008 10 0 2.48 217 01:33 10.07.2020
63 Clouds 17 1010 87 0 2.43 218 00:40 10.07.2020
64 Clouds 17 1010 87 0 2.04 224 00:18 10.07.2020
65 Clouds 17 1008 10 0 2.04 224 23:39 09.07.2020
66 Rain 17 1012 95 0 2.04 237 23:19 09.07.2020
67 Rain 16 1010 86 0 2.04 237 22:57 09.07.2020
68 Rain 16 1009 10 0 2.04 237 22:39 09.07.2020
69 Clouds 16 1009 10 0 1.63 248 22:20 09.07.2020
70 Clouds 16 1010 82 0 1.63 248 21:55 09.07.2020
71 Clouds 16 1008 10 0 1.63 248 21:37 09.07.2020
72 Clouds 16 1008 10 0 2.09 268 21:18 09.07.2020
73 Clouds 16 1008 10 0 2.09 268 21:18 09.07.2020
74 Clouds 17 1016 93 0 2.35 260 20:42 09.07.2020
75 Clouds 17 1016 93 0 2.35 260 20:42 09.07.2020
76 Clouds 17 1016 93 0 2.68 263 20:24 09.07.2020
77 Clouds 17 1016 93 0 2.68 263 19:56 09.07.2020
78 Clouds 17 1010 77 0 0.89 292 19:38 09.07.2020
79 Clouds 17 1008 99 0 3.15 267 19:20 09.07.2020
80 Clouds 19 1008 98 0 3.15 267 18:42 09.07.2020
81 Rain 20 1010 75 0 0.45 270 18:20 09.07.2020
82 Rain 20 1010 75 0 1.34 270 17:55 09.07.2020
83 Rain 20 1008 10 0 5.16 273 17:37 09.07.2020
84 Rain 18 1008 10 0 4.85 268 17:18 09.07.2020
85 Rain 18 1008 10 0 4.85 268 16:55 09.07.2020
86 Rain 18 1010 81 0 1.34 292 16:36 09.07.2020
87 Rain 18 1016 93 0 5.37 249 16:18 09.07.2020
88 Rain 18 1016 93 0 5.37 249 15:45 09.07.2020
89 Rain 17 1011 85 0 0.45 270 15:27 09.07.2020
90 Rain 17 1016 93 0 4.58 240 14:59 09.07.2020
91 Rain 17 1009 97 0 4.58 240 14:41 09.07.2020
92 Rain 17 1011 93 0 0.45 270 14:22 09.07.2020
93 Rain 17 1011 92 0 0.45 292 13:59 09.07.2020
94 Rain 17 1016 93 0 6.06 241 13:41 09.07.2020
95 Rain 17 1010 96 0 5.44 237 13:20 09.07.2020
96 Rain 16 1011 89 0 0.89 292 12:57 09.07.2020
97 Rain 16 1016 93 0 5.44 237 12:38 09.07.2020
98 Rain 17 1009 10 0 4.98 223 12:20 09.07.2020
99 Rain 15 1010 10 0 4.98 223 11:44 09.07.2020
100 Rain 15 1011 93 0 0.45 292 11:26 09.07.2020
101 Rain 14 1011 94 0 0.45 292 10:59 09.07.2020
102 Rain 14 1016 93 0 3.68 213 10:41 09.07.2020
103 Rain 14 1010 10 0 2.75 201 10:23 09.07.2020
104 Rain 14 1011 10 0 2.75 201 09:58 09.07.2020
105 Rain 14 1011 10 0 2.75 201 09:40 09.07.2020
106 Rain 14 1011 10 0 1.76 186 09:21 09.07.2020
107 Rain 14 1016 93 0 1.76 186 08:44 09.07.2020
108 Clouds 14 1016 93 0 1.54 171 08:25 09.07.2020
109 Clouds 14 1011 10 0 1.54 171 07:47 09.07.2020
110 Clouds 13 1015 93 0 0.45 27 07:24 09.07.2020
111 Clouds 13 1014 92 0 0.45 57 06:53 09.07.2020
112 Clouds 13 1012 10 0 1.16 182 06:20 09.07.2020
113 Clouds 13 1013 93 0 1.28 183 05:26 09.07.2020
114 Clouds 13 1013 92 0 1.42 196 04:28 09.07.2020
115 Clouds 13 1013 10 0 1.22 186 02:21 09.07.2020
116 Clouds 13 1013 10 0 1.22 186 01:37 09.07.2020
117 Clouds 13 1015 91 0 1.19 189 00:53 09.07.2020
118 Clouds 13 1014 91 0 0.99 208 00:25 09.07.2020
119 Clouds 13 1013 99 0 0.99 208 23:47 08.07.2020
120 Clouds 13 1015 91 0 1.41 220 23:28 08.07.2020
121 Clouds 14 1015 90 0 1.41 220 22:58 08.07.2020
122 Clouds 14 1015 90 0 1.41 220 22:40 08.07.2020
123 Clouds 14 1013 98 0 1.51 226 22:22 08.07.2020
124 Clouds 14 1015 91 0 1.51 226 21:58 08.07.2020
125 Clouds 14 1013 97 0 1.51 226 21:39 08.07.2020
126 Clouds 14 1013 97 0 1.45 241 21:20 08.07.2020
127 Clouds 14 1016 93 0 1.51 244 20:55 08.07.2020
128 Clouds 14 1013 96 0 1.51 244 20:37 08.07.2020
129 Clouds 14 1013 95 0 1.98 272 20:19 08.07.2020
130 Clouds 14 1013 96 0 1.98 272 19:43 08.07.2020
131 Clouds 15 1014 85 0 1.92 273 19:23 08.07.2020
132 Clouds 15 1014 85 0 1.92 273 18:57 08.07.2020
133 Clouds 15 1014 88 0 1.92 273 18:39 08.07.2020
134 Clouds 15 1013 93 0 1.93 275 18:20 08.07.2020
135 Clouds 14 1014 89 0 1.93 275 17:56 08.07.2020
136 Clouds 15 1014 91 0 1.93 275 17:37 08.07.2020
137 Clouds 14 1013 91 0 1.78 282 17:19 08.07.2020
138 Clouds 14 1013 94 0 1.78 282 16:43 08.07.2020
139 Clouds 14 1012 95 0 1.73 279 16:24 08.07.2020
140 Clouds 14 1015 92 0 0.45 223 15:59 08.07.2020
141 Clouds 14 1012 92 0 1.73 279 15:41 08.07.2020
142 Clouds 14 1015 92 0 1.81 288 15:20 08.07.2020
143 Clouds 13 1014 93 0 1.81 288 14:58 08.07.2020
144 Clouds 13 1012 98 0 1.55 251 14:40 08.07.2020
145 Rain 13 1015 95 0 1.36 245 14:19 08.07.2020
146 Rain 13 1015 96 0 1.36 245 13:45 08.07.2020
147 Rain 13 1015 96 0 1.2 222 13:26 08.07.2020
148 Rain 13 1012 96 0 1.2 222 12:46 08.07.2020
149 Rain 13 1015 93 0 1.22 218 12:22 08.07.2020
150 Rain 13 1014 92 0 1.22 218 11:59 08.07.2020
151 Rain 13 1012 91 0 1.22 218 11:39 08.07.2020
152 Rain 13 1015 92 0 1.01 205 11:20 08.07.2020
153 Rain 13 1014 94 0 1.01 205 10:55 08.07.2020
154 Rain 13 1011 96 0 1.01 205 10:36 08.07.2020
155 Rain 13 1011 97 0 1.09 193 10:18 08.07.2020
156 Rain 12 1013 91 0 0.45 270 09:41 08.07.2020
157 Rain 12 1011 98 0 1.72 197 09:23 08.07.2020
158 Rain 12 1015 96 0 1.72 197 08:43 08.07.2020
159 Rain 12 1014 96 0 1.58 191 08:24 08.07.2020
160 Rain 12 1011 99 0 1.58 191 07:48 08.07.2020
161 Clouds 12 1011 99 0 1.77 201 07:24 08.07.2020
162 Clouds 11 1013 93 0 1.77 201 06:56 08.07.2020
163 Clouds 11 1013 93 0 1.77 201 06:37 08.07.2020
164 Rain 11 1013 93 0 2.04 213 05:55 08.07.2020
165 Rain 11 1012 99 0 2.04 213 05:33 08.07.2020
166 Rain 11 1012 99 0 2.08 224 04:37 08.07.2020
167 Rain 12 1013 99 0 1.97 218 02:49 08.07.2020
168 Rain 12 1017 96 0 1.13 248 01:54 08.07.2020
169 Rain 12 1015 91 0 1.13 248 01:32 08.07.2020
170 Clouds 12 1015 90 0 1.77 259 00:28 08.07.2020
171 Clouds 12 1015 89 0 1.77 259 23:59 07.07.2020
172 Clouds 12 1013 93 0 1.77 259 23:41 07.07.2020
173 Clouds 12 1013 90 0 1.72 251 23:19 07.07.2020
174 Clouds 13 1017 90 0 1.72 251 22:44 07.07.2020
175 Clouds 13 1017 90 0 1.65 262 22:24 07.07.2020
176 Clouds 13 1015 87 0 1.65 262 21:59 07.07.2020
177 Clouds 14 1017 86 0 1.65 262 21:41 07.07.2020
178 Rain 14 1016 86 0 2.54 271 21:21 07.07.2020
179 Rain 14 1016 85 0 2.54 271 20:58 07.07.2020
180 Rain 14 1013 81 0 2.54 271 20:40 07.07.2020
181 Rain 15 1014 80 0 3.75 274 20:22 07.07.2020
182 Rain 16 1018 83 0 3.75 274 19:43 07.07.2020
183 Rain 16 1013 63 0 4.84 270 19:22 07.07.2020
184 Rain 16 1019 80 0 4.84 270 18:59 07.07.2020
185 Rain 16 1019 76 0 4.84 270 18:41 07.07.2020
186 Rain 18 1013 57 0 4.35 257 18:23 07.07.2020
187 Rain 18 1015 55 0 0.45 225 17:59 07.07.2020
188 Rain 19 1014 54 0 4.35 257 17:40 07.07.2020
189 Rain 19 1016 52 0 0.89 292 17:22 07.07.2020
190 Rain 19 1016 50 0 1.34 270 16:58 07.07.2020
191 Rain 19 1018 51 0 3.13 248 16:40 07.07.2020
192 Rain 19 1015 57 0 4.55 267 16:21 07.07.2020
193 Rain 19 1015 59 0 4.55 267 15:54 07.07.2020
194 Rain 19 1017 49 0 0.89 270 15:36 07.07.2020
195 Clouds 19 1015 55 0 4.25 265 15:18 07.07.2020
196 Clouds 19 1015 55 0 4.25 265 14:42 07.07.2020
197 Clouds 18 1015 57 0 4.57 270 14:22 07.07.2020
198 Clouds 19 1019 54 0 4.57 270 13:40 07.07.2020
199 Clouds 18 1016 62 0 4.6 266 13:19 07.07.2020
200 Clouds 17 1016 69 0 4.6 266 12:47 07.07.2020
201 Clouds 16 1018 59 0 1.34 270 12:27 07.07.2020
202 Clouds 16 1021 61 0 4.58 263 11:59 07.07.2020
203 Clouds 14 1016 75 0 4.58 263 11:41 07.07.2020
204 Clouds 13 1018 65 0 0.45 270 11:21 07.07.2020
205 Clouds 13 1018 70 0 0.45 270 10:58 07.07.2020
206 Clouds 13 1016 93 0 4.29 262 10:38 07.07.2020
207 Clouds 13 1016 97 0 4.05 266 10:19 07.07.2020
208 Clouds 12 1019 73 0 0.45 270 09:42 07.07.2020
209 Clouds 12 1018 76 0 3.52 267 09:21 07.07.2020
210 Clouds 12 1020 94 0 3.1 263 08:54 07.07.2020
211 Clouds 11 1017 10 0 3.1 263 08:36 07.07.2020
212 Clouds 11 1019 83 0 0.45 270 08:18 07.07.2020
213 Clouds 11 1017 10 0 2.42 265 07:38 07.07.2020
214 Clouds 11 1017 10 0 2.22 266 07:19 07.07.2020
215 Clouds 10 1020 97 0 2.22 266 06:41 07.07.2020
216 Clouds 10 1016 10 0 2.45 268 06:22 07.07.2020
217 Clouds 10 1018 92 0 2.56 268 05:28 07.07.2020
218 Clouds 10 1018 90 0 2.56 268 04:44 07.07.2020
219 Clouds 11 1015 10 0 3.02 273 03:42 07.07.2020
220 Clouds 11 1015 10 0 3.07 274 03:23 07.07.2020
221 Clouds 11 1015 99 0 2.7 275 01:41 07.07.2020
222 Clear 11 1018 91 0 2.9 275 00:59 07.07.2020
223 Clear 11 1015 97 0 2.9 275 00:40 07.07.2020
224 Clear 11 1017 90 0 3.03 277 00:20 07.07.2020
225 Clear 12 1018 90 0 3.03 277 23:44 06.07.2020
226 Clear 12 1018 89 0 3.45 280 23:25 06.07.2020
227 Clear 12 1017 88 0 3.45 280 22:57 06.07.2020
228 Clear 12 1018 83 0 1.34 270 22:39 06.07.2020
229 Clear 12 1018 82 0 0.89 242 22:18 06.07.2020
230 Clear 13 1016 88 0 3.79 282 21:56 06.07.2020
231 Clear 13 1016 89 0 3.79 282 21:36 06.07.2020
232 Clear 13 1013 81 0 4.54 282 21:18 06.07.2020
233 Clear 14 1015 85 0 4.54 282 20:41 06.07.2020
234 Rain 14 1016 76 0 1.79 226 20:21 06.07.2020
235 Rain 14 1015 67 0 0.45 270 19:59 06.07.2020
236 Rain 15 1012 77 0 5.36 282 19:41 06.07.2020
237 Rain 15 1012 77 0 5.36 282 19:40 06.07.2020
238 Rain 14 1016 76 0 3.13 220 19:22 06.07.2020
239 Rain 14 1014 67 0 0.45 292 18:58 06.07.2020
240 Rain 15 1015 72 0 4.02 302 18:40 06.07.2020
241 Rain 16 1011 68 0 6.75 283 18:22 06.07.2020
242 Rain 15 1011 68 0 6.75 283 17:54 06.07.2020
243 Rain 15 1011 74 0 6.75 283 17:36 06.07.2020
244 Rain 15 1011 74 0 6.75 283 17:36 06.07.2020
245 Rain 14 1011 78 0 7.09 282 17:18 06.07.2020
246 Rain 14 1014 83 0 0.45 313 16:42 06.07.2020
247 Rain 14 1014 85 0 7.45 279 16:22 06.07.2020
248 Rain 14 1014 84 0 3.13 283 15:45 06.07.2020
249 Rain 16 1009 64 0 7.57 275 15:27 06.07.2020
250 Rain 16 1009 57 0 7.57 275 14:58 06.07.2020
251 Rain 15 1009 55 0 7.57 275 14:40 06.07.2020
252 Rain 17 1009 58 0 7.7 271 14:22 06.07.2020
253 Rain 17 1014 56 0 7.81 266 13:59 06.07.2020
254 Rain 18 1009 61 0 7.81 266 13:40 06.07.2020
255 Rain 18 1008 60 0 7.95 260 13:20 06.07.2020
256 Rain 18 1008 61 0 7.95 260 12:44 06.07.2020
257 Rain 16 1008 61 0 7.61 262 12:20 06.07.2020
258 Rain 16 1010 61 0 2.24 270 11:59 06.07.2020
259 Rain 16 1010 63 0 2.68 292 11:40 06.07.2020
260 Rain 16 1011 66 0 4.92 254 11:22 06.07.2020
261 Rain 16 1011 66 0 4.92 254 10:58 06.07.2020
262 Rain 16 1011 69 0 2.68 254 10:40 06.07.2020
263 Rain 16 1007 69 0 6.63 262 10:19 06.07.2020
264 Rain 15 1010 67 0 0.89 292 09:46 06.07.2020
265 Rain 14 1007 74 0 6.7 259 09:22 06.07.2020
266 Rain 14 1010 71 0 1.34 270 08:59 06.07.2020
267 Rain 14 1011 77 0 4.47 246 08:40 06.07.2020
268 Rain 14 1009 73 0 0.89 225 08:21 06.07.2020
269 Rain 14 1009 73 0 1.34 292 07:48 06.07.2020
270 Rain 14 1009 74 0 0.89 292 07:29 06.07.2020
271 Rain 14 1009 75 0 0.89 270 06:55 06.07.2020
272 Rain 14 1006 80 0 5.25 250 06:36 06.07.2020
273 Clouds 12 1008 75 0 0.89 292 05:53 06.07.2020
274 Clouds 14 1006 80 0 4.27 249 05:26 06.07.2020
275 Clear 14 1008 72 0 0.89 270 03:58 06.07.2020
276 Clear 17 1011 75 0 4.5 259 02:41 06.07.2020
277 Clouds 17 1005 81 0 4.96 249 01:55 06.07.2020
278 Clouds 18 1005 83 0 4.82 247 00:49 06.07.2020
279 Clouds 18 1005 83 0 4.15 245 00:24 06.07.2020
280 Clouds 18 1009 86 0 1.79 246 23:57 05.07.2020
281 Clouds 18 1005 80 0 4.15 245 23:38 05.07.2020
282 Clouds 19 1005 81 0 3.88 249 23:20 05.07.2020
283 Clouds 19 1009 92 0 0.89 285 22:42 05.07.2020
284 Clouds 19 1005 88 0 4.07 255 22:21 05.07.2020
285 Clouds 19 1009 95 0 0.89 241 21:59 05.07.2020
286 Clouds 19 1009 95 0 4.07 255 21:41 05.07.2020
287 Rain 19 1005 96 0 5.28 252 21:19 05.07.2020
288 Rain 19 1005 96 0 5.28 252 21:19 05.07.2020
289 Rain 19 1008 82 0 0.45 292 20:59 05.07.2020
290 Rain 19 1008 84 0 0.45 270 20:40 05.07.2020
291 Clouds 19 1005 95 0 5.92 253 20:22 05.07.2020
292 Clouds 20 1010 93 0 0.45 253 19:57 05.07.2020
293 Clouds 20 1008 84 0 0.89 292 19:39 05.07.2020
294 Clouds 20 1008 83 0 0.45 270 19:19 05.07.2020
295 Clouds 21 1008 82 0 1.79 270 18:42 05.07.2020
296 Clouds 21 1006 83 0 7.03 253 18:23 05.07.2020
297 Clouds 21 1009 88 0 1.34 292 17:58 05.07.2020
298 Clouds 22 1005 68 0 7.03 253 17:39 05.07.2020
299 Clouds 22 1005 68 0 8.17 250 17:19 05.07.2020
300 Clouds 23 1006 68 0 0.45 325 16:44 05.07.2020
301 Rain 23 1006 69 0 6.97 254 16:25 05.07.2020
302 Rain 23 1008 68 0 1.79 292 15:58 05.07.2020
303 Rain 23 1006 67 0 0.45 210 15:38 05.07.2020
304 Rain 23 1010 70 0 3.58 205 15:19 05.07.2020
305 Rain 23 1006 70 0 6.58 251 14:42 05.07.2020
306 Clouds 23 1009 64 10000 6.7 250 14:23 05.07.2020
307 Clouds 23 1009 64 10000 6.7 250 14:23 05.07.2020
308 Clouds 23 1009 60 10000 7.7 250 13:55 05.07.2020
309 Clouds 22 1011 75 0 2.68 185 13:37 05.07.2020
310 Clouds 21 1007 75 0 6.63 243 13:19 05.07.2020
311 Clouds 21 1007 75 0 6.63 243 13:19 05.07.2020
312 Clouds 21 1007 80 0 6.63 243 12:39 05.07.2020
313 Clouds 21 1007 81 0 6.99 242 12:20 05.07.2020
314 Clouds 20 1007 80 0 6.99 242 11:55 05.07.2020
315 Clouds 20 1007 79 0 6.99 242 11:36 05.07.2020
316 Clouds 20 1007 78 0 7.42 241 11:18 05.07.2020
317 Clouds 20 1007 81 0 7.42 241 10:42 05.07.2020
318 Clouds 20 1009 80 0 0.89 270 10:20 05.07.2020
319 Clouds 20 1012 82 0 4.02 218 09:59 05.07.2020
320 Clouds 19 1009 82 0 1.34 292 09:41 05.07.2020
321 Clouds 19 1009 82 0 1.34 270 09:20 05.07.2020
322 Clouds 19 1011 83 0 2.68 209 08:53 05.07.2020
323 Clouds 19 1011 83 0 2.68 209 08:34 05.07.2020
324 Clouds 19 1011 85 0 2.68 207 07:51 05.07.2020
325 Clouds 19 1009 83 0 1.34 292 07:30 05.07.2020
326 Clouds 18 1011 85 0 1.34 221 06:53 05.07.2020
327 Clouds 18 1007 87 0 5.09 230 06:20 05.07.2020
328 Rain 19 1008 79 0 4.81 225 03:54 05.07.2020
329 Rain 19 1011 76 0 0.89 270 02:47 05.07.2020
330 Rain 19 1011 75 0 0.45 270 02:29 05.07.2020
331 Rain 19 1009 73 0 4.72 223 01:43 05.07.2020
332 Rain 19 1009 73 0 4.34 226 01:20 05.07.2020
333 Rain 19 1011 74 0 3.13 256 00:43 05.07.2020
334 Rain 19 1011 74 0 0.45 210 00:24 05.07.2020
335 Rain 19 1011 74 0 0.89 221 23:54 04.07.2020
336 Rain 19 1011 73 0 2.24 235 23:31 04.07.2020
337 Clouds 20 1013 69 0 0.45 209 22:59 04.07.2020
338 Clouds 19 1011 75 0 0.45 197 22:40 04.07.2020
339 Rain 20 1012 70 0 4.24 229 22:22 04.07.2020
340 Rain 20 1012 69 0 0.45 270 21:56 04.07.2020
341 Rain 20 1012 68 0 0.45 270 21:38 04.07.2020
342 Clouds 20 1011 75 0 0.89 255 21:19 04.07.2020
343 Clouds 21 1011 70 0 3.13 262 20:41 04.07.2020
344 Clouds 21 1012 69 0 3.58 262 20:20 04.07.2020
345 Clouds 21 1010 63 0 3.5 237 19:55 04.07.2020
346 Clouds 21 1010 63 0 3.5 237 19:37 04.07.2020
347 Clouds 21 1010 63 0 3.43 253 19:19 04.07.2020
348 Clouds 22 1010 61 0 3.43 253 18:42 04.07.2020
349 Clouds 21 1010 60 0 5.23 246 18:22 04.07.2020
350 Clouds 22 1010 60 0 5.23 246 17:44 04.07.2020
351 Clouds 21 1014 61 0 4.47 227 17:44 04.07.2020
352 Clouds 22 1012 58 0 1.34 292 17:26 04.07.2020
353 Clouds 22 1012 55 0 1.79 292 16:59 04.07.2020
354 Clouds 22 1011 57 0 4.36 228 16:39 04.07.2020
355 Clouds 22 1010 56 0 5.42 234 16:21 04.07.2020
356 Clouds 23 1014 61 0 5.42 234 15:57 04.07.2020
357 Clouds 23 1011 55 0 5.42 234 15:38 04.07.2020
358 Clouds 23 1010 56 0 6.54 232 15:19 04.07.2020
359 Clouds 23 1014 59 0 1.79 195 14:55 04.07.2020
360 Clouds 23 1014 58 0 3.58 213 14:36 04.07.2020
361 Clouds 23 1014 58 0 3.58 213 14:36 04.07.2020
362 Clouds 22 1014 58 0 2.68 202 14:18 04.07.2020
363 Clouds 22 1014 58 0 2.68 202 14:18 04.07.2020
364 Clouds 21 1013 62 0 1.34 292 13:41 04.07.2020
365 Clouds 21 1012 59 0 5.46 230 13:19 04.07.2020
366 Clouds 21 1012 60 0 5.46 230 12:43 04.07.2020
367 Clouds 21 1015 63 0 2.68 247 12:24 04.07.2020
368 Clouds 19 1013 64 0 1.79 292 11:59 04.07.2020
369 Clouds 19 1012 69 0 5.34 231 11:40 04.07.2020
370 Clouds 18 1012 69 0 5.83 235 11:22 04.07.2020
371 Clouds 18 1013 70 0 5.83 235 10:55 04.07.2020
372 Clouds 17 1014 72 0 1.34 270 10:36 04.07.2020
373 Clouds 17 1014 73 0 1.34 270 10:18 04.07.2020
374 Clouds 17 1017 81 0 5.36 240 09:40 04.07.2020
375 Clouds 17 1013 79 0 5.23 241 09:21 04.07.2020
376 Clouds 16 1014 76 0 0.89 292 08:57 04.07.2020
377 Clouds 16 1014 75 0 1.34 292 08:39 04.07.2020
378 Clouds 16 1012 79 0 5.25 242 08:19 04.07.2020
379 Clouds 16 1012 83 0 5.25 242 07:39 04.07.2020
380 Clouds 16 1014 75 0 0.45 292 07:18 04.07.2020
381 Clouds 14 1014 79 0 4.11 238 06:38 04.07.2020
382 Clouds 14 1014 81 0 3.26 231 06:18 04.07.2020
383 Clouds 13 1015 85 0 0.45 292 05:28 04.07.2020
384 Clouds 14 1015 82 0 0.45 292 03:56 04.07.2020
385 Clouds 13 1013 93 0 2.37 220 02:41 04.07.2020
386 Clouds 14 1014 93 0 2.53 221 01:40 04.07.2020
387 Clouds 14 1017 89 0 0.45 38 00:49 04.07.2020
388 Clouds 14 1015 79 0 2.13 216 00:30 04.07.2020
389 Clouds 15 1015 78 0 1.8 217 23:59 03.07.2020
390 Clouds 15 1013 88 0 1.8 217 23:39 03.07.2020
391 Clouds 15 1015 77 0 1.6 210 23:18 03.07.2020
392 Clouds 15 1016 85 0 1.6 210 22:41 03.07.2020
393 Clouds 15 1016 84 0 1.49 228 22:23 03.07.2020
394 Clouds 16 1015 73 0 1.49 228 21:58 03.07.2020
395 Clouds 17 1013 82 0 1.49 228 21:38 03.07.2020
396 Clear 17 1016 76 0 1.72 250 21:19 03.07.2020
397 Clear 19 1013 73 0 2 249 20:42 03.07.2020
398 Clear 19 1013 73 0 2 249 20:42 03.07.2020
399 Clouds 19 1013 71 0 2.44 259 20:24 03.07.2020
400 Clouds 19 1016 66 0 0.45 252 19:55 03.07.2020
401 Clouds 20 1015 60 0 1.34 270 19:37 03.07.2020
402 Clouds 20 1013 67 0 3.31 266 19:18 03.07.2020
403 Clouds 21 1013 67 0 3.31 266 18:42 03.07.2020
404 Clouds 20 1013 68 0 4.27 270 18:23 03.07.2020
405 Clouds 21 1015 60 0 1.34 270 17:47 03.07.2020
406 Clouds 20 1013 65 0 4.59 272 17:24 03.07.2020
407 Clouds 21 1015 56 0 1.79 292 16:59 03.07.2020
408 Clouds 21 1013 66 0 4.59 272 16:40 03.07.2020
409 Rain 21 1013 62 0 4.75 268 16:20 03.07.2020
410 Rain 20 1013 65 0 4.75 268 15:42 03.07.2020
411 Rain 20 1013 65 0 4.96 262 15:23 03.07.2020
412 Rain 19 1015 58 0 1.34 292 14:56 03.07.2020
413 Clouds 19 1013 65 0 4.91 264 14:37 03.07.2020
414 Rain 19 1013 66 0 4.75 257 14:19 03.07.2020
415 Rain 19 1017 73 0 4.75 257 13:43 03.07.2020
416 Rain 19 1013 70 0 4.6 254 13:24 03.07.2020
417 Rain 18 1015 71 0 0.89 270 12:45 03.07.2020
418 Rain 18 1016 75 0 0.89 264 12:24 03.07.2020
419 Rain 18 1015 71 0 0.89 292 11:58 03.07.2020
420 Rain 18 1016 73 0 2.24 227 11:40 03.07.2020
421 Rain 17 1013 77 0 4.17 256 11:21 03.07.2020
422 Rain 17 1016 80 0 4.17 256 10:55 03.07.2020
423 Rain 16 1013 86 0 4.17 256 10:37 03.07.2020
424 Rain 15 1013 90 0 4.08 260 10:18 03.07.2020
425 Rain 15 1016 88 0 4.08 260 09:42 03.07.2020
426 Clouds 14 1013 90 0 3.86 256 09:22 03.07.2020
427 Clouds 14 1016 91 0 3.86 256 08:59 03.07.2020
428 Clouds 14 1012 94 0 3.86 256 08:39 03.07.2020
429 Clouds 14 1012 95 0 3.39 260 08:18 03.07.2020
430 Clouds 13 1014 89 0 3.39 260 07:47 03.07.2020
431 Clouds 13 1015 94 0 2.65 252 07:24 03.07.2020
432 Clouds 13 1014 92 0 2.65 252 06:47 03.07.2020
433 Clouds 12 1013 93 0 1.92 249 05:57 03.07.2020
434 Clouds 13 1010 99 0 1.83 259 04:40 03.07.2020
435 Clouds 14 1013 92 0 2.1 261 02:58 03.07.2020
436 Clouds 14 1014 96 0 2.1 261 02:39 03.07.2020
437 Clouds 14 1012 93 0 2.36 257 02:18 03.07.2020
438 Clouds 14 1013 95 0 2.31 260 01:27 03.07.2020
439 Clouds 14 1009 97 0 2.31 260 00:44 03.07.2020
440 Rain 14 1009 97 0 1.56 274 00:21 03.07.2020
441 Rain 15 1009 95 0 1.56 274 23:43 02.07.2020
442 Rain 15 1009 95 0 2.17 277 23:20 02.07.2020
443 Rain 15 1012 87 0 2.17 277 22:57 02.07.2020
444 Rain 16 1012 79 0 2.68 280 22:39 02.07.2020
445 Rain 17 1008 86 0 2.03 288 22:20 02.07.2020
446 Rain 17 1008 86 0 2.03 288 22:20 02.07.2020
447 Rain 17 1007 83 0 2.03 288 21:54 02.07.2020
448 Rain 18 1007 81 0 2.03 288 21:36 02.07.2020
449 Rain 18 1007 80 0 1.88 283 21:18 02.07.2020
450 Rain 19 1010 68 0 1.88 283 20:42 02.07.2020
451 Rain 19 1007 78 0 2.2 293 20:21 02.07.2020
452 Rain 19 1007 78 0 2.2 293 20:21 02.07.2020
453 Rain 20 1009 70 0 2.2 293 19:59 02.07.2020
454 Rain 20 1006 74 0 2.2 293 19:38 02.07.2020
455 Rain 20 1009 70 0 0.45 270 19:20 02.07.2020
456 Rain 20 1010 70 0 2.69 277 18:57 02.07.2020
457 Rain 21 1006 73 0 2.69 277 18:38 02.07.2020
458 Rain 21 1006 74 0 2.73 255 18:20 02.07.2020
459 Rain 19 1007 75 0 2.73 255 17:40 02.07.2020
460 Clouds 20 1007 68 0 2.95 252 17:20 02.07.2020
461 Clouds 20 1009 64 0 0.45 292 16:56 02.07.2020
462 Clouds 21 1010 66 0 2.95 252 16:38 02.07.2020
463 Clouds 21 1009 57 0 0.45 270 16:19 02.07.2020
464 Clouds 21 1010 64 0 3.71 248 15:55 02.07.2020
465 Clouds 22 1006 58 0 3.71 248 15:36 02.07.2020
466 Clouds 22 1010 58 0 4.21 253 15:18 02.07.2020
467 Clouds 22 1006 56 0 4.21 253 14:42 02.07.2020
468 Clouds 21 1006 59 0 4.52 255 14:19 02.07.2020
469 Clouds 21 1010 62 0 2.24 243 13:55 02.07.2020
470 Clouds 21 1007 60 0 4.17 259 13:36 02.07.2020
471 Clouds 20 1011 65 0 3.58 267 13:18 02.07.2020
472 Clouds 19 1007 70 0 4.1 255 12:40 02.07.2020
473 Clouds 19 1010 74 0 4.34 248 12:21 02.07.2020
474 Clouds 19 1006 70 0 4.34 248 11:44 02.07.2020
475 Clouds 19 1009 69 0 1.34 292 11:26 02.07.2020
476 Clouds 18 1009 75 0 0.89 270 10:57 02.07.2020
477 Clouds 18 1010 79 0 1.34 257 10:39 02.07.2020
478 Clouds 18 1006 80 0 3.88 247 10:21 02.07.2020
479 Clouds 18 1006 87 0 3.88 247 09:42 02.07.2020
480 Clouds 16 1006 92 0 3.71 250 09:21 02.07.2020
481 Clouds 16 1008 83 0 1.79 225 08:58 02.07.2020
482 Clouds 16 1006 93 0 3.71 250 08:39 02.07.2020
483 Clouds 16 1006 95 0 3.2 252 08:19 02.07.2020
484 Clouds 16 1008 93 0 3.2 252 07:41 02.07.2020
485 Clouds 15 1005 97 0 2.55 248 07:20 02.07.2020
486 Clouds 15 1008 95 0 2.55 248 06:41 02.07.2020
487 Clouds 15 1007 95 0 2.46 244 06:20 02.07.2020
488 Clouds 15 1009 97 0 2.46 244 05:47 02.07.2020
489 Clouds 15 1005 99 0 2.29 238 04:50 02.07.2020
490 Clouds 16 1004 98 0 1.85 237 03:33 02.07.2020
491 Clouds 16 1004 98 0 2.12 228 01:49 02.07.2020
492 Clouds 16 1008 96 0 1.93 249 00:28 02.07.2020
493 Clouds 16 1008 96 0 0.45 253 23:57 01.07.2020
494 Clouds 16 1004 97 0 1.93 249 23:39 01.07.2020
495 Clouds 16 1004 98 0 2.2 258 23:21 01.07.2020
496 Clouds 16 1004 97 0 2.2 258 22:55 01.07.2020
497 Clouds 16 1007 95 0 2.2 258 22:36 01.07.2020
498 Rain 16 1006 92 0 2.72 269 22:18 01.07.2020
499 Rain 17 1007 95 0 2.72 269 21:55 01.07.2020
500 Rain 18 1004 85 0 2.72 269 21:37 01.07.2020
501 Rain 19 1003 82 0 2.7 243 21:19 01.07.2020
502 Rain 19 1005 87 0 2.7 243 20:45 01.07.2020
503 Rain 20 1006 85 0 2.3 238 20:26 01.07.2020
504 Rain 20 1006 81 0 0.45 316 19:57 01.07.2020
505 Rain 21 1002 78 0 2.3 238 19:39 01.07.2020
506 Rain 21 1002 78 0 2.98 257 19:20 01.07.2020
507 Rain 21 1006 79 0 1.79 242 18:54 01.07.2020
508 Rain 21 1002 75 0 2.98 257 18:36 01.07.2020
509 Rain 22 1006 77 0 2.68 248 18:18 01.07.2020
510 Rain 23 1002 74 0 3.82 259 17:41 01.07.2020
511 Rain 22 1004 74 0 1.34 292 17:20 01.07.2020
512 Rain 22 1003 75 0 4.04 261 16:49 01.07.2020
513 Rain 21 1005 80 0 0.89 292 16:29 01.07.2020
514 Rain 21 1007 83 0 4.53 251 15:59 01.07.2020
515 Rain 20 1003 76 0 4.53 251 15:41 01.07.2020
516 Rain 20 1003 78 0 4.24 252 15:22 01.07.2020
517 Rain 20 1007 89 0 4.24 252 14:55 01.07.2020
518 Rain 19 1004 89 0 4.24 252 14:37 01.07.2020
519 Rain 18 1004 88 0 3.94 253 14:19 01.07.2020
520 Rain 18 1008 92 0 4.19 253 13:40 01.07.2020
521 Rain 18 1008 90 0 0.45 275 13:22 01.07.2020
522 Rain 19 1008 90 0 0.45 275 12:59 01.07.2020
523 Rain 18 1009 98 0 4.7 247 12:40 01.07.2020
524 Rain 18 1009 99 0 5.31 235 12:22 01.07.2020
525 Rain 18 1008 95 0 5.31 235 11:57 01.07.2020
526 Rain 18 1006 93 0 0.45 292 11:38 01.07.2020
527 Rain 17 1006 93 0 0.45 292 11:19 01.07.2020
528 Rain 17 1009 99 0 3.84 228 10:43 01.07.2020
529 Rain 16 1004 94 0 2.97 205 10:23 01.07.2020
530 Rain 16 1006 94 0 2.97 205 09:59 01.07.2020
531 Rain 16 1004 95 0 2.97 205 09:38 01.07.2020
532 Rain 16 1006 93 0 0.45 292 09:20 01.07.2020
533 Rain 16 1006 92 0 0.45 292 08:56 01.07.2020
534 Rain 16 1008 90 0 3.29 211 08:38 01.07.2020
535 Clouds 16 1004 90 0 3.34 216 08:18 01.07.2020
536 Clouds 16 1008 81 0 0.89 227 07:40 01.07.2020
537 Clouds 17 1004 85 0 3.63 225 07:21 01.07.2020
538 Clouds 17 1004 85 0 3.63 225 07:21 01.07.2020
539 Clouds 17 1004 82 0 3.63 225 06:50 01.07.2020
540 Clouds 17 1006 75 0 1.34 270 06:28 01.07.2020
541 Clouds 17 1005 73 0 1.34 292 05:28 01.07.2020
542 Rain 18 1004 75 0 4.18 228 03:55 01.07.2020
543 Rain 18 1004 75 0 4.18 228 03:36 01.07.2020
544 Rain 17 1004 75 0 4.32 230 03:18 01.07.2020
545 Rain 18 1008 69 0 4.1 225 01:53 01.07.2020
546 Clouds 18 1005 68 0 4.1 235 00:48 01.07.2020
547 Clouds 18 1006 61 0 0.89 292 00:26 01.07.2020
548 Clouds 18 1006 61 0 4.34 235 23:57 30.06.2020
549 Clouds 18 1008 67 0 4.34 235 23:39 30.06.2020
550 Clouds 18 1005 65 0 4.19 230 23:19 30.06.2020
551 Clouds 18 1005 65 0 4.19 230 22:41 30.06.2020
552 Clouds 18 1009 62 0 2.51 216 22:18 30.06.2020
553 Clouds 18 1005 64 0 2.51 216 21:41 30.06.2020
554 Clouds 19 1005 64 0 2.86 229 21:19 30.06.2020
555 Clouds 19 1007 56 0 0.45 270 20:59 30.06.2020
556 Clouds 19 1005 60 0 2.86 229 20:40 30.06.2020
557 Clouds 19 1008 58 0 2.24 223 20:20 30.06.2020
558 Clouds 20 1005 58 0 3.76 252 19:43 30.06.2020
559 Clouds 20 1005 58 0 5.25 259 19:20 30.06.2020
560 Clouds 20 1005 58 0 5.25 259 19:20 30.06.2020
561 Clouds 20 1005 56 0 0.89 346 18:54 30.06.2020
562 Clouds 20 1005 56 0 0.45 293 18:36 30.06.2020
563 Clouds 20 1005 55 0 0.45 170 18:18 30.06.2020
564 Clouds 21 1005 51 0 0.45 300 17:38 30.06.2020
565 Clouds 21 1005 51 0 5.98 251 17:20 30.06.2020
566 Clouds 21 1008 49 0 6.71 242 16:56 30.06.2020
567 Clouds 21 1005 49 0 5.98 251 16:37 30.06.2020
568 Clouds 21 1007 43 0 2.24 292 16:19 30.06.2020
569 Clouds 21 1005 50 0 6.4 251 15:42 30.06.2020
570 Clouds 20 1005 49 0 6.9 249 15:23 30.06.2020
571 Clouds 20 1007 45 0 2.24 292 14:58 30.06.2020
572 Clouds 20 1007 45 0 2.24 292 14:58 30.06.2020
573 Clouds 20 1005 51 0 0.45 285 14:40 30.06.2020
574 Clouds 20 1009 51 0 5.36 242 14:21 30.06.2020
575 Clouds 19 1009 51 0 8.05 207 13:42 30.06.2020
576 Clouds 19 1006 54 0 7.44 243 13:21 30.06.2020
577 Clouds 19 1007 52 0 2.24 270 12:59 30.06.2020
578 Clouds 18 1006 58 0 7.44 243 12:41 30.06.2020
579 Clouds 18 1006 59 0 7.45 241 12:23 30.06.2020
580 Clouds 18 1008 53 0 2.68 292 11:59 30.06.2020
581 Clouds 17 1006 59 0 7.45 241 11:39 30.06.2020
582 Clouds 17 1010 61 0 2.24 236 11:20 30.06.2020
583 Clouds 17 1010 61 0 2.24 236 11:20 30.06.2020
584 Clouds 17 1008 55 0 3.13 292 10:59 30.06.2020
585 Clouds 19 1012 66 0 0.89 270 16:45 28.06.2020
586 Rain 20 1012 65 0 1.34 292 16:27 28.06.2020
587 Rain 20 1014 70 0 3.71 294 15:59 28.06.2020
588 Rain 20 1008 70 0 3.71 294 15:39 28.06.2020
589 Rain 21 1012 70 0 0.45 292 15:20 28.06.2020
590 Rain 21 1011 71 0 4.94 280 14:55 28.06.2020
591 Rain 21 1008 68 0 4.94 280 14:37 28.06.2020
592 Clouds 21 1008 69 0 5.67 255 14:19 28.06.2020
593 Clouds 21 1013 71 0 0.45 259 13:39 28.06.2020
594 Rain 21 1012 71 0 0.89 268 13:21 28.06.2020
595 Rain 21 1012 70 0 1.34 284 12:57 28.06.2020
596 Rain 21 1011 69 0 5.43 252 12:38 28.06.2020
597 Rain 21 1014 80 0 5.61 258 12:19 28.06.2020
598 Rain 22 1012 67 0 4.47 248 11:58 28.06.2020
599 Rain 22 1011 63 0 0.45 270 11:39 28.06.2020
600 Rain 22 1011 63 0 0.45 270 11:39 28.06.2020
601 Rain 22 1008 75 0 6.19 239 11:20 28.06.2020
602 Rain 22 1010 62 0 1.34 292 10:57 28.06.2020
603 Rain 22 1011 76 0 1.79 209 10:39 28.06.2020
604 Rain 22 1008 74 0 5.92 226 10:21 28.06.2020
605 Rain 20 1008 81 0 5.92 226 09:40 28.06.2020
606 Rain 19 1008 85 0 3.81 209 09:21 28.06.2020
607 Rain 19 1008 85 0 3.81 209 08:53 28.06.2020
608 Rain 19 1012 90 0 3.81 209 08:34 28.06.2020
609 Clouds 18 1011 92 0 1.79 49 07:53 28.06.2020
610 Clouds 19 1007 86 0 3.48 209 07:31 28.06.2020
611 Clouds 19 1007 85 0 2.55 199 06:53 28.06.2020
612 Clouds 19 1007 88 0 2.55 199 06:31 28.06.2020
613 Clouds 18 1007 88 0 2.03 200 05:30 28.06.2020
614 Clouds 18 1007 87 0 1.81 214 03:52 28.06.2020
615 Clouds 18 1011 85 0 1.79 40 02:51 28.06.2020
616 Clouds 19 1007 85 0 1.92 220 02:19 28.06.2020
617 Clear 20 1010 77 0 2.11 226 01:27 28.06.2020
618 Clear 19 1009 73 0 2.68 212 00:53 28.06.2020
619 Clear 20 1007 78 0 2.22 221 00:29 28.06.2020
620 Clear 20 1009 71 0 0.45 272 23:45 27.06.2020
621 Clear 21 1011 75 0 0.45 94 23:24 27.06.2020
622 Clear 21 1007 77 0 1.99 221 22:59 27.06.2020
623 Clear 21 1010 75 0 0.89 40 22:41 27.06.2020
624 Clear 21 1007 75 0 1.94 222 22:23 27.06.2020
625 Clear 22 1009 67 0 1.94 222 21:57 27.06.2020
626 Clear 23 1010 66 0 1.94 222 21:39 27.06.2020
627 Clear 23 1008 60 0 2.74 234 21:20 27.06.2020
628 Clear 24 1008 55 0 0.45 270 20:45 27.06.2020
629 Rain 25 1009 53 0 1.34 277 20:20 27.06.2020
630 Rain 26 1008 45 10000 4.1 240 20:00 27.06.2020
631 Rain 26 1009 53 0 1.34 241 19:37 27.06.2020
632 Rain 26 1009 50 0 3.58 240 19:19 27.06.2020
633 Rain 26 1009 48 10000 4.6 240 18:48 27.06.2020
634 Rain 26 1010 58 0 2.68 248 18:29 27.06.2020
635 Rain 27 1005 57 0 4.23 241 17:59 27.06.2020
636 Rain 27 1005 57 0 4.23 241 17:40 27.06.2020
637 Rain 27 1005 57 0 4.9 240 17:20 27.06.2020
638 Rain 26 1007 56 0 0.89 270 16:57 27.06.2020
639 Rain 27 1005 52 0 4.9 240 16:38 27.06.2020
640 Rain 27 1005 51 0 5.47 238 16:19 27.06.2020
641 Rain 24 1008 76 0 0.89 270 15:42 27.06.2020
642 Rain 25 1010 67 0 3.58 270 15:24 27.06.2020
643 Rain 25 1010 67 0 3.58 270 15:24 27.06.2020
644 Rain 26 1010 62 0 2.68 205 14:56 27.06.2020
645 Rain 26 1006 63 0 5.08 230 14:37 27.06.2020
646 Rain 27 1006 60 0 3.27 231 14:19 27.06.2020
647 Rain 27 1006 60 0 3.27 231 13:41 27.06.2020
648 Rain 26 1010 64 0 0.45 254 13:20 27.06.2020
649 Rain 26 1009 62 0 1.34 292 12:58 27.06.2020
650 Rain 25 1006 62 0 2.96 242 12:40 27.06.2020
651 Rain 24 1009 68 0 3.29 235 12:22 27.06.2020
652 Rain 24 1009 70 0 0.45 225 11:58 27.06.2020
653 Rain 23 1006 70 0 3.29 235 11:38 27.06.2020
654 Rain 23 1007 69 0 2.55 237 11:19 27.06.2020
655 Rain 23 1011 74 0 1.34 155 10:41 27.06.2020
656 Clear 23 1011 73 0 2.17 226 10:19 27.06.2020
657 Clear 22 1011 74 0 2.17 226 09:58 27.06.2020
658 Clear 21 1006 74 0 2.17 226 09:39 27.06.2020
659 Clear 20 1009 75 0 1.57 211 09:20 27.06.2020
660 Clear 20 1011 82 0 2.04 219 08:42 27.06.2020
661 Clouds 18 1011 80 0 1.21 195 08:23 27.06.2020
662 Clouds 19 1011 80 0 1.21 195 07:48 27.06.2020
663 Clouds 19 1011 81 0 1.34 38 07:25 27.06.2020
664 Clouds 19 1006 75 0 1.34 195 06:51 27.06.2020
665 Clouds 16 1006 77 0 1.34 195 06:33 27.06.2020
666 Clouds 16 1006 76 0 0.99 170 04:51 27.06.2020
667 Clouds 16 1006 78 0 0.85 172 04:18 27.06.2020
668 Clouds 16 1010 77 0 3.13 22 03:46 27.06.2020
669 Clear 17 1011 76 0 2.68 48 02:42 27.06.2020
670 Clear 17 1011 76 0 1.79 41 02:23 27.06.2020
671 Clear 18 1007 74 0 1.12 170 01:34 27.06.2020
672 Clear 18 1007 76 0 1.07 168 00:47 27.06.2020
673 Clear 19 1009 74 0 1.1 154 23:56 26.06.2020
674 Clear 19 1007 73 0 1.1 154 23:37 26.06.2020
675 Clear 19 1010 71 0 0.9 151 23:19 26.06.2020
676 Clear 20 1008 72 0 0.9 151 22:42 26.06.2020
677 Clear 20 1011 68 0 0.45 107 22:24 26.06.2020
678 Clear 22 1010 66 0 1.41 155 21:58 26.06.2020
679 Clear 21 1007 68 0 1.41 155 21:39 26.06.2020
680 Clear 23 1010 59 0 1.6 138 21:21 26.06.2020
681 Clear 24 1010 52 0 1.6 138 20:58 26.06.2020
682 Clear 24 1011 62 0 0.45 82 20:38 26.06.2020
683 Rain 26 1007 53 0 2.26 133 20:18 26.06.2020
684 Rain 23 1012 59 0 2.26 133 19:40 26.06.2020
685 Rain 26 1012 37 10000 4.1 100 19:20 26.06.2020
686 Rain 26 1012 37 10000 4.1 100 18:43 26.06.2020
687 Rain 26 1012 37 10000 4.1 100 18:25 26.06.2020
688 Rain 27 1010 53 0 3.26 133 17:54 26.06.2020
689 Rain 26 1010 49 0 3.26 133 17:36 26.06.2020
690 Rain 26 1008 49 0 3.45 118 17:18 26.06.2020
691 Rain 26 1011 48 0 3.45 118 16:42 26.06.2020
692 Rain 26 1011 46 0 0.45 270 16:23 26.06.2020
693 Rain 26 1013 34 10000 5.7 110 15:41 26.06.2020
694 Clear 28 1014 37 10000 5.1 140 15:22 26.06.2020
695 Clear 27 1013 49 0 1.34 40 14:58 26.06.2020
696 Clear 27 1009 51 0 4.04 116 14:40 26.06.2020
697 Clear 26 1009 51 0 3.81 131 14:21 26.06.2020
698 Clear 26 1010 49 0 0.45 308 13:47 26.06.2020
699 Clear 26 1013 49 0 2.24 105 13:25 26.06.2020
700 Clear 26 1013 48 0 4.08 130 12:59 26.06.2020
701 Clear 26 1010 53 0 4.08 130 12:40 26.06.2020
702 Clear 26 1013 52 0 4.33 129 12:22 26.06.2020
703 Clear 25 1013 52 0 4.33 129 11:57 26.06.2020
704 Clear 25 1013 57 0 0.45 270 11:39 26.06.2020
705 Clear 24 1011 57 0 4.29 131 11:20 26.06.2020
706 Clear 23 1014 55 0 4.29 131 10:57 26.06.2020
707 Clear 24 1014 53 0 4.29 131 10:38 26.06.2020
708 Clear 23 1014 58 0 4.02 129 10:18 26.06.2020
709 Clear 23 1017 73 0 4.02 129 09:43 26.06.2020
710 Clear 21 1016 67 0 0.45 112 09:23 26.06.2020
711 Clear 21 1016 67 0 0.45 112 08:55 26.06.2020
712 Clear 19 1016 73 0 2.41 130 08:28 26.06.2020
713 Clear 19 1016 73 0 2.41 130 08:28 26.06.2020
714 Clear 18 1016 81 0 2.57 127 07:53 26.06.2020
715 Clear 18 1016 81 0 1.78 130 07:24 26.06.2020
716 Clear 18 1016 81 0 1.78 130 06:58 26.06.2020
717 Clear 15 1015 82 0 1.8 127 06:36 26.06.2020
718 Clear 15 1015 86 0 1.47 125 06:18 26.06.2020
719 Clear 15 1017 80 0 1.34 39 05:40 26.06.2020
720 Clear 14 1014 87 0 1.33 114 03:30 26.06.2020
721 Clear 16 1016 78 0 1.55 125 02:22 26.06.2020
722 Clear 17 1018 67 0 0.45 50 01:19 26.06.2020
723 Clear 18 1016 65 0 2.15 124 00:40 26.06.2020
724 Clear 18 1017 62 0 2.38 117 00:19 26.06.2020
725 Clear 17 1017 72 0 2.38 117 23:41 25.06.2020
726 Clear 18 1017 68 0 2.13 116 23:18 25.06.2020
727 Clear 19 1017 66 0 2.13 116 22:56 25.06.2020
728 Clear 20 1017 63 0 2.13 116 22:36 25.06.2020
729 Clear 20 1014 63 0 2.18 114 22:18 25.06.2020
730 Clear 20 1018 61 0 2.18 114 21:54 25.06.2020
731 Clear 21 1018 63 0 2.18 114 21:36 25.06.2020
732 Clear 22 1014 64 0 2.37 107 21:18 25.06.2020
733 Clear 23 1018 55 0 2.37 107 20:44 25.06.2020
734 Clear 24 1018 53 0 0.45 115 20:23 25.06.2020
735 Clear 24 1014 53 0 3.6 111 19:58 25.06.2020
736 Clear 24 1018 51 0 1.34 123 19:39 25.06.2020
737 Clear 25 1018 51 0 1.34 123 19:19 25.06.2020
738 Clear 24 1018 50 0 1.34 84 18:56 25.06.2020
739 Clear 24 1015 56 0 4.47 105 18:37 25.06.2020
740 Clear 25 1017 45 0 1.34 90 18:19 25.06.2020
741 Clear 25 1017 53 0 0.89 112 17:41 25.06.2020
742 Clear 25 1017 55 0 1.34 90 17:19 25.06.2020
743 Clear 25 1017 55 0 1.79 90 16:55 25.06.2020
744 Clear 24 1015 62 0 4.97 98 16:36 25.06.2020
745 Clear 25 1018 57 0 0.89 90 16:18 25.06.2020
746 Clear 25 1015 66 0 4.84 99 15:41 25.06.2020
747 Clear 25 1016 69 0 4.77 90 15:19 25.06.2020
748 Clear 24 1020 63 0 1.34 142 14:43 25.06.2020
749 Clouds 24 1020 63 0 1.34 142 14:23 25.06.2020
750 Clouds 24 1019 67 0 1.79 90 13:56 25.06.2020
751 Clouds 23 1016 77 0 4.2 79 13:38 25.06.2020
752 Rain 22 1019 68 0 0.45 90 13:19 25.06.2020
753 Rain 22 1019 70 0 0.45 90 12:45 25.06.2020
754 Rain 22 1020 76 0 2.24 119 12:21 25.06.2020
755 Rain 21 1019 67 0 0.45 90 11:58 25.06.2020
756 Rain 21 1016 92 0 3.51 71 11:38 25.06.2020
757 Clouds 21 1020 79 0 3.81 61 11:20 25.06.2020
758 Clouds 21 1020 82 0 3.81 61 10:42 25.06.2020
759 Clouds 21 1020 82 0 3.5 51 10:23 25.06.2020
760 Clouds 20 1016 77 0 3.5 51 09:42 25.06.2020
761 Clouds 19 1020 82 0 2.56 53 09:23 25.06.2020
762 Clouds 19 1020 82 0 2.56 53 09:23 25.06.2020
763 Clouds 19 1022 87 0 2.56 53 08:59 25.06.2020
764 Clouds 18 1016 80 0 2.56 53 08:40 25.06.2020
765 Clouds 18 1016 79 0 2.56 58 08:18 25.06.2020
766 Clouds 18 1020 87 0 2.56 58 07:42 25.06.2020
767 Clouds 19 1016 72 0 1.93 46 07:24 25.06.2020
768 Clouds 17 1017 75 0 1.93 46 06:37 25.06.2020
769 Clear 14 1020 93 0 1.66 49 06:18 25.06.2020
770 Clear 14 1021 89 0 1.66 49 05:31 25.06.2020
771 Clear 14 1021 89 0 1.4 50 03:42 25.06.2020
772 Clear 15 1022 88 0 1.42 61 02:56 25.06.2020
773 Clear 16 1019 80 0 1.42 61 02:37 25.06.2020
774 Clouds 16 1022 84 0 1.53 47 01:42 25.06.2020
775 Clouds 16 1023 84 0 1.59 59 00:51 25.06.2020
776 Clouds 17 1023 82 0 1.52 66 00:24 25.06.2020
777 Clouds 17 1022 78 0 1.52 66 23:58 24.06.2020
778 Clouds 18 1019 78 0 1.52 66 23:38 24.06.2020
779 Clouds 19 1022 72 0 1.96 69 23:19 24.06.2020
780 Clouds 19 1019 75 0 1.96 69 22:43 24.06.2020
781 Clouds 19 1023 68 0 1.34 82 22:21 24.06.2020
782 Clouds 19 1023 68 0 1.34 82 21:57 24.06.2020
783 Clouds 20 1019 73 0 2.06 61 21:38 24.06.2020
784 Clouds 20 1023 66 0 0.45 58 21:19 24.06.2020
785 Clouds 20 1022 64 0 1.75 55 20:59 24.06.2020
786 Clouds 21 1019 68 0 1.75 55 20:40 24.06.2020
787 Clouds 21 1022 61 0 2.68 65 20:22 24.06.2020
788 Clouds 22 1022 60 0 1.34 19 19:59 24.06.2020
789 Clouds 22 1019 64 0 2.68 65 19:39 24.06.2020
790 Clouds 22 1019 64 0 3.09 65 19:21 24.06.2020
791 Clouds 23 1023 57 0 1.34 32 18:58 24.06.2020
792 Clouds 22 1019 61 0 3.09 65 18:40 24.06.2020
793 Clouds 23 1019 60 0 3.4 70 18:21 24.06.2020
794 Clouds 23 1023 53 0 0.89 40 17:56 24.06.2020
795 Clouds 23 1023 52 0 3.4 70 17:38 24.06.2020
796 Clear 23 1019 54 0 3.93 72 17:18 24.06.2020
797 Clear 24 1022 49 0 0.45 112 16:56 24.06.2020
798 Clear 24 1022 49 0 0.89 90 16:37 24.06.2020
799 Clear 24 1019 52 0 3.82 71 16:19 24.06.2020
800 Clear 24 1023 47 0 0.45 308 15:55 24.06.2020
801 Clear 24 1019 49 0 3.82 71 15:37 24.06.2020
802 Clear 24 1019 49 0 3.82 71 15:37 24.06.2020
803 Clear 24 1019 47 0 3.66 72 15:19 24.06.2020
804 Clear 24 1023 53 0 0.45 223 14:42 24.06.2020
805 Clear 24 1020 52 0 3.37 73 14:23 24.06.2020
806 Clear 24 1023 53 0 0.45 223 13:43 24.06.2020
807 Clear 24 1020 51 0 3.08 75 13:22 24.06.2020
808 Clear 24 1023 48 0 1.34 90 12:55 24.06.2020
809 Clear 24 1023 48 0 1.34 90 12:55 24.06.2020
810 Clear 23 1020 55 0 3.08 75 12:36 24.06.2020
811 Clear 22 1025 41 10000 2.1 0 12:18 24.06.2020
812 Clear 22 1020 55 0 2.89 81 11:42 24.06.2020
813 Clouds 21 1025 50 0 1.34 226 11:24 24.06.2020
814 Clouds 21 1020 57 0 2.65 82 10:59 24.06.2020
815 Clouds 21 1020 55 0 2.65 82 10:40 24.06.2020
816 Clear 21 1023 51 0 0.45 112 10:18 24.06.2020
817 Clear 19 1024 71 0 2.06 80 09:42 24.06.2020
818 Clear 18 1024 71 0 1.61 75 09:21 24.06.2020
819 Clear 17 1024 75 0 1.61 75 08:42 24.06.2020
820 Clear 18 1024 75 0 1.3 63 08:21 24.06.2020
821 Clear 17 1026 73 0 1.3 63 07:51 24.06.2020
822 Clear 17 1023 66 0 1.3 63 07:31 24.06.2020
823 Clear 14 1023 76 0 1.07 65 06:51 24.06.2020
824 Clear 13 1023 83 0 1.01 69 06:25 24.06.2020
825 Clear 12 1023 82 0 1.01 69 05:56 24.06.2020
826 Clear 13 1023 82 0 0.73 75 04:46 24.06.2020
827 Clear 13 1024 71 0 1.34 31 04:28 24.06.2020
828 Clear 13 1023 81 0 0.9 84 03:34 24.06.2020
829 Clear 14 1023 77 0 1.05 84 02:50 24.06.2020
830 Clear 14 1024 71 0 1.04 86 01:41 24.06.2020
831 Clear 15 1023 73 0 1.18 94 00:47 24.06.2020
832 Clear 15 1024 70 0 1.33 94 00:27 24.06.2020
833 Clear 15 1024 67 0 1.33 94 23:46 23.06.2020
834 Clear 16 1024 70 0 1.3 96 23:20 23.06.2020
835 Clear 17 1021 74 0 1.3 96 22:54 23.06.2020
836 Clear 17 1021 74 0 1.3 96 22:36 23.06.2020
837 Clouds 17 1023 55 0 1.56 81 22:18 23.06.2020
838 Clouds 18 1021 74 0 1.56 81 21:41 23.06.2020
839 Clear 21 1023 60 0 1.23 28 21:20 23.06.2020
840 Clear 21 1023 60 0 1.23 28 21:20 23.06.2020
841 Clear 22 1023 50 0 1.23 28 20:56 23.06.2020
842 Clear 22 1023 50 0 1.23 28 20:56 23.06.2020
843 Clear 22 1023 46 0 1.23 28 20:37 23.06.2020
844 Clear 24 1021 48 0 1.73 1 20:19 23.06.2020
845 Clear 24 1023 41 0 0.89 42 19:45 23.06.2020
846 Clear 25 1024 46 0 1.34 46 19:27 23.06.2020
847 Clear 25 1024 44 0 1.79 285 18:42 23.06.2020
848 Clear 25 1021 37 0 2.74 357 18:19 23.06.2020
849 Clear 25 1021 37 0 2.74 357 18:19 23.06.2020
850 Clear 25 1024 48 0 1.34 346 17:59 23.06.2020
851 Clear 25 1025 48 0 2.24 340 17:39 23.06.2020
852 Clear 24 1025 49 0 1.34 294 17:21 23.06.2020
853 Clear 24 1025 47 0 1.79 312 16:56 23.06.2020
854 Clear 25 1024 27 10000 3.1 0 16:38 23.06.2020
855 Clear 25 1024 27 10000 3.1 0 16:38 23.06.2020
856 Clear 24 1023 45 0 2.68 1 16:20 23.06.2020
857 Clear 24 1025 45 0 1.79 288 15:55 23.06.2020
858 Clear 24 1023 42 0 0.45 112 15:37 23.06.2020
859 Clear 23 1024 53 0 3.43 348 15:18 23.06.2020
860 Clear 23 1025 48 0 3.13 263 14:42 23.06.2020
861 Clear 23 1025 48 0 3.13 263 14:19 23.06.2020
862 Clear 23 1026 48 0 1.34 355 13:56 23.06.2020
863 Clear 23 1025 49 0 3.13 282 13:38 23.06.2020
864 Clear 23 1025 49 0 3.13 282 13:20 23.06.2020
865 Clear 22 1025 58 0 2.68 290 12:41 23.06.2020
866 Clear 22 1025 58 0 2.68 290 12:22 23.06.2020
867 Clear 21 1026 55 0 0.89 324 11:55 23.06.2020
868 Clear 21 1026 56 0 1.34 278 11:37 23.06.2020
869 Clear 21 1024 54 0 2.2 331 11:19 23.06.2020
870 Clear 21 1025 54 0 0.45 292 10:55 23.06.2020
871 Clear 21 1025 68 0 0.89 254 10:37 23.06.2020
872 Clear 18 1021 74 0 1.47 330 10:19 23.06.2020
873 Clear 17 1026 74 0 1.47 330 09:41 23.06.2020
874 Clear 17 1026 81 0 1.11 336 09:20 23.06.2020
875 Clear 15 1025 71 0 0.92 317 08:48 23.06.2020
876 Clear 15 1024 74 0 0.92 317 08:29 23.06.2020
877 Clear 14 1024 79 0 0.71 318 07:59 23.06.2020
878 Clear 14 1025 91 0 0.71 318 07:39 23.06.2020
879 Clear 14 1025 90 0 0.4 306 07:21 23.06.2020
880 Clear 13 1021 74 0 0.4 306 06:48 23.06.2020
881 Clear 12 1024 95 0 0.4 306 06:30 23.06.2020
882 Clear 12 1021 77 0 0.11 336 05:39 23.06.2020
883 Clear 12 1024 88 0 0.35 42 03:39 23.06.2020
884 Clear 12 1024 90 0 0.77 26 02:56 23.06.2020
885 Clear 13 1023 89 0 0.77 26 02:36 23.06.2020
886 Clear 13 1024 87 0 1.23 15 01:51 23.06.2020
887 Clear 14 1023 85 0 1.23 15 01:32 23.06.2020
888 Clear 14 1023 83 0 1.39 5 00:56 23.06.2020
889 Clear 14 1024 76 0 2.24 18 00:24 23.06.2020
890 Clear 15 1023 79 0 1.67 348 23:56 22.06.2020
891 Clear 15 1023 78 0 1.67 348 23:38 22.06.2020
892 Clear 15 1023 77 0 1.6 334 23:19 22.06.2020
893 Clear 16 1023 75 0 1.6 334 22:56 22.06.2020
894 Clear 16 1020 71 0 1.6 334 22:37 22.06.2020
895 Clear 16 1020 73 0 1.86 324 22:19 22.06.2020
896 Clear 17 1023 70 0 1.86 324 21:57 22.06.2020
897 Clear 17 1023 68 0 1.34 25 21:38 22.06.2020
898 Clear 19 1022 58 0 2.31 315 21:20 22.06.2020
899 Clear 20 1019 54 0 2.59 330 20:41 22.06.2020
900 Clear 21 1023 55 0 0.45 286 20:22 22.06.2020
901 Clear 22 1024 48 0 0.89 337 19:45 22.06.2020
902 Clear 22 1023 55 0 0.45 304 19:21 22.06.2020
903 Clear 23 1022 56 0 1.79 303 18:59 22.06.2020
904 Clear 23 1022 45 0 0.45 270 18:40 22.06.2020
905 Clear 23 1022 45 0 4.12 326 18:21 22.06.2020
906 Clear 22 1022 45 0 0.45 270 17:57 22.06.2020
907 Clear 22 1020 52 0 4.12 326 17:38 22.06.2020
908 Clear 22 1020 51 0 4.41 326 17:20 22.06.2020
909 Clear 22 1023 43 0 4.41 326 16:55 22.06.2020
910 Clear 22 1023 45 0 0.89 270 16:37 22.06.2020
911 Clear 22 1020 54 0 4.73 324 16:18 22.06.2020
912 Clear 22 1024 64 0 3.13 275 15:44 22.06.2020
913 Clear 23 1023 50 0 0.45 292 15:25 22.06.2020
914 Clear 22 1024 64 0 4.02 253 14:57 22.06.2020
915 Clear 22 1020 61 0 4.64 325 14:37 22.06.2020
916 Clouds 21 1020 61 0 4.75 319 14:19 22.06.2020
917 Clear 21 1019 62 0 4.22 329 13:54 22.06.2020
918 Clear 21 1022 61 0 0.45 270 13:36 22.06.2020
919 Clear 21 1019 62 0 4.63 328 13:18 22.06.2020
920 Clear 20 1023 70 0 0.45 287 12:41 22.06.2020
921 Clear 21 1019 67 0 4.58 324 12:22 22.06.2020
922 Clear 19 1019 73 0 4.58 324 11:38 22.06.2020
923 Clear 19 1019 73 0 4.58 324 11:38 22.06.2020
924 Clear 19 1018 75 0 4.17 317 11:19 22.06.2020
925 Clear 19 1022 75 0 4.17 317 10:57 22.06.2020
926 Clear 19 1022 76 0 3.58 263 10:38 22.06.2020
927 Clear 19 1022 77 0 3.13 302 10:19 22.06.2020
928 Clear 18 1021 77 0 3.38 313 09:58 22.06.2020
929 Clear 18 1021 74 0 3.38 313 09:39 22.06.2020
930 Clouds 18 1021 73 0 3.42 310 09:19 22.06.2020
931 Clouds 18 1021 80 0 2.68 302 08:56 22.06.2020
932 Clouds 18 1021 84 0 3.42 310 08:38 22.06.2020
933 Clouds 18 1021 81 0 0.45 287 08:19 22.06.2020
934 Clouds 17 1020 80 0 2.85 313 07:48 22.06.2020
935 Clouds 17 1020 78 0 2.49 295 07:26 22.06.2020
936 Clouds 15 1016 81 0 2.49 295 06:39 22.06.2020
937 Clouds 14 1016 85 0 2.03 282 06:21 22.06.2020
938 Clouds 15 1020 86 0 2.03 282 05:42 22.06.2020
939 Clouds 16 1018 80 0 1.87 246 03:48 22.06.2020
940 Clear 16 1019 76 0 1.28 178 02:23 22.06.2020
941 Clear 16 1020 80 0 2.24 42 01:18 22.06.2020
942 Clear 16 1016 80 0 1.29 176 00:39 22.06.2020
943 Clear 16 1018 74 0 0.76 174 23:58 21.06.2020
944 Clear 16 1018 75 0 0.76 174 23:39 21.06.2020
945 Clear 16 1018 75 0 0.76 174 23:39 21.06.2020
946 Clear 16 1016 80 0 0.58 173 23:20 21.06.2020
947 Clear 16 1018 73 0 0.58 173 22:57 21.06.2020
948 Clear 17 1019 77 0 2.24 35 22:37 21.06.2020
949 Clear 17 1019 75 0 2.24 28 22:19 21.06.2020
950 Clear 19 1018 70 0 0.4 175 21:56 21.06.2020
951 Clear 19 1015 72 0 0.4 175 21:38 21.06.2020
952 Clouds 20 1015 71 0 0.14 30 21:20 21.06.2020
953 Clouds 21 1017 60 0 0.14 30 20:57 21.06.2020
954 Clouds 22 1018 62 0 0.14 30 20:37 21.06.2020
955 Clear 23 1019 52 0 0.45 321 20:18 21.06.2020
956 Clear 23 1018 53 0 3.13 250 19:55 21.06.2020
957 Clear 23 1015 53 0 0.74 344 19:37 21.06.2020
958 Clear 23 1018 53 0 3.13 250 19:18 21.06.2020
959 Clear 24 1015 53 0 1.78 323 18:40 21.06.2020
960 Clear 24 1015 51 0 2.33 322 18:22 21.06.2020
961 Clear 24 1017 47 0 0.45 112 17:59 21.06.2020
962 Clear 24 1015 49 0 2.33 322 17:38 21.06.2020
963 Clear 24 1018 49 0 2.24 347 17:19 21.06.2020
964 Clear 24 1015 51 0 2.92 308 16:41 21.06.2020
965 Clear 23 1015 51 0 2.79 311 16:23 21.06.2020
966 Clear 24 1018 45 0 1.34 270 15:57 21.06.2020
967 Clear 23 1015 51 0 2.79 311 15:37 21.06.2020
968 Clear 23 1018 48 0 1.34 305 15:19 21.06.2020
969 Clear 22 1018 48 0 0.45 315 14:39 21.06.2020
970 Clear 22 1015 53 0 2.97 319 14:20 21.06.2020
971 Clouds 22 1018 48 0 3.02 321 13:58 21.06.2020
972 Clouds 22 1016 52 0 3.02 321 13:40 21.06.2020
973 Clouds 22 1018 46 0 0.45 270 13:19 21.06.2020
974 Clouds 21 1019 49 0 3.19 314 12:45 21.06.2020
975 Clouds 20 1021 60 0 1.34 295 12:26 21.06.2020
976 Clouds 21 1020 56 0 2.68 225 11:59 21.06.2020
977 Clouds 20 1020 59 0 4.02 209 11:41 21.06.2020
978 Clouds 20 1016 59 0 3.27 302 11:23 21.06.2020
979 Clouds 20 1019 58 0 3.27 302 10:57 21.06.2020
980 Clouds 20 1016 68 0 3.27 302 10:38 21.06.2020
981 Clouds 20 1016 70 0 2.6 301 10:20 21.06.2020
982 Clouds 18 1016 69 0 2.6 301 09:43 21.06.2020
983 Clear 16 1021 78 0 0.89 262 09:22 21.06.2020
984 Clear 16 1021 80 0 1.34 235 08:57 21.06.2020
985 Clear 16 1016 71 0 1.92 309 08:39 21.06.2020
986 Clouds 15 1016 73 0 1.64 315 08:19 21.06.2020
987 Clouds 13 1016 86 0 1.64 315 07:41 21.06.2020
988 Clouds 12 1016 87 0 1.17 311 07:23 21.06.2020
989 Clouds 12 1019 96 0 1.17 311 06:50 21.06.2020
990 Clouds 11 1018 95 0 1.19 301 06:28 21.06.2020
991 Clouds 11 1018 94 0 1.19 301 05:57 21.06.2020
992 Clouds 12 1019 95 0 1.07 295 04:34 21.06.2020
993 Clouds 12 1019 92 0 1.18 277 03:19 21.06.2020
994 Clouds 13 1016 91 0 1.18 277 02:36 21.06.2020
995 Clouds 14 1016 88 0 0.78 274 01:39 21.06.2020
996 Clouds 14 1016 88 0 0.79 345 01:19 21.06.2020
997 Clouds 14 1019 86 0 0.79 345 00:45 21.06.2020
998 Clouds 15 1019 83 0 1.25 349 00:25 21.06.2020
999 Clouds 15 1019 82 0 1.25 349 23:45 20.06.2020
1000 Clouds 15 1016 86 0 1.6 333 23:22 20.06.2020
1001 Clouds 15 1018 77 0 1.6 333 22:57 20.06.2020
1002 Clouds 16 1018 76 0 1.6 333 22:39 20.06.2020
1003 Clouds 16 1019 81 0 1.78 321 22:20 20.06.2020
1004 Clouds 17 1018 72 0 1.78 321 21:58 20.06.2020
1005 Clouds 18 1015 75 0 1.78 321 21:40 20.06.2020
1006 Clouds 19 1019 69 0 0.45 286 21:21 20.06.2020
1007 Clouds 19 1018 63 0 2.31 313 20:58 20.06.2020
1008 Clouds 20 1015 65 0 2.31 313 20:40 20.06.2020
1009 Clouds 20 1018 64 0 0.45 288 20:20 20.06.2020
1010 Clouds 20 1018 64 0 0.89 307 19:57 20.06.2020
1011 Clouds 20 1014 62 0 3.14 315 19:38 20.06.2020
1012 Clouds 20 1018 63 0 1.79 286 19:19 20.06.2020
1013 Clouds 21 1018 63 0 1.79 303 18:42 20.06.2020
1014 Clouds 21 1014 54 0 4.68 318 18:20 20.06.2020
1015 Clouds 21 1014 57 0 4.68 318 17:57 20.06.2020
1016 Clouds 22 1014 58 0 4.68 318 17:39 20.06.2020
1017 Clouds 21 1019 60 0 2.68 290 17:20 20.06.2020
1018 Clouds 22 1015 54 0 4.91 313 16:42 20.06.2020
1019 Clouds 21 1015 56 0 5.37 312 16:19 20.06.2020
1020 Clouds 22 1019 63 0 2.24 315 15:58 20.06.2020
1021 Clouds 21 1015 58 0 5.37 312 15:40 20.06.2020
1022 Clouds 21 1015 56 0 5.41 307 15:18 20.06.2020
1023 Clouds 21 1015 58 0 5.41 307 14:43 20.06.2020
1024 Clouds 21 1015 61 0 5.15 312 14:21 20.06.2020
1025 Clouds 21 1015 63 0 5.15 312 13:46 20.06.2020
1026 Clouds 21 1018 57 0 0.45 292 13:26 20.06.2020
1027 Clouds 20 1019 67 0 5.81 269 12:59 20.06.2020
1028 Clouds 20 1015 64 0 5.11 308 12:40 20.06.2020
1029 Clouds 20 1019 69 0 4.02 299 12:20 20.06.2020
1030 Clouds 19 1015 67 0 5.16 307 11:55 20.06.2020
1031 Clouds 19 1015 70 0 5.16 307 11:37 20.06.2020
1032 Clouds 19 1015 69 0 5.04 308 11:19 20.06.2020
1033 Clouds 19 1018 67 0 0.45 270 10:46 20.06.2020
1034 Clouds 18 1015 74 0 5.08 309 10:22 20.06.2020
1035 Clouds 18 1019 81 0 3.13 292 09:55 20.06.2020
1036 Clouds 17 1014 79 0 5.08 309 09:37 20.06.2020
1037 Clouds 17 1018 73 0 0.45 270 09:19 20.06.2020
1038 Clouds 16 1018 80 0 4.18 308 08:46 20.06.2020
1039 Clouds 16 1018 96 0 0.45 296 08:27 20.06.2020
1040 Clouds 15 1014 89 0 3.61 305 07:51 20.06.2020
1041 Clouds 14 1017 91 0 2.88 303 07:28 20.06.2020
1042 Clouds 14 1017 94 0 2.88 303 06:55 20.06.2020
1043 Clouds 14 1014 91 0 1.94 307 06:23 20.06.2020
1044 Clouds 14 1014 91 0 1.94 307 06:23 20.06.2020
1045 Clouds 14 1014 89 0 1.94 307 05:52 20.06.2020
1046 Clouds 14 1017 94 0 1.82 308 04:58 20.06.2020
1047 Clouds 15 1016 90 0 1.53 293 02:27 20.06.2020
1048 Clouds 16 1013 84 0 1.53 293 01:48 20.06.2020
1049 Clouds 16 1016 88 0 1.7 293 00:57 20.06.2020
1050 Clouds 16 1013 85 0 1.69 293 00:21 20.06.2020
1051 Clouds 16 1016 92 0 1.69 293 23:56 19.06.2020
1052 Clouds 16 1016 92 0 1.69 293 23:56 19.06.2020
1053 Clouds 16 1013 85 0 1.69 293 23:37 19.06.2020
1054 Clouds 16 1012 86 0 1.75 297 23:18 19.06.2020
1055 Clouds 16 1012 81 0 1.75 297 22:41 19.06.2020
1056 Clouds 17 1015 88 0 1.83 293 22:22 19.06.2020
1057 Clouds 18 1014 80 0 1.83 293 21:59 19.06.2020
1058 Clouds 18 1012 80 0 1.83 293 21:38 19.06.2020
1059 Clouds 19 1014 69 0 2.28 300 21:18 19.06.2020
1060 Clouds 19 1015 76 0 1.87 295 20:58 19.06.2020
1061 Clouds 20 1011 69 0 1.87 295 20:40 19.06.2020
1062 Clouds 20 1011 67 0 2.52 304 20:21 19.06.2020
1063 Clouds 20 1013 69 0 2.52 304 19:57 19.06.2020
1064 Clouds 21 1011 64 0 2.52 304 19:39 19.06.2020
1065 Rain 21 1011 65 0 3.19 306 19:21 19.06.2020
1066 Rain 21 1013 65 0 3.19 306 18:55 19.06.2020
1067 Rain 21 1010 60 0 3.19 306 18:37 19.06.2020
1068 Rain 21 1010 60 0 3.19 306 18:37 19.06.2020
1069 Rain 21 1011 62 0 3.51 307 18:19 19.06.2020
1070 Rain 21 1011 66 0 3.51 307 17:40 19.06.2020
1071 Rain 21 1010 67 0 3.68 311 17:22 19.06.2020
1072 Rain 21 1014 73 0 1.34 345 16:57 19.06.2020
1073 Rain 22 1013 66 0 0.45 292 16:37 19.06.2020
1074 Rain 22 1010 62 0 4.15 313 16:19 19.06.2020
1075 Rain 22 1010 65 0 4.15 313 15:43 19.06.2020
1076 Rain 22 1013 65 0 4.37 312 15:25 19.06.2020
1077 Rain 21 1014 76 0 0.89 300 14:56 19.06.2020
1078 Rain 21 1010 66 0 4.37 312 14:38 19.06.2020
1079 Rain 22 1010 66 0 4.76 307 14:20 19.06.2020
1080 Rain 21 1013 67 0 4.76 307 13:45 19.06.2020
1081 Rain 21 1013 67 0 0.89 270 13:27 19.06.2020
1082 Rain 20 1014 83 0 1.34 242 12:58 19.06.2020
1083 Rain 20 1014 87 0 1.79 273 12:40 19.06.2020
1084 Clouds 20 1014 85 0 1.79 252 12:18 19.06.2020
1085 Clouds 19 1014 93 0 0.45 271 11:40 19.06.2020
1086 Clouds 19 1011 92 0 4.55 299 11:19 19.06.2020
1087 Clouds 18 1015 97 0 4.55 299 10:59 19.06.2020
1088 Clouds 17 1015 10 0 4.55 299 10:41 19.06.2020
1089 Clouds 17 1015 10 0 4.18 297 10:19 19.06.2020
1090 Clouds 16 1010 10 0 4.18 297 09:44 19.06.2020
1091 Clouds 16 1013 95 0 3.49 291 09:25 19.06.2020
1092 Clouds 14 1012 96 0 0.45 292 08:58 19.06.2020
1093 Clouds 14 1012 97 0 2.99 285 08:38 19.06.2020
1094 Clouds 14 1010 10 0 2.43 282 08:20 19.06.2020
1095 Clouds 14 1012 97 0 2.43 282 07:41 19.06.2020
1096 Clouds 14 1010 10 0 1.78 277 07:21 19.06.2020
1097 Clouds 14 1012 98 0 1.78 277 06:45 19.06.2020
1098 Clouds 12 1012 97 0 1.58 270 06:21 19.06.2020
1099 Clouds 12 1013 98 0 1.47 277 04:59 19.06.2020
1100 Clouds 12 1009 10 0 1.4 271 03:31 19.06.2020
1101 Clouds 13 1009 10 0 1.52 259 02:19 19.06.2020
1102 Clouds 13 1013 98 0 1.31 261 00:44 19.06.2020
1103 Clouds 13 1009 10 0 1.22 268 00:22 19.06.2020
1104 Clouds 14 1012 96 0 1.22 268 23:57 18.06.2020
1105 Clouds 14 1013 98 0 1.22 268 23:38 18.06.2020
1106 Clouds 14 1012 98 0 1.26 256 23:20 18.06.2020
1107 Clouds 14 1009 10 0 1.26 256 22:40 18.06.2020
1108 Clouds 14 1009 10 0 1.36 262 22:20 18.06.2020
1109 Clouds 14 1011 95 0 1.36 262 21:56 18.06.2020
1110 Clouds 14 1012 98 0 1.36 262 21:37 18.06.2020
1111 Clouds 14 1011 95 0 1.32 277 21:18 18.06.2020
1112 Clouds 14 1012 98 0 1.32 277 20:40 18.06.2020
1113 Clouds 14 1011 95 0 1.26 273 20:20 18.06.2020
1114 Clouds 14 1011 95 0 1.26 273 19:57 18.06.2020
1115 Clouds 15 1012 98 0 1.26 273 19:38 18.06.2020
1116 Clouds 15 1008 10 0 1.6 295 19:19 18.06.2020
1117 Clouds 15 1010 94 0 1.6 295 18:39 18.06.2020
1118 Clouds 15 1007 10 0 1.93 281 18:21 18.06.2020
1119 Clouds 15 1012 98 0 1.93 281 17:54 18.06.2020
1120 Clouds 15 1011 94 0 1.93 281 17:36 18.06.2020
1121 Clouds 15 1008 10 0 2.14 279 17:18 18.06.2020
1122 Clouds 15 1008 10 0 2.14 279 16:42 18.06.2020
1123 Rain 15 1008 10 0 0.45 73 16:24 18.06.2020
1124 Rain 15 1012 98 0 0.45 319 15:58 18.06.2020
1125 Rain 15 1012 98 0 0.89 271 15:39 18.06.2020
1126 Rain 15 1010 95 0 2.73 273 15:20 18.06.2020
1127 Rain 16 1011 98 0 0.45 260 14:56 18.06.2020
1128 Rain 16 1007 10 0 2.73 273 14:38 18.06.2020
1129 Rain 16 1010 95 0 2.71 259 14:20 18.06.2020
1130 Clouds 16 1010 95 0 3.24 271 14:20 18.06.2020
1131 Clouds 16 1007 10 0 3.24 271 13:47 18.06.2020
1132 Clouds 16 1010 95 0 2.92 264 13:28 18.06.2020
1133 Clouds 16 1010 95 0 2.92 264 12:57 18.06.2020
1134 Clouds 16 1007 10 0 1.34 297 12:39 18.06.2020
1135 Clouds 16 1007 10 0 0.45 69 12:20 18.06.2020
1136 Clouds 16 1010 94 0 2.31 255 11:57 18.06.2020
1137 Clouds 16 1010 94 0 2.31 255 11:38 18.06.2020
1138 Rain 16 1011 96 0 2.01 245 11:19 18.06.2020
1139 Rain 16 1007 99 0 2.01 245 10:40 18.06.2020
1140 Rain 16 1007 97 0 1.51 248 10:19 18.06.2020
1141 Rain 17 1006 96 0 1.51 248 09:46 18.06.2020
1142 Rain 17 1009 93 0 1.37 253 09:27 18.06.2020
1143 Rain 17 1009 93 0 1.37 253 08:58 18.06.2020
1144 Rain 16 1005 96 0 0.45 238 08:38 18.06.2020
1145 Rain 16 1005 97 0 1.23 242 08:20 18.06.2020
1146 Rain 16 1008 93 0 0.45 292 07:45 18.06.2020
1147 Rain 16 1008 93 0 0.92 204 07:26 18.06.2020
1148 Rain 16 1009 97 0 0.92 204 06:42 18.06.2020
1149 Rain 17 1005 93 0 0.74 169 05:34 18.06.2020
1150 Rain 17 1005 93 0 1.36 49 04:21 18.06.2020
1151 Rain 17 1008 92 0 1.33 58 01:49 18.06.2020
1152 Rain 17 1008 92 0 1.41 49 01:27 18.06.2020
1153 Rain 18 1008 92 0 1.41 49 00:54 18.06.2020
1154 Rain 18 1011 97 0 1.41 49 00:32 18.06.2020
1155 Rain 18 1008 90 0 1.52 56 23:57 17.06.2020
1156 Rain 18 1006 83 0 1.52 56 23:38 17.06.2020
1157 Rain 17 1006 85 0 1.71 62 23:20 17.06.2020
1158 Rain 17 1009 87 0 1.71 62 22:57 17.06.2020
1159 Rain 17 1006 97 0 1.71 62 22:37 17.06.2020
1160 Rain 17 1006 97 0 1.71 62 22:37 17.06.2020
1161 Rain 18 1009 92 0 0.45 54 22:19 17.06.2020
1162 Rain 19 1006 10 0 1.86 66 21:42 17.06.2020
1163 Clouds 19 1008 88 0 1.78 64 21:23 17.06.2020
1164 Rain 19 1008 85 0 1.88 59 20:59 17.06.2020
1165 Rain 20 1008 82 0 1.88 59 20:38 17.06.2020
1166 Rain 20 1006 92 0 2.16 57 20:19 17.06.2020
1167 Rain 21 1008 86 0 2.16 57 19:46 17.06.2020
1168 Rain 21 1005 73 0 2.37 55 19:23 17.06.2020
1169 Rain 21 1008 85 0 2.37 55 18:58 17.06.2020
1170 Rain 21 1005 76 0 2.37 55 18:40 17.06.2020
1171 Rain 21 1005 76 0 2.37 55 18:40 17.06.2020
1172 Rain 21 1005 77 0 2.59 54 18:21 17.06.2020
1173 Rain 21 1009 77 0 0.45 9 17:43 17.06.2020
1174 Rain 22 1006 79 0 2.64 57 17:22 17.06.2020
1175 Rain 22 1006 79 0 2.64 57 17:22 17.06.2020
1176 Rain 20 1009 83 0 2.64 57 16:57 17.06.2020
1177 Rain 22 1009 74 0 2.64 57 16:38 17.06.2020
1178 Rain 22 1009 67 0 2.88 62 16:20 17.06.2020
1179 Rain 22 1009 76 0 2.88 62 15:56 17.06.2020
1180 Rain 21 1011 87 0 2.88 62 15:38 17.06.2020
1181 Rain 22 1007 80 0 3.12 59 15:18 17.06.2020
1182 Rain 22 1010 71 0 3.12 59 14:57 17.06.2020
1183 Rain 21 1007 98 0 3.12 59 14:38 17.06.2020
1184 Rain 22 1012 80 0 3.23 68 14:19 17.06.2020
1185 Rain 22 1013 81 0 3.23 68 13:42 17.06.2020
1186 Rain 22 1013 78 0 3.16 71 13:22 17.06.2020
1187 Rain 22 1010 73 0 0.45 112 12:59 17.06.2020
1188 Rain 22 1013 88 0 3.16 71 12:40 17.06.2020
1189 Rain 21 1013 85 0 2.6 71 12:20 17.06.2020
1190 Rain 21 1008 79 0 2.6 71 11:44 17.06.2020
1191 Rain 21 1011 77 0 2.24 74 11:26 17.06.2020
1192 Rain 21 1012 89 0 2.24 74 10:56 17.06.2020
1193 Rain 21 1008 74 0 2.24 74 10:37 17.06.2020
1194 Rain 21 1012 89 0 1.91 77 10:18 17.06.2020
1195 Rain 19 1011 88 0 1.91 77 09:55 17.06.2020
1196 Rain 19 1011 89 0 1.91 77 09:36 17.06.2020
1197 Rain 19 1012 93 0 1.42 50 09:18 17.06.2020
1198 Rain 17 1011 92 0 1.42 50 08:42 17.06.2020
1199 Clouds 17 1008 86 0 1.14 40 08:19 17.06.2020
1200 Clouds 16 1012 96 0 1.14 40 07:44 17.06.2020
1201 Clouds 16 1012 96 0 0.85 44 07:23 17.06.2020
1202 Clouds 15 1011 96 0 0.85 44 06:59 17.06.2020
1203 Clouds 15 1008 99 0 0.85 44 06:40 17.06.2020
1204 Clouds 15 1011 96 0 0.36 46 06:22 17.06.2020
1205 Clouds 14 1012 97 0 0.36 46 05:48 17.06.2020
1206 Clouds 14 1012 96 0 0.13 48 04:38 17.06.2020
1207 Clouds 15 1013 96 0 0.86 119 02:21 17.06.2020
1208 Clouds 15 1013 95 0 0.82 119 00:53 17.06.2020
1209 Clouds 15 1012 94 0 0.82 119 00:30 17.06.2020
1210 Clouds 16 1013 94 0 0.78 114 23:59 16.06.2020
1211 Clouds 16 1012 93 0 0.78 114 23:41 16.06.2020
1212 Clouds 16 1010 97 0 0.91 92 23:22 16.06.2020
1213 Clouds 16 1012 93 0 0.91 92 22:57 16.06.2020
1214 Clouds 17 1010 94 0 0.91 92 22:38 16.06.2020
1215 Rain 17 1012 90 0 0.78 65 22:19 16.06.2020
1216 Rain 18 1012 88 0 0.78 65 21:57 16.06.2020
1217 Rain 18 1009 89 0 0.78 65 21:39 16.06.2020
1218 Rain 18 1013 88 0 0.22 183 21:20 16.06.2020
1219 Rain 20 1013 83 0 0.22 183 20:43 16.06.2020
1220 Rain 21 1009 81 0 0.57 186 20:22 16.06.2020
1221 Rain 21 1012 87 0 0.57 186 19:58 16.06.2020
1222 Rain 21 1013 76 0 0.45 241 19:40 16.06.2020
1223 Rain 20 1009 70 0 0.64 161 19:22 16.06.2020
1224 Rain 21 1013 74 0 0.64 161 18:59 16.06.2020
1225 Rain 22 1013 71 0 0.45 250 18:40 16.06.2020
1226 Rain 22 1009 64 0 0.44 129 18:21 16.06.2020
1227 Rain 22 1012 72 0 0.44 129 17:57 16.06.2020
1228 Rain 22 1009 61 0 0.44 129 17:38 16.06.2020
1229 Rain 22 1009 61 0 0.44 129 17:38 16.06.2020
1230 Rain 22 1009 61 0 0.2 112 17:19 16.06.2020
1231 Rain 22 1012 66 0 0.45 225 16:56 16.06.2020
1232 Rain 22 1012 64 0 0.45 225 16:38 16.06.2020
1233 Rain 22 1014 74 0 0.03 131 16:19 16.06.2020
1234 Rain 22 1013 72 0 0.45 270 15:56 16.06.2020
1235 Rain 21 1010 65 0 0.03 131 15:38 16.06.2020
1236 Rain 21 1010 65 0 0.57 181 15:20 16.06.2020
1237 Rain 21 1010 71 0 0.57 181 14:43 16.06.2020
1238 Rain 20 1013 74 0 0.51 152 14:25 16.06.2020
1239 Rain 20 1013 75 0 0.7 169 13:59 16.06.2020
1240 Rain 20 1015 80 0 0.7 169 13:41 16.06.2020
1241 Rain 21 1011 75 0 0.38 149 13:22 16.06.2020
1242 Rain 21 1011 78 0 0.38 149 12:42 16.06.2020
1243 Rain 19 1014 79 0 0.26 296 12:22 16.06.2020
1244 Rain 19 1014 79 0 0.26 296 11:57 16.06.2020
1245 Rain 19 1011 82 0 0.26 296 11:39 16.06.2020
1246 Rain 19 1011 84 0 0.69 305 11:20 16.06.2020
1247 Rain 18 1015 90 0 0.69 305 10:57 16.06.2020
1248 Rain 18 1015 89 0 0.69 305 10:38 16.06.2020
1249 Rain 17 1012 88 0 0.67 297 10:18 16.06.2020
1250 Rain 16 1015 92 0 0.67 297 09:43 16.06.2020
1251 Rain 16 1012 95 0 0.9 285 09:22 16.06.2020
1252 Rain 16 1012 96 0 0.9 285 08:51 16.06.2020
1253 Rain 15 1012 96 0 0.9 285 08:32 16.06.2020
1254 Clouds 15 1011 98 0 0.98 270 07:51 16.06.2020
1255 Clouds 16 1017 10 0 1.11 257 07:29 16.06.2020
1256 Clouds 15 1014 93 0 1.11 257 06:56 16.06.2020
1257 Clouds 14 1014 93 0 1.11 257 06:33 16.06.2020
1258 Clouds 14 1011 10 0 1.07 259 05:50 16.06.2020
1259 Clouds 14 1016 93 0 0.98 251 04:54 16.06.2020
1260 Clouds 14 1014 92 0 0.81 267 03:55 16.06.2020
1261 Clouds 15 1014 94 0 0.75 271 02:35 16.06.2020
1262 Clouds 15 1012 99 0 0.78 292 01:33 16.06.2020
1263 Clouds 15 1016 97 0 0.91 314 00:55 16.06.2020
1264 Clouds 16 1012 99 0 0.96 312 00:22 16.06.2020
1265 Clouds 16 1015 91 0 0.96 312 23:55 15.06.2020
1266 Clouds 16 1012 98 0 0.96 312 23:37 15.06.2020
1267 Clouds 16 1012 98 0 1.13 308 23:19 15.06.2020
1268 Clouds 16 1016 96 0 1.13 308 22:42 15.06.2020
1269 Rain 16 1012 98 0 1.4 304 22:22 15.06.2020
1270 Rain 16 1016 95 0 1.4 304 21:58 15.06.2020
1271 Rain 16 1015 89 0 1.4 304 21:38 15.06.2020
1272 Rain 16 1016 94 0 1.87 294 21:20 15.06.2020
1273 Rain 17 1016 94 0 1.87 294 20:58 15.06.2020
1274 Rain 17 1011 95 0 1.87 294 20:38 15.06.2020
1275 Rain 18 1012 95 0 2.42 292 20:19 15.06.2020
1276 Rain 17 1014 86 0 0.45 270 19:57 15.06.2020
1277 Rain 17 1014 86 0 2.42 292 19:39 15.06.2020
1278 Rain 17 1011 92 0 2.61 291 19:21 15.06.2020
1279 Rain 17 1014 87 0 0.45 270 18:56 15.06.2020
1280 Rain 17 1015 94 0 1.79 278 18:38 15.06.2020
1281 Rain 18 1011 95 0 2.56 289 18:19 15.06.2020
1282 Rain 18 1015 95 0 0.45 277 17:56 15.06.2020
1283 Rain 18 1011 95 0 2.56 289 17:37 15.06.2020
1284 Rain 18 1011 96 0 2.44 281 17:18 15.06.2020
1285 Rain 18 1014 85 0 0.89 270 16:41 15.06.2020
1286 Rain 18 1011 96 0 2.59 283 16:19 15.06.2020
1287 Rain 18 1014 84 0 0.89 225 15:57 15.06.2020
1288 Rain 18 1017 10 0 2.59 283 15:39 15.06.2020
1289 Rain 19 1017 10 0 1.99 286 15:19 15.06.2020
1290 Rain 18 1010 93 0 1.99 286 14:42 15.06.2020
1291 Clouds 18 1010 93 0 0.83 154 14:22 15.06.2020
1292 Clouds 18 1014 89 0 0.83 154 13:59 15.06.2020
1293 Clouds 18 1010 95 0 0.83 154 13:41 15.06.2020
1294 Clouds 18 1010 95 0 0.83 154 13:41 15.06.2020
1295 Clouds 17 1010 93 0 1.01 139 13:23 15.06.2020
1296 Clouds 16 1014 95 0 1.01 139 12:58 15.06.2020
1297 Clouds 16 1010 97 0 1.01 139 12:39 15.06.2020
1298 Rain 16 1010 98 0 1.09 115 12:21 15.06.2020
1299 Rain 16 1015 98 0 1.09 115 11:45 15.06.2020
1300 Rain 16 1014 97 0 1.71 105 11:26 15.06.2020
1301 Rain 16 1014 97 0 1.71 105 10:56 15.06.2020
1302 Rain 16 1010 98 0 1.71 105 10:38 15.06.2020
1303 Rain 16 1014 98 0 2.24 286 10:19 15.06.2020
1304 Rain 16 1014 98 0 2.24 286 10:19 15.06.2020
1305 Rain 16 1010 99 0 0.45 253 09:41 15.06.2020
1306 Rain 17 1010 98 0 0.89 148 09:22 15.06.2020
1307 Rain 17 1013 97 0 0.88 18 08:43 15.06.2020
1308 Rain 17 1013 98 0 0.66 25 08:24 15.06.2020
1309 Rain 17 1015 10 0 0.66 25 07:50 15.06.2020
1310 Rain 17 1013 98 0 0.66 25 07:32 15.06.2020
1311 Rain 17 1009 10 0 0.25 21 06:53 15.06.2020
1312 Clouds 17 1013 99 0 0.08 215 06:26 15.06.2020
1313 Clouds 17 1009 10 0 0.08 215 05:48 15.06.2020
1314 Clouds 17 1011 97 0 0.29 122 05:27 15.06.2020
1315 Rain 17 1012 99 0 0.67 85 04:22 15.06.2020
1316 Rain 17 1008 10 0 0.67 85 03:48 15.06.2020
1317 Clouds 17 1011 97 0 1.19 68 02:56 15.06.2020
1318 Clouds 17 1008 10 0 1.13 71 02:20 15.06.2020
1319 Clouds 18 1009 10 0 1.13 71 01:40 15.06.2020
1320 Clouds 18 1009 10 0 1.13 71 01:40 15.06.2020
1321 Clouds 18 1009 10 0 1.13 71 01:40 15.06.2020
1322 Rain 18 1008 10 0 1.06 61 01:22 15.06.2020
1323 Rain 18 1008 99 0 1.06 61 00:41 15.06.2020
1324 Rain 18 1014 10 0 1.18 73 00:22 15.06.2020
1325 Rain 18 1011 97 0 1.18 73 23:55 14.06.2020
1326 Rain 18 1009 10 0 1.18 73 23:36 14.06.2020
1327 Clouds 18 1009 10 0 1.53 85 23:18 14.06.2020
1328 Clouds 18 1011 96 0 1.53 85 22:55 14.06.2020
1329 Clouds 18 1008 10 0 1.53 85 22:37 14.06.2020
1330 Rain 18 1012 98 0 1.93 82 22:18 14.06.2020
1331 Rain 18 1012 98 0 1.93 82 21:55 14.06.2020
1332 Rain 19 1011 96 0 1.93 82 21:37 14.06.2020
1333 Rain 19 1008 10 0 2.1 78 21:18 14.06.2020
1334 Rain 19 1008 10 0 2.1 78 20:55 14.06.2020
1335 Rain 19 1008 10 0 2.1 78 20:55 14.06.2020
1336 Rain 19 1008 10 0 2.1 78 20:36 14.06.2020
1337 Rain 19 1008 10 0 2.33 73 20:18 14.06.2020
1338 Rain 19 1012 97 0 2.33 73 19:54 14.06.2020
1339 Rain 19 1008 99 0 2.33 73 19:36 14.06.2020
1340 Rain 19 1008 99 0 2.39 73 19:18 14.06.2020
1341 Rain 19 1011 97 0 2.39 73 18:55 14.06.2020
1342 Rain 19 1007 97 0 2.39 73 18:36 14.06.2020
1343 Rain 19 1007 96 0 2.48 65 18:18 14.06.2020
1344 Rain 20 1007 96 0 2.48 65 17:40 14.06.2020
1345 Rain 20 1007 96 0 2.48 65 17:40 14.06.2020
1346 Rain 20 1011 95 0 0.45 221 17:20 14.06.2020
1347 Rain 19 1011 96 0 0.45 219 16:58 14.06.2020
1348 Rain 19 1011 96 0 2.03 55 16:39 14.06.2020
1349 Rain 20 1010 96 0 1.76 60 16:19 14.06.2020
1350 Rain 19 1011 96 0 1.76 60 15:56 14.06.2020
1351 Rain 19 1011 95 0 1.76 60 15:37 14.06.2020
1352 Rain 19 1007 98 0 2.07 65 15:18 14.06.2020
1353 Rain 18 1012 98 0 2.07 65 14:41 14.06.2020
1354 Rain 18 1012 98 0 2.19 63 14:23 14.06.2020
1355 Rain 19 1011 95 0 2.19 63 13:59 14.06.2020
1356 Rain 18 1008 10 0 2.19 63 13:40 14.06.2020
1357 Rain 19 1008 99 0 1.77 47 13:22 14.06.2020
1358 Rain 19 1011 94 0 1.77 47 12:57 14.06.2020
1359 Rain 18 1007 10 0 1.77 47 12:39 14.06.2020
1360 Rain 18 1007 10 0 1.77 47 12:39 14.06.2020
1361 Rain 18 1007 10 0 1.08 39 12:21 14.06.2020
1362 Rain 18 1007 10 0 1.08 39 12:21 14.06.2020
1363 Rain 18 1011 93 0 1.08 39 11:58 14.06.2020
1364 Rain 18 1007 99 0 1.08 39 11:38 14.06.2020
1365 Rain 18 1007 99 0 1 51 11:20 14.06.2020
1366 Rain 18 1007 99 0 1 51 10:42 14.06.2020
1367 Rain 18 1010 91 0 1.18 28 10:20 14.06.2020
1368 Rain 18 1011 98 0 1.18 28 09:57 14.06.2020
1369 Rain 18 1011 97 0 1.18 28 09:39 14.06.2020
1370 Rain 18 1007 10 0 1.26 1 09:20 14.06.2020
1371 Rain 18 1006 10 0 1.26 1 08:42 14.06.2020
1372 Rain 17 1006 10 0 0.9 330 08:21 14.06.2020
1373 Rain 17 1006 10 0 0.9 330 07:52 14.06.2020
1374 Rain 17 1006 10 0 0.9 330 07:34 14.06.2020
1375 Rain 17 1006 10 0 0.88 321 06:40 14.06.2020
1376 Rain 17 1006 10 0 0.33 300 05:49 14.06.2020
1377 Rain 16 1010 94 0 0.89 65 05:21 14.06.2020
1378 Rain 17 1006 10 0 0.89 65 04:36 14.06.2020
1379 Clouds 17 1011 96 0 3.07 78 03:44 14.06.2020
1380 Clouds 17 1010 93 0 0.45 111 02:34 14.06.2020
1381 Rain 17 1005 10 0 0.45 57 01:49 14.06.2020
1382 Rain 17 1009 92 0 2.2 68 01:26 14.06.2020
1383 Rain 18 1006 10 0 2.2 68 00:42 14.06.2020
1384 Rain 18 1006 10 0 3.35 68 00:20 14.06.2020
1385 Rain 19 1010 91 0 0.89 35 23:44 13.06.2020
1386 Rain 19 1009 80 0 3.8 66 23:25 13.06.2020
1387 Rain 19 1009 80 0 3.8 66 23:25 13.06.2020
1388 Rain 19 1009 80 0 3.8 66 22:58 13.06.2020
1389 Rain 19 1007 98 0 3.8 66 22:38 13.06.2020
1390 Rain 19 1007 98 0 3.14 61 22:18 13.06.2020
1391 Rain 19 1010 85 0 0.89 99 21:57 13.06.2020
1392 Rain 21 1008 81 0 1.34 90 21:38 13.06.2020
1393 Rain 21 1010 80 0 2.37 45 21:20 13.06.2020
1394 Rain 21 1004 83 0 2.37 45 20:43 13.06.2020
1395 Rain 21 1004 83 0 2.14 24 20:19 13.06.2020
1396 Rain 22 1007 82 0 3.13 90 19:58 13.06.2020
1397 Rain 23 1003 79 0 0.45 36 19:36 13.06.2020
1398 Rain 22 1003 76 0 1.77 39 19:18 13.06.2020
1399 Rain 22 1008 78 0 0.45 112 18:57 13.06.2020
1400 Rain 23 1008 75 0 1.77 39 18:38 13.06.2020
1401 Rain 24 1008 73 0 0.42 63 18:18 13.06.2020
1402 Rain 23 1007 79 0 0.45 112 17:55 13.06.2020
1403 Rain 23 1007 79 0 0.45 112 17:55 13.06.2020
1404 Rain 24 1007 80 0 0.42 63 17:36 13.06.2020
1405 Rain 24 1007 88 0 1.93 75 17:18 13.06.2020
1406 Rain 26 1008 63 0 1.34 293 16:41 13.06.2020
1407 Rain 25 1006 63 0 0.89 293 16:20 13.06.2020
1408 Rain 26 1009 63 0 1.34 325 15:59 13.06.2020
1409 Rain 26 1009 60 0 1.34 355 15:39 13.06.2020
1410 Rain 27 1005 55 0 2.2 92 15:20 13.06.2020
1411 Rain 25 1010 64 0 2.2 92 14:43 13.06.2020
1412 Rain 25 1010 70 0 2.47 100 14:23 13.06.2020
1413 Rain 26 1009 70 0 2.24 56 13:56 13.06.2020
1414 Rain 27 1005 60 0 2.47 100 13:37 13.06.2020
1415 Rain 26 1006 60 0 2.36 107 13:18 13.06.2020
1416 Rain 26 1006 58 0 2.36 107 12:43 13.06.2020
1417 Rain 25 1010 67 0 1.79 278 12:25 13.06.2020
1418 Rain 26 1009 69 0 1.5 124 11:55 13.06.2020
1419 Rain 26 1009 74 0 1.5 124 11:37 13.06.2020
1420 Rain 25 1006 65 0 1.86 109 11:18 13.06.2020
1421 Rain 24 1006 71 0 1.86 109 10:49 13.06.2020
1422 Rain 24 1009 78 0 1.43 99 10:27 13.06.2020
1423 Rain 23 1009 78 0 1.43 99 09:57 13.06.2020
1424 Rain 22 1006 74 0 1.43 99 09:39 13.06.2020
1425 Clear 21 1009 82 0 0.89 99 09:20 13.06.2020
1426 Clear 20 1010 84 0 0.45 313 08:45 13.06.2020
1427 Clear 20 1011 86 0 1.34 294 08:26 13.06.2020
1428 Clear 21 1009 82 0 0.59 55 07:45 13.06.2020
1429 Clear 21 1009 79 0 0.77 83 07:27 13.06.2020
1430 Clear 19 1008 89 0 0.77 83 06:45 13.06.2020
1431 Clear 16 1008 92 0 0.96 102 06:26 13.06.2020
1432 Clear 16 1007 91 0 0.96 102 05:30 13.06.2020
1433 Clear 16 1008 87 0 1.31 94 04:46 13.06.2020
1434 Clear 17 1009 88 0 1.51 86 03:44 13.06.2020
1435 Clear 18 1007 87 0 1.94 82 02:53 13.06.2020
1436 Clear 18 1005 83 0 2.01 89 02:24 13.06.2020
1437 Clear 19 1009 84 0 2.39 93 01:26 13.06.2020
1438 Clear 18 1009 83 0 2.39 93 00:57 13.06.2020
1439 Clear 18 1009 81 0 0.45 88 00:37 13.06.2020
1440 Clear 19 1009 80 0 0.45 80 00:19 13.06.2020
1441 Clear 19 1007 100 0 2.94 90 23:40 12.06.2020
1442 Clear 19 1009 78 0 0.45 95 23:18 12.06.2020
1443 Clear 19 1009 78 0 0.45 95 23:18 12.06.2020
1444 Clear 20 1009 75 0 0.45 89 22:55 12.06.2020
1445 Clear 19 1007 100 0 3.39 85 22:37 12.06.2020
1446 Clear 21 1005 73 0 3.47 84 22:18 12.06.2020
1447 Clear 22 1008 61 0 3.47 84 21:44 12.06.2020
1448 Clear 22 1008 61 0 3.1 76 21:24 12.06.2020
1449 Clear 24 1007 52 0 0.45 112 20:57 12.06.2020
1450 Clear 24 1008 52 0 0.45 40 20:38 12.06.2020
1451 Clear 25 1004 58 0 3.58 78 20:20 12.06.2020
1452 Clear 25 1008 50 0 0.89 107 19:44 12.06.2020
1453 Clear 25 1005 53 0 3.81 86 19:22 12.06.2020
1454 Clear 25 1005 53 0 3.81 86 19:22 12.06.2020
1455 Clear 25 1008 50 0 0.89 107 18:59 12.06.2020
1456 Clear 25 1005 53 0 3.81 86 18:37 12.06.2020
1457 Clear 25 1007 55 0 0.89 90 18:18 12.06.2020
1458 Clear 25 1008 47 0 1.79 23 17:44 12.06.2020
1459 Clear 25 1008 47 0 1.79 20 17:26 12.06.2020
1460 Clear 25 1005 50 0 4.05 97 16:47 12.06.2020
1461 Clouds 25 1005 45 0 0.45 134 16:24 12.06.2020
1462 Clouds 25 1007 62 0 1.79 90 15:59 12.06.2020
1463 Clouds 25 1005 50 0 3.94 99 15:41 12.06.2020
1464 Clouds 24 1007 62 0 0.89 90 15:19 12.06.2020
1465 Clouds 24 1005 56 0 4.22 96 14:42 12.06.2020
1466 Clouds 24 1005 58 0 4 98 14:22 12.06.2020
1467 Clouds 24 1008 65 0 0.45 90 13:57 12.06.2020
1468 Clouds 24 1006 64 0 4 98 13:39 12.06.2020
1469 Clouds 23 1008 66 0 0.45 90 13:18 12.06.2020
1470 Clouds 23 1006 69 0 3.89 101 12:40 12.06.2020
1471 Clouds 23 1010 61 0 2.24 147 12:19 12.06.2020
1472 Clouds 21 1009 75 0 3.68 102 11:49 12.06.2020
1473 Clouds 20 1009 74 0 0.89 90 11:23 12.06.2020
1474 Clouds 20 1009 82 0 3.19 103 10:58 12.06.2020
1475 Clouds 20 1007 82 0 3.19 103 10:40 12.06.2020
1476 Clouds 19 1007 84 0 2.92 98 10:21 12.06.2020
1477 Clouds 19 1007 88 0 2.92 98 09:44 12.06.2020
1478 Clouds 18 1009 81 0 2.14 100 09:21 12.06.2020
1479 Clouds 16 1007 95 0 2.14 100 08:43 12.06.2020
1480 Clouds 16 1007 94 0 2.1 94 08:24 12.06.2020
1481 Clouds 16 1007 94 0 2.1 94 07:43 12.06.2020
1482 Clouds 15 1010 97 0 0.89 46 07:24 12.06.2020
1483 Clouds 14 1007 98 0 1.98 91 06:44 12.06.2020
1484 Clouds 13 1007 97 0 1.65 92 06:24 12.06.2020
1485 Clouds 13 1006 97 0 1.65 92 05:50 12.06.2020
1486 Clouds 13 1008 95 0 1.63 90 05:26 12.06.2020
1487 Clouds 13 1009 95 0 1.63 90 04:41 12.06.2020
1488 Clouds 14 1009 94 0 1.25 84 02:46 12.06.2020
1489 Clouds 15 1009 92 0 1.36 67 01:52 12.06.2020
1490 Clouds 15 1009 92 0 1.52 78 01:23 12.06.2020
1491 Clouds 15 1007 97 0 1.52 78 00:42 12.06.2020
1492 Clouds 15 1007 97 0 1.54 71 00:24 12.06.2020
1493 Clouds 15 1010 89 0 1.54 71 23:59 11.06.2020
1494 Clouds 15 1007 98 0 1.54 71 23:40 11.06.2020
1495 Clouds 15 1007 97 0 1.75 67 23:21 11.06.2020
1496 Clouds 15 1011 94 0 1.34 34 22:57 11.06.2020
1497 Clouds 15 1007 97 0 1.75 67 22:38 11.06.2020
1498 Clouds 15 1007 96 0 1.98 55 22:19 11.06.2020
1499 Clouds 15 1007 96 0 1.98 55 22:19 11.06.2020
1500 Clouds 15 1010 93 0 1.98 55 21:55 11.06.2020
1501 Clouds 16 1007 96 0 1.98 55 21:37 11.06.2020
1502 Clouds 18 1009 83 0 1.95 36 21:19 11.06.2020
1503 Clouds 16 1007 95 0 1.95 36 20:43 11.06.2020
1504 Clouds 16 1010 88 0 2.19 34 20:21 11.06.2020
1505 Clouds 17 1010 84 0 2.19 34 19:45 11.06.2020
1506 Clouds 18 1007 88 0 2.4 39 19:23 11.06.2020
1507 Clouds 18 1011 81 0 2.4 39 18:59 11.06.2020
1508 Clouds 18 1009 80 0 2.4 39 18:41 11.06.2020
1509 Clouds 18 1006 83 0 2.03 35 18:20 11.06.2020
1510 Clouds 18 1009 79 0 0.45 90 17:56 11.06.2020
1511 Clouds 18 1006 77 0 2.03 35 17:37 11.06.2020
1512 Rain 18 1006 76 0 2.12 34 17:19 11.06.2020
1513 Rain 18 1010 75 0 1.79 328 16:55 11.06.2020
1514 Rain 18 1009 78 0 0.45 112 16:37 11.06.2020
1515 Rain 18 1006 75 0 1.93 31 16:18 11.06.2020
1516 Rain 18 1009 72 0 1.93 31 15:42 11.06.2020
1517 Clouds 17 1008 86 0 1.44 5 15:23 11.06.2020
1518 Clouds 16 1011 87 10000 1.5 0 14:55 11.06.2020
1519 Clouds 17 1010 75 0 1.34 339 14:37 11.06.2020
1520 Clouds 18 1008 88 0 0.8 12 14:19 11.06.2020
1521 Clouds 18 1006 71 0 0.8 12 13:54 11.06.2020
1522 Clouds 17 1006 72 0 0.8 12 13:36 11.06.2020
1523 Clouds 17 1006 72 0 1.23 21 13:18 11.06.2020
1524 Clouds 17 1006 71 0 1.23 21 12:39 11.06.2020
1525 Clouds 16 1008 91 0 1.24 5 12:20 11.06.2020
1526 Clouds 16 1011 79 0 0.89 331 11:59 11.06.2020
1527 Clouds 16 1010 81 0 1.79 331 11:40 11.06.2020
1528 Clouds 15 1009 78 0 0.45 112 11:22 11.06.2020
1529 Clouds 15 1009 80 0 0.45 112 10:59 11.06.2020
1530 Clouds 15 1009 81 0 1.09 357 10:41 11.06.2020
1531 Rain 15 1006 80 0 1.04 19 10:18 11.06.2020
1532 Rain 15 1010 88 0 1.04 19 09:44 11.06.2020
1533 Clouds 15 1010 88 0 1.62 16 09:26 11.06.2020
1534 Clouds 14 1007 91 0 1.62 16 08:54 11.06.2020
1535 Clouds 13 1010 94 0 1.62 16 08:36 11.06.2020
1536 Clouds 13 1007 92 0 1.71 13 08:18 11.06.2020
1537 Clouds 12 1010 95 0 1.71 13 07:41 11.06.2020
1538 Clouds 12 1007 93 0 1.88 13 07:22 11.06.2020
1539 Clouds 11 1009 92 0 1.88 13 06:31 11.06.2020
1540 Clouds 11 1009 92 0 1.88 13 06:31 11.06.2020
1541 Clouds 11 1010 94 0 1.45 12 05:54 11.06.2020
1542 Rain 12 1007 94 0 1.15 2 04:37 11.06.2020
1543 Rain 13 1010 80 0 1.06 22 03:25 11.06.2020
1544 Rain 13 1010 77 0 1.06 22 02:46 11.06.2020
1545 Rain 14 1011 74 0 0.45 14 01:56 11.06.2020
1546 Rain 14 1008 74 0 1.22 20 01:35 11.06.2020
1547 Rain 14 1011 68 0 1.16 36 00:56 11.06.2020
1548 Rain 15 1008 73 0 1.16 36 00:38 11.06.2020
1549 Rain 15 1008 72 0 1.47 42 00:18 11.06.2020
1550 Rain 15 1011 64 0 1.47 42 23:39 10.06.2020
1551 Rain 16 1009 73 0 1.68 46 23:21 10.06.2020
1552 Rain 16 1009 74 0 1.68 46 22:41 10.06.2020
1553 Rain 16 1012 72 0 1.69 47 22:22 10.06.2020
1554 Rain 16 1012 72 0 1.69 47 21:59 10.06.2020
1555 Rain 16 1012 45 10000 2.6 50 21:41 10.06.2020
1556 Rain 18 1011 57 0 0.89 30 21:19 10.06.2020
1557 Rain 18 1012 65 0 0.45 342 20:59 10.06.2020
1558 Rain 18 1012 63 0 0.89 292 20:40 10.06.2020
1559 Rain 19 1011 51 0 0.92 63 20:22 10.06.2020
1560 Rain 19 1011 51 0 0.92 63 19:59 10.06.2020
1561 Rain 19 1011 50 0 0.92 63 19:38 10.06.2020
1562 Rain 19 1008 63 0 1.76 72 19:18 10.06.2020
1563 Rain 19 1009 62 0 1.76 72 18:54 10.06.2020
1564 Rain 19 1009 61 0 1.76 72 18:36 10.06.2020
1565 Rain 19 1012 54 0 2.66 48 18:18 10.06.2020
1566 Rain 20 1009 48 0 2.66 48 17:41 10.06.2020
1567 Rain 20 1012 53 0 3.61 35 17:21 10.06.2020
1568 Rain 20 1012 48 0 0.45 112 16:59 10.06.2020
1569 Rain 19 1009 51 0 3.61 35 16:41 10.06.2020
1570 Clouds 19 1009 50 0 3.83 33 16:22 10.06.2020
1571 Clouds 19 1012 50 0 3.83 33 15:59 10.06.2020
1572 Clouds 20 1009 51 0 3.83 33 15:38 10.06.2020
1573 Clouds 20 1010 53 0 4.05 36 15:20 10.06.2020
1574 Clouds 19 1010 53 0 4.05 36 14:41 10.06.2020
1575 Clouds 19 1010 51 0 4.04 35 14:22 10.06.2020
1576 Clouds 20 1013 51 0 0.45 112 13:58 10.06.2020
1577 Clouds 20 1010 53 0 4.04 35 13:39 10.06.2020
1578 Clouds 20 1015 60 0 4.28 35 13:21 10.06.2020
1579 Clouds 19 1010 55 0 4.28 35 12:42 10.06.2020
1580 Clouds 18 1010 59 0 4.33 34 12:20 10.06.2020
1581 Clouds 17 1015 68 0 1.79 337 11:56 10.06.2020
1582 Clouds 18 1013 64 0 0.45 112 11:38 10.06.2020
1583 Clouds 18 1011 57 0 4.04 37 11:19 10.06.2020
1584 Clouds 18 1011 57 0 4.04 37 11:19 10.06.2020
1585 Clouds 17 1011 57 0 4.04 37 10:55 10.06.2020
1586 Clouds 16 1014 69 0 0.45 90 10:36 10.06.2020
1587 Clouds 16 1011 65 0 3.28 37 10:18 10.06.2020
1588 Clouds 15 1011 72 0 3.28 37 09:39 10.06.2020
1589 Clouds 14 1015 94 0 2.7 38 09:21 10.06.2020
1590 Clouds 13 1015 95 0 2.7 38 08:44 10.06.2020
1591 Clouds 13 1011 86 0 2.43 37 08:23 10.06.2020
1592 Clouds 12 1015 97 0 2.43 37 07:43 10.06.2020
1593 Clouds 12 1015 97 0 2.15 30 07:24 10.06.2020
1594 Clouds 13 1017 99 0 2.15 30 06:59 10.06.2020
1595 Clouds 13 1017 99 0 2.15 30 06:40 10.06.2020
1596 Clouds 12 1011 86 0 1.84 25 06:19 10.06.2020
1597 Clouds 12 1016 93 0 0.89 269 05:55 10.06.2020
1598 Clouds 11 1011 97 0 1.69 26 05:23 10.06.2020
1599 Clouds 12 1014 95 0 1.69 26 04:30 10.06.2020
1600 Rain 12 1012 95 0 1.33 22 02:49 10.06.2020
1601 Clouds 12 1012 94 0 1.83 34 01:51 10.06.2020
1602 Clouds 12 1016 95 0 1.83 34 01:31 10.06.2020
1603 Rain 13 1016 94 0 1.58 16 00:39 10.06.2020
1604 Rain 13 1013 97 0 1.11 16 00:21 10.06.2020
1605 Rain 13 1016 94 0 1.11 16 23:55 09.06.2020
1606 Rain 13 1016 94 0 1.11 16 23:36 09.06.2020
1607 Rain 13 1013 98 0 0.92 23 23:18 09.06.2020
1608 Rain 13 1013 97 0 0.92 23 22:54 09.06.2020
1609 Rain 13 1013 96 0 0.92 23 22:36 09.06.2020
1610 Rain 13 1013 95 0 1.02 30 22:18 09.06.2020
1611 Rain 14 1016 86 0 1.02 30 21:54 09.06.2020
1612 Rain 14 1016 86 0 1.02 30 21:36 09.06.2020
1613 Rain 15 1012 88 0 1.31 31 21:18 09.06.2020
1614 Rain 16 1015 77 0 1.91 12 20:55 09.06.2020
1615 Rain 16 1012 88 0 1.91 12 20:37 09.06.2020
1616 Rain 16 1012 87 0 2.02 20 20:18 09.06.2020
1617 Rain 16 1015 86 0 2.02 20 19:54 09.06.2020
1618 Rain 16 1012 88 0 2.02 20 19:36 09.06.2020
1619 Rain 16 1012 87 0 2.42 25 19:18 09.06.2020
1620 Rain 16 1012 87 0 2.42 25 19:18 09.06.2020
1621 Rain 17 1015 83 0 2.42 25 18:43 09.06.2020
1622 Rain 16 1014 81 0 2.35 25 18:25 09.06.2020
1623 Rain 16 1014 85 0 2.35 25 17:57 09.06.2020
1624 Rain 16 1015 86 0 2.35 25 17:38 09.06.2020
1625 Rain 17 1012 66 0 2.14 20 17:20 09.06.2020
1626 Rain 17 1014 88 0 2.14 20 16:55 09.06.2020
1627 Rain 17 1012 66 0 2.14 20 16:36 09.06.2020
1628 Rain 17 1014 85 0 2.4 26 16:18 09.06.2020
1629 Rain 17 1017 68 0 2.4 26 15:39 09.06.2020
1630 Rain 16 1012 61 0 2.93 36 15:21 09.06.2020
1631 Rain 16 1015 83 0 2.93 36 14:57 09.06.2020
1632 Rain 16 1012 69 0 2.93 36 14:37 09.06.2020
1633 Rain 17 1015 60 0 0.45 90 14:18 09.06.2020
1634 Rain 17 1016 85 0 3.57 22 13:43 09.06.2020
1635 Rain 17 1012 70 0 3.4 21 13:21 09.06.2020
1636 Rain 17 1016 86 0 3.4 21 12:59 09.06.2020
1637 Rain 17 1012 55 0 3.4 21 12:41 09.06.2020
1638 Rain 17 1016 86 0 3.12 24 12:19 09.06.2020
1639 Rain 18 1015 67 0 3.12 24 11:56 09.06.2020
1640 Rain 18 1012 53 0 3.12 24 11:37 09.06.2020
1641 Rain 18 1016 80 0 2.24 296 11:19 09.06.2020
1642 Rain 17 1012 58 0 2.73 31 10:45 09.06.2020
1643 Clouds 17 1012 58 0 2.35 28 10:25 09.06.2020
1644 Clouds 17 1016 78 0 2.35 28 09:55 09.06.2020
1645 Clouds 15 1016 80 0 2.35 28 09:36 09.06.2020
1646 Clear 13 1016 82 0 0.45 41 09:18 09.06.2020
1647 Clear 14 1016 84 0 1.47 18 08:39 09.06.2020
1648 Clouds 13 1012 68 0 1.08 9 08:20 09.06.2020
1649 Clouds 13 1012 68 0 1.08 9 08:20 09.06.2020
1650 Clouds 13 1015 90 0 1.08 9 07:40 09.06.2020
1651 Clouds 11 1015 90 0 0.87 18 07:22 09.06.2020
1652 Clouds 11 1014 92 0 0.87 18 06:55 09.06.2020
1653 Clouds 11 1015 90 0 0.87 18 06:36 09.06.2020
1654 Clouds 9 1014 93 0 0.58 29 05:37 09.06.2020
1655 Clouds 9 1015 86 0 0.89 41 03:53 09.06.2020
1656 Clouds 10 1014 90 0 0.2 178 02:20 09.06.2020
1657 Clouds 10 1015 82 0 0.2 178 01:36 09.06.2020
1658 Clouds 10 1014 88 0 0.47 155 01:18 09.06.2020
1659 Clouds 11 1014 86 0 0.47 155 00:40 09.06.2020
1660 Clouds 11 1014 86 0 0.64 138 00:19 09.06.2020
1661 Clouds 11 1014 78 0 3.13 50 23:41 08.06.2020
1662 Clouds 12 1014 81 0 0.69 125 23:21 08.06.2020
1663 Clouds 12 1014 78 0 2.24 19 22:57 08.06.2020
1664 Clouds 13 1014 79 0 1.34 32 22:38 08.06.2020
1665 Clouds 14 1011 63 0 0.74 111 22:20 08.06.2020
1666 Clouds 14 1013 78 0 0.74 111 21:55 08.06.2020
1667 Clouds 15 1013 77 0 0.74 111 21:37 08.06.2020
1668 Clouds 15 1014 68 0 0.89 55 21:18 08.06.2020
1669 Clouds 16 1010 68 0 0.92 85 20:54 08.06.2020
1670 Clouds 16 1010 71 0 0.92 85 20:36 08.06.2020
1671 Rain 17 1013 65 0 0.85 65 20:18 08.06.2020
1672 Rain 17 1010 67 0 0.85 65 19:43 08.06.2020
1673 Rain 17 1010 65 0 0.44 82 19:21 08.06.2020
1674 Rain 17 1013 58 0 0.44 82 18:43 08.06.2020
1675 Rain 18 1010 61 0 0.06 146 18:21 08.06.2020
1676 Rain 19 1012 64 0 0.06 146 17:58 08.06.2020
1677 Rain 19 1012 60 0 0.06 146 17:40 08.06.2020
1678 Rain 18 1010 52 0 0.26 214 17:21 08.06.2020
1679 Rain 18 1012 56 0 0.26 214 16:58 08.06.2020
1680 Rain 18 1010 50 0 0.26 214 16:39 08.06.2020
1681 Rain 18 1010 50 0 0.26 214 16:39 08.06.2020
1682 Rain 18 1010 46 0 1.08 197 16:21 08.06.2020
1683 Rain 18 1013 61 0 0.89 244 15:42 08.06.2020
1684 Rain 19 1013 57 0 0.89 176 15:22 08.06.2020
1685 Rain 18 1012 57 0 1.25 208 14:58 08.06.2020
1686 Rain 18 1012 57 0 1.25 208 14:58 08.06.2020
1687 Rain 18 1013 51 0 1.79 241 14:39 08.06.2020
1688 Rain 19 1014 58 0 1.38 255 14:19 08.06.2020
1689 Rain 18 1012 61 0 1.38 255 13:43 08.06.2020
1690 Rain 18 1010 56 0 1.79 254 13:23 08.06.2020
1691 Rain 18 1013 60 0 0.45 172 12:43 08.06.2020
1692 Rain 17 1010 58 0 1.95 241 12:20 08.06.2020
1693 Rain 17 1013 59 0 0.45 219 11:59 08.06.2020
1694 Rain 17 1012 59 0 0.45 270 11:40 08.06.2020
1695 Rain 16 1012 61 0 0.45 270 11:22 08.06.2020
1696 Rain 16 1012 61 0 0.45 270 11:22 08.06.2020
1697 Rain 16 1012 60 0 0.45 292 10:58 08.06.2020
1698 Rain 16 1010 62 0 2.22 240 10:38 08.06.2020
1699 Clear 16 1010 58 0 2.12 247 10:20 08.06.2020
1700 Clear 15 1013 69 0 2.12 247 09:57 08.06.2020
1701 Clear 15 1013 69 0 2.12 247 09:57 08.06.2020
1702 Clear 15 1013 69 0 2.12 247 09:57 08.06.2020
1703 Clear 15 1010 63 0 2.12 247 09:39 08.06.2020
1704 Clear 14 1012 68 0 0.45 270 09:20 08.06.2020
1705 Clear 14 1013 71 0 1.97 246 08:42 08.06.2020
1706 Clear 13 1009 73 0 1.3 228 08:20 08.06.2020
1707 Clear 11 1011 79 0 1.3 228 07:43 08.06.2020
1708 Clear 11 1009 77 0 0.9 205 07:21 08.06.2020
1709 Clear 10 1009 85 0 0.9 205 06:48 08.06.2020
1710 Clear 9 1012 87 0 2.24 24 06:28 08.06.2020
1711 Clear 8 1008 88 0 0.91 202 05:43 08.06.2020
1712 Clear 8 1011 86 0 1.79 39 04:27 08.06.2020
1713 Clouds 8 1010 100 0 0.31 241 02:32 08.06.2020
1714 Clouds 8 1010 100 0 0.68 264 01:45 08.06.2020
1715 Clouds 10 1009 86 0 0.76 272 01:26 08.06.2020
1716 Clouds 11 1010 74 0 0.76 272 00:30 08.06.2020
1717 Clouds 11 1010 73 0 0.99 287 23:41 07.06.2020
1718 Clouds 11 1010 72 0 1.32 276 23:20 07.06.2020
1719 Clouds 11 1011 79 0 1.34 41 22:59 07.06.2020
1720 Clouds 12 1007 80 0 1.32 276 22:39 07.06.2020
1721 Clouds 13 1007 78 0 1.68 266 22:19 07.06.2020
1722 Clouds 13 1009 71 0 1.68 266 21:59 07.06.2020
1723 Clouds 13 1007 72 0 1.68 266 21:38 07.06.2020
1724 Clouds 14 1006 70 0 1.46 267 21:19 07.06.2020
1725 Clouds 15 1010 62 0 0.45 288 20:55 07.06.2020
1726 Clouds 16 1006 65 0 1.46 267 20:37 07.06.2020
1727 Clouds 16 1008 49 0 1.63 262 20:18 07.06.2020
1728 Clouds 16 1008 48 0 0.45 292 19:55 07.06.2020
1729 Clouds 16 1006 58 0 1.63 262 19:37 07.06.2020
1730 Clouds 17 1005 57 0 2.6 268 19:18 07.06.2020
1731 Clouds 16 1007 50 0 0.45 292 18:40 07.06.2020
1732 Clouds 16 1005 56 0 3.32 268 18:22 07.06.2020
1733 Clouds 17 1007 49 0 1.34 292 17:59 07.06.2020
1734 Clouds 16 1005 58 0 3.32 268 17:40 07.06.2020
1735 Rain 17 1006 47 0 0.89 292 17:21 07.06.2020
1736 Rain 17 1008 55 0 2.68 235 16:44 07.06.2020
1737 Rain 17 1007 62 0 1.79 263 16:22 07.06.2020
1738 Rain 16 1006 49 0 1.34 292 15:45 07.06.2020
1739 Rain 17 1006 51 0 0.89 270 15:24 07.06.2020
1740 Rain 16 1007 58 0 3.13 252 14:59 07.06.2020
1741 Rain 17 1007 55 0 3.58 253 14:37 07.06.2020
1742 Clouds 17 1006 55 0 1.34 292 14:18 07.06.2020
1743 Clouds 17 1005 51 0 1.79 292 13:45 07.06.2020
1744 Clouds 17 1005 51 0 1.79 292 13:45 07.06.2020
1745 Clouds 17 1005 51 0 1.79 292 13:45 07.06.2020
1746 Clouds 16 1003 55 0 4.39 226 13:19 07.06.2020
1747 Clouds 16 1005 50 0 0.89 292 12:44 07.06.2020
1748 Clouds 16 1005 49 0 1.34 292 12:26 07.06.2020
1749 Clouds 16 1006 56 0 2.24 254 11:56 07.06.2020
1750 Clouds 15 1003 62 0 4.85 229 11:38 07.06.2020
1751 Clouds 15 1003 62 0 4.85 229 11:38 07.06.2020
1752 Clouds 15 1003 63 0 5.09 230 11:20 07.06.2020
1753 Clouds 15 1005 61 0 3.58 225 10:58 07.06.2020
1754 Clouds 15 1005 61 0 3.58 225 10:58 07.06.2020
1755 Clouds 15 1005 67 0 1.34 220 10:39 07.06.2020
1756 Rain 15 1002 69 0 5.06 229 10:19 07.06.2020
1757 Rain 15 1003 62 0 1.34 270 09:56 07.06.2020
1758 Rain 15 1006 67 0 5.06 229 09:38 07.06.2020
1759 Clear 13 1003 67 0 1.79 292 09:19 07.06.2020
1760 Clear 12 1003 73 0 0.89 292 08:45 07.06.2020
1761 Clouds 12 1002 90 0 2.3 204 08:23 07.06.2020
1762 Clouds 12 1004 90 0 2.3 204 07:47 07.06.2020
1763 Clouds 12 1006 89 0 2.3 204 07:28 07.06.2020
1764 Clouds 10 1001 97 0 1.52 183 06:38 07.06.2020
1765 Clouds 9 1002 88 0 1.47 179 05:36 07.06.2020
1766 Clouds 9 1001 97 0 1.48 182 04:20 07.06.2020
1767 Clouds 9 1001 97 0 1.48 182 04:20 07.06.2020
1768 Clouds 8 1003 91 0 1.79 41 02:31 07.06.2020
1769 Clear 9 1004 91 0 1.34 41 01:50 07.06.2020
1770 Clear 9 1002 83 0 0.45 292 01:25 07.06.2020
1771 Clear 10 1003 89 0 1.62 174 00:42 07.06.2020
1772 Clear 9 1002 85 0 1.55 172 00:19 07.06.2020
1773 Clear 10 1003 89 0 1.55 172 23:57 06.06.2020
1774 Clear 10 1001 94 0 1.55 172 23:36 06.06.2020
1775 Clear 10 1001 94 0 1.55 172 23:36 06.06.2020
1776 Clear 10 1001 94 0 1.63 180 23:18 06.06.2020
1777 Clear 11 1002 80 0 1.63 180 22:56 06.06.2020
1778 Clear 11 1001 92 0 1.63 180 22:37 06.06.2020
1779 Clear 11 1003 88 0 1.76 186 22:18 06.06.2020
1780 Clear 13 1001 78 0 1.76 186 21:44 06.06.2020
1781 Clear 14 1004 72 0 1.83 179 21:22 06.06.2020
1782 Clear 14 1001 61 0 0.45 292 20:56 06.06.2020
1783 Clear 14 1001 54 0 1.83 179 20:37 06.06.2020
1784 Clouds 16 1001 50 0 2.27 213 20:18 06.06.2020
1785 Clouds 15 1000 49 0 2.27 213 19:56 06.06.2020
1786 Clouds 16 999 67 0 2.27 213 19:37 06.06.2020
1787 Rain 15 1000 50 0 0.45 270 19:19 06.06.2020
1788 Rain 15 1002 60 0 2.68 213 18:43 06.06.2020
1789 Rain 15 1002 60 0 2.68 213 18:24 06.06.2020
1790 Rain 15 1002 60 0 2.68 213 18:24 06.06.2020
1791 Rain 14 1000 57 0 1.34 292 17:58 06.06.2020
1792 Rain 14 999 78 0 4.34 227 17:39 06.06.2020
1793 Rain 14 1002 84 0 4.96 234 17:18 06.06.2020
1794 Rain 13 999 76 0 4.96 234 16:41 06.06.2020
1795 Rain 13 999 73 0 5.98 235 16:22 06.06.2020
1796 Rain 12 1000 74 0 0.45 292 15:56 06.06.2020
1797 Rain 12 1000 79 0 0.89 292 15:37 06.06.2020
1798 Rain 11 1001 89 0 5.55 226 15:19 06.06.2020
1799 Rain 13 998 69 0 5.55 226 14:43 06.06.2020
1800 Rain 13 1000 60 0 2.68 208 14:24 06.06.2020
1801 Rain 14 999 55 0 1.79 292 13:58 06.06.2020
1802 Rain 14 1000 60 0 2.68 208 13:40 06.06.2020
1803 Rain 15 998 52 0 2.68 292 13:18 06.06.2020
1804 Rain 14 1000 66 0 2.24 190 12:43 06.06.2020
1805 Rain 14 1000 66 0 2.24 190 12:23 06.06.2020
1806 Rain 13 998 61 0 1.79 292 11:58 06.06.2020
1807 Rain 13 997 68 0 0.45 228 11:38 06.06.2020
1808 Rain 13 997 72 0 5.39 225 11:20 06.06.2020
1809 Rain 13 1000 72 0 2.68 191 10:58 06.06.2020
1810 Rain 12 997 77 0 5.39 225 10:39 06.06.2020
1811 Clouds 11 997 75 0 5.12 225 10:21 06.06.2020
1812 Clouds 11 997 73 0 5.12 225 09:46 06.06.2020
1813 Clouds 11 997 73 0 5.12 225 09:46 06.06.2020
1814 Clouds 11 1000 78 0 0.89 211 09:28 06.06.2020
1815 Clouds 10 1000 79 0 0.89 196 08:58 06.06.2020
1816 Clouds 9 998 78 0 0.89 292 08:40 06.06.2020
1817 Clouds 9 997 79 0 4.35 220 08:20 06.06.2020
1818 Clouds 9 998 81 0 0.45 292 07:45 06.06.2020
1819 Clouds 8 999 92 0 4.31 218 07:22 06.06.2020
1820 Clouds 9 996 91 0 4.31 218 06:47 06.06.2020
1821 Clouds 7 998 100 0 1.79 186 06:29 06.06.2020
1822 Clouds 7 997 88 0 0.45 292 05:54 06.06.2020
1823 Clouds 7 997 88 0 0.45 292 05:28 06.06.2020
1824 Clouds 7 996 87 0 0.89 292 04:44 06.06.2020
1825 Clouds 7 995 95 0 4.12 226 02:52 06.06.2020
1826 Clouds 7 996 89 0 0.45 292 01:56 06.06.2020
1827 Clouds 7 995 95 0 4.37 237 01:19 06.06.2020
1828 Clouds 7 997 92 0 4.37 237 00:46 06.06.2020
1829 Clouds 8 996 89 0 0.45 225 00:27 06.06.2020
1830 Clouds 8 997 93 0 1.34 238 23:56 05.06.2020
1831 Clouds 8 993 95 0 0.45 232 23:37 05.06.2020
1832 Rain 8 993 95 0 5.98 258 23:18 05.06.2020
1833 Rain 8 994 87 0 0.89 270 22:55 05.06.2020
1834 Rain 9 992 95 0 5.98 258 22:37 05.06.2020
1835 Rain 9 992 96 0 6.91 242 22:18 05.06.2020
1836 Rain 9 992 96 0 6.91 242 22:18 05.06.2020
1837 Rain 8 992 90 0 0.45 270 21:41 05.06.2020
1838 Rain 8 992 89 0 0.45 292 21:22 05.06.2020
1839 Rain 8 991 90 0 0.89 292 20:58 05.06.2020
1840 Rain 8 993 93 0 5.54 228 20:39 05.06.2020
1841 Rain 8 990 97 0 7.16 231 20:20 05.06.2020
1842 Rain 10 989 96 0 7.16 231 19:42 05.06.2020
1843 Rain 9 989 95 0 4.97 217 19:23 05.06.2020
1844 Rain 10 991 86 0 1.79 292 18:57 05.06.2020
1845 Rain 11 990 92 0 4.97 217 18:38 05.06.2020
1846 Rain 11 992 87 0 1.79 142 18:19 05.06.2020
1847 Rain 12 994 86 0 5.38 207 17:57 05.06.2020
1848 Rain 13 994 84 0 5.38 207 17:39 05.06.2020
1849 Rain 14 990 70 0 6.11 211 17:18 05.06.2020
1850 Rain 15 994 65 0 6.11 211 16:39 05.06.2020
1851 Rain 15 991 66 0 6.06 210 16:20 05.06.2020
1852 Rain 15 991 65 0 6.06 210 15:47 05.06.2020
1853 Rain 14 995 64 0 5.76 211 15:23 05.06.2020
1854 Rain 14 995 63 0 5.76 211 14:59 05.06.2020
1855 Rain 15 996 63 0 5.76 211 14:40 05.06.2020
1856 Clouds 15 992 65 0 5.43 216 14:22 05.06.2020
1857 Clouds 14 996 64 0 5.43 216 13:58 05.06.2020
1858 Clouds 14 993 55 0 2.68 292 13:39 05.06.2020
1859 Clouds 14 992 60 0 4.89 225 13:20 05.06.2020
1860 Clouds 13 992 63 0 4.89 225 12:42 05.06.2020
1861 Clouds 13 995 66 0 2.24 208 12:20 05.06.2020
1862 Clouds 12 994 64 0 1.34 292 11:56 05.06.2020
1863 Clouds 12 993 69 0 4.89 228 11:37 05.06.2020
1864 Clouds 12 996 73 0 1.34 237 11:19 05.06.2020
1865 Clouds 11 996 76 0 3.58 223 10:42 05.06.2020
1866 Clouds 10 996 79 0 3.13 224 10:21 05.06.2020
1867 Clouds 10 994 78 0 1.34 270 09:58 05.06.2020
1868 Rain 10 996 86 0 3.13 236 09:40 05.06.2020
1869 Clouds 9 993 92 0 0.45 174 09:21 05.06.2020
1870 Clouds 9 996 96 0 1.34 254 08:59 05.06.2020
1871 Clouds 9 993 96 0 4.37 253 08:40 05.06.2020
1872 Rain 9 995 89 0 0.89 292 08:19 05.06.2020
1873 Rain 9 994 92 0 0.89 270 07:53 05.06.2020
1874 Rain 8 996 97 0 0.89 254 07:35 05.06.2020
1875 Clouds 8 992 98 0 4.42 264 06:51 05.06.2020
1876 Rain 8 994 94 0 4.57 267 05:24 05.06.2020
1877 Rain 9 993 93 0 4.57 267 04:44 05.06.2020
1878 Rain 10 994 96 0 1.34 227 03:50 05.06.2020
1879 Rain 11 994 96 0 0.45 252 02:39 05.06.2020
1880 Clouds 11 990 99 0 3.63 266 02:18 05.06.2020
1881 Rain 11 992 93 0 3.02 267 01:49 05.06.2020
1882 Rain 11 994 96 0 0.45 277 00:58 05.06.2020
1883 Rain 11 990 10 0 1.9 265 00:39 05.06.2020
1884 Clouds 11 990 10 0 1.99 279 00:19 05.06.2020
1885 Clouds 11 992 93 0 1.99 279 23:46 04.06.2020
1886 Clouds 11 992 93 0 2.61 287 23:24 04.06.2020
1887 Clouds 12 992 93 0 2.61 287 22:44 04.06.2020
1888 Clouds 12 993 96 0 0.89 293 22:22 04.06.2020
1889 Clouds 13 992 93 0 2.53 288 21:59 04.06.2020
1890 Clouds 13 989 10 0 2.53 288 21:40 04.06.2020
1891 Clouds 13 989 10 0 4.05 296 21:21 04.06.2020
1892 Clouds 13 993 96 0 4.05 296 20:58 04.06.2020
1893 Clouds 14 989 10 0 4.05 296 20:39 04.06.2020
1894 Rain 14 989 10 0 4.76 286 20:20 04.06.2020
1895 Rain 14 991 93 0 4.76 286 19:57 04.06.2020
1896 Rain 14 989 10 0 4.76 286 19:38 04.06.2020
1897 Rain 14 989 10 0 3.39 257 19:19 04.06.2020
1898 Rain 14 992 94 0 3.39 257 18:40 04.06.2020
1899 Rain 15 989 10 0 2.97 259 18:21 04.06.2020
1900 Rain 15 994 96 0 2.97 259 17:59 04.06.2020
1901 Rain 15 994 95 0 2.97 259 17:41 04.06.2020
1902 Rain 15 994 95 0 2.97 259 17:41 04.06.2020
1903 Rain 15 991 94 0 2.94 245 17:20 04.06.2020
1904 Rain 15 994 94 0 2.94 245 16:41 04.06.2020
1905 Rain 14 991 94 0 1.59 254 16:21 04.06.2020
1906 Rain 14 992 94 0 1.59 254 15:56 04.06.2020
1907 Rain 14 992 93 0 1.59 254 15:37 04.06.2020
1908 Rain 14 990 10 0 0.63 218 15:19 04.06.2020
1909 Rain 15 993 90 0 0.63 218 14:39 04.06.2020
1910 Rain 15 992 92 0 1.93 224 14:19 04.06.2020
1911 Rain 15 992 91 0 1.93 224 13:56 04.06.2020
1912 Rain 15 990 99 0 1.93 224 13:37 04.06.2020
1913 Rain 15 990 10 0 0.61 216 13:18 04.06.2020
1914 Rain 15 994 90 0 0.61 216 12:54 04.06.2020
1915 Rain 14 990 10 0 0.61 216 12:36 04.06.2020
1916 Rain 16 996 94 0 1.6 349 12:18 04.06.2020
1917 Rain 15 993 91 0 1.6 349 11:39 04.06.2020
1918 Rain 15 993 90 0 1.44 334 11:20 04.06.2020
1919 Rain 15 995 81 0 0.45 217 10:58 04.06.2020
1920 Rain 16 991 86 0 1.44 334 10:38 04.06.2020
1921 Rain 16 991 85 0 1.38 277 10:19 04.06.2020
1922 Rain 15 993 80 0 1.38 277 09:45 04.06.2020
1923 Rain 15 993 75 0 0.45 270 09:27 04.06.2020
1924 Rain 15 994 75 0 1.42 203 08:49 04.06.2020
1925 Rain 15 995 81 0 1.42 203 08:28 04.06.2020
1926 Clouds 14 995 81 0 1.19 217 07:58 04.06.2020
1927 Clouds 15 994 86 0 1.19 217 07:29 04.06.2020
1928 Clouds 13 994 87 0 0.73 158 06:44 04.06.2020
1929 Clouds 13 994 87 0 1.12 148 06:26 04.06.2020
1930 Clouds 13 993 89 0 1.12 148 05:39 04.06.2020
1931 Clouds 13 993 89 0 1.22 143 05:20 04.06.2020
1932 Clouds 13 998 84 0 1.79 38 03:28 04.06.2020
1933 Clouds 14 998 90 0 1.03 155 01:57 04.06.2020
1934 Clouds 14 996 89 0 1.3 159 01:20 04.06.2020
1935 Clouds 14 999 89 0 1.3 159 00:50 04.06.2020
1936 Clouds 14 997 90 0 1.37 162 23:56 03.06.2020
1937 Clouds 14 999 87 0 1.79 165 23:36 03.06.2020
1938 Clouds 14 999 77 0 1.71 157 23:18 03.06.2020
1939 Clouds 14 1000 84 0 1.71 157 22:40 03.06.2020
1940 Rain 14 998 96 0 1.55 122 22:19 03.06.2020
1941 Rain 14 1000 86 0 1.55 122 21:58 03.06.2020
1942 Rain 14 1001 89 0 1.34 31 21:40 03.06.2020
1943 Rain 15 1000 83 0 0.33 39 21:21 03.06.2020
1944 Rain 15 1001 86 0 0.45 65 20:58 03.06.2020
1945 Rain 15 997 96 0 0.33 39 20:39 03.06.2020
1946 Rain 15 997 94 0 1.5 253 20:20 03.06.2020
1947 Rain 15 1000 79 0 1.5 253 19:57 03.06.2020
1948 Rain 18 1000 71 0 1.5 253 19:37 03.06.2020
1949 Rain 18 1000 71 0 1.5 253 19:37 03.06.2020
1950 Rain 19 998 95 0 2.31 162 19:19 03.06.2020
1951 Rain 20 1000 50 0 2.31 162 18:55 03.06.2020
1952 Rain 19 999 96 0 2.31 162 18:37 03.06.2020
1953 Rain 21 1000 51 0 1.75 134 18:18 03.06.2020
1954 Rain 21 999 59 0 1.75 134 17:42 03.06.2020
1955 Rain 23 1002 52 0 1.72 109 17:21 03.06.2020
1956 Rain 22 1002 52 0 1.72 109 16:56 03.06.2020
1957 Rain 24 1002 42 0 0.89 256 16:38 03.06.2020
1958 Rain 24 1002 42 0 0.89 256 16:38 03.06.2020
1959 Rain 23 999 55 0 0.93 84 16:19 03.06.2020
1960 Rain 22 999 58 0 0.93 84 15:41 03.06.2020
1961 Rain 23 1000 53 0 0.5 256 15:21 03.06.2020
1962 Rain 24 1002 38 0 0.5 256 14:59 03.06.2020
1963 Rain 25 1002 39 0 0.5 256 14:40 03.06.2020
1964 Rain 24 1002 43 0 0.89 270 14:21 03.06.2020
1965 Rain 25 1000 48 0 0.47 223 13:39 03.06.2020
1966 Rain 24 1003 44 0 0.45 292 13:20 03.06.2020
1967 Rain 23 1001 48 0 0.32 200 12:43 03.06.2020
1968 Rain 23 1005 48 0 0.74 220 12:23 03.06.2020
1969 Rain 23 1005 48 0 0.74 220 11:59 03.06.2020
1970 Rain 22 1002 54 0 0.74 220 11:40 03.06.2020
1971 Rain 21 1006 52 0 1.34 136 11:22 03.06.2020
1972 Rain 21 1006 52 0 1.34 136 10:42 03.06.2020
1973 Rain 21 1006 52 0 1.34 136 10:24 03.06.2020
1974 Rain 21 1002 56 0 0.81 181 09:47 03.06.2020
1975 Rain 21 1002 56 0 0.81 181 09:47 03.06.2020
1976 Clouds 18 1006 65 0 0.45 44 09:23 03.06.2020
1977 Clouds 19 1005 61 0 0.45 292 08:59 03.06.2020
1978 Clouds 18 1005 65 0 1.09 176 08:41 03.06.2020
1979 Clouds 16 1005 65 0 1.12 167 08:21 03.06.2020
1980 Clouds 16 1005 70 0 1.12 167 07:44 03.06.2020
1981 Clouds 16 1007 71 0 1.79 46 07:23 03.06.2020
1982 Clouds 15 1007 71 0 1.79 46 06:54 03.06.2020
1983 Clouds 14 1004 68 0 1.53 148 06:33 03.06.2020
1984 Clouds 14 1004 68 0 1.53 148 06:33 03.06.2020
1985 Clouds 13 1004 71 0 1.34 139 05:49 03.06.2020
1986 Clouds 13 1004 70 0 0.79 152 05:21 03.06.2020
1987 Clouds 14 1009 66 0 2.68 36 03:52 03.06.2020
1988 Clouds 14 1005 67 0 0.73 165 03:23 03.06.2020
1989 Clouds 15 1008 69 0 0.89 153 02:24 03.06.2020
1990 Clouds 15 1009 62 0 1.02 141 00:56 03.06.2020
1991 Clouds 15 1009 63 0 1.02 141 00:37 03.06.2020
1992 Clouds 16 1009 61 0 1.02 136 00:18 03.06.2020
1993 Clouds 15 1010 64 0 1.02 136 23:38 02.06.2020
1994 Clouds 15 1010 65 0 0.92 116 23:20 02.06.2020
1995 Clouds 18 1012 63 0 1.34 35 22:39 02.06.2020
1996 Clouds 19 1012 63 0 1.34 35 22:19 02.06.2020
1997 Clouds 19 1011 57 0 0.89 91 21:57 02.06.2020
1998 Clouds 19 1008 62 0 0.89 91 21:39 02.06.2020
1999 Clouds 20 1012 61 0 1.34 41 21:20 02.06.2020
2000 Clouds 21 1011 56 0 0.76 66 20:59 02.06.2020
2001 Clouds 21 1012 53 0 0.76 66 20:40 02.06.2020
2002 Clouds 22 1009 58 0 0.59 22 20:22 02.06.2020
2003 Clouds 23 1009 50 0 0.59 22 19:45 02.06.2020
2004 Clouds 24 1009 47 0 0.75 304 19:26 02.06.2020
2005 Clouds 25 1014 28 10000 1 0 18:59 02.06.2020
2006 Clouds 25 1014 28 10000 1 0 18:40 02.06.2020
2007 Clouds 24 1014 27 10000 2.1 0 18:20 02.06.2020
2008 Clouds 24 1015 27 10000 2.1 80 17:59 02.06.2020
2009 Clouds 25 1015 27 10000 2.1 80 17:40 02.06.2020
2010 Clouds 25 1015 27 10000 2.1 0 17:21 02.06.2020
2011 Clouds 25 1016 26 10000 1.5 0 16:55 02.06.2020
2012 Clouds 25 1016 26 10000 1.5 0 16:37 02.06.2020
2013 Clouds 25 1016 27 10000 1.5 0 16:19 02.06.2020
2014 Clouds 25 1017 27 10000 3.1 0 15:40 02.06.2020
2015 Clouds 25 1017 27 10000 2.1 0 15:22 02.06.2020
2016 Clouds 24 1017 42 0 1.79 65 14:48 02.06.2020
2017 Clouds 23 1017 42 0 1.34 41 14:28 02.06.2020
2018 Clouds 23 1017 44 0 1.34 78 13:57 02.06.2020
2019 Clouds 23 1014 46 0 1.45 125 13:37 02.06.2020
2020 Clouds 23 1014 46 0 1.45 125 13:37 02.06.2020
2021 Clouds 23 1014 49 0 1.91 114 13:18 02.06.2020
2022 Clouds 22 1017 44 0 0.45 292 12:57 02.06.2020
2023 Clouds 22 1017 45 0 0.89 292 12:38 02.06.2020
2024 Clear 22 1017 49 0 2.37 103 12:20 02.06.2020
2025 Clear 21 1019 49 0 0.45 160 11:43 02.06.2020
2026 Clear 20 1018 50 0 2.36 100 11:24 02.06.2020
2027 Clear 20 1018 53 0 2.36 100 10:59 02.06.2020
2028 Clear 20 1018 54 0 2.36 100 10:41 02.06.2020
2029 Clear 20 1018 54 0 2.36 100 10:41 02.06.2020
2030 Clear 20 1016 52 0 2.39 100 10:22 02.06.2020
2031 Clear 19 1021 60 0 2.39 100 09:43 02.06.2020
2032 Clouds 16 1021 69 0 0.45 261 09:22 02.06.2020
2033 Clouds 16 1019 62 0 1.94 95 08:57 02.06.2020
2034 Clouds 14 1019 66 0 1.94 95 08:29 02.06.2020
2035 Clear 15 1019 70 0 1.38 88 07:59 02.06.2020
2036 Clear 14 1017 58 0 1.38 88 07:39 02.06.2020
2037 Clear 14 1020 71 0 1.24 85 07:19 02.06.2020
2038 Clear 13 1020 69 0 1.24 85 06:43 02.06.2020
2039 Clear 9 1019 84 0 1.32 80 05:46 02.06.2020
2040 Clear 10 1019 81 0 1.29 80 04:54 02.06.2020
2041 Clear 12 1017 68 0 1.61 90 03:20 02.06.2020
2042 Clear 12 1019 74 0 1.84 88 02:20 02.06.2020
2043 Clear 10 1020 100 0 0.45 178 00:57 02.06.2020
2044 Clear 12 1020 64 0 1.92 79 00:23 02.06.2020
2045 Clear 12 1020 67 0 1.92 79 23:39 01.06.2020
2046 Clear 12 1020 66 0 2.27 74 23:21 01.06.2020
2047 Clear 15 1020 64 0 2.27 74 22:59 01.06.2020
2048 Clear 15 1021 60 0 2.27 74 22:40 01.06.2020
2049 Clear 16 1021 60 0 2.51 68 22:20 01.06.2020
2050 Clear 16 1021 60 0 2.51 68 22:20 01.06.2020
2051 Clear 17 1020 57 0 2.51 68 21:57 01.06.2020
2052 Clear 17 1020 52 0 2.51 68 21:37 01.06.2020
2053 Clear 18 1017 50 0 2.11 59 21:18 01.06.2020
2054 Clear 19 1017 48 0 2.11 59 20:54 01.06.2020
2055 Clear 19 1017 47 0 2.11 59 20:36 01.06.2020
2056 Clear 21 1017 46 0 2.58 62 20:18 01.06.2020
2057 Clear 21 1017 46 0 2.58 62 20:18 01.06.2020
2058 Clear 22 1017 42 0 2.58 62 19:42 01.06.2020
2059 Clear 22 1021 41 0 2.24 32 19:21 01.06.2020
2060 Clear 22 1021 41 0 2.24 68 18:58 01.06.2020
2061 Clear 22 1017 41 0 3.23 68 18:39 01.06.2020
2062 Clear 22 1017 41 0 3.82 71 18:19 01.06.2020
2063 Clear 23 1021 41 0 3.13 69 17:55 01.06.2020
2064 Clear 23 1018 44 0 3.82 71 17:36 01.06.2020
2065 -273 0 0 0 0 0 17:18 01.06.2020
2066 Clear 23 1021 38 0 2.24 55 16:39 01.06.2020
2067 Clear 22 1018 41 0 4.22 66 16:20 01.06.2020
2068 Clear 22 1018 40 0 4.22 66 15:55 01.06.2020
2069 Clear 22 1021 42 0 2.24 63 15:37 01.06.2020
2070 Clear 22 1018 41 0 4.26 67 15:18 01.06.2020
2071 Clear 22 1022 47 0 1.34 76 14:56 01.06.2020
2072 Clear 22 1019 41 0 4.26 67 14:38 01.06.2020
2073 Clear 22 1019 40 0 3.59 64 14:19 01.06.2020
2074 Clear 21 1023 51 0 2.68 0 13:43 01.06.2020
2075 Clear 21 1019 46 0 3.16 68 13:21 01.06.2020
2076 Clear 20 1022 48 0 0.45 90 12:58 01.06.2020
2077 Clear 20 1022 50 0 0.45 90 12:40 01.06.2020
2078 Clear 20 1022 50 0 0.45 90 12:40 01.06.2020
2079 Clear 19 1024 53 0 2.24 300 12:21 01.06.2020
2080 Clear 19 1024 53 0 2.24 291 11:58 01.06.2020
2081 Clear 18 1024 54 0 2.24 355 11:37 01.06.2020
2082 Clear 18 1022 56 0 0.45 112 11:18 01.06.2020
2083 Clear 18 1023 59 0 2.61 71 10:55 01.06.2020
2084 Clear 17 1023 52 0 0.45 112 10:36 01.06.2020
2085 Clear 17 1020 61 0 1.9 65 10:18 01.06.2020
2086 Clear 15 1023 59 0 1.9 65 09:44 01.06.2020
2087 Clear 14 1023 67 0 0.45 32 09:25 01.06.2020
2088 Clear 13 1023 67 0 0.45 32 08:55 01.06.2020
2089 Clear 11 1023 73 0 1.62 65 08:33 01.06.2020
2090 Clouds 10 1024 72 0 1.23 60 07:58 01.06.2020
2091 Clouds 10 1023 80 0 1.23 60 07:39 01.06.2020
2092 Clouds 10 1023 80 0 1.28 60 07:21 01.06.2020
2093 Clouds 9 1023 80 0 1.79 40 06:49 01.06.2020
2094 Clouds 7 1022 86 0 1.32 63 05:56 01.06.2020
2095 Clouds 7 1022 77 0 1.3 61 04:56 01.06.2020
2096 Clouds 9 1021 73 0 1.34 65 03:56 01.06.2020
2097 Clouds 9 1019 70 0 1.34 65 03:37 01.06.2020
2098 Clouds 8 1021 76 0 0.45 67 02:49 01.06.2020
2099 Clouds 9 1021 69 0 1.73 66 01:40 01.06.2020
2100 Clouds 10 1021 66 0 0.45 67 01:18 01.06.2020
2101 Clouds 12 1022 73 0 1.79 38 00:46 01.06.2020
2102 Clouds 13 1019 68 0 2.23 57 00:21 01.06.2020
2103 Clouds 13 1022 63 0 2.23 57 23:59 31.05.2020
2104 Clouds 12 1022 73 0 1.79 38 23:40 31.05.2020
2105 Clouds 13 1022 73 0 1.79 38 23:22 31.05.2020
2106 Clouds 13 1021 67 0 2.88 49 22:58 31.05.2020
2107 Clouds 13 1022 71 0 1.79 40 22:40 31.05.2020
2108 Clouds 14 1022 71 0 1.79 42 22:21 31.05.2020
2109 Clouds 14 1022 66 0 0.45 9 21:57 31.05.2020
2110 Clouds 15 1019 62 0 3.43 38 21:38 31.05.2020
2111 Clouds 16 1018 60 0 3.25 30 21:20 31.05.2020
2112 Clear 18 1020 50 0 2.94 30 20:42 31.05.2020
2113 Clouds 18 1020 49 0 3.63 31 20:24 31.05.2020
2114 Clouds 20 1018 50 0 3.63 31 19:56 31.05.2020
2115 Clouds 19 1018 51 0 3.63 31 19:37 31.05.2020
2116 Clouds 20 1018 51 0 3.65 34 19:19 31.05.2020
2117 Clouds 19 1018 49 0 3.65 34 18:44 31.05.2020
2118 Clouds 20 1022 46 0 2.68 44 18:25 31.05.2020
2119 Clouds 20 1020 44 0 3.82 33 17:59 31.05.2020
2120 Clouds 20 1018 52 0 3.82 33 17:40 31.05.2020
2121 Clouds 19 1018 50 0 3.85 33 17:20 31.05.2020
2122 Clouds 19 1018 53 0 3.85 33 16:41 31.05.2020
2123 Clouds 20 1021 47 0 0.89 49 16:21 31.05.2020
2124 Clouds 19 1021 49 0 0.45 112 15:55 31.05.2020
2125 Clouds 19 1021 50 0 0.45 112 15:36 31.05.2020
2126 Clouds 18 1018 53 0 4.27 40 15:18 31.05.2020
2127 Clouds 18 1021 51 0 0.45 90 14:41 31.05.2020
2128 Clouds 18 1019 56 0 4.03 38 14:19 31.05.2020
2129 Clouds 17 1021 53 0 0.45 90 13:55 31.05.2020
2130 Clouds 17 1021 53 0 0.45 90 13:55 31.05.2020
2131 Clouds 17 1022 50 0 1.34 344 13:37 31.05.2020
2132 Clouds 16 1019 58 0 4.37 34 13:19 31.05.2020
2133 Clouds 16 1019 60 0 4.37 34 12:46 31.05.2020
2134 Clouds 14 1024 67 0 1.79 323 12:24 31.05.2020
2135 Clouds 15 1022 59 0 0.89 112 11:56 31.05.2020
2136 Clouds 15 1022 60 0 4.17 32 11:38 31.05.2020
2137 Clouds 14 1019 64 0 3.91 31 11:19 31.05.2020
2138 Clouds 13 1022 72 0 3.91 31 10:44 31.05.2020
2139 Clouds 13 1022 72 0 3.91 31 10:44 31.05.2020
2140 Clouds 13 1022 72 0 3.91 31 10:44 31.05.2020
2141 Clouds 13 1022 72 0 3.42 36 10:26 31.05.2020
2142 Clouds 14 1024 63 0 3.42 36 09:59 31.05.2020
2143 Clouds 13 1022 70 0 3.42 36 09:41 31.05.2020
2144 Clouds 12 1023 75 0 3.49 39 09:21 31.05.2020
2145 Clouds 10 1022 75 0 3.4 35 08:43 31.05.2020
2146 Clouds 10 1022 76 0 2.67 27 08:24 31.05.2020
2147 Clouds 9 1019 76 0 2.67 27 07:52 31.05.2020
2148 Clouds 9 1019 81 0 2.01 34 07:22 31.05.2020
2149 Clouds 9 1019 81 0 2.01 34 07:22 31.05.2020
2150 Clouds 8 1022 84 0 2.01 34 06:58 31.05.2020
2151 Clouds 7 1018 83 0 2.01 34 06:36 31.05.2020
2152 Clouds 5 1021 85 0 1.64 38 05:56 31.05.2020
2153 Clouds 7 1021 85 0 1.64 38 05:37 31.05.2020
2154 Clouds 7 1021 81 0 1.89 50 04:20 31.05.2020
2155 Clouds 7 1022 80 0 1.89 50 03:47 31.05.2020
2156 Clouds 8 1022 77 0 1.91 48 02:58 31.05.2020
2157 Clouds 7 1021 81 0 2.2 49 01:47 31.05.2020
2158 Clouds 7 1021 78 0 2.1 46 00:52 31.05.2020
2159 Clouds 10 1022 64 0 0.45 90 00:29 31.05.2020
2160 Clouds 11 1021 62 0 2.22 38 23:45 30.05.2020
2161 Clouds 11 1021 58 0 2.75 38 23:27 30.05.2020
2162 Clouds 11 1021 70 0 2.75 38 22:59 30.05.2020
2163 Clouds 12 1023 60 0 1.34 56 22:40 30.05.2020
2164 Clouds 13 1019 66 0 2.97 38 22:21 30.05.2020
2165 Clouds 13 1022 53 0 2.97 38 21:55 30.05.2020
2166 Clouds 14 1023 57 0 2.97 38 21:37 30.05.2020
2167 Clouds 14 1019 61 0 2.97 43 21:18 30.05.2020
2168 Clouds 15 1021 50 0 0.45 90 20:56 30.05.2020
2169 Clouds 16 1021 50 0 2.97 43 20:37 30.05.2020
2170 Clouds 15 1019 58 0 3.85 51 20:19 30.05.2020
2171 Clouds 16 1019 51 0 3.85 51 19:41 30.05.2020
2172 Clouds 16 1019 52 0 4.64 48 19:21 30.05.2020
2173 Clouds 18 1021 46 0 0.45 90 18:45 30.05.2020
2174 Clouds 17 1021 45 0 5.12 43 18:24 30.05.2020
2175 Clouds 17 1021 43 0 5.12 43 17:55 30.05.2020
2176 Clouds 18 1021 42 0 0.45 90 17:37 30.05.2020
2177 Clouds 18 1019 47 0 5.25 45 17:18 30.05.2020
2178 Clouds 17 1019 48 0 5.25 45 16:41 30.05.2020
2179 Clouds 17 1022 42 0 0.45 90 16:22 30.05.2020
2180 Clouds 17 1022 41 0 5.42 50 15:48 30.05.2020
2181 Clouds 17 1022 43 0 0.89 90 15:29 30.05.2020
2182 Clouds 17 1022 47 0 5.65 45 14:48 30.05.2020
2183 Clouds 17 1022 47 0 5.23 46 14:30 30.05.2020
2184 Clouds 17 1023 46 0 5.53 48 13:58 30.05.2020
2185 Clouds 17 1020 47 0 5.53 48 13:40 30.05.2020
2186 Clouds 17 1020 47 0 5.44 50 13:18 30.05.2020
2187 Clouds 16 1021 48 0 5.44 50 12:39 30.05.2020
2188 Clouds 16 1021 48 0 0.89 131 12:20 30.05.2020
2189 Clouds 16 1024 54 0 0.45 112 11:42 30.05.2020
2190 Clouds 16 1021 48 0 5.05 53 11:23 30.05.2020
2191 Clouds 16 1026 50 0 5.05 53 10:58 30.05.2020
2192 Clouds 16 1026 56 0 5.05 53 10:38 30.05.2020
2193 Clouds 15 1021 50 0 4.39 55 10:20 30.05.2020
2194 Clouds 15 1021 50 0 4.39 55 10:20 30.05.2020
2195 Clouds 14 1024 46 0 0.45 90 09:45 30.05.2020
2196 Clouds 12 1026 74 0 0.45 254 09:26 30.05.2020
2197 Clouds 12 1022 55 0 3.72 57 08:46 30.05.2020
2198 Clear 12 1026 82 0 3.04 60 08:27 30.05.2020
2199 Clear 11 1021 60 0 3.04 60 07:41 30.05.2020
2200 Clear 11 1021 60 0 2.16 55 07:20 30.05.2020
2201 Clear 7 1023 88 0 2.16 55 06:31 30.05.2020
2202 Clear 6 1024 88 0 1.87 53 05:52 30.05.2020
2203 Clear 6 1024 87 0 1.74 53 05:20 30.05.2020
2204 Clear 8 1024 82 0 1.71 53 03:35 30.05.2020
2205 Clear 9 1023 81 0 1.56 56 02:29 30.05.2020
2206 Clouds 10 1024 75 0 1.66 64 01:30 30.05.2020
2207 Clouds 10 1024 69 0 1.85 74 00:36 30.05.2020
2208 Clouds 11 1024 67 0 1.99 76 00:18 30.05.2020
2209 Clouds 11 1024 65 0 1.99 76 23:41 29.05.2020
2210 Clouds 12 1023 75 0 1.77 77 23:20 29.05.2020
2211 Clouds 12 1024 62 0 1.77 77 22:58 29.05.2020
2212 Clouds 13 1024 60 0 1.77 77 22:39 29.05.2020
2213 Clouds 14 1022 53 0 1.78 70 22:19 29.05.2020
2214 Clouds 14 1024 48 0 1.78 70 21:55 29.05.2020
2215 Clouds 13 1022 53 0 1.78 70 21:36 29.05.2020
2216 Clouds 15 1024 48 0 2.25 69 21:18 29.05.2020
2217 Clouds 16 1024 43 0 2.25 69 20:44 29.05.2020
2218 Clouds 17 1024 38 0 0.89 90 20:20 29.05.2020
2219 Clouds 18 1024 37 0 0.45 112 19:58 29.05.2020
2220 Clouds 18 1024 37 0 0.45 112 19:38 29.05.2020
2221 Clouds 18 1022 44 0 3.16 61 19:19 29.05.2020
2222 Clouds 18 1024 36 0 0.89 90 18:46 29.05.2020
2223 Clouds 19 1024 37 0 0.45 90 18:19 29.05.2020
2224 Clouds 19 1026 44 0 1.34 325 17:56 29.05.2020
2225 Clouds 19 1024 37 0 0.45 90 17:38 29.05.2020
2226 Clear 19 1026 48 0 0.45 346 17:19 29.05.2020
2227 Clear 19 1025 37 0 0.89 90 16:43 29.05.2020
2228 Clear 19 1025 36 0 0.45 90 16:24 29.05.2020
2229 Clear 19 1025 39 0 0.89 90 15:56 29.05.2020
2230 Clear 19 1023 41 0 3.81 81 15:38 29.05.2020
2231 Clear 18 1023 45 0 3.92 85 15:19 29.05.2020
2232 Clear 18 1026 45 0 0.89 112 14:43 29.05.2020
2233 Clear 18 1026 46 0 4.1 90 14:22 29.05.2020
2234 Clear 17 1026 48 0 0.89 90 13:57 29.05.2020
2235 Clear 18 1026 48 0 3.65 88 13:38 29.05.2020
2236 Clear 18 1025 57 0 3.74 86 13:18 29.05.2020
2237 Clear 17 1025 54 0 3.74 86 12:42 29.05.2020
2238 Clear 17 1029 52 0 1.79 333 12:23 29.05.2020
2239 Clear 16 1029 58 0 1.34 344 11:45 29.05.2020
2240 Clear 16 1027 49 0 0.45 90 11:27 29.05.2020
2241 Clear 16 1027 52 0 0.89 112 10:58 29.05.2020
2242 Clear 16 1028 53 0 0.45 90 10:38 29.05.2020
2243 Clear 16 1028 56 0 0.45 112 10:18 29.05.2020
2244 Clear 15 1028 58 0 0.45 90 09:43 29.05.2020
2245 Clear 13 1030 70 0 1.34 317 09:20 29.05.2020
2246 Clear 12 1030 76 0 0.89 267 08:56 29.05.2020
2247 Clear 12 1030 79 0 0.45 296 08:37 29.05.2020
2248 Clouds 12 1028 69 0 1.81 52 08:19 29.05.2020
2249 Clouds 10 1028 73 0 1.81 52 07:40 29.05.2020
2250 Clouds 9 1028 81 0 1.43 39 07:21 29.05.2020
2251 Clouds 8 1028 78 0 1.43 39 06:48 29.05.2020
2252 Clouds 7 1030 87 0 0.45 40 06:27 29.05.2020
2253 Clouds 7 1028 83 0 1.22 34 05:51 29.05.2020
2254 Clear 8 1028 74 0 1.15 53 02:39 29.05.2020
2255 Clouds 9 1028 72 0 1.43 45 01:42 29.05.2020
2256 Clouds 9 1028 74 0 1.78 47 01:23 29.05.2020
2257 Clouds 9 1028 77 0 1.78 47 00:46 29.05.2020
2258 Clouds 10 1028 76 0 1.99 49 00:21 29.05.2020
2259 Clouds 10 1028 74 0 1.99 49 23:39 28.05.2020
2260 Clouds 11 1028 73 0 2.46 49 23:19 28.05.2020
2261 Clouds 11 1028 69 0 2.46 49 22:44 28.05.2020
2262 Clouds 12 1028 66 0 2.69 39 22:26 28.05.2020
2263 Clouds 13 1028 62 0 2.69 39 21:58 28.05.2020
2264 Clouds 14 1027 59 0 2.69 39 21:40 28.05.2020
2265 Clouds 15 1027 55 0 2.72 36 21:20 28.05.2020
2266 Clouds 16 1027 50 0 2.72 36 20:57 28.05.2020
2267 Clouds 16 1027 46 0 2.72 36 20:39 28.05.2020
2268 Clouds 17 1028 46 0 0.45 11 20:18 28.05.2020
2269 Clouds 17 1027 41 0 3.25 31 19:56 28.05.2020
2270 Clouds 18 1027 41 0 0.45 90 19:38 28.05.2020
2271 Clouds 18 1028 41 0 3.53 16 19:20 28.05.2020
2272 Clouds 18 1028 38 0 0.45 90 18:43 28.05.2020
2273 Clear 18 1028 38 0 0.45 112 18:25 28.05.2020
2274 Clear 18 1029 44 0 1.79 48 17:57 28.05.2020
2275 Clear 18 1029 45 0 0.89 44 17:39 28.05.2020
2276 Clear 19 1028 38 0 0.45 90 17:19 28.05.2020
2277 Clear 19 1028 41 0 0.45 90 16:45 28.05.2020
2278 Clouds 18 1029 43 0 1.79 360 16:21 28.05.2020
2279 Clouds 18 1029 46 0 1.34 51 15:47 28.05.2020
2280 Clouds 18 1029 46 0 1.34 334 15:25 28.05.2020
2281 Clouds 18 1030 44 0 2.68 342 14:59 28.05.2020
2282 Clouds 18 1030 42 0 1.34 294 14:40 28.05.2020
2283 Clouds 18 1030 42 0 1.34 294 14:22 28.05.2020
2284 Clouds 18 1030 42 0 1.34 294 14:22 28.05.2020
2285 Clouds 17 1030 44 0 1.34 285 13:45 28.05.2020
2286 Clouds 16 1030 47 0 0.45 112 13:27 28.05.2020
2287 Clouds 16 1030 51 0 4.05 4 12:43 28.05.2020
2288 Clouds 15 1032 53 0 4.02 341 12:20 28.05.2020
2289 Clouds 15 1030 52 0 0.45 112 11:54 28.05.2020
2290 Clouds 15 1030 53 0 0.45 112 11:36 28.05.2020
2291 Clouds 15 1030 45 0 0.45 296 11:18 28.05.2020
2292 Clouds 14 1030 43 0 2.24 265 10:42 28.05.2020
2293 Clouds 13 1030 53 0 0.45 90 10:24 28.05.2020
2294 Clouds 13 1030 58 0 2.92 351 09:56 28.05.2020
2295 Clouds 13 1031 58 0 2.92 351 09:38 28.05.2020
2296 Clouds 12 1033 58 10000 3.1 330 09:18 28.05.2020
2297 Clouds 11 1031 74 0 0.89 288 08:43 28.05.2020
2298 Clouds 11 1031 74 0 0.89 288 08:22 28.05.2020
2299 Clouds 10 1031 84 0 0.89 307 07:41 28.05.2020
2300 Clouds 10 1031 84 0 0.89 307 07:23 28.05.2020
2301 Clouds 10 1031 78 0 2.41 353 06:44 28.05.2020
2302 Clouds 8 1033 82 0 2.31 357 06:26 28.05.2020
2303 Clouds 9 1032 83 0 1.34 0 05:39 28.05.2020
2304 Clouds 9 1032 85 0 0.89 346 04:37 28.05.2020
2305 Clouds 10 1030 78 0 2.44 358 04:18 28.05.2020
2306 Clouds 12 1030 79 0 0.45 355 02:56 28.05.2020
2307 Clouds 11 1030 79 0 2.65 5 02:38 28.05.2020
2308 Clouds 12 1032 75 0 2.68 333 01:45 28.05.2020
2309 Clouds 13 1030 73 0 3.91 12 00:49 28.05.2020
2310 Rain 14 1030 72 0 3.88 10 00:20 28.05.2020
2311 Rain 14 1030 70 0 3.88 10 23:56 27.05.2020
2312 Rain 14 1030 70 0 3.88 10 23:56 27.05.2020
2313 Rain 15 1031 73 0 1.34 345 23:37 27.05.2020
2314 Rain 15 1030 70 0 3.64 347 23:19 27.05.2020
2315 Rain 16 1029 68 0 0.45 40 22:42 27.05.2020
2316 Rain 16 1029 68 0 0.45 40 22:23 27.05.2020
2317 Rain 16 1029 68 0 0.45 40 21:57 27.05.2020
2318 Rain 16 1029 67 0 0.45 35 21:39 27.05.2020
2319 Rain 16 1029 67 0 0.45 35 21:39 27.05.2020
2320 Clouds 17 1028 60 0 1.96 338 21:20 27.05.2020
2321 Clouds 18 1029 61 0 1.96 338 20:58 27.05.2020
2322 Clouds 19 1029 54 0 1.96 338 20:39 27.05.2020
2323 Rain 19 1029 54 0 2.18 337 20:19 27.05.2020
2324 Rain 20 1030 51 0 1.34 331 19:46 27.05.2020
2325 Clouds 21 1028 48 0 2.91 324 19:21 27.05.2020
2326 Clouds 21 1028 48 0 2.91 324 18:54 27.05.2020
2327 Clouds 20 1029 54 0 2.91 324 18:36 27.05.2020
2328 Clouds 20 1028 48 0 2.96 306 18:18 27.05.2020
2329 Clouds 21 1030 50 0 0.89 288 17:42 27.05.2020
2330 Clouds 21 1030 50 0 0.89 288 17:23 27.05.2020
2331 Clouds 21 1029 45 0 2.95 306 16:56 27.05.2020
2332 Clouds 21 1029 42 0 2.95 306 16:38 27.05.2020
2333 Rain 22 1029 42 0 0.45 270 16:19 27.05.2020
2334 Rain 21 1029 42 0 0.45 112 15:49 27.05.2020
2335 Clouds 21 1030 45 0 3.02 308 15:23 27.05.2020
2336 Clouds 21 1030 44 0 0.45 292 14:55 27.05.2020
2337 Clouds 21 1031 48 0 0.89 252 14:37 27.05.2020
2338 Clouds 21 1032 48 0 1.34 251 14:19 27.05.2020
2339 Clouds 21 1032 51 0 1.79 295 13:42 27.05.2020
2340 Clouds 20 1032 52 0 1.79 321 13:23 27.05.2020
2341 Clouds 20 1031 51 0 0.45 90 12:43 27.05.2020
2342 Clouds 19 1031 49 0 0.45 270 12:24 27.05.2020
2343 Clouds 19 1031 49 0 0.45 270 11:59 27.05.2020
2344 Clouds 19 1031 50 0 0.45 270 11:37 27.05.2020
2345 Clouds 18 1033 65 0 0.89 249 11:19 27.05.2020
2346 Clouds 18 1032 52 0 0.45 270 10:55 27.05.2020
2347 Clouds 18 1033 73 0 0.45 230 10:37 27.05.2020
2348 Clouds 18 1033 73 0 1.79 250 10:18 27.05.2020
2349 Clouds 15 1032 71 0 1.79 250 09:40 27.05.2020
2350 Clouds 15 1032 71 0 1.32 245 09:21 27.05.2020
2351 Clouds 13 1035 82 0 1.32 245 08:43 27.05.2020
2352 Clouds 13 1032 79 0 0.94 243 08:25 27.05.2020
2353 Clouds 12 1036 81 0 0.94 243 07:59 27.05.2020
2354 Clouds 12 1036 81 0 0.94 243 07:59 27.05.2020
2355 Clouds 12 1033 90 0 0.94 243 07:40 27.05.2020
2356 Clouds 11 1033 90 0 0.72 252 07:22 27.05.2020
2357 Clouds 10 1036 79 0 0.72 252 06:43 27.05.2020
2358 Clouds 8 1032 93 0 0.65 246 06:19 27.05.2020
2359 Clouds 7 1032 93 0 0.65 246 05:47 27.05.2020
2360 Clouds 9 1033 87 0 1.79 34 04:24 27.05.2020
2361 Clouds 10 1031 89 0 0.49 192 02:32 27.05.2020
2362 Clouds 10 1033 86 0 0.37 229 01:53 27.05.2020
2363 Clouds 11 1033 86 0 0.15 217 01:25 27.05.2020
2364 Clouds 11 1033 83 0 0.15 217 00:46 27.05.2020
2365 Clouds 11 1033 81 0 0.21 69 00:20 27.05.2020
2366 Clouds 12 1034 83 0 1.34 44 23:54 26.05.2020
2367 Clouds 12 1033 81 0 0.21 69 23:36 26.05.2020
2368 Clouds 12 1033 79 0 0.41 59 23:18 26.05.2020
2369 Clouds 12 1033 79 0 0.41 59 23:18 26.05.2020
2370 Clouds 12 1033 79 0 0.41 59 23:18 26.05.2020
2371 Clouds 13 1034 81 0 1.34 37 22:40 26.05.2020
2372 Clouds 13 1034 81 0 0.89 43 22:21 26.05.2020
2373 Clouds 14 1033 72 0 0.52 26 21:58 26.05.2020
2374 Clouds 15 1033 70 0 0.52 26 21:40 26.05.2020
2375 Clouds 16 1033 66 0 0.81 23 21:21 26.05.2020
2376 Clouds 17 1033 62 0 0.81 23 20:56 26.05.2020
2377 Clouds 17 1032 58 0 0.81 23 20:37 26.05.2020
2378 Clouds 18 1033 64 0 1.57 14 20:19 26.05.2020
2379 Clouds 19 1032 49 0 1.57 14 19:40 26.05.2020
2380 Clouds 19 1032 47 0 2.13 15 19:20 26.05.2020
2381 Clouds 19 1032 46 0 2.13 15 18:57 26.05.2020
2382 Clouds 18 1033 51 0 2.13 15 18:39 26.05.2020
2383 Clouds 18 1033 62 0 2.18 5 18:20 26.05.2020
2384 Clouds 19 1033 49 0 2.18 5 17:39 26.05.2020
2385 Clouds 18 1033 50 0 1.62 357 17:21 26.05.2020
2386 Clouds 19 1035 58 0 1.62 357 16:48 26.05.2020
2387 Clouds 19 1034 61 0 0.79 356 16:22 26.05.2020
2388 Clouds 18 1033 52 0 0.89 112 15:58 26.05.2020
2389 Clouds 17 1034 64 0 0.79 356 15:39 26.05.2020
2390 Clouds 17 1033 55 0 0.45 112 15:19 26.05.2020
2391 Clouds 17 1034 58 0 0.45 112 14:44 26.05.2020
2392 Clouds 17 1034 62 0 0.45 112 14:25 26.05.2020
2393 Clouds 16 1034 72 0 1.66 55 13:57 26.05.2020
2394 Clouds 17 1034 71 0 1.66 55 13:39 26.05.2020
2395 Clouds 17 1036 64 0 2.13 46 13:21 26.05.2020
2396 Clouds 15 1034 63 0 0.45 112 12:44 26.05.2020
2397 Clouds 15 1034 63 0 0.45 112 12:22 26.05.2020
2398 Clouds 14 1034 68 0 2.03 33 11:59 26.05.2020
2399 Clouds 14 1035 81 0 2.03 33 11:40 26.05.2020
2400 Clouds 14 1035 81 0 1.89 14 11:19 26.05.2020
2401 Clouds 14 1035 81 0 1.89 14 11:19 26.05.2020
2402 Clouds 13 1035 85 0 1.89 14 10:47 26.05.2020
2403 Clouds 12 1034 87 0 1.93 8 10:19 26.05.2020
2404 Clouds 12 1034 86 0 1.93 8 09:55 26.05.2020
2405 Clouds 11 1034 88 0 2.02 4 09:37 26.05.2020
2406 Clouds 11 1034 89 0 1.87 353 09:18 26.05.2020
2407 Clouds 10 1033 89 0 1.87 353 08:39 26.05.2020
2408 Clouds 9 1033 92 0 1.57 344 08:21 26.05.2020
2409 Clouds 8 1034 95 0 1.57 344 07:42 26.05.2020
2410 Clouds 7 1034 95 0 1.05 339 07:22 26.05.2020
2411 Clouds 7 1034 95 0 1.05 339 06:52 26.05.2020
2412 Clouds 6 1033 95 0 0.99 339 06:28 26.05.2020
2413 Clouds 6 1032 95 0 0.99 339 05:41 26.05.2020
2414 Clouds 6 1032 94 0 1.06 337 05:18 26.05.2020
2415 Clouds 7 1031 91 0 1.06 337 04:47 26.05.2020
2416 Clouds 7 1032 94 0 1.16 342 04:28 26.05.2020
2417 Clouds 7 1032 93 0 1.16 342 03:45 26.05.2020
2418 Clouds 7 1032 93 0 1.16 342 03:45 26.05.2020
2419 Clouds 7 1032 92 0 1.19 347 02:34 26.05.2020
2420 Clouds 7 1032 91 0 1.39 327 01:43 26.05.2020
2421 Clouds 8 1032 87 0 1.52 324 00:40 26.05.2020
2422 Clouds 8 1032 89 0 1.66 318 00:21 26.05.2020
2423 Clouds 9 1032 88 0 1.66 318 23:59 25.05.2020
2424 Clouds 9 1032 89 0 1.66 318 23:39 25.05.2020
2425 Clouds 9 1032 87 0 1.76 316 23:20 25.05.2020
2426 Clouds 9 1032 85 0 1.76 316 22:56 25.05.2020
2427 Clouds 9 1032 83 0 1.76 316 22:37 25.05.2020
2428 Clouds 9 1032 83 0 1.76 316 22:37 25.05.2020
2429 Clouds 10 1032 82 0 1.65 317 22:19 25.05.2020
2430 Clouds 11 1032 81 0 1.65 317 21:58 25.05.2020
2431 Clouds 11 1031 80 0 1.65 317 21:38 25.05.2020
2432 Clouds 12 1031 77 0 2.26 313 21:19 25.05.2020
2433 Clouds 12 1031 75 0 2.26 313 20:58 25.05.2020
2434 Clouds 13 1031 73 0 2.26 313 20:40 25.05.2020
2435 Clouds 13 1031 73 0 3.79 320 20:20 25.05.2020
2436 Clouds 14 1031 70 0 3.79 320 19:55 25.05.2020
2437 Clouds 13 1030 70 0 3.79 320 19:37 25.05.2020
2438 Clouds 14 1029 76 0 0.89 327 19:18 25.05.2020
2439 Clouds 14 1030 68 0 0.45 112 18:43 25.05.2020
2440 Clouds 14 1030 68 0 4.73 328 18:21 25.05.2020
2441 Clouds 14 1030 68 0 4.73 328 17:56 25.05.2020
2442 Clouds 14 1030 67 0 4.73 328 17:38 25.05.2020
2443 Clouds 14 1029 76 0 0.89 325 17:19 25.05.2020
2444 Clouds 14 1031 65 0 3.13 323 16:41 25.05.2020
2445 Rain 14 1029 63 0 0.45 112 16:22 25.05.2020
2446 Rain 15 1029 62 0 0.45 112 15:58 25.05.2020
2447 Rain 14 1031 67 0 3.13 324 15:40 25.05.2020
2448 Clouds 14 1031 69 0 4.02 329 15:18 25.05.2020
2449 Clouds 14 1031 69 0 4.02 329 15:18 25.05.2020
2450 Clouds 14 1030 73 0 1.79 266 14:43 25.05.2020
2451 Clouds 14 1029 68 0 5.5 318 14:24 25.05.2020
2452 Rain 14 1030 73 0 1.79 266 13:57 25.05.2020
2453 Rain 14 1029 68 0 0.45 112 13:38 25.05.2020
2454 Rain 14 1029 69 0 0.45 112 13:19 25.05.2020
2455 Rain 13 1029 76 0 3.13 311 12:55 25.05.2020
2456 Rain 13 1029 74 0 3.58 268 12:36 25.05.2020
2457 Clouds 13 1028 69 0 0.45 112 12:18 25.05.2020
2458 Clouds 13 1028 69 0 0.45 112 11:38 25.05.2020
2459 Rain 13 1028 75 0 4.02 281 11:19 25.05.2020
2460 Rain 13 1028 74 0 0.45 112 10:54 25.05.2020
2461 Rain 13 1028 74 0 0.45 112 10:36 25.05.2020
2462 Rain 13 1028 76 0 0.45 112 10:18 25.05.2020
2463 Rain 13 1028 85 0 4.02 286 09:41 25.05.2020
2464 Rain 13 1028 85 0 4.02 286 09:41 25.05.2020
2465 Clouds 12 1027 78 0 5.86 310 09:20 25.05.2020
2466 Clouds 12 1028 92 0 2.68 290 08:59 25.05.2020
2467 Clouds 11 1024 10 0 5.86 310 08:38 25.05.2020
2468 Rain 11 1024 10 0 5.99 308 08:19 25.05.2020
2469 Rain 11 1027 89 0 5.99 308 07:46 25.05.2020
2470 Clouds 11 1027 91 0 0.45 292 07:24 25.05.2020
2471 Clouds 11 1027 93 0 5.8 306 06:55 25.05.2020
2472 Clouds 11 1027 97 0 1.34 273 06:34 25.05.2020
2473 Clouds 10 1027 97 0 0.89 275 05:20 25.05.2020
2474 Clouds 10 1026 96 0 0.45 292 03:25 25.05.2020
2475 Clouds 10 1026 96 0 4.18 287 02:46 25.05.2020
2476 Clouds 10 1027 97 0 5.1 294 01:59 25.05.2020
2477 Clouds 10 1027 97 0 0.45 288 01:40 25.05.2020
2478 Rain 10 1027 97 0 0.89 281 00:45 25.05.2020
2479 Rain 10 1027 97 0 1.34 271 00:23 25.05.2020
2480 Rain 11 1027 97 0 0.89 270 23:58 24.05.2020
2481 Rain 11 1024 10 0 4.14 285 23:38 24.05.2020
2482 Rain 11 1026 95 0 4.1 286 23:19 24.05.2020
2483 Rain 11 1024 10 0 4.1 286 22:42 24.05.2020
2484 Rain 11 1024 10 0 4.1 286 22:42 24.05.2020
2485 Rain 11 1024 10 0 4.48 281 22:20 24.05.2020
2486 Rain 11 1026 94 0 4.48 281 21:59 24.05.2020
2487 Rain 11 1026 96 0 4.48 281 21:40 24.05.2020
2488 Clouds 11 1026 96 0 4.93 273 21:22 24.05.2020
2489 Clouds 11 1025 94 0 4.93 273 20:57 24.05.2020
2490 Clouds 12 1023 10 0 4.93 273 20:38 24.05.2020
2491 Clouds 11 1023 10 0 5.35 280 20:18 24.05.2020
2492 Clouds 11 1025 93 0 5.35 280 19:56 24.05.2020
2493 Clouds 11 1023 99 0 5.35 280 19:36 24.05.2020
2494 Rain 11 1025 92 0 0.45 292 19:18 24.05.2020
2495 Rain 11 1025 92 0 0.45 292 19:18 24.05.2020
2496 Rain 12 1026 82 0 4.47 249 18:42 24.05.2020
2497 Rain 12 1026 82 0 4.47 249 18:23 24.05.2020
2498 Rain 12 1024 86 0 0.45 225 17:57 24.05.2020
2499 Rain 12 1026 75 0 5.36 228 17:38 24.05.2020
2500 Rain 12 1023 78 0 7.24 273 17:19 24.05.2020
2501 Rain 13 1026 72 0 1.79 251 16:56 24.05.2020
2502 Rain 13 1026 72 0 1.79 251 16:56 24.05.2020
2503 Rain 13 1023 75 0 7.24 273 16:36 24.05.2020
2504 Rain 13 1024 67 0 0.89 292 16:18 24.05.2020
2505 Rain 13 1024 65 0 1.79 292 15:55 24.05.2020
2506 Rain 14 1026 65 0 4.92 238 15:36 24.05.2020
2507 Rain 14 1024 63 0 0.89 270 15:18 24.05.2020
2508 Rain 14 1024 63 0 0.89 270 15:18 24.05.2020
2509 Rain 14 1022 64 0 7.09 280 14:41 24.05.2020
2510 Rain 14 1024 62 0 0.89 270 14:22 24.05.2020
2511 Rain 14 1024 62 0 1.34 292 13:56 24.05.2020
2512 Rain 14 1022 69 0 7.06 272 13:38 24.05.2020
2513 Rain 14 1022 69 0 7.06 272 13:38 24.05.2020
2514 Rain 14 1022 72 0 7.44 268 13:19 24.05.2020
2515 Rain 14 1023 63 0 2.24 270 12:57 24.05.2020
2516 Rain 14 1027 74 0 7.44 268 12:38 24.05.2020
2517 Rain 13 1022 79 0 6.95 263 12:19 24.05.2020
2518 Rain 13 1024 64 0 1.34 292 11:55 24.05.2020
2519 Rain 12 1024 66 0 0.89 270 11:37 24.05.2020
2520 Rain 12 1022 88 0 5.78 258 11:19 24.05.2020
2521 Rain 12 1025 79 0 3.13 239 10:43 24.05.2020
2522 Rain 12 1025 80 0 4.02 254 10:23 24.05.2020
2523 Rain 11 1024 75 0 0.89 270 09:59 24.05.2020
2524 Rain 11 1022 90 0 5.51 250 09:41 24.05.2020
2525 Clouds 11 1022 89 0 5.15 247 09:18 24.05.2020
2526 Clouds 10 1025 87 0 5.15 247 08:43 24.05.2020
2527 Clouds 10 1023 78 0 1.34 270 08:25 24.05.2020
2528 Clouds 9 1025 92 0 4.99 243 07:59 24.05.2020
2529 Clouds 9 1025 93 0 4.99 243 07:41 24.05.2020
2530 Clouds 9 1023 82 0 0.89 292 07:21 24.05.2020
2531 Clouds 9 1025 94 0 4.46 241 06:45 24.05.2020
2532 Clouds 9 1021 98 0 3.67 234 05:50 24.05.2020
2533 Clouds 9 1023 85 0 0.45 270 04:51 24.05.2020
2534 Clouds 8 1023 83 0 0.45 292 03:41 24.05.2020
2535 Clear 9 1023 80 0 3.44 246 02:30 24.05.2020
2536 Clouds 9 1022 80 0 0.45 225 01:39 24.05.2020
2537 Clouds 9 1022 81 0 0.45 292 00:39 24.05.2020
2538 Clouds 9 1024 92 0 3.97 247 00:20 24.05.2020
2539 Clouds 9 1022 75 0 0.45 292 23:43 23.05.2020
2540 Clouds 10 1022 72 0 3.23 255 23:21 23.05.2020
2541 Clouds 11 1022 70 0 3.23 255 22:57 23.05.2020
2542 Clouds 12 1020 90 0 3.23 255 22:37 23.05.2020
2543 Clear 12 1020 83 0 3.52 261 22:19 23.05.2020
2544 Clear 12 1021 64 0 0.89 270 21:57 23.05.2020
2545 Clear 12 1023 64 0 0.45 231 21:37 23.05.2020
2546 Clear 13 1019 74 0 4.02 265 21:19 23.05.2020
2547 Clear 14 1021 70 0 3.79 269 20:56 23.05.2020
2548 Clear 14 1019 68 0 3.79 269 20:37 23.05.2020
2549 Clouds 15 1021 55 0 0.45 270 20:18 23.05.2020
2550 Clouds 16 1020 54 0 0.45 270 19:41 23.05.2020
2551 Clouds 16 1023 56 0 5.11 271 19:20 23.05.2020
2552 Clouds 15 1020 54 0 0.89 270 18:57 23.05.2020
2553 Clouds 15 1020 56 0 0.89 292 18:39 23.05.2020
2554 Rain 15 1020 58 0 0.45 270 18:21 23.05.2020
2555 Rain 15 1020 63 0 5.3 270 17:55 23.05.2020
2556 Rain 14 1021 66 0 2.68 234 17:37 23.05.2020
2557 Clouds 15 1016 91 0 4.95 265 17:19 23.05.2020
2558 Clouds 15 1021 67 0 2.24 298 16:56 23.05.2020
2559 Clouds 15 1016 91 0 4.95 265 16:37 23.05.2020
2560 Clouds 15 1021 72 0 2.24 244 16:19 23.05.2020
2561 Clouds 15 1020 71 0 0.89 232 15:42 23.05.2020
2562 Rain 15 1019 64 0 0.89 270 15:23 23.05.2020
2563 Rain 15 1019 64 0 1.79 292 14:57 23.05.2020
2564 Rain 15 1019 64 0 1.79 292 14:57 23.05.2020
2565 Rain 15 1016 91 0 4.71 267 14:38 23.05.2020
2566 Rain 14 1016 91 0 4.98 252 14:20 23.05.2020
2567 Rain 14 1021 68 0 2.68 217 13:40 23.05.2020
2568 Clouds 15 1021 67 0 3.13 226 13:19 23.05.2020
2569 Clouds 14 1019 61 0 1.79 225 12:56 23.05.2020
2570 Clouds 14 1016 91 0 5.43 252 12:37 23.05.2020
2571 Clouds 14 1019 61 0 1.79 292 12:18 23.05.2020
2572 Clouds 14 1020 73 0 4.92 252 11:43 23.05.2020
2573 Clouds 14 1020 78 0 1.79 268 11:21 23.05.2020
2574 Clouds 14 1020 78 0 1.79 268 10:57 23.05.2020
2575 Clouds 14 1016 91 0 5.25 260 10:39 23.05.2020
2576 Clouds 14 1018 63 0 1.34 292 10:20 23.05.2020
2577 Clouds 14 1019 82 0 1.79 248 09:58 23.05.2020
2578 Clouds 14 1016 96 0 3.98 256 09:39 23.05.2020
2579 Clouds 14 1019 86 0 1.79 252 09:21 23.05.2020
2580 Clouds 13 1016 10 0 4.04 247 08:43 23.05.2020
2581 Clouds 13 1020 85 0 0.45 208 08:20 23.05.2020
2582 Clouds 13 1019 95 0 3.33 255 07:54 23.05.2020
2583 Clouds 13 1016 10 0 3.33 255 07:31 23.05.2020
2584 Clouds 13 1018 88 0 2.77 252 06:56 23.05.2020
2585 Clouds 13 1015 10 0 2.77 252 06:37 23.05.2020
2586 Clouds 13 1017 89 0 1.97 256 05:26 23.05.2020
2587 Clouds 13 1017 90 0 2.31 263 03:30 23.05.2020
2588 Clouds 14 1019 94 0 1.79 329 02:58 23.05.2020
2589 Clouds 16 1017 88 0 3.5 272 01:58 23.05.2020
2590 Clouds 16 1014 10 0 3.71 265 01:23 23.05.2020
2591 Clouds 16 1018 97 0 3.71 265 00:47 23.05.2020
2592 Clouds 16 1017 93 0 2.42 248 00:26 23.05.2020
2593 Clouds 16 1017 94 0 2.42 248 23:57 22.05.2020
2594 Clouds 16 1018 97 0 2.42 248 23:39 22.05.2020
2595 Rain 16 1017 94 0 1.45 232 23:19 22.05.2020
2596 Rain 16 1018 96 0 1.45 232 22:44 22.05.2020
2597 Rain 16 1014 10 0 1 208 22:22 22.05.2020
2598 Rain 16 1016 94 0 1 208 21:57 22.05.2020
2599 Rain 16 1014 10 0 1 208 21:39 22.05.2020
2600 Rain 16 1018 95 0 1.5 163 21:20 22.05.2020
2601 Rain 16 1018 94 0 0.89 44 20:46 22.05.2020
2602 Rain 17 1014 85 0 1.65 142 20:21 22.05.2020
2603 Rain 18 1016 85 0 0.45 270 19:59 22.05.2020
2604 Rain 18 1000 80 0 1.65 142 19:40 22.05.2020
2605 Rain 19 1014 80 0 1.71 125 19:22 22.05.2020
2606 Rain 20 1014 80 0 1.71 125 18:39 22.05.2020
2607 Rain 20 1014 80 0 1.2 93 18:20 22.05.2020
2608 Rain 19 1017 74 0 0.89 100 17:57 22.05.2020
2609 Rain 20 1014 75 0 1.2 93 17:37 22.05.2020
2610 Rain 20 1014 77 0 1.73 9 17:18 22.05.2020
2611 Rain 20 1014 77 0 1.73 9 17:18 22.05.2020
2612 Rain 20 1018 84 0 1.34 43 16:43 22.05.2020
2613 Rain 19 1018 85 0 1.79 69 16:20 22.05.2020
2614 Rain 19 1018 85 0 1.79 69 15:59 22.05.2020
2615 Rain 20 1019 91 0 1.79 52 15:41 22.05.2020
2616 Rain 21 1017 75 0 1.18 213 15:19 22.05.2020
2617 Rain 21 1018 72 0 0.45 270 14:44 22.05.2020
2618 Rain 21 1018 72 0 1.63 245 14:24 22.05.2020
2619 Rain 21 1018 59 0 0.45 292 13:46 22.05.2020
2620 Rain 21 1016 60 0 1.58 209 13:21 22.05.2020
2621 Rain 21 1017 57 0 0.89 292 12:54 22.05.2020
2622 Rain 20 1016 64 0 1.58 209 12:36 22.05.2020
2623 Clouds 20 1019 61 0 0.45 117 12:18 22.05.2020
2624 Clouds 20 1019 59 0 0.45 131 11:43 22.05.2020
2625 Clouds 20 1017 55 0 0.89 270 11:21 22.05.2020
2626 Clouds 20 1019 57 0 1.64 199 10:55 22.05.2020
2627 Clouds 20 1018 56 0 0.89 292 10:37 22.05.2020
2628 Clouds 19 1018 56 0 0.89 270 10:18 22.05.2020
2629 Clouds 19 1016 58 0 1.66 195 09:42 22.05.2020
2630 Clouds 17 1017 59 0 1.34 270 09:19 22.05.2020
2631 Clouds 16 1017 60 0 0.45 270 08:45 22.05.2020
2632 Clouds 16 1019 65 0 1.34 39 08:22 22.05.2020
2633 Clouds 15 1019 65 0 1.34 39 07:58 22.05.2020
2634 Clouds 14 1016 61 0 1.69 175 07:39 22.05.2020
2635 Clouds 14 1018 65 0 1.49 159 07:21 22.05.2020
2636 Clouds 13 1016 62 0 1.49 159 06:40 22.05.2020
2637 Clouds 12 1018 65 0 1.53 155 05:58 22.05.2020
2638 Clouds 12 1020 63 0 2.24 57 05:34 22.05.2020
2639 Clouds 12 1018 73 0 1.52 151 04:45 22.05.2020
2640 Clouds 12 1017 61 0 1.55 153 03:49 22.05.2020
2641 Clouds 12 1021 60 0 1.79 34 03:29 22.05.2020
2642 Clouds 12 1019 79 0 1.56 151 01:58 22.05.2020
2643 Clouds 12 1020 71 0 0.89 157 01:31 22.05.2020
2644 Clouds 12 1020 72 0 1.43 151 00:50 22.05.2020
2645 Clouds 12 1020 100 0 0.45 189 00:29 22.05.2020
2646 Clouds 13 1020 68 0 1.38 152 23:55 21.05.2020
2647 Clouds 13 1020 66 0 1.38 152 23:37 21.05.2020
2648 Clouds 13 1018 58 0 1.61 140 23:19 21.05.2020
2649 Clouds 18 1021 58 0 1.61 140 22:56 21.05.2020
2650 Clouds 18 1021 58 0 1.61 140 22:36 21.05.2020
2651 Clouds 17 1018 60 0 2.12 128 22:18 21.05.2020
2652 Clouds 17 1021 63 0 0.45 82 21:46 21.05.2020
2653 Clear 18 1021 58 0 2 118 21:26 21.05.2020
2654 Clouds 19 1021 58 0 0.89 38 20:55 21.05.2020
2655 Clouds 18 1018 57 0 2.06 115 20:37 21.05.2020
2656 Clouds 20 1018 55 0 2.14 110 20:19 21.05.2020
2657 Clouds 20 1021 49 0 2.14 110 19:39 21.05.2020
2658 Clouds 22 1022 35 10000 2.6 360 19:19 21.05.2020
2659 Clouds 22 1022 35 10000 2.6 360 18:41 21.05.2020
2660 Clouds 22 1022 35 10000 2.6 360 18:21 21.05.2020
2661 Clouds 21 1020 46 0 2.68 53 17:59 21.05.2020
2662 Clouds 21 1018 46 0 1.16 100 17:41 21.05.2020
2663 Clouds 22 1022 35 10000 2.1 0 17:22 21.05.2020
2664 Clouds 22 1022 35 10000 2.1 0 17:22 21.05.2020
2665 Clouds 22 1022 33 10000 2.6 0 16:47 21.05.2020
2666 Clouds 22 1022 35 10000 2.1 320 16:27 21.05.2020
2667 Clouds 22 1022 40 0 1.34 304 15:57 21.05.2020
2668 Clouds 21 1022 41 0 3.13 242 15:38 21.05.2020
2669 Clouds 21 1019 45 0 1.22 96 15:20 21.05.2020
2670 Clouds 21 1022 45 0 1.34 145 14:41 21.05.2020
2671 Clouds 21 1019 49 0 0.59 53 14:19 21.05.2020
2672 Clouds 20 1019 48 0 0.59 53 13:42 21.05.2020
2673 Clouds 20 1019 50 0 0.62 57 13:23 21.05.2020
2674 Clouds 20 1021 46 0 0.62 57 12:59 21.05.2020
2675 Clouds 19 1022 46 0 0.62 57 12:38 21.05.2020
2676 Clouds 19 1023 49 0 1.79 127 12:19 21.05.2020
2677 Clouds 18 1022 49 0 0.89 82 11:55 21.05.2020
2678 Clouds 19 1020 51 0 0.89 82 11:37 21.05.2020
2679 Clouds 18 1022 50 0 0.75 75 11:19 21.05.2020
2680 Clouds 17 1022 51 0 0.75 75 10:39 21.05.2020
2681 Clouds 17 1023 51 0 0.89 197 10:21 21.05.2020
2682 Clouds 16 1023 51 0 0.89 134 09:56 21.05.2020
2683 Clouds 16 1021 52 0 0.59 106 09:38 21.05.2020
2684 Clear 16 1023 57 0 0.45 180 09:20 21.05.2020
2685 Clear 13 1022 69 0 0.75 63 08:48 21.05.2020
2686 Clear 13 1022 73 0 0.75 63 08:29 21.05.2020
2687 Clouds 11 1020 59 0 0.56 72 07:49 21.05.2020
2688 Clouds 10 1022 82 0 0.35 100 07:28 21.05.2020
2689 Clouds 10 1022 84 0 0.35 100 06:55 21.05.2020
2690 Clouds 9 1021 95 0 0.38 105 06:25 21.05.2020
2691 Clouds 8 1019 73 0 0.38 105 05:47 21.05.2020
2692 Clouds 9 1019 73 0 1.07 99 03:22 21.05.2020
2693 Clouds 9 1021 89 0 1.07 99 02:57 21.05.2020
2694 Clear 9 1022 87 0 1.34 38 02:31 21.05.2020
2695 Clouds 10 1021 85 0 1.23 90 01:49 21.05.2020
2696 Clouds 10 1019 80 0 1.37 84 01:24 21.05.2020
2697 Clouds 10 1022 83 0 1.37 84 00:53 21.05.2020
2698 Clear 11 1022 83 0 1.34 75 00:25 21.05.2020
2699 Clear 11 1021 82 0 1.34 75 23:56 20.05.2020
2700 Clear 11 1019 82 0 1.34 75 23:37 20.05.2020
2701 Clear 11 1021 80 0 1.27 57 23:18 20.05.2020
2702 Clear 12 1019 76 0 1.27 57 22:41 20.05.2020
2703 Clouds 12 1019 81 0 1.19 44 22:23 20.05.2020
2704 Clouds 12 1022 80 0 1.34 36 21:42 20.05.2020
2705 Clear 13 1022 79 0 1.34 34 21:23 20.05.2020
2706 Clear 14 1022 75 0 0.89 36 20:59 20.05.2020
2707 Clear 15 1022 73 0 0.89 36 20:41 20.05.2020
2708 Clouds 16 1018 85 0 2.02 49 20:22 20.05.2020
2709 Clouds 16 1020 61 0 2.02 49 19:42 20.05.2020
2710 Clouds 16 1018 84 0 2.75 35 19:23 20.05.2020
2711 Clouds 16 1022 69 0 2.75 35 18:58 20.05.2020
2712 Clouds 17 1021 61 0 2.75 35 18:38 20.05.2020
2713 Clouds 17 1019 83 0 2.9 33 18:20 20.05.2020
2714 Clouds 16 1019 78 0 2.9 33 17:39 20.05.2020
2715 Clouds 16 1018 80 0 3.02 28 17:21 20.05.2020
2716 Clouds 16 1022 78 0 3.02 28 16:43 20.05.2020
2717 Clouds 16 1021 61 0 2.94 30 16:24 20.05.2020
2718 Clouds 16 1021 62 0 2.94 30 15:59 20.05.2020
2719 Clouds 16 1022 79 0 0.45 129 15:40 20.05.2020
2720 Rain 16 1022 79 0 0.45 129 15:22 20.05.2020
2721 Rain 16 1022 80 0 1.34 194 14:43 20.05.2020
2722 Rain 16 1018 91 0 2.27 38 14:21 20.05.2020
2723 Rain 17 1021 66 0 2.14 44 13:41 20.05.2020
2724 Rain 17 1023 65 0 2.21 30 13:20 20.05.2020
2725 Rain 15 1022 83 0 0.89 127 12:59 20.05.2020
2726 Rain 15 1022 82 0 0.45 138 12:39 20.05.2020
2727 Rain 15 1018 94 0 1.87 13 12:20 20.05.2020
2728 Rain 15 1022 80 0 1.87 13 11:37 20.05.2020
2729 Rain 14 1021 71 0 1.5 0 11:18 20.05.2020
2730 Rain 14 1021 83 0 0.45 309 10:44 20.05.2020
2731 Rain 14 1018 90 0 1.51 354 10:21 20.05.2020
2732 Rain 13 1021 88 0 1.51 354 09:46 20.05.2020
2733 Clouds 13 1021 90 0 1.53 356 09:23 20.05.2020
2734 Clouds 13 1020 90 0 1.53 356 08:59 20.05.2020
2735 Clouds 13 1021 90 0 1.53 356 08:41 20.05.2020
2736 Clouds 13 1017 87 0 1.01 356 08:19 20.05.2020
2737 Clouds 13 1017 87 0 1.01 356 07:49 20.05.2020
2738 Clouds 12 1020 87 0 1.01 343 07:22 20.05.2020
2739 Clouds 12 1017 86 0 1.01 343 06:49 20.05.2020
2740 Clouds 12 1017 87 0 1.01 333 05:52 20.05.2020
2741 Clouds 13 1017 84 0 0.8 318 04:37 20.05.2020
2742 Clouds 13 1020 90 0 0.86 331 03:55 20.05.2020
2743 Clouds 13 1020 88 0 0.75 331 03:27 20.05.2020
2744 Clouds 13 1021 82 0 0.45 328 01:33 20.05.2020
2745 Clouds 7 1022 100 0 1.08 344 00:57 20.05.2020
2746 Clouds 7 1022 100 0 1.08 344 00:37 20.05.2020
2747 Clouds 13 1020 100 0 1.3 337 00:19 20.05.2020
2748 Clouds 14 1017 75 0 1.3 337 23:36 19.05.2020
2749 Clouds 14 1017 75 0 1.42 336 23:18 19.05.2020
2750 Clouds 14 1017 74 0 1.42 336 22:54 19.05.2020
2751 Clouds 14 1017 74 0 1.42 336 22:36 19.05.2020
2752 Clouds 15 1017 72 0 1.47 331 22:18 19.05.2020
2753 Clouds 15 1017 70 0 1.47 331 21:54 19.05.2020
2754 Clouds 15 1017 70 0 1.15 326 21:36 19.05.2020
2755 Clouds 16 1017 69 0 1.3 326 21:18 19.05.2020
2756 Clouds 17 1016 66 0 1.04 336 20:54 19.05.2020
2757 Clouds 17 1016 64 0 1.04 336 20:36 19.05.2020
2758 Clouds 17 1016 64 0 1.51 342 20:18 19.05.2020
2759 Clouds 18 1019 62 0 0.89 286 19:37 19.05.2020
2760 Clouds 18 1016 60 0 2.06 337 19:19 19.05.2020
2761 Clouds 19 1019 60 0 1.79 271 18:44 19.05.2020
2762 Clouds 19 1016 57 0 2.68 330 18:22 19.05.2020
2763 Clouds 19 1018 60 0 2.68 330 17:57 19.05.2020
2764 Clouds 19 1016 53 0 2.68 330 17:39 19.05.2020
2765 Rain 20 1019 56 0 1.79 256 17:19 19.05.2020
2766 Rain 20 1019 54 0 2.68 287 16:41 19.05.2020
2767 Rain 19 1020 56 0 0.89 267 16:23 19.05.2020
2768 Rain 19 1020 56 0 0.89 267 15:56 19.05.2020
2769 Rain 20 1020 49 0 3.58 274 15:38 19.05.2020
2770 Clouds 19 1016 53 0 4.02 311 15:20 19.05.2020
2771 Clouds 20 1016 53 0 4.02 311 14:54 19.05.2020
2772 Clouds 20 1016 53 0 4.02 311 14:54 19.05.2020
2773 Clouds 19 1020 52 10000 5.7 290 14:36 19.05.2020
2774 Clouds 19 1020 52 10000 5.7 290 14:18 19.05.2020
2775 Clouds 19 1019 52 0 0.45 292 13:54 19.05.2020
2776 Clouds 19 1019 54 0 0.89 270 13:36 19.05.2020
2777 Clouds 19 1016 55 0 3.82 282 13:18 19.05.2020
2778 Clouds 18 1017 57 0 3.82 282 12:40 19.05.2020
2779 Clouds 17 1019 58 0 0.45 292 12:22 19.05.2020
2780 Clouds 17 1021 60 0 1.79 246 11:59 19.05.2020
2781 Clouds 17 1017 62 0 3.29 283 11:40 19.05.2020
2782 Clouds 16 1021 63 0 1.34 304 11:21 19.05.2020
2783 Clouds 16 1021 63 0 1.34 263 10:55 19.05.2020
2784 Clouds 15 1021 65 0 1.34 261 10:37 19.05.2020
2785 Clouds 15 1017 64 0 2.46 287 10:18 19.05.2020
2786 Clouds 15 1022 63 0 2.46 287 09:42 19.05.2020
2787 Clouds 14 1017 66 0 1.99 272 09:24 19.05.2020
2788 Clouds 13 1017 63 0 1.99 272 08:47 19.05.2020
2789 Clouds 12 1019 66 0 1.67 261 08:24 19.05.2020
2790 Clouds 11 1020 79 0 1.67 261 07:47 19.05.2020
2791 Clouds 10 1020 79 0 1.54 262 07:27 19.05.2020
2792 Clouds 9 1019 78 0 1.54 262 06:55 19.05.2020
2793 Clouds 9 1020 79 0 1.37 258 06:26 19.05.2020
2794 Clouds 8 1020 79 0 1.37 258 05:42 19.05.2020
2795 Clouds 9 1016 74 0 1.31 262 05:19 19.05.2020
2796 Clouds 9 1020 78 0 1.31 262 04:35 19.05.2020
2797 Clouds 11 1017 69 0 1.15 287 02:23 19.05.2020
2798 Clouds 12 1021 78 0 1.69 280 00:48 19.05.2020
2799 Clouds 13 1019 77 0 1.82 281 00:29 19.05.2020
2800 Clouds 14 1019 77 0 1.82 281 23:59 18.05.2020
2801 Clouds 13 1019 79 0 1.82 281 23:40 18.05.2020
2802 Clouds 14 1020 70 0 0.45 37 23:20 18.05.2020
2803 Clouds 14 1020 70 0 0.45 37 22:54 18.05.2020
2804 Clouds 16 1019 69 0 1.9 275 22:36 18.05.2020
2805 Clouds 16 1017 61 0 1.75 272 22:18 18.05.2020
2806 Clouds 17 1020 58 0 1.75 272 21:41 18.05.2020
2807 Clouds 17 1020 58 0 1.83 283 21:21 18.05.2020
2808 Clouds 18 1019 59 0 1.71 280 20:57 18.05.2020
2809 Clouds 19 1020 54 0 1.71 280 20:37 18.05.2020
2810 Clouds 19 1019 53 0 2.5 290 20:18 18.05.2020
2811 Clouds 20 1021 48 0 2.24 225 19:41 18.05.2020
2812 Clouds 20 1021 48 0 2.24 225 19:41 18.05.2020
2813 Clouds 21 1019 45 0 0.45 270 19:20 18.05.2020
2814 Clouds 21 1020 43 0 3.13 267 18:59 18.05.2020
2815 Clouds 21 1021 42 0 2.24 231 18:41 18.05.2020
2816 Clouds 21 1016 47 0 4.33 282 18:20 18.05.2020
2817 Clouds 21 1021 42 0 3.13 278 17:38 18.05.2020
2818 Clouds 22 1021 41 0 3.58 223 17:18 18.05.2020
2819 Clouds 21 1019 42 0 0.45 315 16:56 18.05.2020
2820 Clouds 21 1019 41 0 0.89 292 16:37 18.05.2020
2821 Clouds 21 1017 49 0 4.99 270 16:18 18.05.2020
2822 Clouds 21 1017 49 0 4.99 270 16:18 18.05.2020
2823 Clouds 21 1019 49 0 4.92 274 15:46 18.05.2020
2824 Clouds 21 1021 46 0 3.13 255 15:25 18.05.2020
2825 Clouds 21 1021 48 0 0.89 288 14:59 18.05.2020
2826 Clouds 21 1021 48 0 0.89 288 14:40 18.05.2020
2827 Clouds 20 1018 49 0 4.97 268 14:22 18.05.2020
2828 Clouds 20 1020 45 0 1.79 270 13:54 18.05.2020
2829 Clouds 19 1018 51 0 5.05 267 13:36 18.05.2020
2830 Clouds 19 1022 47 0 2.68 289 13:18 18.05.2020
2831 Clouds 19 1022 47 0 2.68 289 12:54 18.05.2020
2832 Clouds 19 1022 50 0 2.68 256 12:36 18.05.2020
2833 Clouds 19 1022 50 0 2.68 256 12:36 18.05.2020
2834 Clouds 18 1019 55 0 4.69 252 12:18 18.05.2020
2835 Clouds 17 1019 52 0 4.69 252 11:44 18.05.2020
2836 Clouds 17 1020 55 0 0.89 292 11:25 18.05.2020
2837 Clouds 16 1022 59 0 1.34 236 10:47 18.05.2020
2838 Clouds 15 1022 63 0 4.09 245 10:27 18.05.2020
2839 Clouds 14 1022 65 0 4.09 245 09:54 18.05.2020
2840 Clouds 14 1022 64 0 4 250 09:36 18.05.2020
2841 Clouds 12 1023 65 0 0.45 169 09:18 18.05.2020
2842 Clouds 11 1021 63 0 0.45 270 08:42 18.05.2020
2843 Clouds 11 1021 63 0 0.45 270 08:42 18.05.2020
2844 Clouds 11 1022 79 0 0.45 38 08:23 18.05.2020
2845 Clouds 10 1019 70 0 3.09 248 07:48 18.05.2020
2846 Clouds 9 1021 70 0 0.45 247 07:26 18.05.2020
2847 Clouds 7 1019 83 0 2.41 232 06:48 18.05.2020
2848 Clouds 7 1019 82 0 2.03 221 06:24 18.05.2020
2849 Clouds 7 1022 82 0 0.89 37 05:45 18.05.2020
2850 Clouds 7 1022 81 0 1.34 39 04:26 18.05.2020
2851 Clouds 6 1021 84 0 1.75 226 03:30 18.05.2020
2852 Clouds 7 1022 78 0 0.89 41 01:57 18.05.2020
2853 Clouds 8 1021 79 0 1.82 236 00:50 18.05.2020
2854 Clouds 8 1019 74 0 1.92 233 00:22 18.05.2020
2855 Clouds 9 1022 74 0 0.45 43 23:56 17.05.2020
2856 Clouds 9 1021 77 0 1.92 233 23:38 17.05.2020
2857 Clouds 9 1019 70 0 1.78 246 23:19 17.05.2020
2858 Clouds 10 1021 74 0 1.78 246 22:55 17.05.2020
2859 Clouds 10 1019 68 0 1.78 246 22:36 17.05.2020
2860 Clouds 11 1021 67 0 1.84 253 22:18 17.05.2020
2861 Clouds 12 1021 60 0 1.84 253 21:41 17.05.2020
2862 Clear 14 1021 55 0 2.02 257 21:20 17.05.2020
2863 Clear 14 1020 53 0 0.45 270 20:58 17.05.2020
2864 Clear 14 1018 55 0 2.02 257 20:40 17.05.2020
2865 Clouds 15 1019 53 0 2.97 279 20:19 17.05.2020
2866 Clouds 16 1022 50 0 0.89 280 19:47 17.05.2020
2867 Clouds 16 1021 48 0 2.97 279 19:29 17.05.2020
2868 Clouds 17 1021 45 0 0.89 270 18:59 17.05.2020
2869 Clouds 17 1021 45 0 0.89 270 18:59 17.05.2020
2870 Clouds 17 1020 44 0 0.89 270 18:39 17.05.2020
2871 Clouds 17 1020 40 0 0.45 270 18:21 17.05.2020
2872 Clouds 17 1020 41 0 0.89 270 17:55 17.05.2020
2873 Clouds 17 1019 45 0 3.91 281 17:36 17.05.2020
2874 Clear 17 1022 45 0 1.79 267 17:18 17.05.2020
2875 Clear 17 1022 48 0 0.89 268 16:39 17.05.2020
2876 Clear 16 1019 43 0 3.96 278 16:20 17.05.2020
2877 Clear 16 1019 43 0 3.96 278 16:20 17.05.2020
2878 Clear 16 1021 46 0 0.45 292 15:56 17.05.2020
2879 Clear 16 1021 42 0 0.89 292 15:37 17.05.2020
2880 Clouds 16 1019 41 0 3.88 283 15:18 17.05.2020
2881 Clouds 16 1019 49 0 3.88 283 14:42 17.05.2020
2882 Clouds 16 1021 45 0 0.89 270 14:24 17.05.2020
2883 Clouds 15 1021 46 0 1.34 292 13:57 17.05.2020
2884 Clouds 14 1021 50 0 1.34 292 13:37 17.05.2020
2885 Clear 15 1020 53 0 3.52 291 13:18 17.05.2020
2886 Clouds 7 1017 79 0 1.37 298 04:21 17.05.2020
2887 Clouds 8 1019 77 0 1.13 301 02:29 17.05.2020
2888 Clouds 8 1019 77 0 1.13 301 02:29 17.05.2020
2889 Clouds 9 1018 76 0 1.47 271 01:56 17.05.2020
2890 Clouds 9 1018 74 0 1.47 251 00:58 17.05.2020
2891 Clouds 9 1019 70 0 1.47 251 00:40 17.05.2020
2892 Clouds 10 1018 70 0 1.89 266 23:57 16.05.2020
2893 Clouds 10 1019 67 0 1.89 266 23:39 16.05.2020
2894 Clouds 10 1017 67 0 1.61 263 23:20 16.05.2020
2895 Clouds 9 1018 67 0 1.61 263 22:58 16.05.2020
2896 Clouds 11 1018 63 0 1.61 263 22:40 16.05.2020
2897 Clouds 11 1018 62 0 1.22 276 22:20 16.05.2020
2898 Clouds 11 1019 63 0 1.22 276 21:45 16.05.2020
2899 Clouds 12 1018 58 0 0.99 269 21:27 16.05.2020
2900 Clouds 12 1019 61 0 1.3 256 20:59 16.05.2020
2901 Clouds 13 1019 56 0 1.3 256 20:41 16.05.2020
2902 Clouds 13 1016 57 0 1.53 268 20:22 16.05.2020
2903 Clouds 14 1018 51 0 1.53 268 19:58 16.05.2020
2904 Clouds 14 1019 52 0 1.53 268 19:40 16.05.2020
2905 Clouds 15 1016 48 0 2.82 288 19:22 16.05.2020
2906 Clouds 15 1019 51 0 2.82 288 18:42 16.05.2020
2907 Clouds 16 1017 48 0 3.7 283 18:24 16.05.2020
2908 Clouds 15 1018 45 0 0.89 292 17:57 16.05.2020
2909 Clouds 15 1017 46 0 3.7 283 17:38 16.05.2020
2910 Clouds 15 1019 46 0 0.45 270 17:19 16.05.2020
2911 Clouds 16 1020 44 0 1.79 234 16:41 16.05.2020
2912 Clouds 16 1020 44 0 1.79 234 16:22 16.05.2020
2913 Clouds 15 1019 44 0 1.79 292 15:58 16.05.2020
2914 Clouds 14 1019 48 0 1.34 292 15:40 16.05.2020
2915 Clouds 14 1021 53 0 0.89 257 15:19 16.05.2020
2916 Clouds 15 1018 53 0 4.36 274 14:48 16.05.2020
2917 Clouds 14 1022 55 0 0.45 250 14:21 16.05.2020
2918 Clouds 14 1022 54 0 1.34 243 13:59 16.05.2020
2919 Clouds 13 1022 59 0 0.45 267 13:40 16.05.2020
2920 Clouds 13 1022 59 0 0.45 267 13:22 16.05.2020
2921 Clouds 13 1021 53 0 0.89 292 12:45 16.05.2020
2922 Clouds 12 1021 56 0 0.45 292 12:23 16.05.2020
2923 Clouds 13 1024 55 0 3.95 260 11:59 16.05.2020
2924 Clouds 12 1021 56 0 0.89 270 11:39 16.05.2020
2925 Clouds 12 1019 56 0 3.85 260 11:20 16.05.2020
2926 Clouds 12 1021 57 0 0.45 292 10:56 16.05.2020
2927 Clouds 12 1021 57 0 0.45 292 10:56 16.05.2020
2928 Clouds 12 1019 56 0 3.85 260 10:37 16.05.2020
2929 Clouds 11 1022 63 0 1.79 263 10:19 16.05.2020
2930 Clouds 11 1022 67 0 3.86 263 09:45 16.05.2020
2931 Clouds 9 1022 73 0 3.97 263 09:27 16.05.2020
2932 Clouds 9 1021 66 0 0.45 270 08:45 16.05.2020
2933 Clear 9 1021 66 0 0.45 292 08:23 16.05.2020
2934 Clear 6 1021 68 0 3.13 255 07:56 16.05.2020
2935 Clear 5 1021 70 0 3.13 255 07:38 16.05.2020
2936 Clear 5 1021 76 0 1.96 231 07:19 16.05.2020
2937 Clear 4 1020 82 0 1.96 231 06:45 16.05.2020
2938 Clear 3 1019 83 0 1.78 222 06:19 16.05.2020
2939 Clear 3 1020 84 0 1.78 222 05:40 16.05.2020
2940 Clear 4 1020 83 0 1.63 230 04:51 16.05.2020
2941 Clear 5 1020 78 0 1.23 272 03:25 16.05.2020
2942 Clear 6 1021 74 0 0.89 250 02:39 16.05.2020
2943 Clouds 6 1018 81 0 1.6 284 02:18 16.05.2020
2944 Clouds 5 1018 78 0 1.6 284 01:37 16.05.2020
2945 Clouds 5 1018 75 0 1.66 287 00:57 16.05.2020
2946 Clouds 5 1018 73 0 1.66 287 00:38 16.05.2020
2947 Clouds 9 1023 65 0 2.68 279 00:19 16.05.2020
2948 Clouds 8 1018 72 0 1.71 291 23:39 15.05.2020
2949 Clouds 9 1020 65 0 1.9 300 23:19 15.05.2020
2950 Clouds 9 1018 70 0 1.9 300 22:41 15.05.2020
2951 Clouds 9 1018 70 0 2.13 297 22:20 15.05.2020
2952 Clouds 9 1020 65 0 2.13 297 21:57 15.05.2020
2953 Clouds 9 1020 64 0 2.13 297 21:38 15.05.2020
2954 Clouds 9 1017 64 0 2 293 21:20 15.05.2020
2955 Clouds 10 1019 60 0 2 293 20:55 15.05.2020
2956 Clouds 11 1019 59 0 2 293 20:37 15.05.2020
2957 Clouds 11 1017 54 0 2.51 302 20:18 15.05.2020
2958 Clouds 11 1017 52 0 2.79 303 19:43 15.05.2020
2959 Clouds 11 1017 53 0 3.53 311 19:23 15.05.2020
2960 Clouds 12 1019 51 0 3.42 309 18:54 15.05.2020
2961 Clouds 12 1018 49 0 0.45 270 18:36 15.05.2020
2962 Clouds 12 1016 47 0 3.95 312 18:18 15.05.2020
2963 Clouds 12 1016 44 0 3.95 312 17:37 15.05.2020
2964 Clouds 13 1016 44 0 3.98 311 17:19 15.05.2020
2965 Clouds 13 1018 47 0 3.98 311 16:56 15.05.2020
2966 Clouds 14 1016 45 0 3.98 311 16:37 15.05.2020
2967 Clouds 14 1018 45 0 0.45 90 16:18 15.05.2020
2968 Clouds 14 1015 48 0 3.72 309 15:41 15.05.2020
2969 Clouds 14 1015 48 0 3.72 309 15:41 15.05.2020
2970 Clouds 14 1015 48 0 3.28 318 15:21 15.05.2020
2971 Clouds 13 1018 40 0 0.45 292 14:58 15.05.2020
2972 Clouds 13 1015 51 0 3.89 318 14:40 15.05.2020
2973 Clouds 13 1015 51 0 3.67 320 14:21 15.05.2020
2974 Clouds 12 1018 47 0 0.45 112 13:42 15.05.2020
2975 Clouds 12 1015 50 0 3.25 326 13:22 15.05.2020
2976 Clouds 12 1018 56 0 3.25 326 12:56 15.05.2020
2977 Clouds 11 1018 54 0 3.25 326 12:37 15.05.2020
2978 Clouds 12 1015 50 0 3.09 334 12:18 15.05.2020
2979 Clouds 11 1018 57 0 0.45 90 11:56 15.05.2020
2980 Clouds 11 1015 53 0 3.09 334 11:37 15.05.2020
2981 Clouds 11 1015 52 0 2.43 328 11:19 15.05.2020
2982 Clouds 11 1018 63 0 2.43 328 10:56 15.05.2020
2983 Clouds 11 1015 56 0 2.43 328 10:37 15.05.2020
2984 Clear 11 1018 66 0 0.45 112 10:19 15.05.2020
2985 Clear 9 1015 58 0 0.91 345 09:40 15.05.2020
2986 Clear 7 1019 80 0 2.24 349 09:20 15.05.2020
2987 Clear 7 1018 75 0 0.82 25 08:58 15.05.2020
2988 Clear 7 1018 75 0 0.82 25 08:58 15.05.2020
2989 Clear 6 1018 75 0 0.82 25 08:38 15.05.2020
2990 Clear 7 1018 76 0 1.03 25 08:19 15.05.2020
2991 Clear 6 1018 76 0 1.03 25 07:46 15.05.2020
2992 Clear 6 1018 76 0 1.03 25 07:46 15.05.2020
2993 Clear 5 1018 77 0 0.98 24 07:27 15.05.2020
2994 Clear 4 1018 83 0 0.98 24 06:56 15.05.2020
2995 Clear 1 1017 90 0 1.06 45 05:55 15.05.2020
2996 Clear 1 1016 86 0 1.18 45 04:33 15.05.2020
2997 Clear 2 1016 86 0 1.17 57 03:49 15.05.2020
2998 Clear 3 1017 84 0 1.28 65 02:40 15.05.2020
2999 Clear 4 1017 81 0 1.31 64 01:31 15.05.2020
3000 Clear 4 1017 81 0 1.32 61 00:57 15.05.2020
3001 Clear 4 1017 80 0 1.32 61 00:39 15.05.2020
3002 Clear 4 1018 75 0 1.38 54 00:20 15.05.2020
3003 Clear 5 1017 74 0 1.38 54 23:40 14.05.2020
3004 Clouds 5 1017 71 0 1.05 49 23:18 14.05.2020
3005 Clouds 5 1017 71 0 1.05 49 23:18 14.05.2020
3006 Clouds 6 1018 69 0 1.05 49 22:42 14.05.2020
3007 Clouds 6 1018 69 0 0.8 66 22:23 14.05.2020
3008 Clouds 8 1017 62 0 0.8 66 21:58 14.05.2020
3009 Clouds 8 1017 59 0 0.8 66 21:40 14.05.2020
3010 Clouds 8 1015 62 0 0.96 76 21:20 14.05.2020
3011 Clouds 8 1015 62 0 0.96 76 21:20 14.05.2020
3012 Clouds 9 1017 53 0 0.85 72 20:57 14.05.2020
3013 Clouds 9 1017 50 0 0.85 72 20:38 14.05.2020
3014 Clouds 10 1015 58 0 1.18 58 20:19 14.05.2020
3015 Clouds 11 1017 50 0 1.18 58 19:56 14.05.2020
3016 Clouds 11 1017 49 0 1.18 58 19:37 14.05.2020
3017 Clouds 11 1014 58 0 2.34 36 19:19 14.05.2020
3018 Clouds 11 1016 38 0 2.34 36 18:56 14.05.2020
3019 Clouds 11 1015 61 0 2.34 36 18:37 14.05.2020
3020 Clouds 11 1014 61 0 3.07 25 18:18 14.05.2020
3021 Clouds 12 1016 42 0 3.07 25 17:56 14.05.2020
3022 Clouds 11 1014 62 0 3.07 25 17:36 14.05.2020
3023 Clouds 11 1016 46 0 3.35 16 17:18 14.05.2020
3024 Clouds 11 1016 50 0 3.35 16 16:39 14.05.2020
3025 Clouds 11 1014 61 0 3.47 17 16:21 14.05.2020
3026 Clouds 11 1017 50 0 3.47 17 15:58 14.05.2020
3027 Clouds 11 1015 63 0 3.47 17 15:40 14.05.2020
3028 Clouds 11 1017 61 0 2.24 344 15:20 14.05.2020
3029 Clouds 10 1017 54 0 0.45 90 14:56 14.05.2020
3030 Clouds 11 1018 58 0 3.61 13 14:38 14.05.2020
3031 Clouds 11 1017 54 0 0.89 90 14:20 14.05.2020
3032 Clouds 10 1017 57 0 1.34 90 13:56 14.05.2020
3033 Clouds 10 1018 63 0 1.34 350 13:38 14.05.2020
3034 Clouds 10 1017 68 0 2.6 5 13:18 14.05.2020
3035 Clouds 10 1018 65 0 2.68 346 12:57 14.05.2020
3036 Clouds 9 1015 68 0 2.6 5 12:37 14.05.2020
3037 Clouds 9 1015 72 0 2.47 14 12:18 14.05.2020
3038 Clouds 9 1015 72 0 2.47 14 12:18 14.05.2020
3039 Clouds 8 1017 75 0 2.47 14 11:56 14.05.2020
3040 Clouds 8 1015 78 0 2.47 14 11:37 14.05.2020
3041 Clouds 7 1015 79 0 2.41 6 11:19 14.05.2020
3042 Clouds 8 1017 79 0 0.89 90 10:42 14.05.2020
3043 Clouds 7 1017 78 0 2.43 357 10:24 14.05.2020
3044 Clouds 7 1016 78 0 0.45 112 09:56 14.05.2020
3045 Clouds 7 1016 78 0 0.45 112 09:56 14.05.2020
3046 Clouds 7 1016 80 0 2.83 359 09:36 14.05.2020
3047 Clouds 7 1013 80 0 2.47 351 09:18 14.05.2020
3048 Clouds 6 1013 83 0 2.47 351 08:37 14.05.2020
3049 Clouds 6 1015 90 0 2.2 344 08:19 14.05.2020
3050 Clouds 5 1015 91 0 2.2 344 07:45 14.05.2020
3051 Clouds 5 1015 91 0 2.2 344 07:45 14.05.2020
3052 Clouds 5 1012 89 0 1.84 337 07:22 14.05.2020
3053 Clouds 5 1014 92 0 1.84 337 06:44 14.05.2020
3054 Clouds 6 1014 92 0 1.77 334 06:25 14.05.2020
3055 Clouds 6 1014 92 0 1.77 334 05:42 14.05.2020
3056 Clouds 6 1014 92 0 1.77 334 05:42 14.05.2020
3057 Clouds 5 1013 92 0 1.57 331 04:46 14.05.2020
3058 Clouds 5 1010 82 0 1.58 335 03:44 14.05.2020
3059 Clouds 6 1013 91 0 1.33 349 03:20 14.05.2020
3060 Clouds 6 1013 91 0 1.33 349 02:36 14.05.2020
3061 Clouds 6 1012 87 0 1.21 356 01:52 14.05.2020
3062 Clouds 6 1012 88 0 1.5 18 00:54 14.05.2020
3063 Clouds 7 1013 86 0 1.74 9 00:28 14.05.2020
3064 Clouds 7 1012 85 0 1.74 9 23:46 13.05.2020
3065 Clouds 7 1011 84 0 2.14 356 23:25 13.05.2020
3066 Clouds 8 1012 70 10000 2.6 350 23:00 13.05.2020
3067 Clouds 8 1012 81 0 0.89 341 22:41 13.05.2020
3068 Rain 7 1011 81 0 2.34 351 22:22 13.05.2020
3069 Rain 8 1010 80 0 2.34 351 21:59 13.05.2020
3070 Rain 8 1010 67 0 0.89 355 21:39 13.05.2020
3071 Clouds 8 1008 68 0 1.71 7 21:19 13.05.2020
3072 Clouds 9 1010 79 0 1.71 7 20:56 13.05.2020
3073 Clouds 9 1007 66 0 1.71 7 20:38 13.05.2020
3074 Clouds 10 1007 66 0 1.34 19 20:19 13.05.2020
3075 Clouds 11 1007 58 0 1.34 19 19:42 13.05.2020
3076 Clouds 11 1009 57 0 1.39 8 19:23 13.05.2020
3077 Clouds 11 1009 52 0 1.39 8 18:45 13.05.2020
3078 Clouds 12 1007 51 0 1.46 10 18:22 13.05.2020
3079 Clouds 12 1007 51 0 1.46 10 18:22 13.05.2020
3080 Clouds 12 1007 51 0 1.46 10 18:22 13.05.2020
3081 Clouds 12 1009 49 0 1.46 10 17:57 13.05.2020
3082 Clouds 12 1007 49 0 1.46 10 17:37 13.05.2020
3083 Clouds 12 1007 48 0 1.22 350 17:18 13.05.2020
3084 Clouds 12 1007 48 0 1.22 350 17:18 13.05.2020
3085 Clouds 12 1010 47 0 1.22 350 16:40 13.05.2020
3086 Clouds 13 1009 43 0 0.83 317 16:19 13.05.2020
3087 Clouds 13 1009 42 0 0.45 270 15:55 13.05.2020
3088 Clouds 13 1009 42 0 0.45 270 15:36 13.05.2020
3089 Clouds 13 1009 42 0 0.45 270 15:36 13.05.2020
3090 Clouds 13 1008 45 0 1.21 276 15:18 13.05.2020
3091 Clouds 11 1010 47 0 0.45 292 14:42 13.05.2020
3092 Clouds 11 1010 47 0 0.45 292 14:42 13.05.2020
3093 Clouds 11 1010 49 0 1.34 270 14:23 13.05.2020
3094 Clouds 11 1010 48 0 0.89 292 13:58 13.05.2020
3095 Clouds 11 1009 51 0 1.34 270 13:40 13.05.2020
3096 Clouds 11 1010 50 0 1.51 259 13:21 13.05.2020
3097 Clouds 12 1012 49 0 1.51 259 12:58 13.05.2020
3098 Clouds 11 1010 54 0 1.51 259 12:39 13.05.2020
3099 Clouds 11 1012 51 0 0.45 259 12:20 13.05.2020
3100 Clouds 11 1012 51 0 0.45 259 11:56 13.05.2020
3101 Clouds 10 1011 49 0 0.45 292 11:37 13.05.2020
3102 Clouds 10 1012 59 0 0.45 263 11:19 13.05.2020
3103 Clouds 9 1011 55 0 0.45 270 10:56 13.05.2020
3104 Clouds 9 1010 59 0 2.33 279 10:38 13.05.2020
3105 Clouds 9 1011 58 0 0.45 225 10:19 13.05.2020
3106 Clouds 9 1013 65 0 2.83 279 09:45 13.05.2020
3107 Clouds 8 1012 63 0 2.84 270 09:23 13.05.2020
3108 Clear 7 1012 64 0 2.42 272 08:57 13.05.2020
3109 Clear 6 1012 66 0 2.42 272 08:37 13.05.2020
3110 Clouds 6 1011 74 0 1.63 256 08:19 13.05.2020
3111 Clouds 4 1013 83 0 1.63 256 07:44 13.05.2020
3112 Clouds 4 1012 77 0 0.98 238 07:26 13.05.2020
3113 Clouds 3 1012 79 0 0.98 238 06:49 13.05.2020
3114 Clouds 3 1010 79 0 0.98 238 06:31 13.05.2020
3115 Clouds 2 1010 81 0 1.05 242 05:33 13.05.2020
3116 Clouds 2 1012 81 0 1.09 234 03:28 13.05.2020
3117 Clouds 3 1011 83 0 1.09 234 02:34 13.05.2020
3118 Clouds 3 1013 80 0 1.34 53 01:45 13.05.2020
3119 Clouds 2 1012 87 0 1.1 242 00:55 13.05.2020
3120 Clear 2 1012 83 0 0.81 249 00:22 13.05.2020
3121 Clear 3 1014 79 0 0.89 38 23:55 12.05.2020
3122 Clear 3 1014 79 0 0.89 42 23:36 12.05.2020
3123 Clear 3 1014 78 0 0.89 40 23:18 12.05.2020
3124 Clear 4 1012 81 0 0.96 260 22:42 12.05.2020
3125 Clear 5 1016 64 0 0.89 270 22:22 12.05.2020
3126 Clear 5 1016 64 0 0.89 270 21:56 12.05.2020
3127 Clear 5 1016 64 0 0.89 270 21:38 12.05.2020
3128 Clear 5 1016 64 0 0.89 270 21:19 12.05.2020
3129 Clear 6 1016 64 0 0.89 270 20:58 12.05.2020
3130 Clear 6 1016 63 0 1.34 225 20:39 12.05.2020
3131 Clouds 7 1016 62 0 0.89 225 20:20 12.05.2020
3132 Clouds 8 1016 62 0 1.34 225 19:57 12.05.2020
3133 Clouds 8 1016 62 0 1.34 225 19:39 12.05.2020
3134 Clouds 8 1016 61 0 1.79 202 19:20 12.05.2020
3135 Clouds 8 1016 60 0 2.68 225 18:55 12.05.2020
3136 Clouds 8 1017 58 0 2.68 225 18:36 12.05.2020
3137 Clouds 8 1016 57 0 2.24 225 18:18 12.05.2020
3138 Clouds 8 1017 56 0 3.58 225 17:41 12.05.2020
3139 Clouds 9 1017 50 0 4.92 225 17:23 12.05.2020
3140 Clouds 9 1017 51 0 3.58 225 16:47 12.05.2020
3141 Clouds 10 1017 47 0 0.89 225 16:25 12.05.2020
3142 Clouds 9 1017 50 0 6.26 225 15:56 12.05.2020
3143 Clouds 7 1018 60 0 3.13 225 15:37 12.05.2020
3144 Clouds 7 1018 60 0 3.13 225 15:19 12.05.2020
3145 Clouds 7 1018 63 0 4.92 202 14:56 12.05.2020
3146 Clouds 6 1018 68 0 3.58 225 14:37 12.05.2020
3147 Clouds 6 1018 66 0 3.58 202 14:19 12.05.2020
3148 Clouds 7 1018 64 0 3.58 225 13:57 12.05.2020
3149 Clouds 7 1018 68 0 3.58 225 13:39 12.05.2020
3150 Clouds 6 1018 65 0 5.81 225 13:19 12.05.2020
3151 Clouds 6 1018 67 0 3.58 225 12:57 12.05.2020
3152 Clouds 6 1018 74 0 3.58 225 12:39 12.05.2020
3153 Clouds 6 1018 79 0 4.02 225 12:21 12.05.2020
3154 Clouds 6 1018 79 0 4.02 225 12:21 12.05.2020
3155 Clouds 5 1018 77 0 4.02 225 11:57 12.05.2020
3156 Clouds 5 1018 78 0 3.58 225 11:38 12.05.2020
3157 Clouds 5 1018 78 0 4.02 225 11:20 12.05.2020
3158 Clouds 6 1018 74 0 4.02 225 10:57 12.05.2020
3159 Clouds 5 1018 73 0 3.58 225 10:39 12.05.2020
3160 Clouds 5 1018 76 0 2.24 225 10:19 12.05.2020
3161 Clouds 4 1018 80 0 3.13 180 09:58 12.05.2020
3162 Clouds 4 1018 83 0 3.58 225 09:39 12.05.2020
3163 Clouds 4 1018 85 0 3.58 225 09:20 12.05.2020
3164 Clouds 3 1018 84 0 2.24 225 08:42 12.05.2020
3165 Clouds 3 1018 86 0 2.24 225 08:22 12.05.2020
3166 Clouds 3 1018 90 0 1.79 225 07:58 12.05.2020
3167 Clouds 2 1018 91 0 2.68 248 07:40 12.05.2020
3168 Clear 0 1018 92 0 1.79 248 07:21 12.05.2020
3169 Clear -1 1017 90 0 2.23 264 06:39 12.05.2020
3170 Clear -1 1017 90 0 0.45 0 06:21 12.05.2020
3171 Clear -1 1017 88 0 0.45 0 05:49 12.05.2020
3172 Clear -1 1017 88 0 0.45 0 04:41 12.05.2020
3173 Clear 0 1016 83 0 0.89 22 03:24 12.05.2020
3174 Clear 0 1016 81 0 0.45 292 02:28 12.05.2020
3175 Clouds 0 1016 77 0 0.45 45 01:48 12.05.2020
3176 Clear 0 1015 73 0 0.45 0 00:59 12.05.2020
3177 Clear 0 1015 73 0 0.45 0 00:25 12.05.2020
3178 Clear 0 1015 70 0 1.33 335 23:58 11.05.2020
3179 Clear 0 1015 68 0 0.45 0 23:40 11.05.2020
3180 Clear 1 1014 63 0 0.45 0 23:20 11.05.2020
3181 Clear 1 1014 59 0 0.45 0 22:58 11.05.2020
3182 Clear 2 1014 56 0 0.45 0 22:40 11.05.2020
3183 Clear 3 1014 52 0 0.89 45 22:19 11.05.2020
3184 Clear 3 1014 52 0 0.89 45 21:57 11.05.2020
3185 Clear 4 1013 54 0 1.34 0 21:38 11.05.2020
3186 Clear 4 1013 54 0 2.24 45 21:19 11.05.2020
3187 Clear 5 1012 55 0 2.68 0 20:57 11.05.2020
3188 Clear 6 1012 55 0 2.24 45 20:38 11.05.2020
3189 Clouds 6 1012 55 0 3.58 68 20:19 11.05.2020
3190 Clouds 7 1011 52 0 1.79 0 19:54 11.05.2020
3191 Clouds 6 1011 53 0 4.02 45 19:36 11.05.2020
3192 Clouds 7 1011 53 0 5.36 45 19:18 11.05.2020
3193 Clouds 7 1011 55 0 1.79 0 18:54 11.05.2020
3194 Clouds 7 1011 58 0 3.13 45 18:36 11.05.2020
3195 Clouds 7 1011 61 0 3.58 0 18:18 11.05.2020
3196 Clouds 6 1010 64 0 2.24 0 17:40 11.05.2020
3197 Clouds 6 1010 66 0 4.02 22 17:22 11.05.2020
3198 Clouds 5 1010 68 0 4.92 315 16:58 11.05.2020
3199 Clouds 5 1010 72 0 4.02 0 16:38 11.05.2020
3200 Rain 5 1009 81 0 3.13 45 16:20 11.05.2020
3201 Rain 5 1009 83 0 3.58 338 15:57 11.05.2020
3202 Rain 5 1009 87 0 4.47 45 15:38 11.05.2020
3203 Rain 4 1009 91 0 7.6 45 15:18 11.05.2020
3204 Rain 4 1009 93 0 4.47 45 14:42 11.05.2020
3205 Rain 4 1009 93 0 4.47 45 14:42 11.05.2020
3206 Rain 4 1009 93 0 1.79 45 14:22 11.05.2020
3207 Rain 4 1009 95 0 4.02 315 13:59 11.05.2020
3208 Rain 4 1009 96 0 3.13 0 13:41 11.05.2020
3209 Rain 4 1009 95 0 4.02 45 13:19 11.05.2020
3210 Rain 4 1009 94 0 4.02 0 12:58 11.05.2020
3211 Rain 4 1009 94 0 4.92 45 12:39 11.05.2020
3212 Rain 4 1009 94 0 3.58 45 12:21 11.05.2020
3213 Rain 4 1009 93 0 3.58 45 11:56 11.05.2020
3214 Rain 4 1008 93 0 4.47 45 11:37 11.05.2020
3215 Rain 3 1009 92 0 4.47 45 11:19 11.05.2020
3216 Rain 3 1009 91 0 4.92 45 10:54 11.05.2020
3217 Rain 3 1009 90 0 4.92 45 10:36 11.05.2020
3218 Rain 3 1009 90 0 3.58 315 10:18 11.05.2020
3219 Rain 3 1008 92 0 4.47 45 09:42 11.05.2020
3220 Clouds 3 1008 93 0 5.36 90 09:22 11.05.2020
3221 Clouds 3 1008 93 0 3.58 45 08:59 11.05.2020
3222 Clouds 3 1008 94 0 3.13 45 08:39 11.05.2020
3223 Clouds 3 1008 95 0 5.36 45 08:19 11.05.2020
3224 Clouds 3 1008 97 0 4.92 45 07:50 11.05.2020
3225 Clouds 3 1008 97 0 4.92 45 07:32 11.05.2020
3226 Rain 5 1008 96 0 5.36 0 06:54 11.05.2020
3227 Rain 5 1008 96 0 3.58 45 06:26 11.05.2020
3228 Clouds 5 1007 94 0 4.92 90 05:30 11.05.2020
3229 Clouds 6 1008 93 0 4.02 45 04:58 11.05.2020
3230 Rain 6 1008 86 0 5.36 45 03:46 11.05.2020
3231 Clouds 8 1008 83 0 3.58 45 02:35 11.05.2020
3232 Rain 9 1008 86 0 4.02 68 01:55 11.05.2020
3233 Clouds 12 1008 83 0 2.68 90 00:54 11.05.2020
3234 Rain 12 1008 85 0 3.13 45 00:27 11.05.2020
3235 Rain 13 1008 85 0 2.24 45 23:56 10.05.2020
3236 Rain 14 1007 85 0 1.79 315 23:36 10.05.2020
3237 Rain 14 1007 84 0 2.68 45 23:18 10.05.2020
3238 Rain 15 1007 73 0 0.89 315 22:42 10.05.2020
3239 Rain 15 1007 73 0 0.45 22 22:24 10.05.2020
3240 Rain 15 1007 74 0 2.59 342 21:55 10.05.2020
3241 Rain 15 1007 72 0 2.59 342 21:37 10.05.2020
3242 Clouds 15 1007 70 0 2.75 349 21:18 10.05.2020
3243 Clouds 16 1007 66 0 3.46 0 20:41 10.05.2020
3244 Rain 16 1007 64 0 3.89 343 20:23 10.05.2020
3245 Rain 17 1007 57 0 3.89 343 19:56 10.05.2020
3246 Rain 17 1007 56 0 3.89 343 19:38 10.05.2020
3247 Rain 18 1007 55 0 1.61 337 19:20 10.05.2020
3248 Rain 18 1007 54 0 0.45 0 18:54 10.05.2020
3249 Rain 18 1007 52 0 0.89 90 18:36 10.05.2020
3250 Rain 19 1007 51 0 0.89 0 18:18 10.05.2020
3251 Rain 18 1007 50 0 0.89 45 17:57 10.05.2020
3252 Rain 18 1007 51 0 0.45 0 17:37 10.05.2020
3253 Rain 18 1007 51 0 0.89 315 17:19 10.05.2020
3254 Rain 18 1008 46 0 0.45 225 16:43 10.05.2020
3255 Rain 19 1008 48 0 0.45 315 16:21 10.05.2020
3256 Rain 19 1003 56 0 1.13 342 15:58 10.05.2020
3257 Rain 19 1008 43 0 0.89 90 15:39 10.05.2020
3258 Rain 19 1008 43 0 0.89 90 15:39 10.05.2020
3259 Rain 17 1008 44 0 0.45 45 15:20 10.05.2020
3260 Rain 17 1003 61 0 1.25 345 14:56 10.05.2020
3261 Rain 17 1008 52 0 0.89 225 14:37 10.05.2020
3262 Rain 17 1008 52 0 0.89 225 14:19 10.05.2020
3263 Rain 16 1005 66 0 1.28 209 13:57 10.05.2020
3264 Rain 16 1004 70 0 1.28 209 13:37 10.05.2020
3265 Rain 16 1008 66 0 3.13 180 13:18 10.05.2020
3266 Rain 16 1008 59 0 3.13 248 12:42 10.05.2020
3267 Clouds 17 1008 54 0 3.58 202 12:23 10.05.2020
3268 Clouds 18 1008 50 0 2.68 225 11:59 10.05.2020
3269 Clouds 18 1008 40 0 0.89 0 11:40 10.05.2020
3270 Clouds 18 1008 41 0 0.89 0 11:21 10.05.2020
3271 Clouds 17 1008 45 0 0.89 90 10:58 10.05.2020
3272 Clouds 16 1009 48 0 0.45 225 10:40 10.05.2020
3273 Clouds 16 1009 45 0 1.34 225 10:22 10.05.2020
3274 Clouds 16 1009 46 0 1.34 225 09:42 10.05.2020
3275 Clouds 14 1006 71 0 0.99 147 09:23 10.05.2020
3276 Clouds 14 1005 61 0 0.99 147 08:59 10.05.2020
3277 Clouds 14 1003 71 0 0.99 147 08:41 10.05.2020
3278 Clouds 14 1006 72 0 0.82 130 08:22 10.05.2020
3279 Clouds 14 1009 62 0 0.82 130 07:43 10.05.2020
3280 Clouds 12 1009 75 0 0.88 123 07:19 10.05.2020
3281 Clouds 10 1010 76 0 0.45 0 06:51 10.05.2020
3282 Clouds 8 1010 82 0 0.45 0 06:27 10.05.2020
3283 Clouds 9 1003 62 0 1.01 126 05:48 10.05.2020
3284 Clouds 7 1011 81 0 0.89 0 04:48 10.05.2020
3285 Clouds 7 1010 80 0 0.45 0 04:29 10.05.2020
3286 Clouds 8 1011 82 0 0.89 22 03:51 10.05.2020
3287 Clouds 8 1006 87 0 1.05 120 03:30 10.05.2020
3288 Clouds 9 1011 83 0 0.45 45 02:25 10.05.2020
3289 Clouds 9 1012 83 0 0.89 0 01:59 10.05.2020
3290 Clouds 9 1012 83 0 0.89 0 01:40 10.05.2020
3291 Clouds 10 1012 80 0 0.89 22 01:19 10.05.2020
3292 Clouds 10 1012 72 0 0.45 45 00:53 10.05.2020
3293 Clouds 10 1012 68 0 0.89 45 00:22 10.05.2020
3294 Clouds 11 1013 67 0 0.89 45 23:57 09.05.2020
3295 Clouds 11 1013 70 0 0.89 45 23:38 09.05.2020
3296 Clouds 12 1013 70 0 0.89 0 23:19 09.05.2020
3297 Clouds 12 1013 72 0 0.45 0 22:41 09.05.2020
3298 Clouds 13 1013 71 0 0.45 0 22:23 09.05.2020
3299 Clouds 13 1014 71 0 0.89 0 21:58 09.05.2020
3300 Clouds 11 1014 68 0 0.45 0 21:40 09.05.2020
3301 Clear 16 1014 62 0 0.89 0 21:20 09.05.2020
3302 Clear 17 1014 51 0 0.89 135 20:57 09.05.2020
3303 Clear 17 1013 45 0 0.89 135 20:38 09.05.2020
3304 Clouds 18 1014 41 0 0.45 135 20:20 09.05.2020
3305 Clouds 19 1014 40 0 2.01 101 19:55 09.05.2020
3306 Clouds 20 1014 34 0 0.45 225 19:37 09.05.2020
3307 Clouds 20 1014 33 0 1.34 90 19:18 09.05.2020
3308 Clouds 20 1014 38 0 0.89 90 18:42 09.05.2020
3309 Clouds 20 1014 38 0 0.89 90 18:42 09.05.2020
3310 Clouds 20 1014 40 0 0.89 0 18:21 09.05.2020
3311 Clouds 20 1014 37 0 1.79 45 17:45 09.05.2020
3312 Clouds 21 1014 34 0 2.24 45 17:23 09.05.2020
3313 Clouds 21 1012 41 0 1.79 336 16:57 09.05.2020
3314 Clouds 21 1008 39 0 2.48 98 16:38 09.05.2020
3315 Clouds 21 1015 33 0 1.79 0 16:18 09.05.2020
3316 Clouds 21 1015 34 0 2.24 45 15:43 09.05.2020
3317 Clouds 21 1015 35 0 1.79 45 15:22 09.05.2020
3318 Clouds 21 1016 37 0 1.79 45 14:56 09.05.2020
3319 Clouds 21 1016 37 0 1.79 45 14:37 09.05.2020
3320 Clouds 20 1016 39 0 1.34 180 14:18 09.05.2020
3321 Clouds 20 1016 39 0 1.34 180 14:18 09.05.2020
3322 Clouds 20 1016 40 0 1.34 225 13:56 09.05.2020
3323 Clouds 20 1016 40 0 0.45 225 13:38 09.05.2020
3324 Clouds 20 1017 40 0 3.13 180 13:18 09.05.2020
3325 Clouds 20 1017 40 0 1.79 225 12:40 09.05.2020
3326 Clouds 19 1017 41 0 4.47 225 12:22 09.05.2020
3327 Clouds 19 1017 38 0 3.13 225 11:45 09.05.2020
3328 Clouds 19 1017 35 0 2.24 225 11:20 09.05.2020
3329 Clouds 18 1017 37 0 2.68 225 10:56 09.05.2020
3330 Clouds 19 1017 33 0 3.58 225 10:38 09.05.2020
3331 Clouds 18 1016 57 0 2.2 112 10:19 09.05.2020
3332 Clouds 17 1014 45 0 2.2 112 09:54 09.05.2020
3333 Clouds 16 1016 61 0 2.2 112 09:36 09.05.2020
3334 Clouds 13 1016 67 0 1.53 115 09:18 09.05.2020
3335 Clouds 13 1014 59 0 1.53 115 08:43 09.05.2020
3336 Clouds 12 1014 61 0 1.27 109 08:25 09.05.2020
3337 Clouds 12 1014 63 0 1.27 109 07:48 09.05.2020
3338 Clouds 13 1017 54 0 0.45 45 07:30 09.05.2020
3339 Clouds 9 1018 72 0 0.45 45 06:45 09.05.2020
3340 Clouds 7 1017 75 0 0.89 68 06:21 09.05.2020
3341 Clouds 6 1018 83 0 0.89 45 05:44 09.05.2020
3342 Clouds 7 1018 80 0 0.89 45 03:44 09.05.2020
3343 Clouds 7 1018 80 0 0.89 45 02:55 09.05.2020
3344 Clouds 8 1015 72 0 1.3 90 02:30 09.05.2020
3345 Clouds 8 1018 76 0 0.89 45 01:51 09.05.2020
3346 Clouds 8 1018 77 0 0.45 45 01:23 09.05.2020
3347 Clouds 9 1019 75 0 0.45 45 00:46 09.05.2020
3348 Clouds 9 1019 72 0 0.89 45 00:28 09.05.2020
3349 Clouds 9 1019 64 0 0.45 45 23:48 08.05.2020
3350 Clouds 11 1018 64 0 1.34 45 23:28 08.05.2020
3351 Clouds 10 1019 63 0 0.45 45 22:57 08.05.2020
3352 Clouds 11 1019 65 0 0.89 45 22:39 08.05.2020
3353 Clouds 12 1019 61 0 0.89 45 22:19 08.05.2020
3354 Clouds 12 1019 60 0 0.89 45 21:58 08.05.2020
3355 Clouds 13 1019 60 0 0.89 45 21:39 08.05.2020
3356 Clouds 14 1019 51 0 1.07 39 21:18 08.05.2020
3357 Clouds 14 1019 45 0 1.34 45 20:56 08.05.2020
3358 Clouds 14 1019 44 0 0.89 45 20:38 08.05.2020
3359 Clouds 16 1019 41 0 0.45 45 20:20 08.05.2020
3360 Clouds 16 1019 41 0 1.79 45 19:44 08.05.2020
3361 Clouds 17 1019 41 0 1.79 45 19:23 08.05.2020
3362 Clouds 17 1019 42 0 2.68 45 18:55 08.05.2020
3363 Clouds 19 1019 34 0 1.34 0 18:37 08.05.2020
3364 Clouds 19 1019 32 0 2.24 315 18:18 08.05.2020
3365 Clouds 19 1017 38 0 2.24 332 17:41 08.05.2020
3366 Clouds 19 1017 38 0 2.24 355 17:18 08.05.2020
3367 Clouds 19 1017 35 0 1.79 346 16:44 08.05.2020
3368 Clouds 20 1017 38 0 1.79 347 16:26 08.05.2020
3369 Clouds 20 1019 27 0 4.92 292 15:57 08.05.2020
3370 Clouds 20 1019 30 0 0.89 45 15:39 08.05.2020
3371 Clouds 19 1019 30 0 0.89 45 15:18 08.05.2020
3372 Clouds 19 1013 31 0 3.36 321 14:41 08.05.2020
3373 Clouds 19 1020 31 0 1.79 248 14:21 08.05.2020
3374 Clouds 19 1020 32 0 2.24 0 13:59 08.05.2020
3375 Clouds 19 1020 28 0 1.34 315 13:39 08.05.2020
3376 Clouds 19 1020 30 0 0.89 180 13:19 08.05.2020
3377 Clouds 19 1020 26 0 0.89 315 12:45 08.05.2020
3378 Clouds 17 1019 43 0 0.89 321 12:25 08.05.2020
3379 Clouds 17 1020 30 0 2.68 315 11:59 08.05.2020
3380 Clouds 17 1017 42 0 0.45 270 11:41 08.05.2020
3381 Clouds 16 1017 39 0 1.83 318 11:21 08.05.2020
3382 Clouds 17 1017 40 0 0.45 270 10:57 08.05.2020
3383 Clouds 16 1017 45 0 1.83 318 10:39 08.05.2020
3384 Clouds 16 1015 36 0 1.78 326 10:18 08.05.2020
3385 Clouds 15 1020 35 0 1.79 315 09:42 08.05.2020
3386 Clouds 11 1017 66 0 1.56 314 09:20 08.05.2020
3387 Clouds 10 1017 67 0 1.37 300 08:59 08.05.2020
3388 Clouds 11 1017 69 0 1.37 300 08:40 08.05.2020
3389 Clouds 12 1020 71 0 0.96 258 08:20 08.05.2020
3390 Clouds 10 1020 80 0 0.96 258 07:41 08.05.2020
3391 Clouds 8 1020 82 0 0.71 234 07:23 08.05.2020
3392 Clouds 7 1020 90 0 0.71 234 06:50 08.05.2020
3393 Clouds 6 1020 90 0 0.65 220 06:21 08.05.2020
3394 Clouds 6 1019 84 0 0.45 343 05:36 08.05.2020
3395 Clouds 6 1017 78 0 0.74 206 04:30 08.05.2020
3396 Clouds 7 1018 64 0 0.75 177 02:32 08.05.2020
3397 Clouds 8 1018 60 0 0.71 181 01:45 08.05.2020
3398 Clouds 9 1017 73 0 0.69 188 01:23 08.05.2020
3399 Clouds 9 1017 71 0 0.69 188 00:51 08.05.2020
3400 Clouds 9 1019 56 0 0.69 188 00:29 08.05.2020
3401 Clouds 7 1022 80 0 0.74 175 23:58 07.05.2020
3402 Clouds 7 1022 80 0 0.45 0 23:40 07.05.2020
3403 Clouds 9 1017 63 0 0.71 169 23:21 07.05.2020
3404 Clouds 8 1022 78 0 0.45 0 22:55 07.05.2020
3405 Clouds 8 1022 77 0 0.45 0 22:37 07.05.2020
3406 Clouds 8 1022 75 0 0.58 152 22:18 07.05.2020
3407 Clouds 9 1022 72 0 0.58 152 21:55 07.05.2020
3408 Clouds 10 1022 71 0 0.89 0 21:36 07.05.2020
3409 Clouds 11 1022 61 0 0.89 0 21:18 07.05.2020
3410 Clouds 13 1022 52 0 0.17 290 20:42 07.05.2020
3411 Clear 14 1023 47 0 0.45 45 20:21 07.05.2020
3412 Clear 14 1023 47 0 0.45 45 20:21 07.05.2020
3413 Clear 17 1019 31 0 0.64 319 19:54 07.05.2020
3414 Clear 17 1018 36 0 0.64 319 19:36 07.05.2020
3415 Clear 17 1018 34 0 1.55 310 19:18 07.05.2020
3416 Clear 18 1022 32 0 1.34 333 18:41 07.05.2020
3417 Clear 18 1022 30 0 1.79 343 18:23 07.05.2020
3418 Clear 18 1022 33 0 1.79 331 17:43 07.05.2020
3419 Clear 18 1024 27 0 1.79 180 17:21 07.05.2020
3420 Clear 19 1022 31 0 1.79 333 16:59 07.05.2020
3421 Clear 18 1024 25 0 1.79 315 16:40 07.05.2020
3422 Clear 18 1024 31 0 3.13 315 16:18 07.05.2020
3423 Clear 18 1024 31 0 0.89 45 15:56 07.05.2020
3424 Clear 18 1024 30 0 3.58 0 15:37 07.05.2020
3425 Clear 18 1024 30 0 1.79 22 15:18 07.05.2020
3426 Clear 17 1025 33 0 2.24 90 14:43 07.05.2020
3427 Clear 16 1025 37 0 1.79 90 14:20 07.05.2020
3428 Clear 16 1025 40 0 3.13 225 13:44 07.05.2020
3429 Clear 16 1025 35 0 3.13 225 13:25 07.05.2020
3430 Clear 15 1025 41 0 2.24 225 12:45 07.05.2020
3431 Clear 14 1025 40 0 2.24 0 12:20 07.05.2020
3432 Clear 14 1025 40 0 2.24 0 12:20 07.05.2020
3433 Clear 13 1025 41 0 1.79 338 11:59 07.05.2020
3434 Clear 12 1024 46 0 4.02 225 11:39 07.05.2020
3435 Clear 12 1024 46 0 1.79 225 11:21 07.05.2020
3436 Clear 11 1024 57 0 2.68 225 10:43 07.05.2020
3437 Clear 10 1024 60 0 2.68 225 10:24 07.05.2020
3438 Clear 10 1024 62 0 2.24 180 09:54 07.05.2020
3439 Clear 9 1020 75 0 2.43 288 09:36 07.05.2020
3440 Clear 8 1020 75 0 2.32 283 09:18 07.05.2020
3441 Clear 7 1020 78 0 2.32 283 08:41 07.05.2020
3442 Clouds 7 1023 82 0 2.08 272 08:21 07.05.2020
3443 Clouds 6 1025 88 0 2.08 272 07:57 07.05.2020
3444 Clouds 5 1025 88 0 2.08 272 07:39 07.05.2020
3445 Clouds 4 1025 89 0 1.73 269 07:18 07.05.2020
3446 Clouds 4 1025 90 0 1.73 269 06:36 07.05.2020
3447 Clouds 3 1025 89 0 1.68 273 05:47 07.05.2020
3448 Clouds 3 1023 90 0 1.52 289 04:27 07.05.2020
3449 Clouds 4 1023 86 0 1.52 289 03:29 07.05.2020
3450 -273 0 0 0 0 0 02:59 07.05.2020
3451 Clouds 5 1024 84 0 1.83 292 02:24 07.05.2020
3452 Clouds 6 1023 80 0 1.7 301 01:25 07.05.2020
3453 Clouds 7 1020 78 0 1.7 301 00:51 07.05.2020
3454 Clouds 7 1020 77 0 1.7 301 00:31 07.05.2020
3455 Clouds 6 1023 79 0 1.69 309 23:58 06.05.2020
3456 Clouds 7 1022 76 0 1.69 309 23:38 06.05.2020
3457 Clouds 7 1023 76 0 1.82 320 23:19 06.05.2020
3458 Clouds 8 1023 73 0 1.82 320 22:55 06.05.2020
3459 Clouds 8 1020 71 0 1.82 320 22:37 06.05.2020
3460 Clear 9 1020 72 0 2.32 317 22:18 06.05.2020
3461 Clear 9 1020 67 0 2.32 317 21:42 06.05.2020
3462 Clear 11 1021 56 0 2.42 307 21:23 06.05.2020
3463 Clear 12 1021 52 0 2.42 307 20:57 06.05.2020
3464 Clear 12 1020 58 0 2.42 307 20:38 06.05.2020
3465 Clouds 13 1022 52 0 0.89 284 20:20 06.05.2020
3466 Clouds 13 1022 49 0 2.24 238 19:56 06.05.2020
3467 Clouds 14 1019 51 0 2.99 314 19:38 06.05.2020
3468 Clouds 14 1021 43 0 3.79 316 19:18 06.05.2020
3469 Clouds 15 1024 46 0 2.24 346 18:56 06.05.2020
3470 Clouds 15 1024 45 0 2.68 344 18:37 06.05.2020
3471 Clouds 15 1022 46 0 1.79 273 18:19 06.05.2020
3472 Clouds 16 1021 41 0 4.14 319 17:55 06.05.2020
3473 Clouds 15 1024 42 0 1.79 338 17:36 06.05.2020
3474 Clouds 15 1024 42 0 1.79 338 17:36 06.05.2020
3475 Clouds 15 1019 42 0 4.03 318 17:18 06.05.2020
3476 Clouds 15 1023 44 0 5.81 252 16:57 06.05.2020
3477 Clouds 16 1019 45 0 4.03 318 16:39 06.05.2020
3478 Clouds 15 1020 45 0 3.85 320 16:19 06.05.2020
3479 Clouds 15 1023 45 0 4.02 279 15:47 06.05.2020
3480 Clouds 15 1023 46 0 6.26 250 15:23 06.05.2020
3481 Clouds 15 1022 41 0 0.45 90 14:59 06.05.2020
3482 Clouds 15 1023 46 0 6.26 250 14:39 06.05.2020
3483 Clear 15 1023 46 0 6.71 322 14:19 06.05.2020
3484 Clear 15 1023 46 0 6.71 322 14:19 06.05.2020
3485 Clear 14 1023 43 0 0.45 90 13:58 06.05.2020
3486 Clear 14 1023 43 0 3.61 332 13:39 06.05.2020
3487 Clear 14 1021 51 0 3.34 338 13:19 06.05.2020
3488 Clear 14 1023 49 0 4.92 284 12:43 06.05.2020
3489 Clear 13 1021 54 0 3.19 342 12:25 06.05.2020
3490 Clear 12 1021 56 0 3.19 342 11:42 06.05.2020
3491 Clear 12 1021 59 0 2.93 344 11:23 06.05.2020
3492 Clear 11 1025 58 0 1.34 333 10:58 06.05.2020
3493 Clear 12 1021 63 0 2.93 344 10:40 06.05.2020
3494 Clear 11 1021 63 0 2.68 343 10:20 06.05.2020
3495 Clear 10 1026 75 0 0.89 335 09:59 06.05.2020
3496 Clear 9 1021 59 0 2.68 343 09:38 06.05.2020
3497 Clear 5 1026 81 0 0.45 55 09:20 06.05.2020
3498 Clear 5 1024 90 0 2.15 341 08:44 06.05.2020
3499 Clear 5 1023 78 0 1.73 332 08:20 06.05.2020
3500 Clear 5 1024 90 0 1.73 332 07:56 06.05.2020
3501 Clear 4 1023 80 0 1.73 332 07:38 06.05.2020
3502 Clear 4 1021 82 0 1.16 318 07:19 06.05.2020
3503 Clear 2 1023 93 0 1.16 318 06:46 06.05.2020
3504 Clear 1 1020 88 0 0.81 326 06:21 06.05.2020
3505 Clear 1 1020 89 0 0.81 326 05:50 06.05.2020
3506 Clear 1 1020 89 0 0.81 326 05:31 06.05.2020
3507 Clear 2 1022 86 0 1.08 346 03:54 06.05.2020
3508 Clear 2 1022 90 0 1.08 346 03:31 06.05.2020
3509 Clear 3 1022 90 0 1.37 348 02:55 06.05.2020
3510 Clouds 2 1022 89 0 1.98 356 02:27 06.05.2020
3511 Clouds 3 1021 88 0 1.98 356 01:46 06.05.2020
3512 Clouds 3 1021 87 0 2.33 3 01:26 06.05.2020
3513 Clouds 4 1021 83 0 2.33 3 00:45 06.05.2020
3514 Clouds 4 1021 83 0 2.14 8 00:23 06.05.2020
3515 Clouds 5 1020 81 0 2.14 8 23:42 05.05.2020
3516 Clouds 5 1019 73 0 1.98 14 23:20 05.05.2020
3517 Clouds 6 1023 72 0 1.98 14 22:57 05.05.2020
3518 Clouds 6 1023 69 0 1.98 14 22:38 05.05.2020
3519 Clear 7 1018 69 0 1.96 23 22:19 05.05.2020
3520 Clear 8 1019 67 0 1.96 23 21:55 05.05.2020
3521 Clear 8 1018 63 0 1.96 23 21:37 05.05.2020
3522 Clouds 8 1018 60 0 1.89 38 21:19 05.05.2020
3523 Clouds 10 1017 49 0 1.89 38 20:42 05.05.2020
3524 Clouds 10 1017 48 0 2.72 8 20:20 05.05.2020
3525 Clouds 10 1017 48 0 2.72 8 20:20 05.05.2020
3526 Clouds 10 1019 48 0 2.72 8 20:00 05.05.2020
3527 Clouds 11 1017 45 0 2.72 8 19:41 05.05.2020
3528 Clear 11 1018 45 0 3.65 342 19:23 05.05.2020
3529 Clear 11 1021 43 0 2.68 346 18:57 05.05.2020
3530 Clear 12 1016 41 0 3.65 342 18:39 05.05.2020
3531 Clear 12 1018 41 0 0.45 270 18:20 05.05.2020
3532 Clear 12 1018 42 0 0.45 112 17:57 05.05.2020
3533 Clear 12 1018 42 0 0.45 112 17:57 05.05.2020
3534 Clear 12 1018 42 0 0.45 112 17:57 05.05.2020
3535 Clear 12 1018 39 0 3.83 341 17:38 05.05.2020
3536 Clear 13 1016 39 0 3.7 344 17:20 05.05.2020
3537 Clear 13 1019 38 0 1.34 261 16:54 05.05.2020
3538 Clear 12 1019 38 0 0.89 311 16:36 05.05.2020
3539 Clear 13 1018 38 0 3.72 349 16:18 05.05.2020
3540 Clear 13 1019 41 0 2.24 346 15:39 05.05.2020
3541 Clear 12 1016 40 0 3.8 348 15:21 05.05.2020
3542 Clear 12 1018 37 0 0.45 90 14:55 05.05.2020
3543 Clear 11 1019 42 0 2.24 288 14:37 05.05.2020
3544 Clear 11 1016 44 0 3.78 350 14:19 05.05.2020
3545 Clear 11 1018 48 0 3.78 350 13:57 05.05.2020
3546 Clear 12 1019 49 0 3.58 261 13:38 05.05.2020
3547 Clear 11 1021 53 0 2.24 329 13:19 05.05.2020
3548 Clear 11 1021 52 0 3.13 324 12:57 05.05.2020
3549 Clear 10 1021 60 0 2.24 324 12:38 05.05.2020
3550 Clear 10 1016 56 0 3.3 351 12:19 05.05.2020
3551 Clear 9 1016 67 0 3.3 351 11:41 05.05.2020
3552 Clear 8 1019 70 0 0.45 112 11:20 05.05.2020
3553 Clear 8 1019 71 0 0.45 112 10:56 05.05.2020
3554 Clear 8 1019 72 0 0.45 90 10:38 05.05.2020
3555 Clear 8 1019 74 0 0.45 112 10:19 05.05.2020
3556 Clear 7 1019 84 0 3.13 255 09:55 05.05.2020
3557 Clear 7 1016 78 0 2.89 350 09:37 05.05.2020
3558 Clear 6 1021 87 0 1.79 315 09:19 05.05.2020
3559 Clear 4 1019 90 0 2.71 329 08:41 05.05.2020
3560 Clouds 4 1016 79 0 2.18 313 08:19 05.05.2020
3561 Clouds 3 1019 96 0 2.18 313 07:56 05.05.2020
3562 Clouds 2 1018 95 0 2.18 313 07:38 05.05.2020
3563 Clouds 1 1018 95 0 1.46 323 07:18 05.05.2020
3564 Clouds 1 1016 97 0 1.46 323 06:40 05.05.2020
3565 Clouds 1 1015 96 0 1.4 310 06:20 05.05.2020
3566 Clouds 1 1018 94 0 1.4 310 05:30 05.05.2020
3567 Clear 3 1018 90 0 1.57 322 03:24 05.05.2020
3568 Clouds 4 1018 85 0 1.84 330 01:25 05.05.2020
3569 Clouds 5 1020 85 0 0.45 345 00:50 05.05.2020
3570 Clouds 6 1016 77 0 2.14 334 00:19 05.05.2020
3571 Clouds 6 1015 79 0 2.14 334 23:43 04.05.2020
3572 Clouds 6 1015 79 0 2.14 334 23:43 04.05.2020
3573 Clouds 6 1018 88 0 2.14 337 23:21 04.05.2020
3574 Clouds 6 1018 88 0 2.14 337 22:56 04.05.2020
3575 Clouds 7 1015 85 0 2.14 337 22:38 04.05.2020
3576 Clear 7 1017 73 0 2.79 349 22:19 04.05.2020
3577 Clear 7 1015 87 0 2.79 349 21:53 04.05.2020
3578 Clear 7 1015 87 0 2.79 349 21:53 04.05.2020
3579 Clear 7 1015 87 0 2.79 349 21:53 04.05.2020
3580 Clear 7 1015 87 0 2.79 349 21:53 04.05.2020
3581 Clear 7 1015 87 0 2.79 349 21:53 04.05.2020
3582 Clear 7 1017 81 0 0.89 38 21:30 04.05.2020
3583 Clear 7 1017 81 0 0.89 38 21:30 04.05.2020
3584 Clear 7 1017 81 0 0.89 38 21:30 04.05.2020
3585 Clear 7 1017 81 0 0.89 38 21:30 04.05.2020
3586 Clear 7 1017 81 0 0.89 38 21:30 04.05.2020
3587 Clear 9 1017 73 0 3.51 342 20:44 04.05.2020
3588 Clouds 10 1017 67 0 2.77 349 20:23 04.05.2020
3589 Clouds 11 1018 61 0 1.79 337 19:59 04.05.2020
3590 Clouds 11 1014 72 0 2.77 349 19:41 04.05.2020
3591 Clouds 11 1014 69 0 3.81 356 19:21 04.05.2020
3592 Clouds 12 1016 57 0 3.81 356 18:56 04.05.2020
3593 Clouds 11 1014 72 0 3.81 356 18:37 04.05.2020
3594 Rain 12 1016 55 0 0.45 90 18:18 04.05.2020
3595 Rain 12 1016 55 0 0.45 90 18:18 04.05.2020
3596 Rain 12 1016 58 0 4.18 356 17:55 04.05.2020
3597 Rain 11 1017 74 0 1.79 348 17:37 04.05.2020
3598 Rain 12 1016 72 0 0.45 320 17:18 04.05.2020
3599 Rain 11 1014 85 0 3.86 346 16:42 04.05.2020
3600 Clouds 10 1014 89 0 2.55 342 16:21 04.05.2020
3601 Clouds 10 1016 71 0 2.55 342 15:47 04.05.2020
3602 Rain 10 1016 76 0 1.47 357 15:25 04.05.2020
3603 Rain 9 1016 92 0 1.47 357 14:59 04.05.2020
3604 Rain 9 1013 95 0 1.47 357 14:41 04.05.2020
3605 Rain 9 1013 95 0 1.47 357 14:41 04.05.2020
3606 Rain 9 1018 88 0 2.68 340 14:19 04.05.2020
3607 Rain 9 1013 97 0 1.31 8 12:49 04.05.2020
3608 Rain 9 1013 97 0 1.31 8 12:49 04.05.2020
3609 Rain 9 1013 97 0 1.31 8 12:49 04.05.2020
3610 Rain 9 1016 92 0 0.45 112 12:25 04.05.2020
3611 Rain 9 1016 92 0 0.45 112 12:25 04.05.2020
3612 Rain 9 1016 92 0 0.45 112 12:25 04.05.2020
3613 Rain 9 1016 92 0 0.45 112 12:25 04.05.2020
3614 Rain 9 1016 92 0 0.45 112 12:25 04.05.2020
3615 Rain 9 1016 97 0 1.3 36 10:35 04.05.2020
3616 Rain 9 1015 94 0 1.18 13 09:26 04.05.2020
3617 Rain 9 1015 94 0 1.18 13 09:26 04.05.2020
3618 Rain 9 1015 94 0 1.18 13 09:26 04.05.2020
3619 Rain 9 1015 94 0 1.18 13 09:26 04.05.2020
3620 Rain 9 1015 94 0 1.18 13 09:26 04.05.2020
3621 Rain 8 1013 99 0 0.82 33 07:52 04.05.2020
3622 Rain 8 1013 98 0 0.82 33 07:33 04.05.2020
3623 Rain 8 1013 98 0 0.82 33 07:33 04.05.2020
3624 Rain 8 1013 98 0 0.82 33 07:33 04.05.2020
3625 Clouds 8 1015 93 0 0.63 326 04:58 04.05.2020
3626 Clouds 8 1015 92 0 0.7 189 03:27 04.05.2020
3627 Clouds 7 1014 94 0 0.7 189 02:32 04.05.2020
3628 Clouds 7 1018 96 0 0.5 228 00:46 04.05.2020
3629 Clouds 6 1018 95 0 0.72 227 23:46 03.05.2020
3630 Clouds 6 1019 94 0 0.78 256 23:26 03.05.2020
3631 Clouds 6 1019 93 0 0.78 256 22:59 03.05.2020
3632 Clouds 6 1019 93 0 0.78 256 22:59 03.05.2020
3633 Clouds 7 1019 92 0 0.45 0 22:40 03.05.2020
3634 Clouds 7 1019 91 0 1.02 257 22:22 03.05.2020
3635 Clouds 8 1018 89 0 0.45 0 21:41 03.05.2020
3636 Clouds 8 1018 89 0 0.45 0 21:41 03.05.2020
3637 Clouds 8 1019 86 0 1.47 290 21:21 03.05.2020
3638 Clouds 9 1018 77 0 1.47 290 20:48 03.05.2020
3639 Clouds 11 1018 74 0 0.45 225 20:23 03.05.2020
3640 Clouds 11 1018 72 0 0.45 225 19:57 03.05.2020
3641 Clouds 11 1018 71 0 0.89 225 19:38 03.05.2020
3642 Rain 11 1018 70 0 0.89 225 19:19 03.05.2020
3643 Rain 12 1019 66 0 3.58 225 18:40 03.05.2020
3644 Clouds 11 1018 63 0 3.58 315 18:20 03.05.2020
3645 Clouds 11 1018 66 0 1.79 248 17:58 03.05.2020
3646 Clouds 11 1018 66 0 1.79 248 17:39 03.05.2020
3647 Clouds 11 1018 65 0 5.81 248 17:20 03.05.2020
3648 Clouds 12 1018 66 0 4.47 248 16:44 03.05.2020
3649 Rain 11 1019 67 0 4.47 225 16:19 03.05.2020
3650 Rain 11 1018 69 0 4.92 225 15:58 03.05.2020
3651 Rain 11 1019 67 0 1.34 315 15:39 03.05.2020
3652 Rain 11 1019 67 0 1.34 315 15:39 03.05.2020
3653 Rain 11 1018 70 0 4.47 225 15:20 03.05.2020
3654 Rain 12 1018 70 0 4.47 225 14:57 03.05.2020
3655 Rain 12 1018 70 0 4.47 225 14:38 03.05.2020
3656 Rain 12 1018 70 0 4.47 248 14:20 03.05.2020
3657 Rain 12 1018 70 0 4.92 180 13:39 03.05.2020
3658 Rain 12 1018 70 0 4.92 180 13:39 03.05.2020
3659 Rain 12 1018 70 0 4.92 180 13:39 03.05.2020
3660 Rain 11 1018 72 0 4.02 180 12:59 03.05.2020
3661 Rain 11 1018 72 0 4.02 180 12:59 03.05.2020
3662 Rain 11 1018 72 0 4.02 180 12:59 03.05.2020
3663 Rain 11 1018 72 0 3.13 248 12:38 03.05.2020
3664 Rain 11 1018 72 0 5.36 225 11:58 03.05.2020
3665 Rain 10 1018 75 0 4.92 248 11:40 03.05.2020
3666 Rain 10 1018 76 0 4.92 225 11:21 03.05.2020
3667 Rain 9 1018 77 0 4.47 225 10:59 03.05.2020
3668 Rain 9 1018 82 0 3.58 225 10:39 03.05.2020
3669 Rain 9 1018 82 0 3.58 225 10:39 03.05.2020
3670 Rain 9 1018 82 0 3.58 225 10:39 03.05.2020
3671 Rain 9 1018 82 0 3.58 225 10:39 03.05.2020
3672 Rain 9 1018 82 0 3.58 225 10:39 03.05.2020
3673 Clouds 9 1016 90 0 1.79 272 09:48 03.05.2020
3674 Clouds 9 1016 90 0 1.79 272 09:48 03.05.2020
3675 Clouds 9 1016 90 0 1.79 272 09:48 03.05.2020
3676 Clouds 9 1016 90 0 1.79 272 09:48 03.05.2020
3677 Clouds 9 1016 90 0 1.79 272 09:48 03.05.2020
3678 Clouds 8 1018 87 0 3.13 279 09:27 03.05.2020
3679 Clouds 8 1015 87 0 0.45 225 09:27 03.05.2020
3680 Clouds 8 1018 87 0 3.13 279 09:27 03.05.2020
3681 Clouds 8 1018 87 0 3.13 279 09:27 03.05.2020
3682 Clouds 8 1016 96 0 3.29 265 08:37 03.05.2020
3683 Clouds 7 1013 10 0 3.56 266 08:18 03.05.2020
3684 Clouds 7 1013 10 0 3.56 266 08:18 03.05.2020
3685 Clouds 7 1013 10 0 3.56 266 08:18 03.05.2020
3686 Clouds 7 1013 10 0 3.56 266 08:18 03.05.2020
3687 Clouds 7 1015 92 0 3.56 266 07:38 03.05.2020
3688 Clouds 7 1014 93 0 2.89 252 06:18 03.05.2020
3689 Clouds 2 1016 83 0 2.89 252 05:44 03.05.2020
3690 Clouds 7 1011 10 0 2.62 247 04:29 03.05.2020
3691 Clouds 7 1012 93 0 2.04 252 03:58 03.05.2020
3692 Clouds 6 1014 99 0 1.79 225 02:47 03.05.2020
3693 Clouds 6 1014 99 0 1.79 225 02:22 03.05.2020
3694 Clouds 7 1014 99 0 0.89 225 01:41 03.05.2020
3695 Clouds 6 1014 99 0 1.79 225 01:23 03.05.2020
3696 Clouds 7 1014 98 0 1.34 248 00:40 03.05.2020
3697 Clouds 7 1013 97 0 1.79 225 00:21 03.05.2020
3698 Clouds 7 1013 97 0 1.79 225 23:55 02.05.2020
3699 Clouds 7 1013 96 0 1.79 225 23:37 02.05.2020
3700 Clouds 7 1013 96 0 0.89 315 23:18 02.05.2020
3701 Clouds 7 1013 93 0 0.45 225 22:41 02.05.2020
3702 Clouds 7 1012 92 0 0.89 225 22:22 02.05.2020
3703 Clouds 8 1012 90 0 0.89 0 21:55 02.05.2020
3704 Clouds 8 1012 89 0 0.45 315 21:37 02.05.2020
3705 Rain 8 1012 89 0 0.89 0 21:18 02.05.2020
3706 Rain 8 1011 87 0 1.79 225 20:54 02.05.2020
3707 Rain 8 1011 81 0 1.79 225 20:36 02.05.2020
3708 Rain 8 1011 81 0 2.24 225 20:18 02.05.2020
3709 Rain 9 1010 82 0 1.34 225 19:39 02.05.2020
3710 Rain 9 1010 83 0 1.79 225 19:21 02.05.2020
3711 Rain 9 1010 82 0 1.79 225 18:59 02.05.2020
3712 Rain 9 1010 82 0 3.13 225 18:39 02.05.2020
3713 Rain 8 1010 81 0 4.47 248 18:21 02.05.2020
3714 Rain 10 1009 81 0 4.47 225 17:57 02.05.2020
3715 Rain 11 1006 76 0 0.45 270 17:38 02.05.2020
3716 Rain 11 1009 69 0 6.06 281 17:20 02.05.2020
3717 Rain 10 1006 78 0 0.45 225 16:57 02.05.2020
3718 Rain 10 1005 82 0 1.34 270 16:38 02.05.2020
3719 Rain 8 1007 92 0 1.34 269 16:20 02.05.2020
3720 Rain 9 1004 10 0 5.93 275 15:42 02.05.2020
3721 Rain 8 1005 84 0 0.89 270 15:20 02.05.2020
3722 Rain 10 1006 93 0 2.24 288 14:45 02.05.2020
3723 Rain 9 1005 89 0 0.45 225 14:27 02.05.2020
3724 Rain 9 1008 88 0 5.61 260 13:59 02.05.2020
3725 Rain 8 1008 89 0 5.61 260 13:40 02.05.2020
3726 Rain 8 1006 96 0 5.07 259 13:20 02.05.2020
3727 Rain 6 1004 91 0 0.89 225 12:43 02.05.2020
3728 Rain 6 1004 91 0 0.45 225 12:24 02.05.2020
3729 Rain 9 1004 91 0 4.57 258 11:58 02.05.2020
3730 Rain 9 1004 91 0 0.45 270 11:39 02.05.2020
3731 Rain 9 1002 10 0 3.95 254 11:21 02.05.2020
3732 Rain 8 1004 91 0 1.34 213 10:56 02.05.2020
3733 Rain 9 1004 92 0 1.34 216 10:38 02.05.2020
3734 Rain 8 1003 89 0 4.35 250 10:20 02.05.2020
3735 Rain 8 1003 90 0 4.35 250 09:55 02.05.2020
3736 Rain 8 1002 10 0 4.35 250 09:36 02.05.2020
3737 Clouds 8 1002 10 0 3.93 241 09:18 02.05.2020
3738 Clouds 7 1003 92 0 3.93 241 08:45 02.05.2020
3739 Clouds 7 1003 92 0 3.7 240 08:25 02.05.2020
3740 Clouds 7 1003 92 0 0.45 292 07:47 02.05.2020
3741 Clouds 7 1004 96 0 3.08 235 07:28 02.05.2020
3742 Clouds 7 1004 92 0 0.45 269 06:50 02.05.2020
3743 Clouds 6 1001 94 0 2.58 233 05:29 02.05.2020
3744 Clouds 6 1004 92 0 2.58 233 04:47 02.05.2020
3745 Clouds 6 1000 10 0 2.49 229 04:23 02.05.2020
3746 Clouds 6 1002 96 0 2.6 224 02:44 02.05.2020
3747 Clouds 6 999 10 0 2.6 225 02:22 02.05.2020
3748 Clouds 5 1004 98 0 2.72 228 01:48 02.05.2020
3749 Clear 5 1004 98 0 2.53 223 00:46 02.05.2020
3750 Clear 5 1004 98 0 2.31 220 00:25 02.05.2020
3751 Clear 5 1004 97 0 0.45 180 23:58 01.05.2020
3752 Clear 5 1004 97 0 2.31 220 23:39 01.05.2020
3753 Clear 6 1004 96 0 2.5 223 23:19 01.05.2020
3754 Clear 6 1004 96 0 0.89 180 22:55 01.05.2020
3755 Clear 6 1004 97 0 2.5 223 22:37 01.05.2020
3756 Clear 7 1004 96 0 2.56 226 22:18 01.05.2020
3757 Clear 7 1004 94 0 0.45 180 21:55 01.05.2020
3758 Clear 8 1003 90 0 1.79 225 21:36 01.05.2020
3759 Clouds 8 1003 90 0 1.79 225 21:18 01.05.2020
3760 Clouds 8 1003 93 0 0.89 180 20:54 01.05.2020
3761 Clouds 8 1003 93 0 0.89 180 20:36 01.05.2020
3762 Rain 8 1003 92 0 0.89 180 20:18 01.05.2020
3763 Rain 9 1003 83 0 2.68 225 19:41 01.05.2020
3764 Rain 9 1003 83 0 3.13 225 19:22 01.05.2020
3765 Rain 9 1003 91 0 2.68 202 18:57 01.05.2020
3766 Rain 9 1003 96 0 3.58 180 18:38 01.05.2020
3767 Rain 13 1002 77 0 4.66 229 18:19 01.05.2020
3768 Rain 12 998 74 0 0.89 270 17:56 01.05.2020
3769 Rain 13 998 72 0 0.89 292 17:37 01.05.2020
3770 Rain 10 1002 76 0 4.92 225 17:19 01.05.2020
3771 Rain 12 1002 61 0 4.47 225 16:55 01.05.2020
3772 Rain 13 1002 58 0 5.81 248 16:37 01.05.2020
3773 Rain 13 1002 60 0 7.15 225 16:18 01.05.2020
3774 Rain 13 1002 58 0 4.92 225 15:42 01.05.2020
3775 Rain 13 1002 58 0 4.92 225 15:42 01.05.2020
3776 Rain 13 1002 60 0 8.05 225 15:23 01.05.2020
3777 Rain 13 1002 54 0 6.26 225 14:58 01.05.2020
3778 Rain 13 1002 60 0 6.71 225 14:39 01.05.2020
3779 Rain 12 1002 64 0 6.71 225 14:20 01.05.2020
3780 Rain 11 1003 72 0 7.6 225 13:40 01.05.2020
3781 Rain 11 1002 68 0 6.26 225 13:22 01.05.2020
3782 Rain 11 1003 66 0 6.71 225 12:57 01.05.2020
3783 Rain 11 1003 65 0 6.71 180 12:39 01.05.2020
3784 Clouds 11 1003 70 0 7.15 225 12:19 01.05.2020
3785 Clouds 11 1003 71 0 7.6 202 11:56 01.05.2020
3786 Clouds 10 1003 71 0 6.71 202 11:38 01.05.2020
3787 Clouds 10 1003 75 0 7.6 225 11:18 01.05.2020
3788 Clouds 9 1003 74 0 7.15 225 10:40 01.05.2020
3789 Clouds 8 1003 78 0 6.71 225 10:20 01.05.2020
3790 Clouds 8 1003 91 0 5.36 225 09:54 01.05.2020
3791 Clouds 7 1003 92 0 4.02 225 09:36 01.05.2020
3792 Clouds 9 1002 83 0 1.79 302 09:18 01.05.2020
3793 Rain 9 1002 82 0 2.68 300 08:42 01.05.2020
3794 Clouds 9 998 82 0 5.59 233 08:24 01.05.2020
3795 Clouds 8 1000 89 0 0.45 270 07:47 01.05.2020
3796 Clouds 8 1001 92 0 0.89 224 07:23 01.05.2020
3797 Clouds 8 999 92 0 0.45 270 06:57 01.05.2020
3798 Clouds 9 1001 89 0 2.68 257 05:39 01.05.2020
3799 Clouds 9 997 88 0 5.31 225 05:19 01.05.2020
3800 Clouds 8 1003 99 0 4.92 180 03:41 01.05.2020
3801 Clouds 8 1003 99 0 4.92 180 02:49 01.05.2020
3802 Clouds 8 1003 99 0 4.92 180 02:30 01.05.2020
3803 Clouds 8 1003 99 0 6.71 248 01:42 01.05.2020
3804 Clouds 8 1003 99 0 4.47 225 01:24 01.05.2020
3805 Clouds 8 1003 99 0 4.47 225 00:39 01.05.2020
3806 Clouds 8 1003 99 0 5.81 225 00:20 01.05.2020
3807 Clouds 8 1003 99 0 6.71 225 23:57 30.04.2020
3808 Clouds 8 1003 99 0 4.92 225 23:38 30.04.2020
3809 Rain 8 1003 98 0 6.71 180 23:19 30.04.2020
3810 Rain 9 1003 93 0 6.71 180 22:42 30.04.2020
3811 Rain 10 1003 93 0 5.81 338 22:21 30.04.2020
3812 Rain 10 1002 91 0 7.15 180 21:58 30.04.2020
3813 Rain 10 1002 91 0 5.36 225 21:40 30.04.2020
3814 Rain 11 1003 90 0 3.58 180 21:21 30.04.2020
3815 Rain 11 1003 85 0 4.02 225 20:56 30.04.2020
3816 Rain 11 1003 85 0 1.79 225 20:38 30.04.2020
3817 Clouds 11 1003 86 0 1.79 225 20:18 30.04.2020
3818 Clouds 12 1003 81 0 1.79 180 19:45 30.04.2020
3819 Clouds 13 1003 73 0 4.47 225 19:26 30.04.2020
3820 Clouds 13 1003 64 0 5.81 202 18:57 30.04.2020
3821 Clouds 14 1003 59 0 5.36 180 18:39 30.04.2020
3822 Clouds 14 1003 60 0 3.58 248 18:21 30.04.2020
3823 Clouds 14 1003 60 0 4.92 180 17:57 30.04.2020
3824 Clouds 14 1004 60 0 4.92 225 17:39 30.04.2020
3825 Clouds 14 1004 60 0 5.36 225 17:20 30.04.2020
3826 Clouds 14 1004 55 0 7.6 225 16:56 30.04.2020
3827 Clouds 14 1004 56 0 5.36 180 16:38 30.04.2020
3828 Rain 14 1004 57 0 5.81 202 16:18 30.04.2020
3829 Rain 14 1004 57 0 4.92 225 15:45 30.04.2020
3830 Rain 14 1004 55 0 7.15 248 15:24 30.04.2020
3831 Rain 14 1004 56 0 8.05 225 14:56 30.04.2020
3832 Rain 14 1004 61 0 8.05 225 14:38 30.04.2020
3833 Rain 14 1004 64 0 5.81 225 14:18 30.04.2020
3834 Rain 13 1004 71 0 6.71 225 13:54 30.04.2020
3835 Rain 13 1004 75 0 8.05 225 13:36 30.04.2020
3836 Rain 12 1004 76 0 6.26 180 13:18 30.04.2020
3837 Rain 12 1004 82 0 7.6 225 12:41 30.04.2020
3838 Rain 11 1004 87 0 6.71 225 12:19 30.04.2020
3839 Rain 11 1004 91 0 5.36 225 11:57 30.04.2020
3840 Rain 11 1004 94 0 5.36 225 11:36 30.04.2020
3841 Rain 11 1004 94 0 7.6 225 11:18 30.04.2020
3842 Rain 11 1004 93 0 4.92 225 10:40 30.04.2020
3843 Rain 11 1003 94 0 4.02 225 10:21 30.04.2020
3844 Rain 10 1004 95 0 5.36 180 09:57 30.04.2020
3845 Rain 10 1004 96 0 6.71 180 09:39 30.04.2020
3846 Rain 10 1004 96 0 4.92 225 09:20 30.04.2020
3847 Rain 9 1004 96 0 4.47 180 08:46 30.04.2020
3848 Rain 9 1004 95 0 2.68 225 08:26 30.04.2020
3849 Rain 9 1005 93 0 5.36 225 07:45 30.04.2020
3850 Rain 9 1005 92 0 4.47 180 07:26 30.04.2020
3851 Rain 9 1005 91 0 3.58 180 06:55 30.04.2020
3852 Rain 9 1005 91 0 4.92 180 06:29 30.04.2020
3853 Rain 9 1005 91 0 2.68 180 05:46 30.04.2020
3854 Clouds 9 1006 85 0 3.58 180 04:43 30.04.2020
3855 Clouds 9 1006 82 0 3.13 202 04:23 30.04.2020
3856 Clouds 9 1002 98 0 2.35 181 02:48 30.04.2020
3857 Clouds 9 1005 92 0 0.45 39 02:27 30.04.2020
3858 Clouds 9 1005 90 0 2.36 192 01:37 30.04.2020
3859 Clouds 8 1008 99 0 0.45 338 00:50 30.04.2020
3860 Clouds 8 1008 99 0 0.45 338 00:24 30.04.2020
3861 Clouds 8 1008 99 0 0.45 338 23:58 29.04.2020
3862 Clouds 8 1008 99 0 0.45 338 23:40 29.04.2020
3863 Clouds 8 1008 98 0 0.89 0 23:22 29.04.2020
3864 Clouds 8 1008 97 0 0.45 0 22:58 29.04.2020
3865 Clouds 10 1002 97 0 1.87 197 22:38 29.04.2020
3866 Clouds 10 1005 93 0 1.67 208 22:18 29.04.2020
3867 Clouds 11 1008 83 0 0.89 225 21:38 29.04.2020
3868 Clear 11 1008 83 0 0.89 225 21:20 29.04.2020
3869 Clear 12 1008 83 0 0.89 225 20:58 29.04.2020
3870 Clear 12 1008 83 0 0.89 225 20:58 29.04.2020
3871 Clear 12 1008 83 0 0.89 225 20:39 29.04.2020
3872 Clouds 12 1008 83 0 0.89 225 20:19 29.04.2020
3873 Clouds 13 1008 79 0 0.89 180 19:54 29.04.2020
3874 Clouds 13 1008 76 0 1.79 225 19:36 29.04.2020
3875 Rain 13 1007 74 0 3.58 225 19:18 29.04.2020
3876 Rain 14 1007 74 0 3.13 225 18:41 29.04.2020
3877 Rain 14 1007 73 0 4.02 225 18:20 29.04.2020
3878 Rain 13 1008 73 0 4.47 225 17:44 29.04.2020
3879 Rain 13 1008 80 0 4.02 225 17:22 29.04.2020
3880 Rain 13 1008 84 0 1.79 248 16:59 29.04.2020
3881 Rain 13 1008 84 0 4.02 315 16:37 29.04.2020
3882 Rain 13 1007 80 0 2.24 225 16:18 29.04.2020
3883 Rain 14 1007 83 0 0.89 225 15:56 29.04.2020
3884 Rain 13 1007 85 0 1.79 0 15:38 29.04.2020
3885 Rain 14 1007 81 0 2.24 180 15:19 29.04.2020
3886 Rain 13 1007 81 0 3.13 180 14:45 29.04.2020
3887 Rain 13 1007 78 0 1.79 202 14:26 29.04.2020
3888 Rain 14 1007 83 0 2.24 180 13:58 29.04.2020
3889 Rain 13 1007 84 0 2.24 180 13:40 29.04.2020
3890 Rain 13 1007 84 0 4.02 225 13:20 29.04.2020
3891 Rain 12 1007 90 0 2.68 180 12:56 29.04.2020
3892 Rain 13 1003 82 0 0.89 225 12:38 29.04.2020
3893 Rain 13 1003 83 0 1.34 270 12:18 29.04.2020
3894 Rain 13 1003 83 0 1.34 270 12:18 29.04.2020
3895 Rain 14 1004 76 0 1.79 243 11:39 29.04.2020
3896 Rain 14 1004 76 0 1.79 243 11:39 29.04.2020
3897 Rain 13 1003 76 0 1.34 225 11:20 29.04.2020
3898 Rain 13 1003 77 0 1.34 270 10:56 29.04.2020
3899 Rain 13 1003 80 0 1.34 270 10:37 29.04.2020
3900 Rain 13 1003 80 0 1.34 270 10:37 29.04.2020
3901 Clouds 13 1001 99 0 3.74 268 10:18 29.04.2020
3902 Clouds 12 1004 91 0 0.45 234 09:41 29.04.2020
3903 Clouds 11 1001 10 0 3.74 270 09:22 29.04.2020
3904 Rain 11 1003 91 0 0.45 270 08:55 29.04.2020
3905 Rain 11 1004 94 0 3.47 254 08:36 29.04.2020
3906 Rain 11 1005 91 0 2.67 240 08:18 29.04.2020
3907 Rain 11 1004 92 0 2.67 240 07:39 29.04.2020
3908 Rain 11 1004 92 0 2.36 235 07:18 29.04.2020
3909 Rain 11 1000 10 0 2.36 235 06:48 29.04.2020
3910 Rain 11 1002 92 0 2.36 235 06:30 29.04.2020
3911 Clouds 11 1002 94 0 2.19 244 05:21 29.04.2020
3912 Clouds 11 1002 95 0 0.45 270 04:21 29.04.2020
3913 Clouds 11 1001 95 0 2.06 246 03:59 29.04.2020
3914 Clouds 11 1003 96 0 2.09 258 02:39 29.04.2020
3915 Clouds 11 999 10 0 1.7 273 01:44 29.04.2020
3916 Clouds 11 999 10 0 2.02 281 01:21 29.04.2020
3917 Clouds 11 1003 95 0 2.02 281 00:40 29.04.2020
3918 Clouds 12 1002 95 0 3.35 282 00:19 29.04.2020
3919 Clouds 12 1003 95 0 1.34 263 23:48 28.04.2020
3920 Rain 12 1003 95 0 1.79 247 23:24 28.04.2020
3921 Rain 12 1005 99 0 4.92 225 22:55 28.04.2020
3922 Rain 12 1005 99 0 4.92 225 22:37 28.04.2020
3923 Clouds 12 1005 99 0 4.92 225 22:18 28.04.2020
3924 Clouds 12 1005 99 0 4.92 248 21:54 28.04.2020
3925 Clouds 12 1005 99 0 4.92 248 21:54 28.04.2020
3926 Rain 13 1005 96 0 1.79 180 21:36 28.04.2020
3927 Clouds 13 1005 96 0 1.79 180 21:36 28.04.2020
3928 Rain 12 1005 93 0 0.89 180 21:18 28.04.2020
3929 Rain 12 1005 90 0 0.89 225 20:54 28.04.2020
3930 Rain 12 1005 91 0 0.89 225 20:36 28.04.2020
3931 Clouds 12 1005 93 0 0.45 90 20:18 28.04.2020
3932 Clouds 13 1005 91 0 0.89 45 19:42 28.04.2020
3933 Clouds 13 1005 89 0 0.45 45 19:22 28.04.2020
3934 Clouds 13 1005 89 0 0.45 45 19:22 28.04.2020
3935 Clouds 14 1005 85 0 0.45 225 18:58 28.04.2020
3936 Clouds 14 1005 81 0 2.64 208 18:38 28.04.2020
3937 Clouds 14 1005 74 0 0.45 90 18:19 28.04.2020
3938 Clouds 14 1005 70 0 0.89 202 17:57 28.04.2020
3939 Clouds 15 1005 62 0 1.79 180 17:36 28.04.2020
3940 Rain 15 1005 61 0 2.24 225 17:18 28.04.2020
3941 Rain 16 1006 54 0 3.58 225 16:42 28.04.2020
3942 Rain 16 1006 55 0 2.24 180 16:23 28.04.2020
3943 Rain 17 1006 55 0 1.79 202 15:57 28.04.2020
3944 Rain 17 1006 53 0 3.58 225 15:39 28.04.2020
3945 Rain 18 1006 51 0 1.79 180 15:21 28.04.2020
3946 Rain 17 1006 58 0 2.68 225 14:58 28.04.2020
3947 Rain 17 1006 58 0 2.68 225 14:58 28.04.2020
3948 Rain 18 1006 53 0 0.89 315 14:40 28.04.2020
3949 Rain 17 1006 53 0 0.89 315 14:21 28.04.2020
3950 Rain 17 1006 53 0 0.89 315 14:21 28.04.2020
3951 Rain 17 1007 54 0 1.34 225 13:57 28.04.2020
3952 Rain 17 1007 53 0 0.89 225 13:38 28.04.2020
3953 Rain 18 1007 50 0 3.58 180 13:19 28.04.2020
3954 Rain 18 1007 46 0 4.47 225 12:44 28.04.2020
3955 Clouds 18 1007 45 0 4.02 180 12:25 28.04.2020
3956 Clouds 18 1007 40 0 1.79 225 11:46 28.04.2020
3957 Clouds 18 1007 43 0 2.68 180 11:26 28.04.2020
3958 Clouds 18 1007 43 0 2.68 225 11:00 28.04.2020
3959 Clouds 18 1007 43 0 2.68 225 11:00 28.04.2020
3960 Clouds 17 1007 42 0 4.02 202 10:39 28.04.2020
3961 Clouds 17 1007 37 0 3.58 225 10:19 28.04.2020
3962 Clouds 17 1007 40 0 4.47 225 09:58 28.04.2020
3963 Clouds 15 1007 40 0 4.92 225 09:39 28.04.2020
3964 Clouds 13 1005 79 0 0.47 215 09:20 28.04.2020
3965 Clouds 12 1003 61 0 1.09 225 08:46 28.04.2020
3966 Clouds 11 1003 63 0 0.94 212 08:26 28.04.2020
3967 Clouds 11 1007 75 0 0.94 212 07:45 28.04.2020
3968 Clouds 9 1007 84 0 0.45 0 07:20 28.04.2020
3969 Clouds 10 1004 69 0 3.13 40 06:54 28.04.2020
3970 Clouds 7 1005 86 0 1.12 203 06:22 28.04.2020
3971 Clouds 8 1005 82 0 1.12 203 05:43 28.04.2020
3972 Clear 8 1003 79 0 1.11 205 05:25 28.04.2020
3973 Clear 8 1005 67 0 2.68 45 04:27 28.04.2020
3974 Clouds 10 1005 64 0 1.79 42 02:34 28.04.2020
3975 Clouds 11 1006 61 0 1.79 38 01:23 28.04.2020
3976 Clouds 11 1006 61 0 1.79 38 01:23 28.04.2020
3977 Clouds 11 1006 61 0 1.79 38 01:23 28.04.2020
3978 Clouds 10 1009 82 0 0.89 0 00:56 28.04.2020
3979 Clouds 9 1009 81 0 0.89 0 00:23 28.04.2020
3980 Clouds 10 1009 73 0 0.59 157 23:47 27.04.2020
3981 Clouds 10 1009 73 0 0.59 157 23:47 27.04.2020
3982 Clouds 10 1009 72 0 0.42 116 23:24 27.04.2020
3983 Clouds 11 1009 71 0 0.89 0 22:56 27.04.2020
3984 Clouds 11 1009 70 0 0.45 0 22:38 27.04.2020
3985 Clear 12 1009 69 0 0.45 0 22:19 27.04.2020
3986 Clear 13 1008 68 0 0.89 0 21:56 27.04.2020
3987 Clear 13 1008 68 0 0.89 0 21:56 27.04.2020
3988 Clear 13 1009 65 0 0.45 0 21:38 27.04.2020
3989 Clouds 14 1008 62 0 0.89 0 21:18 27.04.2020
3990 Clouds 15 1008 51 0 0.45 0 20:44 27.04.2020
3991 Rain 18 1008 42 0 1.34 225 20:22 27.04.2020
3992 Rain 17 1008 42 0 1.34 225 19:59 27.04.2020
3993 Rain 18 1008 42 0 0.89 225 19:39 27.04.2020
3994 Rain 19 1008 41 0 1.79 225 19:20 27.04.2020
3995 Rain 19 1008 40 0 2.24 225 18:58 27.04.2020
3996 Rain 18 1008 33 0 1.79 225 18:40 27.04.2020
3997 Rain 20 1008 32 0 3.58 225 18:19 27.04.2020
3998 Rain 20 1008 32 0 3.58 225 18:19 27.04.2020
3999 Rain 20 1008 31 0 4.02 225 17:44 27.04.2020
4000 Clouds 20 1009 31 0 4.92 248 17:24 27.04.2020
4001 Clouds 19 1008 31 0 1.79 315 17:00 27.04.2020
4002 Clouds 19 1009 30 0 5.81 225 16:40 27.04.2020
4003 Clouds 20 1009 28 0 4.92 225 16:21 27.04.2020
4004 Clouds 21 1009 25 0 6.71 225 15:56 27.04.2020
4005 Clouds 21 1009 30 0 4.02 225 15:38 27.04.2020
4006 Clear 20 1009 30 0 6.26 225 15:18 27.04.2020
4007 Clear 20 1009 31 0 2.68 225 14:42 27.04.2020
4008 Clear 20 1010 34 0 5.81 225 14:23 27.04.2020
4009 Clear 19 1010 37 0 5.36 180 14:00 27.04.2020
4010 Clear 19 1010 37 0 4.92 225 13:41 27.04.2020
4011 Clear 19 1010 36 0 2.68 225 13:20 27.04.2020
4012 Clear 18 1010 36 0 4.92 180 12:56 27.04.2020
4013 Clear 18 1010 40 0 6.71 225 12:38 27.04.2020
4014 Clear 18 1010 41 0 4.02 180 12:19 27.04.2020
4015 Clear 17 1010 41 0 4.92 225 11:41 27.04.2020
4016 Clear 17 1010 42 0 3.58 202 11:19 27.04.2020
4017 Clear 16 1011 40 0 4.02 180 10:57 27.04.2020
4018 Clear 14 1011 41 0 4.02 180 10:38 27.04.2020
4019 Clear 14 1011 41 0 3.58 225 10:20 27.04.2020
4020 Clear 13 1010 43 0 3.13 225 09:44 27.04.2020
4021 Clear 11 1008 71 0 0.51 244 09:19 27.04.2020
4022 Clear 10 1008 73 0 0.51 244 08:58 27.04.2020
4023 Clear 7 1010 83 0 0.51 244 08:38 27.04.2020
4024 Clear 7 1008 83 0 0.51 244 08:19 27.04.2020
4025 Clear 7 1008 83 0 0.51 244 07:44 27.04.2020
4026 Clear 7 1007 87 0 0.51 244 07:20 27.04.2020
4027 Clear 7 1008 82 0 0.51 244 06:47 27.04.2020
4028 Clear 5 1007 91 0 0.58 233 06:25 27.04.2020
4029 Clear 5 1010 87 0 0.58 233 05:50 27.04.2020
4030 Clear 4 1010 85 0 0.58 233 04:49 27.04.2020
4031 Clear 6 1010 83 0 0.58 233 03:59 27.04.2020
4032 Clear 6 1008 89 0 0.58 233 03:35 27.04.2020
4033 Clear 5 1012 91 0 0.45 0 01:41 27.04.2020
4034 Clear 5 1012 90 0 0.45 0 00:58 27.04.2020
4035 Clear 7 1009 76 0 0.73 100 00:20 27.04.2020
4036 Clear 7 1009 64 0 2.68 56 23:56 26.04.2020
4037 Clear 7 1008 82 0 0.73 100 23:38 26.04.2020
4038 Clear 7 1008 82 0 0.73 100 23:19 26.04.2020
4039 Clear 7 1012 82 0 0.45 0 22:58 26.04.2020
4040 Clear 6 1012 81 0 0.45 0 22:39 26.04.2020
4041 Clear 6 1012 79 0 0.45 0 22:20 26.04.2020
4042 Clear 6 1011 76 0 0.45 0 21:57 26.04.2020
4043 Clear 9 1012 74 0 0.45 0 21:38 26.04.2020
4044 Clouds 12 1010 56 0 0.78 70 21:18 26.04.2020
4045 Clouds 12 1010 56 0 0.78 70 21:18 26.04.2020
4046 Clouds 12 1010 56 0 0.78 70 21:18 26.04.2020
4047 Clouds 12 1010 56 0 0.78 70 21:18 26.04.2020
4048 Clouds 12 1010 56 0 0.78 70 21:18 26.04.2020
4049 Clouds 12 1012 63 0 0.89 0 20:54 26.04.2020
4050 Clouds 13 1011 56 0 0.45 0 20:36 26.04.2020
4051 Clouds 14 1011 47 0 0.45 270 20:18 26.04.2020
4052 Clouds 15 1011 40 0 0.89 270 19:56 26.04.2020
4053 Clouds 16 1011 40 0 1.79 225 19:36 26.04.2020
4054 Clouds 17 1011 37 0 1.79 225 19:18 26.04.2020
4055 Clouds 16 1011 36 0 0.89 225 18:41 26.04.2020
4056 Clouds 17 1011 35 0 1.34 180 18:23 26.04.2020
4057 Clouds 17 1012 31 0 1.79 225 17:42 26.04.2020
4058 Clouds 17 1012 32 0 3.58 225 17:22 26.04.2020
4059 Clouds 17 1012 32 0 1.79 315 16:56 26.04.2020
4060 Clouds 17 1012 34 0 4.92 225 16:38 26.04.2020
4061 Clouds 17 1012 33 0 3.58 248 16:19 26.04.2020
4062 Clouds 17 1012 34 0 1.79 225 15:56 26.04.2020
4063 Clouds 17 1012 32 0 6.71 225 15:37 26.04.2020
4064 Clouds 16 1012 34 0 5.81 225 15:18 26.04.2020
4065 Clouds 17 1012 31 0 4.02 202 14:41 26.04.2020
4066 Clouds 17 1012 31 0 4.02 202 14:41 26.04.2020
4067 Clouds 16 1012 32 0 4.92 225 14:19 26.04.2020
4068 Clouds 16 1012 32 0 4.92 225 14:19 26.04.2020
4069 Clouds 15 1012 38 0 4.47 225 13:58 26.04.2020
4070 Clouds 16 1012 40 0 2.68 225 13:40 26.04.2020
4071 Clouds 15 1013 41 0 3.58 225 13:21 26.04.2020
4072 Clouds 15 1013 41 0 2.24 225 12:56 26.04.2020
4073 Clouds 14 1013 43 0 1.79 180 12:37 26.04.2020
4074 Clear 14 1013 46 0 5.81 225 12:19 26.04.2020
4075 Clear 14 1013 48 0 4.47 225 11:54 26.04.2020
4076 Clear 14 1013 46 0 1.79 202 11:36 26.04.2020
4077 Clear 13 1013 47 0 4.02 225 11:18 26.04.2020
4078 Clear 11 1013 48 0 4.02 225 10:42 26.04.2020
4079 Clear 9 1013 52 0 3.58 225 10:24 26.04.2020
4080 Clear 9 1013 49 0 1.79 180 09:58 26.04.2020
4081 Clear 9 1013 52 0 1.79 180 09:38 26.04.2020
4082 Clear 9 1013 52 0 1.79 180 09:38 26.04.2020
4083 Clouds 7 1011 81 0 1.24 276 09:20 26.04.2020
4084 Clouds 6 1011 86 0 1.24 276 08:41 26.04.2020
4085 Clouds 5 1013 87 0 1.24 276 08:23 26.04.2020
4086 Clouds 6 1012 88 0 1.24 276 07:49 26.04.2020
4087 Clouds 6 1012 88 0 1.24 276 07:49 26.04.2020
4088 Clouds 5 1010 82 0 1.24 276 07:25 26.04.2020
4089 Clouds 4 1008 82 0 1.24 276 06:53 26.04.2020
4090 Clouds 4 1008 82 0 1.24 276 06:31 26.04.2020
4091 Clouds 4 1011 87 0 1.33 280 05:54 26.04.2020
4092 Clouds 4 1011 86 0 1.33 280 05:34 26.04.2020
4093 Clouds 3 1010 90 0 1.33 280 04:41 26.04.2020
4094 Clouds 3 1013 95 0 0.45 0 03:43 26.04.2020
4095 Clouds 4 1010 85 0 1.05 269 02:40 26.04.2020
4096 Clouds 5 1008 81 0 1.05 269 02:19 26.04.2020
4097 Clouds 5 1012 81 0 1.05 269 01:37 26.04.2020
4098 Clouds 5 1008 78 0 1.05 269 01:18 26.04.2020
4099 Clouds 6 1008 75 0 1.05 269 00:37 26.04.2020
4100 Clear 6 1008 72 0 0.92 270 00:18 26.04.2020
4101 Clear 6 1011 76 0 0.89 33 23:38 25.04.2020
4102 Clear 6 1008 73 0 0.92 270 23:19 25.04.2020
4103 Clear 5 1013 84 0 0.45 0 22:43 25.04.2020
4104 Clear 8 1008 71 0 0.92 270 22:21 25.04.2020
4105 Clear 8 1010 70 0 0.92 270 21:59 25.04.2020
4106 Clear 7 1013 77 0 0.89 0 21:39 25.04.2020
4107 Clouds 9 1010 66 0 1.79 42 21:19 25.04.2020
4108 Clouds 9 1013 64 0 0.45 0 20:55 25.04.2020
4109 Clouds 10 1013 56 0 0.45 0 20:37 25.04.2020
4110 Clouds 11 1013 51 0 0.45 0 20:18 25.04.2020
4111 Clouds 13 1013 41 0 2.16 288 19:40 25.04.2020
4112 Clouds 14 1013 42 0 1.34 45 19:22 25.04.2020
4113 Clouds 14 1013 40 0 3.13 90 18:57 25.04.2020
4114 Clouds 14 1013 42 0 0.89 45 18:38 25.04.2020
4115 Clouds 13 1013 47 0 2.24 90 18:19 25.04.2020
4116 Clouds 13 1013 48 0 1.79 45 17:55 25.04.2020
4117 Clouds 14 1013 40 0 1.34 90 17:37 25.04.2020
4118 Clouds 14 1013 41 0 0.89 135 17:18 25.04.2020
4119 Clouds 13 1013 52 0 0.89 45 16:48 25.04.2020
4120 Clouds 14 1013 45 0 0.89 0 16:28 25.04.2020
4121 Clouds 14 1014 48 0 0.89 90 15:58 25.04.2020
4122 Clouds 13 1014 53 0 1.79 315 15:39 25.04.2020
4123 Clouds 13 1014 52 0 1.34 45 15:19 25.04.2020
4124 Clouds 13 1014 53 0 1.34 315 14:57 25.04.2020
4125 Clouds 13 1014 50 0 2.24 45 14:38 25.04.2020
4126 Clouds 13 1014 51 0 1.79 0 14:19 25.04.2020
4127 Clouds 12 1014 58 0 2.24 292 13:43 25.04.2020
4128 Clouds 12 1014 61 0 1.34 0 13:19 25.04.2020
4129 Clouds 11 1014 60 0 1.79 45 12:58 25.04.2020
4130 Clouds 11 1014 63 0 3.13 22 12:39 25.04.2020
4131 Clouds 10 1014 64 0 1.79 90 12:20 25.04.2020
4132 Clouds 10 1014 63 0 1.79 0 11:55 25.04.2020
4133 Clouds 9 1014 69 0 3.58 0 11:37 25.04.2020
4134 Clouds 9 1014 71 0 1.79 315 11:19 25.04.2020
4135 Clouds 8 1014 80 0 1.79 0 10:42 25.04.2020
4136 Clouds 8 1014 82 0 2.24 0 10:22 25.04.2020
4137 Clouds 7 1014 84 0 0.89 0 09:47 25.04.2020
4138 Clouds 6 1013 84 0 1.34 338 09:28 25.04.2020
4139 Clouds 6 1013 83 0 3.13 0 08:58 25.04.2020
4140 Clouds 6 1013 82 0 1.79 0 08:38 25.04.2020
4141 Clouds 6 1013 81 0 3.58 45 08:20 25.04.2020
4142 Clouds 6 1013 81 0 0.89 45 07:50 25.04.2020
4143 Clouds 6 1012 81 0 0.89 338 07:28 25.04.2020
4144 Clouds 5 1012 82 0 1.79 45 06:47 25.04.2020
4145 Clouds 5 1012 82 0 0.45 22 06:28 25.04.2020
4146 Clouds 6 1012 81 0 1.79 315 05:39 25.04.2020
4147 Clouds 6 1012 81 0 1.79 135 05:18 25.04.2020
4148 Clouds 5 1011 91 0 2.68 315 02:59 25.04.2020
4149 Clouds 6 1011 91 0 3.13 270 02:21 25.04.2020
4150 Clouds 6 1011 90 0 1.79 90 01:53 25.04.2020
4151 Clouds 7 1011 90 0 1.79 0 01:34 25.04.2020
4152 Clouds 7 1011 88 0 1.79 315 00:56 25.04.2020
4153 Clouds 8 1011 84 0 2.68 315 00:32 25.04.2020
4154 Clouds 8 1011 78 0 0.45 315 23:45 24.04.2020
4155 Clouds 9 1011 71 0 4.19 293 23:24 24.04.2020
4156 Clouds 9 1011 67 0 4.19 293 22:59 24.04.2020
4157 Clouds 10 1011 65 0 0.45 315 22:39 24.04.2020
4158 Clouds 10 1011 66 0 0.89 315 22:19 24.04.2020
4159 Clouds 11 1011 65 0 0.89 45 21:56 24.04.2020
4160 Clouds 11 1011 61 0 0.89 0 21:37 24.04.2020
4161 Clouds 13 1011 60 0 1.34 0 21:19 24.04.2020
4162 Clouds 13 1011 56 0 0.89 338 20:56 24.04.2020
4163 Clouds 14 1011 51 0 4.11 308 20:37 24.04.2020
4164 Clouds 14 1011 44 0 0.45 0 20:18 24.04.2020
4165 Clouds 16 1011 37 0 0.89 315 19:40 24.04.2020
4166 Clouds 17 1011 34 0 1.79 315 19:21 24.04.2020
4167 Clouds 17 1011 40 0 1.34 315 18:46 24.04.2020
4168 Clear 18 1011 40 0 1.79 225 18:28 24.04.2020
4169 Clear 18 1011 37 0 6.26 225 17:58 24.04.2020
4170 Clear 18 1011 37 0 6.26 225 17:39 24.04.2020
4171 Clear 19 1011 34 0 4.02 90 17:20 24.04.2020
4172 Clear 19 1011 34 0 4.02 90 16:58 24.04.2020
4173 Clear 19 1011 39 0 2.24 45 16:40 24.04.2020
4174 Clear 19 1011 36 0 3.58 315 16:21 24.04.2020
4175 Clear 19 1012 36 0 4.47 315 15:42 24.04.2020
4176 Clouds 19 1012 36 0 4.47 315 15:21 24.04.2020
4177 Clouds 19 1012 36 0 4.92 225 14:59 24.04.2020
4178 Clouds 19 1012 40 0 4.92 315 14:38 24.04.2020
4179 Clouds 19 1012 38 0 6.71 0 14:20 24.04.2020
4180 Clouds 19 1012 40 0 5.36 225 13:42 24.04.2020
4181 Clouds 19 1012 38 0 1.79 180 13:22 24.04.2020
4182 Clouds 18 1012 41 0 8.49 225 12:59 24.04.2020
4183 Clouds 18 1012 36 0 3.58 225 12:41 24.04.2020
4184 Clouds 17 1012 40 0 4.92 248 12:20 24.04.2020
4185 Clouds 16 1012 40 0 2.24 315 11:56 24.04.2020
4186 Clouds 16 1013 40 0 2.68 315 11:37 24.04.2020
4187 Clouds 16 1013 35 0 1.79 315 11:18 24.04.2020
4188 Clouds 15 1013 40 0 0.89 315 10:38 24.04.2020
4189 Clouds 15 1013 41 0 1.79 0 10:20 24.04.2020
4190 Clouds 14 1013 43 0 0.89 292 09:58 24.04.2020
4191 Clouds 13 1013 55 0 0.89 0 09:39 24.04.2020
4192 Clouds 12 1013 62 0 2.01 253 09:20 24.04.2020
4193 Clouds 11 1013 73 0 2.01 253 08:43 24.04.2020
4194 Clouds 10 1013 75 0 2.01 253 08:23 24.04.2020
4195 Clouds 9 1013 79 0 2.01 253 07:59 24.04.2020
4196 Clouds 9 1013 84 0 2.01 253 07:41 24.04.2020
4197 Clouds 8 1014 85 0 2.01 253 07:23 24.04.2020
4198 Clouds 8 1014 87 0 2.01 253 06:48 24.04.2020
4199 Clouds 8 1014 88 0 0.45 0 06:30 24.04.2020
4200 Clouds 8 1014 90 0 0.45 0 05:40 24.04.2020
4201 Clouds 8 1011 71 0 1.28 230 03:57 24.04.2020
4202 Clouds 8 1012 76 0 0.91 194 02:56 24.04.2020
4203 Clouds 8 1012 77 0 1.03 187 02:37 24.04.2020
4204 Clouds 9 1013 73 0 1.03 187 01:57 24.04.2020
4205 Clouds 9 1014 70 0 1.03 187 00:58 24.04.2020
4206 Clouds 9 1012 62 0 0.98 181 00:21 24.04.2020
4207 Clouds 9 1012 62 0 0.98 181 00:21 24.04.2020
4208 Clouds 10 1016 61 0 1.79 43 23:54 23.04.2020
4209 Clouds 10 1014 61 0 0.98 181 23:36 23.04.2020
4210 Clouds 10 1015 60 0 0.98 181 23:18 23.04.2020
4211 Clouds 11 1013 58 0 0.98 181 22:54 23.04.2020
4212 Clouds 11 1016 58 0 2.24 40 22:36 23.04.2020
4213 Clouds 12 1013 57 0 0.98 181 22:18 23.04.2020
4214 Clouds 12 1013 56 0 0.98 181 21:54 23.04.2020
4215 Clouds 11 1019 71 0 0.45 45 21:36 23.04.2020
4216 Clear 13 1013 56 0 2.53 110 21:18 23.04.2020
4217 Clear 14 1019 50 0 0.45 0 20:41 23.04.2020
4218 Clear 14 1019 41 0 0.45 45 20:21 23.04.2020
4219 Clear 16 1019 38 0 1.79 270 19:56 23.04.2020
4220 Clear 17 1019 36 0 1.79 270 19:38 23.04.2020
4221 Clear 18 1019 33 0 1.79 225 19:20 23.04.2020
4222 Clear 19 1019 33 0 4.47 225 18:55 23.04.2020
4223 Clear 19 1020 30 0 3.58 225 18:36 23.04.2020
4224 Clear 19 1020 30 0 4.02 225 18:18 23.04.2020
4225 Clear 19 1020 30 0 3.58 292 17:55 23.04.2020
4226 Clear 19 1020 30 0 3.58 292 17:36 23.04.2020
4227 Clear 19 1020 30 0 3.58 292 17:36 23.04.2020
4228 Clear 19 1021 30 0 4.02 225 17:18 23.04.2020
4229 Clear 19 1021 31 0 4.92 248 16:42 23.04.2020
4230 Clear 19 1021 31 0 2.68 315 16:19 23.04.2020
4231 Clear 19 1021 31 0 4.47 225 15:42 23.04.2020
4232 Clear 19 1022 31 0 1.79 225 15:23 23.04.2020
4233 Clear 19 1022 30 0 3.13 225 14:58 23.04.2020
4234 Clear 19 1022 31 0 2.24 225 14:38 23.04.2020
4235 Clear 18 1022 31 0 7.15 225 14:20 23.04.2020
4236 Clear 18 1019 37 0 0.45 225 13:56 23.04.2020
4237 Clear 18 1018 37 0 1.34 113 13:38 23.04.2020
4238 Clear 18 1018 37 0 1.34 113 13:38 23.04.2020
4239 Clear 18 1023 28 0 1.79 45 13:19 23.04.2020
4240 Clear 18 1023 30 0 0.89 45 12:44 23.04.2020
4241 Clear 17 1023 30 0 0.45 90 12:25 23.04.2020
4242 Clear 17 1024 30 0 1.79 90 11:58 23.04.2020
4243 Clear 17 1024 30 0 0.89 225 11:40 23.04.2020
4244 Clear 16 1023 45 0 4.64 101 11:21 23.04.2020
4245 Clear 14 1024 34 0 2.68 135 10:42 23.04.2020
4246 Clear 14 1024 33 0 1.79 90 10:24 23.04.2020
4247 Clear 14 1024 33 0 3.13 135 09:55 23.04.2020
4248 Clear 13 1024 33 0 0.89 180 09:37 23.04.2020
4249 Clear 11 1022 63 0 2.05 89 09:18 23.04.2020
4250 Clear 9 1021 79 0 2.05 89 08:45 23.04.2020
4251 Clear 9 1022 65 0 2.05 89 08:27 23.04.2020
4252 Clear 9 1020 53 0 2.05 89 07:43 23.04.2020
4253 Clear 8 1024 52 0 0.89 45 07:23 23.04.2020
4254 Clear 7 1024 56 0 0.89 90 06:49 23.04.2020
4255 Clear 6 1024 64 0 0.89 90 06:27 23.04.2020
4256 Clear 6 1024 65 0 0.89 45 05:31 23.04.2020
4257 Clear 7 1024 62 0 1.79 180 04:53 23.04.2020
4258 Clear 7 1021 71 0 2.3 95 02:25 23.04.2020
4259 Clear 8 1023 66 0 2.3 95 01:51 23.04.2020
4260 Clear 9 1023 67 0 2.3 95 01:33 23.04.2020
4261 Clear 9 1019 50 0 0.45 95 00:47 23.04.2020
4262 Clear 10 1023 49 0 1.34 0 00:22 23.04.2020
4263 Clear 11 1023 50 0 1.79 90 23:50 22.04.2020
4264 Clear 11 1023 50 0 1.79 90 23:24 22.04.2020
4265 Clear 12 1023 53 0 1.79 45 22:57 22.04.2020
4266 Clear 12 1024 54 0 1.79 45 22:37 22.04.2020
4267 Clear 12 1023 54 0 2.68 45 22:19 22.04.2020
4268 Clear 12 1024 55 0 2.24 45 21:56 22.04.2020
4269 Clear 12 1024 54 0 1.34 0 21:37 22.04.2020
4270 Clear 13 1024 52 0 1.34 45 21:19 22.04.2020
4271 Clear 13 1023 50 0 1.34 90 20:43 22.04.2020
4272 Clear 13 1023 50 0 1.34 90 20:43 22.04.2020
4273 Clear 14 1023 42 0 1.34 45 20:20 22.04.2020
4274 Clear 15 1023 40 0 1.79 45 19:58 22.04.2020
4275 Clear 16 1023 37 0 3.58 90 19:39 22.04.2020
4276 Clear 16 1023 35 0 4.92 90 19:19 22.04.2020
4277 Clear 16 1023 34 0 6.26 90 18:59 22.04.2020
4278 Clear 17 1023 33 0 3.58 90 18:41 22.04.2020
4279 Clear 17 1023 35 0 5.36 45 18:22 22.04.2020
4280 Clear 17 1023 34 0 7.15 0 17:58 22.04.2020
4281 Clear 17 1023 34 0 6.26 90 17:39 22.04.2020
4282 Clear 17 1023 32 0 3.58 90 17:21 22.04.2020
4283 Clear 17 1023 32 0 4.92 90 16:46 22.04.2020
4284 Clear 18 1023 32 0 4.02 90 16:28 22.04.2020
4285 Clear 17 1023 33 0 4.02 45 15:54 22.04.2020
4286 Clear 17 1023 31 0 3.58 90 15:36 22.04.2020
4287 Clear 17 1024 33 0 3.58 90 15:18 22.04.2020
4288 Clear 17 1024 33 0 3.58 90 15:18 22.04.2020
4289 Clear 17 1024 31 0 4.47 45 14:41 22.04.2020
4290 Clear 17 1024 31 0 4.47 45 14:41 22.04.2020
4291 Clear 17 1024 31 0 4.47 45 14:21 22.04.2020
4292 Clear 16 1024 31 0 3.58 90 13:59 22.04.2020
4293 Clear 16 1024 31 0 3.58 90 13:40 22.04.2020
4294 Clear 16 1024 31 0 6.71 45 13:20 22.04.2020
4295 Clear 16 1024 32 0 4.47 90 12:42 22.04.2020
4296 Clear 16 1025 31 0 5.81 90 12:23 22.04.2020
4297 Clear 15 1025 30 0 1.79 90 11:58 22.04.2020
4298 Clear 15 1025 30 0 3.58 45 11:38 22.04.2020
4299 Clear 15 1020 37 0 0.89 98 11:18 22.04.2020
4300 Clear 13 1024 30 0 3.58 90 10:42 22.04.2020
4301 Clear 13 1025 30 0 4.92 90 10:24 22.04.2020
4302 Clear 12 1025 30 0 3.13 180 09:43 22.04.2020
4303 Clear 9 1025 57 10000 5.1 90 09:24 22.04.2020
4304 Clear 9 1025 61 10000 4.6 90 08:59 22.04.2020
4305 Clear 9 1025 61 10000 4.6 90 08:59 22.04.2020
4306 Clear 9 1024 64 0 5.14 92 08:41 22.04.2020
4307 Clear 9 1022 77 0 0.45 75 08:23 22.04.2020
4308 Clear 9 1020 48 0 5.14 92 07:54 22.04.2020
4309 Clear 8 1020 48 0 5.14 92 07:36 22.04.2020
4310 Clear 8 1020 49 0 5.14 92 07:18 22.04.2020
4311 Clear 7 1024 44 0 1.79 90 06:41 22.04.2020
4312 Clear 6 1019 53 0 3.96 87 05:39 22.04.2020
4313 Clear 7 1021 64 0 3.96 87 04:42 22.04.2020
4314 Clear 9 1023 41 0 3.13 90 02:59 22.04.2020
4315 Clear 9 1023 44 0 4.47 112 02:18 22.04.2020
4316 Clear 9 1023 45 0 4.92 45 01:38 22.04.2020
4317 Clear 9 1023 46 0 3.58 90 01:19 22.04.2020
4318 Clear 10 1023 46 0 4.47 112 00:41 22.04.2020
4319 Clear 10 1023 45 0 4.92 158 00:20 22.04.2020
4320 Clear 11 1023 45 0 4.02 0 23:44 21.04.2020
4321 Clear 11 1023 45 0 5.36 45 23:22 21.04.2020
4322 Clear 11 1023 46 0 5.36 45 22:58 21.04.2020
4323 Clear 11 1022 45 0 4.47 315 22:39 21.04.2020
4324 Clear 11 1023 45 0 5.36 180 22:19 21.04.2020
4325 Clear 12 1023 46 0 4.02 90 21:43 21.04.2020
4326 Clear 12 1023 46 0 5.36 90 21:24 21.04.2020
4327 Clear 13 1022 45 0 3.58 90 20:59 21.04.2020
4328 Clear 13 1022 43 0 2.68 90 20:40 21.04.2020
4329 Clear 13 1022 43 0 5.36 180 20:22 21.04.2020
4330 Clear 13 1022 42 0 4.47 90 19:57 21.04.2020
4331 Clear 14 1022 37 0 6.71 45 19:37 21.04.2020
4332 Clear 14 1022 36 0 4.92 90 19:18 21.04.2020
4333 Clear 15 1022 35 0 5.81 90 18:54 21.04.2020
4334 Clear 15 1022 33 0 5.36 0 18:36 21.04.2020
4335 Clear 15 1022 35 0 3.58 45 18:18 21.04.2020
4336 Clear 15 1022 36 0 5.81 0 17:39 21.04.2020
4337 Clear 15 1022 35 0 7.6 45 17:20 21.04.2020
4338 Clear 15 1022 35 0 3.58 0 16:56 21.04.2020
4339 Clear 15 1022 34 0 4.92 90 16:36 21.04.2020
4340 Clear 15 1022 33 0 6.71 45 16:18 21.04.2020
4341 Clear 15 1022 35 0 4.47 90 15:55 21.04.2020
4342 Clear 15 1023 33 0 4.92 135 15:36 21.04.2020
4343 Clear 15 1023 37 0 3.13 90 15:18 21.04.2020
4344 Clear 14 1023 35 0 4.92 90 14:44 21.04.2020
4345 Clear 14 1023 36 0 6.71 45 14:23 21.04.2020
4346 Clear 14 1023 37 0 6.71 90 13:55 21.04.2020
4347 Clear 14 1023 39 0 3.58 90 13:37 21.04.2020
4348 Clear 14 1023 36 0 5.36 90 13:18 21.04.2020
4349 Clear 14 1023 34 0 4.92 180 12:38 21.04.2020
4350 Clear 13 1023 36 0 4.92 90 12:19 21.04.2020
4351 Clear 12 1022 39 0 6.26 90 11:57 21.04.2020
4352 Clear 12 1023 40 0 4.47 45 11:38 21.04.2020
4353 Clear 12 1023 41 0 4.92 90 11:19 21.04.2020
4354 Clear 11 1023 41 0 7.6 45 10:58 21.04.2020
4355 Clear 11 1023 41 0 6.71 90 10:39 21.04.2020
4356 Clear 11 1023 40 0 5.81 90 10:21 21.04.2020
4357 Clear 11 1022 40 0 3.58 90 09:55 21.04.2020
4358 Clear 11 1022 40 0 3.58 90 09:36 21.04.2020
4359 Clear 9 1024 52 10000 5.7 90 09:18 21.04.2020
4360 Clear 8 1018 57 0 1.79 67 08:43 21.04.2020
4361 Clear 8 1020 59 0 1.34 348 08:24 21.04.2020
4362 Clear 7 1022 50 0 4.02 180 07:50 21.04.2020
4363 Clear 7 1022 54 0 4.02 135 07:27 21.04.2020
4364 Clear 6 1022 54 0 2.24 90 06:50 21.04.2020
4365 Clear 6 1022 54 0 6.26 90 06:31 21.04.2020
4366 Clear 6 1022 54 0 3.58 180 05:49 21.04.2020
4367 Clear 6 1022 55 0 6.71 112 04:55 21.04.2020
4368 Clear 8 1022 57 0 4.02 90 03:46 21.04.2020
4369 Clear 7 1022 57 0 4.47 45 02:41 21.04.2020
4370 Clear 9 1023 49 0 3.58 45 01:30 21.04.2020
4371 Clear 9 1023 45 0 3.58 90 00:38 21.04.2020
4372 Clear 9 1023 42 0 4.47 90 23:58 20.04.2020
4373 Clear 9 1022 42 0 4.02 90 23:40 20.04.2020
4374 Clear 9 1022 41 0 3.58 45 23:19 20.04.2020
4375 Clear 9 1023 40 0 4.47 90 22:54 20.04.2020
4376 Clear 9 1022 40 0 4.47 90 22:36 20.04.2020
4377 Clear 9 1023 40 0 3.58 90 22:18 20.04.2020
4378 Clear 10 1023 40 0 4.92 90 21:54 20.04.2020
4379 Clear 10 1023 40 0 5.36 90 21:36 20.04.2020
4380 Clear 11 1023 40 0 4.92 90 21:18 20.04.2020
4381 Clear 11 1022 39 0 4.02 45 20:41 20.04.2020
4382 Clear 12 1022 38 0 3.58 0 20:19 20.04.2020
4383 Clear 12 1022 37 0 3.58 90 19:59 20.04.2020
4384 Clear 13 1022 36 0 6.71 45 19:40 20.04.2020
4385 Clear 13 1022 36 0 8.94 45 19:20 20.04.2020
4386 Clear 13 1022 37 0 4.47 45 18:55 20.04.2020
4387 Clear 13 1022 33 0 8.05 45 18:37 20.04.2020
4388 Clear 14 1022 33 0 5.36 45 18:19 20.04.2020
4389 Clear 14 1022 33 0 5.81 45 17:43 20.04.2020
4390 Clear 14 1022 32 0 7.6 45 17:23 20.04.2020
4391 Clear 14 1022 32 0 7.15 90 16:59 20.04.2020
4392 Clear 14 1022 33 0 5.36 45 16:40 20.04.2020
4393 Clear 14 1022 32 0 6.71 112 16:19 20.04.2020
4394 Clear 14 1023 33 0 4.47 90 15:55 20.04.2020
4395 Clear 14 1023 34 0 3.58 45 15:36 20.04.2020
4396 Clear 14 1023 34 0 3.58 45 15:36 20.04.2020
4397 Clear 13 1023 33 0 4.47 45 15:18 20.04.2020
4398 Clear 14 1023 36 0 3.58 90 14:41 20.04.2020
4399 Clear 13 1024 39 0 4.92 45 14:19 20.04.2020
4400 Clear 13 1024 38 0 6.71 135 13:57 20.04.2020
4401 Clear 14 1024 35 0 4.92 90 13:38 20.04.2020
4402 Clear 14 1024 35 0 5.81 90 13:20 20.04.2020
4403 Clear 13 1023 38 0 6.71 90 12:44 20.04.2020
4404 Clear 12 1024 36 0 4.02 90 12:22 20.04.2020
4405 Clear 12 1024 40 0 6.26 90 11:55 20.04.2020
4406 Clear 12 1024 39 0 5.36 112 11:36 20.04.2020
4407 Clear 12 1024 39 0 5.36 112 11:36 20.04.2020
4408 Clear 12 1024 36 0 5.36 90 11:18 20.04.2020
4409 Clear 12 1024 37 0 4.92 90 10:54 20.04.2020
4410 Clear 12 1024 37 0 3.58 90 10:36 20.04.2020
4411 Clear 11 1024 38 0 2.24 135 10:18 20.04.2020
4412 Clear 11 1024 40 0 1.79 135 09:43 20.04.2020
4413 Clear 1 1024 66 0 5.49 94 09:25 20.04.2020
4414 Clear 0 1025 66 0 5.72 93 08:57 20.04.2020
4415 Clear 8 1024 43 0 3.58 135 08:39 20.04.2020
4416 Clear 7 1020 53 0 0.89 75 08:18 20.04.2020
4417 Clear 6 1020 52 0 0.89 124 07:42 20.04.2020
4418 Clear 6 1021 52 0 0.89 78 07:24 20.04.2020
4419 Clear 6 1023 50 0 5.36 90 06:38 20.04.2020
4420 Clear 6 1023 50 0 4.47 90 05:59 20.04.2020
4421 Clear 5 1023 45 0 2.68 90 04:51 20.04.2020
4422 Clear 4 1023 52 0 0.89 0 02:52 20.04.2020
4423 Clear 4 1024 53 0 0.89 0 02:33 20.04.2020
4424 Clear 6 1023 45 0 1.79 22 01:30 20.04.2020
4425 Clear 7 1023 46 0 3.58 45 00:47 20.04.2020
4426 Clear 7 1023 48 0 1.79 90 00:25 20.04.2020
4427 Clear 6 1023 48 0 1.79 90 23:41 19.04.2020
4428 Clear 6 1023 47 0 1.34 45 23:22 19.04.2020
4429 Clear 6 1023 47 0 1.79 45 22:59 19.04.2020
4430 Clear 7 1023 48 0 3.58 45 22:39 19.04.2020
4431 Clear 7 1023 50 0 2.24 45 22:20 19.04.2020
4432 Clear 7 1023 50 0 2.68 22 21:55 19.04.2020
4433 Clear 9 1023 50 0 3.58 45 21:37 19.04.2020
4434 Clear 9 1022 49 0 3.58 45 21:18 19.04.2020
4435 Clear 10 1022 41 0 3.58 45 20:41 19.04.2020
4436 Clear 10 1022 40 0 3.58 45 20:21 19.04.2020
4437 Clear 11 1022 40 0 2.68 0 19:58 19.04.2020
4438 Clear 12 1021 36 0 4.02 45 19:40 19.04.2020
4439 Clear 12 1021 36 0 3.58 90 19:22 19.04.2020
4440 Clear 12 1021 34 0 3.58 45 18:58 19.04.2020
4441 Clear 12 1021 33 0 5.81 90 18:39 19.04.2020
4442 Clear 12 1021 34 0 2.68 45 18:19 19.04.2020
4443 Clear 12 1021 34 0 2.68 45 18:19 19.04.2020
4444 Clear 12 1021 32 0 3.13 45 17:56 19.04.2020
4445 Clear 14 1021 31 0 4.92 45 17:38 19.04.2020
4446 Clear 12 1021 31 0 7.6 45 17:20 19.04.2020
4447 Clear 13 1021 31 0 4.92 0 16:56 19.04.2020
4448 Clear 13 1021 31 0 6.26 45 16:37 19.04.2020
4449 Clear 14 1021 31 0 4.47 90 16:19 19.04.2020
4450 Clear 14 1021 31 0 3.58 45 15:42 19.04.2020
4451 Clear 14 1021 31 0 3.58 45 15:42 19.04.2020
4452 Clear 14 1021 31 0 4.47 90 15:22 19.04.2020
4453 Clear 14 1022 32 0 4.02 90 14:55 19.04.2020
4454 Clear 13 1021 33 0 4.02 0 14:36 19.04.2020
4455 Clear 12 1021 36 0 4.47 45 14:18 19.04.2020
4456 Clear 13 1021 39 0 4.47 90 13:39 19.04.2020
4457 Clear 13 1021 41 0 4.47 45 13:19 19.04.2020
4458 Clear 12 1021 42 0 4.02 45 12:50 19.04.2020
4459 Clear 12 1021 42 0 4.92 45 12:25 19.04.2020
4460 Clear 12 1021 43 0 3.58 45 11:59 19.04.2020
4461 Clear 11 1020 43 0 6.71 45 11:37 19.04.2020
4462 Clear 11 1020 43 0 6.71 45 11:37 19.04.2020
4463 Clear 11 1020 42 0 5.81 45 11:19 19.04.2020
4464 Clear 11 1020 42 0 3.58 45 10:56 19.04.2020
4465 Clear 11 1020 42 0 3.58 45 10:38 19.04.2020
4466 Clear 11 1020 43 0 4.47 45 10:19 19.04.2020
4467 Clear 10 1020 43 0 2.68 45 09:45 19.04.2020
4468 Rain 1 1020 67 0 2.7 76 09:27 19.04.2020
4469 Rain 7 1020 48 0 1.79 90 08:41 19.04.2020
4470 Rain 7 1019 47 0 2.24 45 08:23 19.04.2020
4471 Clouds 7 1019 51 0 0.89 90 07:59 19.04.2020
4472 Clouds 6 1019 53 0 0.45 45 07:41 19.04.2020
4473 Rain 6 1019 64 0 0.89 45 07:22 19.04.2020
4474 Clouds 5 1018 68 0 2.15 75 06:29 19.04.2020
4475 Clouds 5 1018 64 0 0.89 45 05:56 19.04.2020
4476 Clouds 7 1018 66 0 0.89 90 04:48 19.04.2020
4477 Rain 7 1018 72 0 0.89 45 02:59 19.04.2020
4478 Clouds 7 1018 91 0 0.89 90 02:21 19.04.2020
4479 Clouds 8 1018 91 0 0.45 45 01:39 19.04.2020
4480 Clouds 9 1018 71 0 0.89 45 00:50 19.04.2020
4481 Clouds 10 1018 62 0 0.89 90 00:26 19.04.2020
4482 Clouds 10 1018 52 0 0.89 90 23:56 18.04.2020
4483 Clouds 11 1017 50 0 1.79 45 23:36 18.04.2020
4484 Clouds 11 1017 50 0 1.79 45 23:18 18.04.2020
4485 Clouds 11 1017 52 0 2.24 45 22:42 18.04.2020
4486 Clouds 12 1017 59 0 2.24 45 22:21 18.04.2020
4487 Clouds 12 1017 60 0 1.34 45 21:57 18.04.2020
4488 Clouds 13 1017 61 0 1.79 90 21:38 18.04.2020
4489 Clouds 13 1017 63 0 1.34 45 21:20 18.04.2020
4490 Clouds 14 1017 54 0 1.79 22 20:42 18.04.2020
4491 Clouds 15 1017 51 0 2.24 0 20:22 18.04.2020
4492 Clouds 15 1017 51 0 1.79 45 19:59 18.04.2020
4493 Clouds 16 1016 51 0 0.89 45 19:38 18.04.2020
4494 Clouds 16 1016 52 0 2.24 45 19:20 18.04.2020
4495 Clouds 17 1016 51 0 1.79 45 18:39 18.04.2020
4496 Clouds 18 1017 50 0 3.58 90 18:20 18.04.2020
4497 Clouds 18 1017 47 0 2.68 45 17:56 18.04.2020
4498 Clouds 19 1016 45 0 3.58 45 17:38 18.04.2020
4499 Clouds 18 1017 41 0 3.13 45 17:18 18.04.2020
4500 Clouds 18 1016 41 0 1.79 90 16:42 18.04.2020
4501 Clouds 19 1016 40 0 1.79 45 16:22 18.04.2020
4502 Clouds 21 1016 38 0 3.58 225 15:55 18.04.2020
4503 Clouds 13 1015 57 0 4.54 85 15:37 18.04.2020
4504 Clouds 12 1016 56 0 4.71 93 15:18 18.04.2020
4505 Clouds 20 1017 41 0 0.89 225 14:41 18.04.2020
4506 Clouds 19 1017 41 0 2.68 225 14:19 18.04.2020
4507 Clouds 12 1016 57 0 4.48 92 13:43 18.04.2020
4508 Clouds 19 1018 42 0 1.34 180 13:20 18.04.2020
4509 Clouds 19 1018 44 0 1.79 180 12:43 18.04.2020
4510 Clouds 9 1017 60 0 3.91 97 12:25 18.04.2020
4511 Clouds 9 1017 60 0 3.91 97 11:58 18.04.2020
4512 Clouds 9 1017 60 0 3.91 97 11:40 18.04.2020
4513 Clouds 9 1017 60 0 3.91 97 11:21 18.04.2020
4514 Clouds 9 1017 60 0 3.91 97 11:21 18.04.2020
4515 Clouds 9 1017 60 0 3.91 97 10:42 18.04.2020
4516 Clouds 9 1017 60 0 3.91 97 10:22 18.04.2020
4517 Clouds 9 1017 60 0 3.91 97 09:59 18.04.2020
4518 Clouds 9 1017 60 0 3.91 97 09:40 18.04.2020
4519 Clouds 4 1017 71 0 2.47 95 09:20 18.04.2020
4520 Clouds 12 1016 59 0 2.47 95 08:42 18.04.2020
4521 Clouds 4 1017 71 0 2.47 95 08:21 18.04.2020
4522 Clouds 9 1018 85 0 2.47 95 07:48 18.04.2020
4523 Clouds 4 1018 93 0 2.47 95 07:28 18.04.2020
4524 Clouds 4 1017 71 0 2.47 95 06:42 18.04.2020
4525 Clouds 3 1017 92 0 1.74 100 05:49 18.04.2020
4526 Clouds 4 1017 92 0 0.45 0 04:55 18.04.2020
4527 Clouds 4 1017 94 0 1.74 100 04:31 18.04.2020
4528 Clouds 4 1017 96 0 0.89 45 03:33 18.04.2020
4529 Clear 4 1018 95 0 1.89 100 02:40 18.04.2020
4530 Clear 4 1018 95 0 0.89 45 02:21 18.04.2020
4531 Clear 4 1018 95 0 0.89 45 02:21 18.04.2020
4532 Clear 5 1018 95 0 0.45 0 01:45 18.04.2020
4533 Clear 6 1018 95 0 0.89 45 01:22 18.04.2020
4534 Clear 6 1018 91 0 0.45 22 00:24 18.04.2020
4535 Clear 6 1018 91 0 0.45 22 00:24 18.04.2020
4536 Clear 6 1018 89 0 0.45 45 23:59 17.04.2020
4537 Clear 7 1018 90 0 1.74 104 23:40 17.04.2020
4538 Clear 7 1018 88 0 0.89 45 23:20 17.04.2020
4539 Clear 8 1018 83 0 0.89 45 22:58 17.04.2020
4540 Clear 8 1018 83 0 0.89 45 22:58 17.04.2020
4541 Clear 8 1018 83 0 0.45 45 22:40 17.04.2020
4542 Clear 10 1018 85 0 0.45 0 22:20 17.04.2020
4543 Clear 11 1018 79 0 1.74 104 21:58 17.04.2020
4544 Clear 11 1018 75 0 0.45 0 21:39 17.04.2020
4545 Clear 11 1018 74 0 0.45 45 21:19 17.04.2020
4546 Clear 13 1018 71 0 0.89 45 20:55 17.04.2020
4547 Clear 14 1018 68 0 0.45 45 20:36 17.04.2020
4548 Clear 14 1018 64 0 0.89 45 20:18 17.04.2020
4549 Clear 15 1018 57 0 2.68 45 19:46 17.04.2020
4550 Clear 16 1018 54 0 4.02 45 19:24 17.04.2020
4551 Clear 17 1018 51 0 1.34 45 18:55 17.04.2020
4552 Clear 17 1017 50 0 1.79 90 18:36 17.04.2020
4553 Clear 18 1018 49 0 1.34 0 18:18 17.04.2020
4554 Clear 19 1017 42 0 1.34 45 17:38 17.04.2020
4555 Clear 19 1018 41 0 2.24 90 17:19 17.04.2020
4556 Clear 19 1018 42 0 1.79 0 16:44 17.04.2020
4557 Clear 19 1018 41 0 3.58 45 16:24 17.04.2020
4558 Clear 18 1018 42 0 1.34 90 15:59 17.04.2020
4559 Clear 18 1016 40 0 2.68 223 15:38 17.04.2020
4560 Clouds 18 1016 40 0 2.68 223 15:20 17.04.2020
4561 Clouds 18 1018 41 0 2.68 0 14:42 17.04.2020
4562 Clouds 18 1016 40 0 2.68 223 14:23 17.04.2020
4563 Clouds 17 1018 48 0 2.24 338 13:58 17.04.2020
4564 Clouds 17 1018 47 0 4.92 225 13:39 17.04.2020
4565 Clouds 16 1018 50 10000 2.6 20 13:20 17.04.2020
4566 Clouds 16 1018 50 10000 2.1 20 12:48 17.04.2020
4567 Clouds 14 1018 54 10000 1.5 0 12:27 17.04.2020
4568 Clouds 14 1018 54 10000 1.5 0 11:58 17.04.2020
4569 Clouds 14 1019 62 10000 1.5 0 11:38 17.04.2020
4570 Clouds 13 1019 62 10000 1.5 0 11:19 17.04.2020
4571 Clouds 12 1019 66 10000 1.5 0 10:40 17.04.2020
4572 Clouds 12 1019 66 10000 1.5 0 10:20 17.04.2020
4573 Clouds 11 1019 62 0 2.68 202 09:55 17.04.2020
4574 Clouds 11 1019 62 0 2.68 202 09:55 17.04.2020
4575 Clouds 10 1014 74 0 1.05 13 09:36 17.04.2020
4576 Clouds 9 1018 83 0 0.91 323 09:18 17.04.2020
4577 Clouds 8 1016 80 0 0.91 323 08:45 17.04.2020
4578 Clouds 7 1016 81 0 0.91 323 08:26 17.04.2020
4579 Clouds 5 1017 88 0 0.91 323 07:54 17.04.2020
4580 Clouds 6 1018 99 0 0.91 323 07:36 17.04.2020
4581 Clouds 5 1018 99 0 0.91 323 07:18 17.04.2020
4582 Clouds 4 1018 96 0 0.45 0 06:40 17.04.2020
4583 Clouds 5 1018 95 0 0.77 343 05:49 17.04.2020
4584 Clouds 7 1018 92 0 1.34 45 03:22 17.04.2020
4585 Clouds 7 1018 90 0 1.79 45 02:49 17.04.2020
4586 Clouds 9 1018 83 0 0.89 45 01:30 17.04.2020
4587 Clouds 9 1018 74 0 0.89 45 00:59 17.04.2020
4588 Clouds 10 1018 71 0 1.34 45 00:21 17.04.2020
4589 Clouds 11 1018 71 0 0.89 45 23:46 16.04.2020
4590 Clouds 11 1018 72 0 0.89 45 23:24 16.04.2020
4591 Clouds 11 1018 73 0 1.34 45 22:59 16.04.2020
4592 Clouds 11 1018 73 0 1.34 45 22:59 16.04.2020
4593 -273 0 0 0 0 0 22:59 16.04.2020
4594 Clouds 11 1017 74 0 0.89 45 22:39 16.04.2020
4595 Clouds 12 1017 74 0 0.89 45 22:20 16.04.2020
4596 Clouds 12 1017 72 0 0.89 45 21:57 16.04.2020
4597 Clouds 12 1017 72 0 0.89 45 21:39 16.04.2020
4598 Clouds 14 1014 55 0 0.57 1 21:19 16.04.2020
4599 Clouds 14 1017 61 0 0.45 22 20:42 16.04.2020
4600 Clouds 16 1010 50 0 0.57 1 20:22 16.04.2020
4601 Clouds 17 1016 50 0 1.79 45 19:59 16.04.2020
4602 Clouds 17 1017 47 0 1.34 45 19:39 16.04.2020
4603 Clouds 18 1017 43 0 1.34 45 19:19 16.04.2020
4604 Clouds 19 1017 37 0 2.24 45 18:55 16.04.2020
4605 Clouds 20 1016 30 0 1.34 315 18:36 16.04.2020
4606 Clouds 20 1015 25 10000 2.6 0 18:18 16.04.2020
4607 Clouds 20 1015 25 10000 2.6 0 17:42 16.04.2020
4608 Clouds 20 1015 25 10000 2.6 0 17:23 16.04.2020
4609 Clouds 21 1016 25 10000 3.1 310 16:55 16.04.2020
4610 Clouds 21 1016 25 10000 3.1 310 16:36 16.04.2020
4611 Clouds 21 1016 48 10000 3.6 290 16:18 16.04.2020
4612 Clouds 20 1016 31 10000 2.1 0 15:40 16.04.2020
4613 Clouds 20 1016 31 10000 2.1 0 15:19 16.04.2020
4614 Clouds 20 1017 31 10000 2.6 310 14:58 16.04.2020
4615 Clouds 20 1018 32 0 1.79 225 14:38 16.04.2020
4616 Clouds 19 1017 49 10000 2.1 310 14:19 16.04.2020
4617 Clouds 19 1017 49 10000 2.6 280 13:42 16.04.2020
4618 Clouds 18 1017 36 10000 3.1 270 13:23 16.04.2020
4619 Clouds 18 1018 49 10000 3.1 280 12:59 16.04.2020
4620 Clouds 18 1018 49 10000 3.1 280 12:40 16.04.2020
4621 Clouds 16 1018 38 10000 3.1 280 12:20 16.04.2020
4622 Clouds 16 1018 44 0 1.62 305 12:00 16.04.2020
4623 Clouds 16 1018 41 10000 2.6 290 11:41 16.04.2020
4624 Clouds 15 1018 43 10000 2.1 360 11:21 16.04.2020
4625 Clouds 15 1018 43 10000 2.6 350 10:57 16.04.2020
4626 Clouds 14 1018 43 10000 2.6 350 10:38 16.04.2020
4627 Clouds 14 1018 46 10000 2.1 280 10:19 16.04.2020
4628 Clouds 13 1019 40 0 1.79 225 09:55 16.04.2020
4629 Clouds 12 1019 40 0 1.79 225 09:37 16.04.2020
4630 Clouds 9 1018 76 0 1.3 255 09:18 16.04.2020
4631 Clouds 7 1019 81 0 1.12 259 08:41 16.04.2020
4632 Clouds 6 1020 67 0 1.12 259 08:22 16.04.2020
4633 -273 0 0 0 0 0 07:46 16.04.2020
4634 Clouds 6 1020 88 0 1.12 259 07:26 16.04.2020
4635 Clouds 4 1020 90 0 0.45 0 06:44 16.04.2020
4636 Clouds 4 1017 79 0 1.54 246 06:25 16.04.2020
4637 Clouds 5 1015 62 0 1.54 246 05:34 16.04.2020
4638 Clouds 5 1020 79 0 1.54 246 03:59 16.04.2020
4639 Clouds 6 1016 69 0 1.39 225 03:23 16.04.2020
4640 Clouds 6 1020 74 0 1.39 225 02:47 16.04.2020
4641 Clouds 6 1020 73 0 1.45 224 02:28 16.04.2020
4642 Clouds 6 1019 65 0 3.13 40 01:19 16.04.2020
4643 Clouds 6 1020 62 0 3.13 38 00:34 16.04.2020
4644 Clouds 7 1021 61 0 1.37 231 23:59 15.04.2020
4645 Clouds 7 1021 60 0 1.37 231 23:41 15.04.2020
4646 Clouds 7 1018 60 0 1.37 231 23:22 15.04.2020
4647 Clouds 7 1019 61 0 1.37 231 22:41 15.04.2020
4648 Clouds 7 1019 60 0 1.37 231 22:22 15.04.2020
4649 Clouds 8 1019 60 0 1.37 231 21:59 15.04.2020
4650 Clouds 8 1022 74 0 0.45 0 21:41 15.04.2020
4651 Clouds 10 1020 54 0 2.68 41 21:23 15.04.2020
4652 Clouds 9 1022 68 0 0.89 0 20:58 15.04.2020
4653 Clouds 10 1022 60 0 0.45 0 20:40 15.04.2020
4654 Clouds 10 1022 60 0 0.45 0 20:40 15.04.2020
4655 Clouds 12 1022 53 0 0.45 0 20:22 15.04.2020
4656 Clouds 12 1022 53 0 0.45 0 20:22 15.04.2020
4657 Clouds 14 1022 38 0 1.79 225 19:46 15.04.2020
4658 Clouds 14 1022 38 0 1.79 225 19:46 15.04.2020
4659 Clouds 15 1022 37 0 1.79 225 19:21 15.04.2020
4660 Clouds 15 1023 35 0 1.79 225 18:57 15.04.2020
4661 Clouds 16 1023 34 0 1.79 225 18:39 15.04.2020
4662 Clouds 16 1023 32 0 1.79 248 18:21 15.04.2020
4663 Clouds 16 1022 33 10000 4.6 280 17:55 15.04.2020
4664 Clouds 15 1022 33 10000 4.6 280 17:36 15.04.2020
4665 Clouds 15 1022 33 10000 4.6 280 17:36 15.04.2020
4666 Clouds 15 1022 33 10000 4.6 280 17:36 15.04.2020
4667 Clouds 16 1022 33 10000 4.6 280 17:18 15.04.2020
4668 Clouds 16 1022 33 10000 4.6 280 16:54 15.04.2020
4669 Clouds 15 1022 33 10000 4.6 280 16:36 15.04.2020
4670 Clouds 15 1022 30 10000 5.1 290 16:18 15.04.2020
4671 Clouds 15 1023 50 10000 5.1 280 15:55 15.04.2020
4672 Clouds 15 1023 50 10000 5.1 280 15:36 15.04.2020
4673 Clouds 14 1023 52 10000 5.1 280 15:18 15.04.2020
4674 Clouds 13 1023 52 10000 6.2 260 14:42 15.04.2020
4675 Clouds 12 1023 51 10000 6.2 270 14:23 15.04.2020
4676 Clouds 13 1023 51 10000 6.2 270 14:00 15.04.2020
4677 Clouds 12 1023 51 10000 6.2 270 13:40 15.04.2020
4678 Clouds 12 1024 51 10000 6.7 270 13:21 15.04.2020
4679 Clouds 11 1024 51 10000 6.7 270 12:59 15.04.2020
4680 Clouds 11 1024 51 10000 6.7 270 12:40 15.04.2020
4681 Clouds 9 1024 60 10000 5.7 280 12:22 15.04.2020
4682 Clouds 9 1024 60 10000 6.2 290 11:58 15.04.2020
4683 Clouds 9 1024 60 10000 6.2 290 11:38 15.04.2020
4684 Clouds 8 1024 60 10000 6.2 280 11:20 15.04.2020
4685 Clouds 8 1024 60 10000 6.2 280 10:38 15.04.2020
4686 Clouds 7 1024 60 10000 7.2 280 10:20 15.04.2020
4687 Clouds 6 1024 60 10000 5.7 270 09:57 15.04.2020
4688 Clouds 6 1024 60 10000 5.7 270 09:38 15.04.2020
4689 Clouds 5 1024 73 10000 5.7 260 09:20 15.04.2020
4690 Clouds 4 1024 73 10000 5.1 270 08:54 15.04.2020
4691 Clouds 3 1024 73 10000 5.1 270 08:36 15.04.2020
4692 Clouds 3 1024 73 10000 4.1 260 08:18 15.04.2020
4693 Clouds 1 1024 93 0 0.89 225 07:44 15.04.2020
4694 Clouds 1 1024 92 0 3.92 258 07:26 15.04.2020
4695 Clouds 0 1024 90 0 2.73 252 06:25 15.04.2020
4696 Clouds 0 1024 90 0 2.73 252 05:48 15.04.2020
4697 Clouds 0 1024 90 0 2.73 252 04:47 15.04.2020
4698 Clouds 0 1024 89 0 0.45 0 04:22 15.04.2020
4699 Clouds 1 1024 88 0 2.54 256 03:22 15.04.2020
4700 Clouds 1 1024 86 0 0.45 0 02:49 15.04.2020
4701 Clouds 1 1024 86 0 0.45 0 01:52 15.04.2020
4702 Clouds 1 1024 85 0 0.89 0 01:25 15.04.2020
4703 Clouds 1 1025 84 0 0.45 0 00:49 15.04.2020
4704 Clouds 1 1025 83 0 0.45 0 00:27 15.04.2020
4705 Clouds 1 1024 82 0 0.45 0 23:56 14.04.2020
4706 Clouds 1 1024 81 0 2.37 270 23:38 14.04.2020
4707 Clouds 2 1024 81 0 2.37 270 23:20 14.04.2020
4708 Clouds 2 1024 80 0 0.45 0 22:56 14.04.2020
4709 Clouds 2 1024 78 0 0.45 0 22:38 14.04.2020
4710 Clouds 2 1025 75 0 0.45 0 22:20 14.04.2020
4711 Clouds 2 1025 75 0 0.45 0 22:20 14.04.2020
4712 Clouds 3 1025 71 0 0.45 0 21:56 14.04.2020
4713 Clouds 3 1025 71 0 0.45 0 21:56 14.04.2020
4714 Clouds 3 1025 70 0 2.37 270 21:38 14.04.2020
4715 Clouds 5 1021 64 0 3.31 302 21:19 14.04.2020
4716 Clouds 5 1024 60 0 3.31 302 20:57 14.04.2020
4717 Clouds 6 1024 60 0 0.89 270 20:38 14.04.2020
4718 Clouds 6 1024 60 0 0.89 270 20:38 14.04.2020
4719 Clouds 6 1024 60 0 0.89 270 20:38 14.04.2020
4720 Clouds 6 1024 59 0 0.45 315 20:19 14.04.2020
4721 Clouds 8 1024 39 10000 5.1 300 19:41 14.04.2020
4722 Clouds 8 1024 39 10000 5.1 300 19:22 14.04.2020
4723 Clouds 8 1024 39 10000 5.1 300 18:58 14.04.2020
4724 Clouds 8 1024 39 10000 5.1 300 18:39 14.04.2020
4725 Clouds 8 1023 36 10000 6.2 310 18:21 14.04.2020
4726 Clouds 9 1023 39 10000 5.1 310 17:58 14.04.2020
4727 Clouds 9 1023 39 10000 5.1 310 17:38 14.04.2020
4728 Clouds 9 1023 39 10000 5.7 300 17:19 14.04.2020
4729 Clouds 9 1023 39 10000 5.7 300 16:56 14.04.2020
4730 Clouds 9 1023 39 10000 5.7 300 16:37 14.04.2020
4731 Clouds 9 1023 42 10000 6.2 300 16:19 14.04.2020
4732 Clouds 9 1024 42 10000 6.2 300 15:55 14.04.2020
4733 Clouds 9 1024 42 10000 6.2 300 15:37 14.04.2020
4734 Clouds 9 1024 37 10000 5.7 270 15:18 14.04.2020
4735 Clouds 9 1024 36 10000 5.7 300 14:55 14.04.2020
4736 Clouds 8 1024 36 10000 5.7 300 14:37 14.04.2020
4737 Clouds 8 1024 36 10000 5.7 300 14:37 14.04.2020
4738 Clouds 9 1024 31 10000 4.6 290 14:19 14.04.2020
4739 Clouds 9 1024 31 10000 4.6 290 14:19 14.04.2020
4740 Clouds 8 1023 27 10000 5.1 280 13:40 14.04.2020
4741 Clouds 8 1024 26 10000 5.1 310 13:22 14.04.2020
4742 Clouds 8 1024 29 10000 5.1 310 12:54 14.04.2020
4743 Clouds 7 1024 29 10000 5.1 310 12:36 14.04.2020
4744 Clear 7 1024 31 10000 4.6 320 12:18 14.04.2020
4745 Clouds 6 1024 39 10000 4.1 310 11:40 14.04.2020
4746 Clouds 6 1024 39 10000 5.1 310 11:20 14.04.2020
4747 Clouds 6 1024 56 10000 4.1 330 10:47 14.04.2020
4748 Clouds 6 1024 60 10000 4.1 320 10:28 14.04.2020
4749 Clouds 5 1023 65 10000 4.6 310 09:59 14.04.2020
4750 Clouds 4 1023 65 10000 4.6 310 09:40 14.04.2020
4751 Clouds 3 1023 69 10000 4.6 300 09:22 14.04.2020
4752 Clouds -3 1023 83 0 3.71 299 08:44 14.04.2020
4753 Clouds -3 1023 83 0 3.71 299 08:25 14.04.2020
4754 Clouds 2 1022 82 0 0.89 0 07:59 14.04.2020
4755 Clouds 1 1022 83 0 1.79 45 07:41 14.04.2020
4756 Clouds 1 1022 83 0 0.89 338 07:22 14.04.2020
4757 Clouds 1 1021 81 0 1.34 315 06:45 14.04.2020
4758 Snow 1 1021 81 0 1.79 315 05:40 14.04.2020
4759 Snow 3 1019 74 0 5.24 300 03:27 14.04.2020
4760 Snow 3 1017 73 0 5.24 298 02:33 14.04.2020
4761 Snow 2 1020 70 0 0.89 270 01:27 14.04.2020
4762 Snow 2 1020 67 0 1.79 0 00:50 14.04.2020
4763 Clear 2 1020 65 0 2.68 225 00:24 14.04.2020
4764 Clear 3 1020 63 0 2.24 270 23:56 13.04.2020
4765 Clear 3 1020 62 0 1.34 315 23:37 13.04.2020
4766 Clear 3 1020 60 0 1.79 0 23:18 13.04.2020
4767 Clear 3 1020 57 0 1.79 0 22:42 13.04.2020
4768 Clear 3 1020 57 0 1.79 0 22:42 13.04.2020
4769 Clear 4 1016 51 0 0.89 285 22:22 13.04.2020
4770 Clear 4 1021 51 0 4.31 302 21:58 13.04.2020
4771 Clouds 4 1021 51 0 5.04 306 21:39 13.04.2020
4772 Clear 5 1021 47 0 5.37 313 21:20 13.04.2020
4773 Clear 5 1018 43 0 0.45 90 20:56 13.04.2020
4774 Clear 5 1019 49 0 4.92 315 20:38 13.04.2020
4775 Clear 5 1019 49 0 1.79 270 20:19 13.04.2020
4776 Clear 6 1019 46 0 1.79 315 19:57 13.04.2020
4777 Clear 6 1019 43 0 1.79 45 19:36 13.04.2020
4778 Clear 7 1019 42 0 3.58 338 19:18 13.04.2020
4779 Clear 8 1019 42 0 2.68 0 18:54 13.04.2020
4780 Clear 8 1019 41 0 2.68 315 18:36 13.04.2020
4781 Clear 8 1019 42 0 1.79 315 18:18 13.04.2020
4782 Clear 8 1019 36 0 0.89 180 17:55 13.04.2020
4783 Clear 8 1019 43 0 2.68 0 17:36 13.04.2020
4784 Clear 8 1019 41 0 3.58 315 17:18 13.04.2020
4785 Clear 8 1019 35 0 3.13 315 16:55 13.04.2020
4786 Clear 8 1019 35 0 3.13 315 16:55 13.04.2020
4787 Clear 8 1019 37 0 1.79 315 16:36 13.04.2020
4788 Clear 8 1019 44 0 5.81 338 16:18 13.04.2020
4789 Clear 8 1019 40 0 2.24 0 15:44 13.04.2020
4790 Clouds 9 1018 38 0 4.92 0 15:26 13.04.2020
4791 Clouds 8 1019 46 0 4.92 0 14:57 13.04.2020
4792 Clouds 9 1019 44 0 6.71 45 14:39 13.04.2020
4793 Clouds 8 1019 50 0 2.68 315 14:20 13.04.2020
4794 Clouds 8 1019 51 0 3.58 0 13:56 13.04.2020
4795 Clouds 8 1019 50 0 3.58 0 13:38 13.04.2020
4796 Clouds 7 1019 51 0 1.79 0 13:19 13.04.2020
4797 Clouds 7 1018 53 0 0.89 45 12:57 13.04.2020
4798 Clouds 7 1018 55 0 2.24 315 12:39 13.04.2020
4799 Clouds 6 1018 58 0 1.79 0 12:19 13.04.2020
4800 Clouds 6 1018 63 0 1.79 315 11:44 13.04.2020
4801 Clouds 6 1018 65 0 3.13 270 11:19 13.04.2020
4802 Clouds 6 1018 65 0 3.13 270 11:19 13.04.2020
4803 Clouds 6 1016 65 0 0.45 90 10:57 13.04.2020
4804 Clouds 6 1018 68 0 6.1 328 10:39 13.04.2020
4805 Clouds 6 1017 71 0 6.1 328 10:20 13.04.2020
4806 Clouds 6 1017 74 0 6.1 328 09:58 13.04.2020
4807 Clouds 5 1017 89 0 3.13 0 09:39 13.04.2020
4808 Rain 6 1010 84 0 5.84 326 09:21 13.04.2020
4809 Rain 6 1016 94 0 2.68 315 08:45 13.04.2020
4810 Rain 7 1014 79 0 0.45 90 08:26 13.04.2020
4811 Rain 7 1009 77 0 5.84 326 07:44 13.04.2020
4812 Rain 7 1015 84 0 4.02 0 07:26 13.04.2020
4813 Rain 7 1014 87 0 4.02 0 06:56 13.04.2020
4814 Rain 7 1014 87 0 1.34 90 06:37 13.04.2020
4815 Rain 9 1014 76 0 2.68 45 05:40 13.04.2020
4816 Rain 10 1013 74 0 1.79 45 05:19 13.04.2020
4817 Rain 9 1013 93 0 0.89 45 04:31 13.04.2020
4818 Rain 8 1013 91 0 0.45 45 03:54 13.04.2020
4819 Rain 8 1013 91 0 0.89 45 03:34 13.04.2020
4820 Rain 9 1007 67 0 1.41 284 02:41 13.04.2020
4821 Rain 10 1010 71 0 1.41 284 01:46 13.04.2020
4822 Rain 10 1010 70 0 1.41 284 01:27 13.04.2020
4823 Rain 9 1014 82 0 0.89 0 00:48 13.04.2020
4824 Clear 11 1012 61 0 1.12 209 00:24 13.04.2020
4825 Clear 11 1010 64 0 1.12 209 23:56 12.04.2020
4826 Clear 11 1008 62 0 1.12 209 23:38 12.04.2020
4827 Clear 11 1012 54 0 1.12 209 23:19 12.04.2020
4828 Clear 11 1008 61 0 1.12 209 22:54 12.04.2020
4829 Clear 11 1011 54 0 1.12 209 22:36 12.04.2020
4830 Clear 11 1008 60 0 1.12 209 22:18 12.04.2020
4831 Clear 12 1014 70 0 0.89 0 21:37 12.04.2020
4832 Rain 14 1008 60 0 0.79 221 21:19 12.04.2020
4833 Rain 13 1014 62 0 0.89 0 20:43 12.04.2020
4834 Rain 16 1014 52 0 0.45 0 20:23 12.04.2020
4835 Rain 18 1014 40 0 0.45 270 19:59 12.04.2020
4836 Rain 18 1008 40 0 0.45 311 19:40 12.04.2020
4837 Rain 19 1009 49 0 0.79 221 19:19 12.04.2020
4838 Rain 21 1012 42 0 0.79 221 18:57 12.04.2020
4839 Rain 20 1012 38 0 0.79 221 18:39 12.04.2020
4840 Rain 21 1015 34 0 0.89 45 18:19 12.04.2020
4841 Rain 21 1015 33 0 4.47 315 17:54 12.04.2020
4842 Rain 20 1015 33 0 3.13 225 17:36 12.04.2020
4843 Rain 21 1015 35 0 3.58 225 17:18 12.04.2020
4844 Rain 21 1016 32 0 4.02 225 16:41 12.04.2020
4845 Rain 22 1016 34 0 3.58 315 16:20 12.04.2020
4846 Rain 21 1016 36 0 2.24 292 15:52 12.04.2020
4847 Rain 21 1016 37 0 3.58 225 15:31 12.04.2020
4848 Clear 21 1016 39 0 1.79 225 14:57 12.04.2020
4849 Clear 20 1016 39 0 4.92 225 14:39 12.04.2020
4850 Clear 20 1017 39 0 4.92 225 14:20 12.04.2020
4851 Clear 20 1017 37 0 5.81 225 13:55 12.04.2020
4852 Clear 20 1017 35 0 7.15 225 13:36 12.04.2020
4853 Clear 20 1017 35 0 4.92 225 13:18 12.04.2020
4854 Clear 20 1017 34 0 4.02 225 12:45 12.04.2020
4855 Clear 18 1017 34 0 4.02 180 12:21 12.04.2020
4856 Clear 18 1018 36 0 5.36 180 11:57 12.04.2020
4857 Clear 17 1018 37 0 4.92 225 11:37 12.04.2020
4858 Clear 16 1018 34 0 4.92 225 11:18 12.04.2020
4859 Clear 17 1018 33 0 4.92 180 10:55 12.04.2020
4860 Clear 16 1018 32 0 3.58 180 10:37 12.04.2020
4861 Clear 15 1019 32 0 3.58 225 10:18 12.04.2020
4862 Clear 14 1019 33 0 2.68 180 09:54 12.04.2020
4863 Clear 13 1019 32 0 4.47 225 09:36 12.04.2020
4864 Clear 10 1018 59 0 1.53 208 09:18 12.04.2020
4865 Clear 10 1018 59 0 1.53 208 09:18 12.04.2020
4866 Clear 9 1016 54 0 0.89 270 08:46 12.04.2020
4867 Clear 9 1019 48 0 1.79 225 08:27 12.04.2020
4868 Clear 7 1020 72 0 1.53 208 07:45 12.04.2020
4869 Clear 7 1020 86 0 0.45 0 07:19 12.04.2020
4870 Clear 6 1016 64 0 0.45 270 06:36 12.04.2020
4871 Clouds 6 1016 63 0 1.39 189 05:58 12.04.2020
4872 Clouds 6 1017 62 0 1.39 189 05:37 12.04.2020
4873 Clouds 7 1018 54 0 1.39 189 03:45 12.04.2020
4874 Clouds 7 1018 53 0 0.89 292 03:25 12.04.2020
4875 Clouds 7 1018 51 0 1.14 164 02:35 12.04.2020
4876 Clouds 6 1018 51 0 1.12 171 01:53 12.04.2020
4877 Clouds 7 1018 50 0 1.12 171 01:19 12.04.2020
4878 Clouds 7 1022 58 0 1.12 171 00:42 12.04.2020
4879 Clouds 7 1019 50 0 1.61 148 00:20 12.04.2020
4880 Clouds 7 1020 54 0 1.61 148 23:47 11.04.2020
4881 Clouds 8 1020 53 0 0.45 270 23:26 11.04.2020
4882 Clouds 8 1019 50 0 1.61 148 22:55 11.04.2020
4883 Clouds 8 1023 72 0 0.89 45 22:36 11.04.2020
4884 Clouds 9 1020 59 0 1.61 148 22:18 11.04.2020
4885 Clouds 8 1024 70 0 0.89 0 21:54 11.04.2020
4886 Clouds 9 1024 70 0 0.89 0 21:36 11.04.2020
4887 Clouds 10 1024 67 0 0.45 45 21:18 11.04.2020
4888 Clouds 10 1024 67 0 0.45 45 21:18 11.04.2020
4889 Clouds 10 1024 60 0 2.19 108 20:54 11.04.2020
4890 Clouds 11 1024 57 0 0.45 0 20:36 11.04.2020
4891 Clouds 12 1024 49 0 2.19 108 20:18 11.04.2020
4892 Clouds 14 1024 40 0 0.45 135 19:54 11.04.2020
4893 Clouds 15 1024 34 0 2.68 225 19:36 11.04.2020
4894 Clouds 16 1024 34 0 2.24 225 19:18 11.04.2020
4895 Clouds 16 1024 33 0 2.24 225 18:54 11.04.2020
4896 Clouds 16 1024 33 0 2.24 225 18:54 11.04.2020
4897 Clouds 16 1024 33 0 2.68 225 18:36 11.04.2020
4898 Clouds 17 1024 33 0 2.68 225 18:18 11.04.2020
4899 Clouds 17 1024 32 0 3.13 202 17:55 11.04.2020
4900 Clouds 17 1025 32 0 2.24 225 17:36 11.04.2020
4901 Clouds 17 1025 31 0 1.79 225 17:18 11.04.2020
4902 Clouds 17 1025 31 0 4.02 225 16:41 11.04.2020
4903 Clouds 17 1025 32 0 4.92 225 16:21 11.04.2020
4904 Clouds 17 1025 32 0 1.79 225 15:40 11.04.2020
4905 Clouds 17 1025 32 0 1.79 225 15:40 11.04.2020
4906 Clouds 16 1026 32 0 1.34 180 15:20 11.04.2020
4907 Clouds 16 1026 33 0 0.89 135 14:57 11.04.2020
4908 Clouds 16 1026 33 0 1.34 180 14:39 11.04.2020
4909 Clouds 15 1026 34 0 4.47 225 14:20 11.04.2020
4910 Clouds 15 1026 35 0 3.58 225 13:41 11.04.2020
4911 Clouds 15 1027 36 0 4.47 225 13:23 11.04.2020
4912 Clouds 14 1027 36 0 3.13 180 12:57 11.04.2020
4913 Clouds 14 1027 36 0 4.92 225 12:37 11.04.2020
4914 Clouds 13 1027 37 0 4.47 225 12:18 11.04.2020
4915 Clouds 12 1027 38 0 1.34 270 11:41 11.04.2020
4916 Clouds 12 1027 36 0 3.13 270 11:20 11.04.2020
4917 Clouds 12 1027 40 0 1.79 270 10:56 11.04.2020
4918 Clouds 11 1027 41 0 1.79 225 10:37 11.04.2020
4919 Clouds 11 1027 41 0 3.13 225 10:18 11.04.2020
4920 Clouds 10 1027 42 0 2.68 225 09:55 11.04.2020
4921 Clouds 9 1027 35 0 2.68 180 09:37 11.04.2020
4922 Clouds 7 1024 55 0 1.39 110 09:18 11.04.2020
4923 Clouds 5 1028 78 0 1.39 110 08:42 11.04.2020
4924 Clouds 6 1027 66 0 1.39 110 08:23 11.04.2020
4925 Clouds 4 1027 85 0 0.45 0 07:43 11.04.2020
4926 Clouds 3 1026 90 0 1.39 110 07:24 11.04.2020
4927 Clouds 2 1023 70 0 1.39 110 06:37 11.04.2020
4928 Clouds 2 1027 76 0 1.01 110 05:58 11.04.2020
4929 Clouds 2 1024 84 0 1.01 110 04:31 11.04.2020
4930 Clouds 3 1024 82 0 1.01 110 03:30 11.04.2020
4931 Clouds 4 1026 74 0 0.89 45 01:41 11.04.2020
4932 Clouds 4 1026 70 0 0.89 45 01:18 11.04.2020
4933 Clouds 5 1026 64 0 0.89 0 00:42 11.04.2020
4934 Clouds 5 1026 61 0 0.89 0 00:18 11.04.2020
4935 Clouds 6 1026 60 0 0.89 45 23:54 10.04.2020
4936 Clouds 6 1026 57 0 1.79 45 23:36 10.04.2020
4937 Clouds 6 1026 55 0 2.24 45 23:18 10.04.2020
4938 Clouds 6 1026 60 0 1.79 45 22:42 10.04.2020
4939 Clouds 6 1026 59 0 0.89 45 22:20 10.04.2020
4940 Clouds 7 1026 57 0 0.89 45 21:42 10.04.2020
4941 Clouds 8 1026 60 0 0.89 45 21:22 10.04.2020
4942 Clouds 8 1026 60 0 0.89 45 20:59 10.04.2020
4943 Clouds 9 1021 42 0 1.92 322 20:41 10.04.2020
4944 Clouds 10 1021 41 0 1.92 322 20:23 10.04.2020
4945 Clouds 11 1026 37 0 0.89 45 19:57 10.04.2020
4946 Clouds 12 1026 33 0 0.89 45 19:39 10.04.2020
4947 Clouds 13 1026 30 0 0.89 45 19:19 10.04.2020
4948 Clouds 14 1023 36 0 1.92 322 18:56 10.04.2020
4949 Clouds 14 1025 35 0 1.92 322 18:38 10.04.2020
4950 Clouds 14 1025 35 0 1.92 322 18:38 10.04.2020
4951 Clouds 15 1025 24 0 1.79 90 18:20 10.04.2020
4952 Clouds 15 1023 33 0 3.45 327 17:58 10.04.2020
4953 Clouds 15 1020 24 0 3.45 327 17:39 10.04.2020
4954 Clouds 15 1025 35 0 3.45 327 17:19 10.04.2020
4955 Clouds 15 1026 22 0 2.24 0 16:55 10.04.2020
4956 Clouds 15 1026 24 0 1.34 315 16:36 10.04.2020
4957 Clouds 15 1026 24 0 1.79 45 16:18 10.04.2020
4958 Clouds 15 1026 31 0 2.68 315 15:54 10.04.2020
4959 Clouds 15 1026 31 0 1.79 338 15:36 10.04.2020
4960 Clouds 15 1026 31 0 1.34 315 15:18 10.04.2020
4961 Clouds 15 1026 30 0 2.68 22 14:54 10.04.2020
4962 Clouds 15 1024 44 0 0.45 90 14:36 10.04.2020
4963 Clouds 15 1026 48 0 3.16 318 14:18 10.04.2020
4964 Clouds 14 1021 55 0 3.16 318 13:42 10.04.2020
4965 Clouds 15 1027 40 0 3.58 0 13:21 10.04.2020
4966 Clouds 14 1027 45 0 2.68 90 12:43 10.04.2020
4967 Clouds 14 1027 51 0 1.79 135 12:23 10.04.2020
4968 Clouds 13 1027 57 0 2.68 225 11:56 10.04.2020
4969 Clouds 13 1027 57 0 2.68 225 11:38 10.04.2020
4970 Clouds 12 1022 68 0 1.63 330 11:20 10.04.2020
4971 Clouds 11 1025 87 0 0.45 40 10:44 10.04.2020
4972 Clouds 11 1022 73 0 1.63 330 10:23 10.04.2020
4973 Clouds 9 1025 78 0 1.63 330 09:57 10.04.2020
4974 Clouds 9 1027 84 0 1.89 322 09:38 10.04.2020
4975 Clouds 7 1027 85 0 1.22 296 09:20 10.04.2020
4976 Clouds 6 1027 99 0 1.22 296 08:43 10.04.2020
4977 Clouds 5 1027 99 0 1.22 296 08:24 10.04.2020
4978 Clouds 4 1027 99 0 1.22 296 07:45 10.04.2020
4979 Clouds 4 1027 98 0 0.45 0 07:24 10.04.2020
4980 Clouds 4 1027 97 0 1.22 296 06:49 10.04.2020
4981 Clouds 5 1027 88 0 0.89 313 06:28 10.04.2020
4982 Clouds 5 1027 87 0 0.89 313 05:42 10.04.2020
4983 Clouds 5 1026 93 0 0.45 0 04:58 10.04.2020
4984 Clouds 7 1027 81 0 0.89 313 03:51 10.04.2020
4985 Clouds 7 1024 82 0 0.89 313 03:32 10.04.2020
4986 Clouds 7 1027 93 0 0.89 0 02:49 10.04.2020
4987 Clouds 7 1027 92 0 0.45 45 02:30 10.04.2020
4988 Clouds 8 1027 86 0 0.89 0 01:30 10.04.2020
4989 Clouds 9 1027 87 0 0.45 0 00:52 10.04.2020
4990 Clouds 9 1027 86 0 0.45 0 00:25 10.04.2020
4991 Clouds 9 1027 88 0 0.89 45 23:56 09.04.2020
4992 Clouds 10 1027 70 0 0.87 8 23:38 09.04.2020
4993 Clouds 11 1022 64 0 0.87 8 23:20 09.04.2020
4994 Clouds 10 1027 82 0 0.89 90 22:42 09.04.2020
4995 Clouds 10 1027 82 0 0.45 0 22:23 09.04.2020
4996 Clouds 10 1027 80 0 0.45 0 21:56 09.04.2020
4997 Clouds 11 1027 71 0 0.45 45 21:37 09.04.2020
4998 Clear 12 1027 68 0 0.45 45 21:19 09.04.2020
4999 Clear 14 1023 58 0 2.57 337 20:44 09.04.2020
5000 Clear 14 1026 62 0 0.89 0 20:21 09.04.2020
5001 Clear 15 1026 51 0 0.89 0 19:58 09.04.2020
5002 Clear 16 1024 39 10000 4.6 330 19:37 09.04.2020
5003 Clear 17 1024 39 10000 4.6 330 19:18 09.04.2020
5004 Clear 17 1024 39 10000 4.6 330 19:18 09.04.2020
5005 Clear 18 1024 39 10000 4.1 340 18:42 09.04.2020
5006 Clear 18 1024 36 10000 3.6 340 18:20 09.04.2020
5007 Clear 18 1024 34 10000 3.6 350 17:42 09.04.2020
5008 Clear 18 1024 37 10000 3.6 340 17:24 09.04.2020
5009 Clear 18 1025 37 0 2.24 0 16:56 09.04.2020
5010 Clear 18 1026 37 0 2.68 0 16:38 09.04.2020
5011 Clear 19 1024 34 10000 3.6 310 16:19 09.04.2020
5012 Clear 19 1024 34 10000 3.6 310 15:55 09.04.2020
5013 Clear 18 1024 34 10000 3.6 310 15:37 09.04.2020
5014 Clouds 19 1024 34 10000 3.6 310 15:18 09.04.2020
5015 Clouds 19 1024 34 10000 3.6 310 15:18 09.04.2020
5016 Clouds 18 1024 36 10000 2.6 0 14:41 09.04.2020
5017 Clouds 18 1024 36 10000 3.6 320 14:21 09.04.2020
5018 Clouds 18 1025 36 10000 5.7 300 13:54 09.04.2020
5019 Clouds 17 1025 36 10000 5.7 300 13:36 09.04.2020
5020 Clouds 17 1025 39 10000 3.6 320 13:18 09.04.2020
5021 Clouds 17 1025 41 10000 2.6 360 12:42 09.04.2020
5022 Clouds 15 1025 41 10000 2.6 360 12:23 09.04.2020
5023 Clouds 15 1025 47 10000 3.6 340 11:58 09.04.2020
5024 Clouds 15 1025 47 10000 3.6 340 11:38 09.04.2020
5025 Clouds 15 1025 47 10000 3.1 350 11:20 09.04.2020
5026 Clouds 14 1025 47 10000 2.1 340 10:57 09.04.2020
5027 Clouds 14 1025 47 10000 2.1 340 10:38 09.04.2020
5028 Clouds 13 1025 54 10000 1.5 0 10:19 09.04.2020
5029 Clouds 13 1025 53 0 2.68 45 09:55 09.04.2020
5030 Clouds 12 1025 53 0 2.68 45 09:37 09.04.2020
5031 Clouds 12 1025 54 0 3.13 45 09:19 09.04.2020
5032 Clouds 11 1025 61 0 2.24 45 08:43 09.04.2020
5033 Clouds 10 1024 63 0 2.68 45 08:23 09.04.2020
5034 Clouds 9 1024 70 0 1.79 45 07:53 09.04.2020
5035 Clouds 9 1024 75 0 0.89 45 07:24 09.04.2020
5036 Clouds 10 1021 76 0 1.65 284 06:51 09.04.2020
5037 Clouds 10 1024 63 0 1.65 281 05:59 09.04.2020
5038 Clouds 10 1018 53 0 1.65 281 05:38 09.04.2020
5039 Clouds 10 1018 55 0 1.65 281 03:36 09.04.2020
5040 Clouds 11 1018 51 0 1.74 249 02:21 09.04.2020
5041 Clouds 11 1019 52 0 1.74 249 01:40 09.04.2020
5042 Clouds 11 1023 63 0 1.74 249 01:20 09.04.2020
5043 Clouds 11 1019 50 0 1.74 249 00:40 09.04.2020
5044 Clear 12 1021 61 0 1.52 192 00:19 09.04.2020
5045 Clear 11 1019 48 0 1.52 192 00:19 09.04.2020
5046 Clear 12 1021 58 0 1.52 192 23:56 08.04.2020
5047 Clear 12 1021 55 0 1.52 192 23:37 08.04.2020
5048 Clear 12 1019 45 0 1.52 192 23:19 08.04.2020
5049 Clear 13 1019 45 0 1.52 192 22:42 08.04.2020
5050 Clear 14 1023 47 0 1.52 192 22:24 08.04.2020
5051 Clear 14 1021 49 0 1.52 192 21:56 08.04.2020
5052 Clear 15 1019 44 0 1.3 206 21:37 08.04.2020
5053 Clear 15 1019 44 0 1.3 206 21:37 08.04.2020
5054 Clouds 14 1019 45 0 1.48 144 21:19 08.04.2020
5055 Clouds 15 1021 47 0 1.48 144 20:56 08.04.2020
5056 Clouds 14 1025 63 0 0.45 0 20:38 08.04.2020
5057 Clouds 16 1024 54 0 0.45 0 20:19 08.04.2020
5058 Clouds 18 1024 34 0 0.45 0 19:41 08.04.2020
5059 Clouds 20 1024 31 0 0.89 45 19:22 08.04.2020
5060 Clouds 21 1023 27 10000 2.1 0 18:56 08.04.2020
5061 Clouds 21 1023 27 10000 2.1 0 18:38 08.04.2020
5062 Clouds 22 1023 27 10000 2.1 0 18:19 08.04.2020
5063 Clouds 22 1023 26 10000 2.1 170 17:42 08.04.2020
5064 Clouds 22 1023 27 10000 1.5 0 17:22 08.04.2020
5065 Clouds 22 1023 27 10000 1.5 0 16:57 08.04.2020
5066 Clouds 22 1024 25 10000 2.6 140 16:39 08.04.2020
5067 Clouds 22 1024 25 10000 2.6 140 16:20 08.04.2020
5068 Clouds 22 1024 26 10000 2.6 0 15:39 08.04.2020
5069 Clear 22 1024 26 10000 2.6 0 15:21 08.04.2020
5070 Clear 21 1025 26 10000 3.1 210 14:59 08.04.2020
5071 Clear 21 1025 26 10000 3.1 210 14:40 08.04.2020
5072 Clear 21 1025 35 10000 2.6 190 14:22 08.04.2020
5073 Clear 21 1026 43 10000 2.6 120 13:44 08.04.2020
5074 Clear 21 1026 43 10000 2.6 120 13:44 08.04.2020
5075 Clear 21 1026 43 10000 2.6 120 13:21 08.04.2020
5076 Clear 21 1026 43 10000 2.6 120 13:21 08.04.2020
5077 Clear 20 1026 45 10000 2.1 130 12:58 08.04.2020
5078 Clear 20 1026 45 10000 2.1 130 12:39 08.04.2020
5079 Clear 19 1027 48 10000 2.1 120 12:18 08.04.2020
5080 Clear 18 1027 51 10000 3.1 120 11:42 08.04.2020
5081 Clear 17 1027 55 10000 2.1 130 11:23 08.04.2020
5082 Clear 17 1027 54 10000 2.1 120 10:59 08.04.2020
5083 Clear 17 1027 54 10000 2.1 120 10:41 08.04.2020
5084 Clear 15 1027 58 10000 2.6 110 10:21 08.04.2020
5085 Clear 14 1028 58 10000 2.6 110 09:59 08.04.2020
5086 Clear 13 1028 58 10000 2.6 110 09:41 08.04.2020
5087 Clear 11 1028 62 10000 2.6 120 09:19 08.04.2020
5088 Clear 11 1028 66 10000 2.1 90 08:58 08.04.2020
5089 Clear 10 1028 66 10000 2.1 90 08:39 08.04.2020
5090 Clear 10 1028 70 10000 2.6 100 08:20 08.04.2020
5091 Clear 9 1028 82 0 1.92 115 07:43 08.04.2020
5092 Clear 8 1025 83 0 1.92 115 07:21 08.04.2020
5093 Clear 8 1025 82 0 1.92 115 06:32 08.04.2020
5094 Clear 9 1029 80 0 2.45 110 04:59 08.04.2020
5095 Clear 9 1030 64 0 2.68 90 02:51 08.04.2020
5096 Clear 10 1027 67 0 2.72 101 02:22 08.04.2020
5097 Clear 10 1028 73 0 2.72 101 01:56 08.04.2020
5098 Clear 11 1030 76 0 2.72 101 01:28 08.04.2020
5099 Clear 11 1028 67 0 2.72 101 00:47 08.04.2020
5100 Clear 11 1031 66 0 2.68 90 00:26 08.04.2020
5101 Clear 12 1031 65 0 1.34 45 23:57 07.04.2020
5102 Clear 12 1031 66 0 2.24 45 23:37 07.04.2020
5103 Clear 12 1031 67 0 1.79 90 23:18 07.04.2020
5104 Clear 12 1031 70 0 1.79 45 22:55 07.04.2020
5105 Clear 12 1031 71 0 1.34 45 22:37 07.04.2020
5106 Clear 12 1032 72 0 1.34 45 22:18 07.04.2020
5107 Clear 12 1032 72 0 1.79 45 21:42 07.04.2020
5108 Clouds 13 1032 71 0 0.89 45 21:21 07.04.2020
5109 Clouds 13 1032 71 0 1.79 90 20:59 07.04.2020
5110 Clouds 14 1031 71 0 0.89 90 20:40 07.04.2020
5111 Clouds 15 1027 64 0 2.85 80 20:21 07.04.2020
5112 Clouds 16 1028 56 0 1.34 90 19:57 07.04.2020
5113 Clouds 16 1030 61 0 2.85 80 19:38 07.04.2020
5114 Clouds 16 1030 61 0 2.85 80 19:38 07.04.2020
5115 Clouds 17 1026 63 0 2.85 80 19:20 07.04.2020
5116 Clouds 18 1030 59 0 2.85 80 18:58 07.04.2020
5117 Clouds 18 1031 61 0 1.79 45 18:40 07.04.2020
5118 Clouds 18 1030 56 0 2.99 72 18:21 07.04.2020
5119 Clouds 17 1032 60 0 3.58 45 17:47 07.04.2020
5120 Clouds 17 1032 60 0 2.24 90 17:24 07.04.2020
5121 Clouds 18 1032 52 0 3.13 45 16:58 07.04.2020
5122 Clouds 18 1032 49 0 2.24 45 16:40 07.04.2020
5123 Clouds 18 1032 39 10000 1.5 0 16:22 07.04.2020
5124 Clouds 18 1032 39 10000 1.5 0 16:22 07.04.2020
5125 Clouds 18 1032 39 10000 1.5 0 15:44 07.04.2020
5126 Clouds 17 1032 39 10000 1.5 0 15:26 07.04.2020
5127 Clouds 17 1032 39 10000 2.1 0 14:55 07.04.2020
5128 Clouds 17 1032 39 10000 2.1 0 14:37 07.04.2020
5129 Clouds 17 1032 39 10000 2.6 0 14:18 07.04.2020
5130 Clouds 17 1032 45 10000 3.1 0 13:42 07.04.2020
5131 Clouds 17 1032 45 10000 2.6 0 13:19 07.04.2020
5132 Clouds 16 1032 48 10000 2.6 0 12:57 07.04.2020
5133 Clouds 16 1032 48 10000 2.6 0 12:37 07.04.2020
5134 Clouds 15 1032 48 10000 2.6 10 12:19 07.04.2020
5135 Clouds 14 1032 58 10000 2.6 360 11:56 07.04.2020
5136 Clouds 14 1032 58 10000 2.6 360 11:38 07.04.2020
5137 Clouds 14 1031 71 10000 2.6 340 11:19 07.04.2020
5138 Clouds 13 1031 71 10000 2.6 340 10:39 07.04.2020
5139 Clouds 13 1031 76 10000 2.6 340 10:20 07.04.2020
5140 Clouds 11 1031 81 10000 3.1 310 09:54 07.04.2020
5141 Clouds 11 1031 81 10000 3.1 310 09:36 07.04.2020
5142 Clear 10 1031 92 0 2.24 45 09:18 07.04.2020
5143 Clear 10 1031 99 0 2.68 45 08:39 07.04.2020
5144 Clear 10 1031 99 0 0.89 45 08:20 07.04.2020
5145 Clear 9 1025 83 0 1.8 278 07:44 07.04.2020
5146 Clear 9 1025 83 0 1.8 278 07:44 07.04.2020
5147 Clear 9 1025 83 0 1.8 278 07:44 07.04.2020
5148 Clear 8 1028 84 0 1.8 278 07:26 07.04.2020
5149 Clear 8 1024 79 0 1.8 278 06:52 07.04.2020
5150 Clear 8 1027 87 0 1.97 265 06:26 07.04.2020
5151 Clear 8 1027 85 0 1.97 265 05:56 07.04.2020
5152 Clear 7 1029 92 0 0.89 0 05:26 07.04.2020
5153 Clear 8 1029 84 0 0.45 0 04:18 07.04.2020
5154 Clear 10 1027 65 0 2.33 234 03:21 07.04.2020
5155 Clear 10 1025 66 0 2.33 234 02:46 07.04.2020
5156 Clear 10 1026 62 0 2.72 229 01:40 07.04.2020
5157 Clear 9 1021 54 0 2.72 229 01:21 07.04.2020
5158 Clear 11 1022 57 0 2.78 215 00:26 07.04.2020
5159 Clear 11 1020 50 0 2.78 215 23:43 06.04.2020
5160 Clear 11 1022 51 0 2.78 215 23:22 06.04.2020
5161 Clear 11 1022 51 0 2.78 215 23:22 06.04.2020
5162 Clear 12 1022 50 0 2.78 215 22:55 06.04.2020
5163 Clear 12 1022 52 0 2.78 215 22:37 06.04.2020
5164 Clear 12 1021 51 0 2.78 215 22:18 06.04.2020
5165 Clear 12 1021 49 0 2.78 215 21:56 06.04.2020
5166 Clear 13 1021 46 0 2.78 215 21:37 06.04.2020
5167 Clear 13 1025 59 0 0.45 0 21:18 06.04.2020
5168 Clear 14 1025 51 0 0.89 45 20:41 06.04.2020
5169 Clear 15 1024 42 0 0.89 90 20:21 06.04.2020
5170 Clear 18 1024 35 0 0.89 225 19:58 06.04.2020
5171 Clear 19 1024 30 0 2.68 225 19:39 06.04.2020
5172 Clear 20 1024 30 0 3.58 225 19:20 06.04.2020
5173 Clear 21 1024 26 0 5.36 225 18:45 06.04.2020
5174 Clear 21 1023 24 0 4.47 225 18:24 06.04.2020
5175 Clear 21 1023 24 0 4.47 225 18:24 06.04.2020
5176 Clear 21 1023 23 0 4.47 225 17:59 06.04.2020
5177 Clear 20 1023 23 0 4.92 225 17:41 06.04.2020
5178 Clear 21 1023 23 0 4.92 225 17:19 06.04.2020
5179 Clear 21 1023 28 0 6.26 180 16:49 06.04.2020
5180 Clear 21 1023 28 0 6.26 180 16:49 06.04.2020
5181 Clear 21 1023 28 0 4.47 180 16:31 06.04.2020
5182 Clear 21 1021 26 10000 3.6 160 15:38 06.04.2020
5183 Clear 21 1021 26 10000 3.6 160 15:33 06.04.2020
5184 Clear 19 1021 32 10000 3.1 160 13:45 06.04.2020
5185 Clear 19 1021 32 10000 3.1 160 13:45 06.04.2020
5186 Clear 19 1021 32 10000 3.1 160 13:23 06.04.2020
5187 Clear 19 1021 31 10000 4.1 180 12:50 06.04.2020
5188 Clear 19 1021 31 10000 4.1 180 12:50 06.04.2020
5189 Clear 19 1021 31 10000 4.1 180 12:50 06.04.2020
5190 Clear 19 1021 31 10000 4.1 180 12:50 06.04.2020
5191 Clear 19 1021 31 10000 4.1 180 12:50 06.04.2020
5192 Clear 16 1021 33 10000 3.6 160 12:21 06.04.2020
5193 Clear 16 1021 33 10000 3.6 160 12:21 06.04.2020
5194 Clear 16 1021 33 10000 3.6 160 11:54 06.04.2020
5195 Clear 16 1021 33 10000 3.6 160 11:54 06.04.2020
5196 Clear 16 1021 33 10000 3.6 160 11:54 06.04.2020
5197 Clear 15 1021 43 10000 3.6 180 11:28 06.04.2020
5198 Clear 15 1021 43 10000 3.6 180 11:28 06.04.2020
5199 Clear 15 1021 43 10000 3.6 180 11:28 06.04.2020
5200 Clear 15 1021 43 10000 3.6 180 11:28 06.04.2020
5201 Clear 15 1021 43 10000 3.6 180 11:28 06.04.2020
5202 Clear 14 1021 43 10000 3.6 130 10:50 06.04.2020
5203 Clear 14 1021 43 10000 3.6 130 10:50 06.04.2020
5204 Clear 14 1021 43 10000 3.6 130 10:50 06.04.2020
5205 Clear 14 1021 43 10000 3.6 130 10:49 06.04.2020
5206 Clear 14 1021 43 10000 3.6 130 10:49 06.04.2020
5207 Clear 14 1021 43 10000 3.6 130 10:21 06.04.2020
5208 Clear 12 1021 43 10000 3.1 120 09:43 06.04.2020
5209 Clear 12 1021 43 10000 3.1 120 09:43 06.04.2020
5210 Clear 8 1021 53 10000 3.1 120 09:20 06.04.2020
5211 Clear 8 1021 53 10000 3.1 120 08:51 06.04.2020
5212 Clear 7 1021 65 10000 3.1 110 08:30 06.04.2020
5213 Clear 5 1021 69 10000 2.6 120 07:26 06.04.2020
5214 Clear 6 1022 39 0 1.79 180 06:40 06.04.2020
5215 Clear 6 1022 39 0 1.79 180 06:40 06.04.2020
5216 Clear 5 1019 54 0 1.77 128 06:18 06.04.2020
5217 Clear 6 1019 61 0 1.77 128 04:18 06.04.2020
5218 Clear 7 1019 56 0 2.63 122 02:56 06.04.2020
5219 Clear 8 1018 58 0 1.34 114 01:57 06.04.2020
5220 Clear 8 1019 65 0 0.89 108 01:23 06.04.2020
5221 Clear 8 1019 54 0 2.66 123 00:41 06.04.2020
5222 Clear 8 1022 39 0 3.13 180 00:21 06.04.2020
5223 Clear 9 1023 39 0 3.58 180 23:41 05.04.2020
5224 Clear 9 1023 40 0 4.47 90 23:21 05.04.2020
5225 Clear 10 1023 40 0 1.34 112 22:54 05.04.2020
5226 Clear 10 1023 40 0 1.34 112 22:54 05.04.2020
5227 Clear 10 1023 40 0 2.68 90 22:36 05.04.2020
5228 Clear 11 1023 40 0 1.79 180 22:18 05.04.2020
5229 Clear 11 1024 40 0 2.68 135 21:43 05.04.2020
5230 Clear 11 1024 40 0 2.68 135 21:43 05.04.2020
5231 Clear 11 1024 40 0 2.68 135 21:43 05.04.2020
5232 Clear 11 1023 40 0 1.79 90 21:23 05.04.2020
5233 Clear 12 1024 40 0 2.24 90 20:25 05.04.2020
5234 Clear 12 1024 40 0 2.24 90 20:25 05.04.2020
5235 Clear 13 1024 39 0 2.68 45 19:44 05.04.2020
5236 Clear 14 1024 32 0 3.13 135 19:25 05.04.2020
5237 Clear 15 1024 31 0 3.13 90 18:50 05.04.2020
5238 Clear 15 1024 31 0 3.13 90 18:50 05.04.2020
5239 Clear 15 1024 31 0 3.13 90 18:50 05.04.2020
5240 Clear 15 1024 31 0 3.13 90 18:50 05.04.2020
5241 Clear 15 1024 31 0 3.13 90 18:50 05.04.2020
5242 Clear 16 1024 31 0 2.68 45 18:24 05.04.2020
5243 Clear 16 1024 31 0 2.68 45 18:24 05.04.2020
5244 Clear 16 1024 31 0 2.68 45 18:24 05.04.2020
5245 Clear 16 1024 31 0 2.68 45 18:24 05.04.2020
5246 Clear 16 1024 31 0 2.68 45 18:24 05.04.2020
5247 Clear 16 1024 30 0 1.79 135 17:49 05.04.2020
5248 Clear 16 1024 30 0 1.79 135 17:49 05.04.2020
5249 Clear 16 1024 30 0 1.79 135 17:49 05.04.2020
5250 Clear 16 1024 30 0 1.79 135 17:49 05.04.2020
5251 Clear 16 1024 30 0 1.79 135 17:49 05.04.2020
5252 Clear 16 1024 30 0 3.58 112 17:22 05.04.2020
5253 Clear 16 1026 36 10000 7.2 120 16:47 05.04.2020
5254 Clear 16 1026 36 10000 7.2 120 16:19 05.04.2020
5255 Clear 16 1026 36 10000 7.2 120 15:46 05.04.2020
5256 Clear 16 1026 36 10000 7.2 120 15:46 05.04.2020
5257 Clear 16 1026 36 10000 7.2 120 15:28 05.04.2020
5258 Clear 16 1026 36 10000 6.7 130 14:48 05.04.2020
5259 Clear 16 1026 36 10000 6.7 130 14:48 05.04.2020
5260 Clear 16 1026 36 10000 6.7 130 14:48 05.04.2020
5261 Clear 16 1026 36 10000 6.7 130 14:48 05.04.2020
5262 Clear 15 1027 31 10000 7.2 140 13:59 05.04.2020
5263 Clear 15 1027 47 10000 7.2 130 13:40 05.04.2020
5264 Clear 15 1027 47 10000 7.2 130 13:40 05.04.2020
5265 Clear 15 1027 47 10000 7.2 130 13:40 05.04.2020
5266 Clear 14 1028 44 10000 4.6 130 12:21 05.04.2020
5267 Clear 13 1028 47 10000 5.1 100 11:40 05.04.2020
5268 Clear 12 1028 46 10000 4.6 110 11:20 05.04.2020
5269 Clear 11 1028 50 10000 4.1 100 10:47 05.04.2020
5270 Clear 11 1028 50 10000 4.1 100 10:23 05.04.2020
5271 Clear 10 1028 53 10000 4.6 100 09:55 05.04.2020
5272 Clear 9 1028 41 0 1.79 180 09:27 05.04.2020
5273 Clear 5 1028 72 0 2.61 118 08:34 05.04.2020
5274 Clear 5 1028 72 0 2.61 118 08:34 05.04.2020
5275 Clear 5 1028 72 0 2.61 118 08:34 05.04.2020
5276 Clear 3 1027 57 0 1.34 45 07:21 05.04.2020
5277 Clear 4 1027 57 0 1.34 90 04:32 05.04.2020
5278 Clear 4 1027 56 0 3.58 158 03:29 05.04.2020
5279 Clear 4 1027 55 0 1.79 90 02:46 05.04.2020
5280 Clear 4 1027 54 0 2.24 90 01:45 05.04.2020
5281 Clear 4 1027 53 0 2.68 90 01:23 05.04.2020
5282 Clear 4 1027 53 0 3.58 45 00:42 05.04.2020
5283 Clear 5 1027 53 0 1.79 135 00:21 05.04.2020
5284 Clear 5 1027 54 0 0.89 135 23:42 04.04.2020
5285 Clear 5 1027 54 0 0.89 135 23:42 04.04.2020
5286 Clear 5 1027 54 0 1.79 90 23:23 04.04.2020
5287 Clear 6 1027 54 0 1.79 90 22:57 04.04.2020
5288 Clear 6 1027 54 0 2.24 90 22:39 04.04.2020
5289 Clear 6 1027 54 0 1.34 90 22:21 04.04.2020
5290 Clear 6 1027 56 0 1.79 135 21:58 04.04.2020
5291 Clear 5 1027 58 0 0.89 90 21:39 04.04.2020
5292 Clear 6 1027 58 0 0.89 90 21:19 04.04.2020
5293 Clear 7 1027 58 0 0.89 45 20:58 04.04.2020
5294 Clear 7 1027 60 0 0.89 45 20:39 04.04.2020
5295 Clear 8 1026 58 0 0.89 45 20:20 04.04.2020
5296 Clear 9 1026 50 0 3.04 111 19:56 04.04.2020
5297 Clear 10 1026 40 0 3.04 111 19:36 04.04.2020
5298 Clear 10 1026 38 0 0.89 45 19:18 04.04.2020
5299 Clear 11 1026 36 0 0.45 90 18:55 04.04.2020
5300 Clear 12 1026 35 0 1.79 90 18:37 04.04.2020
5301 Clear 12 1026 35 0 0.89 45 18:18 04.04.2020
5302 Clear 12 1026 40 0 1.88 85 17:40 04.04.2020
5303 Clear 12 1026 39 0 0.89 45 17:20 04.04.2020
5304 Clear 13 1026 37 0 0.89 338 16:55 04.04.2020
5305 Clear 12 1026 34 10000 3.1 100 16:37 04.04.2020
5306 Clear 12 1026 34 10000 3.1 100 16:18 04.04.2020
5307 Clear 12 1026 34 10000 3.1 100 15:40 04.04.2020
5308 Clear 12 1026 34 10000 3.1 100 15:22 04.04.2020
5309 Clear 11 1026 34 10000 1.5 0 14:57 04.04.2020
5310 Clear 11 1026 40 10000 2.6 0 14:39 04.04.2020
5311 Clear 10 1026 40 10000 1 0 14:20 04.04.2020
5312 Clear 10 1026 40 10000 1 0 13:55 04.04.2020
5313 Clear 11 1025 37 10000 2.6 270 13:37 04.04.2020
5314 Clear 10 1026 37 10000 1.5 0 13:18 04.04.2020
5315 Clear 10 1026 46 10000 2.1 0 12:43 04.04.2020
5316 Clouds 10 1026 42 10000 2.1 270 12:23 04.04.2020
5317 Clouds 8 1026 42 10000 2.1 270 11:55 04.04.2020
5318 Clear 8 1026 49 10000 2.1 0 11:36 04.04.2020
5319 Clear 8 1025 52 10000 2.6 250 11:18 04.04.2020
5320 Clear 8 1025 52 10000 2.6 250 10:55 04.04.2020
5321 Clear 7 1025 49 10000 2.6 290 10:37 04.04.2020
5322 Clear 7 1025 56 10000 2.1 250 10:18 04.04.2020
5323 Clear 5 1024 61 0 0.89 180 09:44 04.04.2020
5324 Clear 5 1024 59 0 0.89 225 09:25 04.04.2020
5325 Clouds 4 1022 79 0 1.13 264 08:58 04.04.2020
5326 Clouds 3 1021 88 0 1.13 264 08:38 04.04.2020
5327 Clouds 2 1025 84 0 1.13 264 08:19 04.04.2020
5328 Clouds 2 1023 81 0 0.45 0 07:40 04.04.2020
5329 Clouds 1 1023 81 0 0.45 0 07:22 04.04.2020
5330 Clouds 1 1022 81 0 0.89 0 06:46 04.04.2020
5331 Clouds 2 1022 81 0 0.73 293 06:18 04.04.2020
5332 Clouds 2 1022 81 0 0.73 293 05:40 04.04.2020
5333 Clouds 2 1022 81 0 0.73 293 05:22 04.04.2020
5334 Clouds 2 1021 80 0 0.45 45 04:25 04.04.2020
5335 Clouds 2 1021 80 0 0.73 293 03:47 04.04.2020
5336 Clouds 3 1020 76 0 0.45 0 02:49 04.04.2020
5337 Rain 3 1020 75 0 1.69 306 02:30 04.04.2020
5338 Rain 4 1020 72 0 1.69 306 01:51 04.04.2020
5339 Rain 5 1020 71 0 1.79 225 01:22 04.04.2020
5340 Rain 5 1020 71 0 1.79 225 00:47 04.04.2020
5341 Rain 5 1020 70 0 1.34 225 00:27 04.04.2020
5342 Rain 6 1019 69 0 1.79 225 23:39 03.04.2020
5343 Rain 6 1019 69 0 1.79 225 23:39 03.04.2020
5344 Rain 6 1019 68 0 1.79 225 23:21 03.04.2020
5345 Rain 6 1019 68 0 1.34 225 22:56 03.04.2020
5346 Rain 5 1019 69 0 0.89 225 22:38 03.04.2020
5347 Rain 6 1016 69 0 0.94 271 22:18 03.04.2020
5348 Rain 6 1019 68 0 0.94 271 21:43 03.04.2020
5349 Rain 6 1015 71 0 0.94 271 21:23 03.04.2020
5350 Rain 7 1017 61 0 0.45 225 20:56 03.04.2020
5351 Rain 7 1017 61 0 0.45 225 20:37 03.04.2020
5352 Rain 7 1016 42 10000 4.6 290 20:19 03.04.2020
5353 Rain 7 1016 42 10000 4.6 290 19:56 03.04.2020
5354 Rain 8 1016 42 10000 4.6 290 19:38 03.04.2020
5355 Rain 8 1016 42 10000 4.6 290 19:20 03.04.2020
5356 Rain 8 1016 42 10000 4.6 290 18:58 03.04.2020
5357 Rain 9 1016 53 0 1.79 315 18:40 03.04.2020
5358 Rain 9 1016 53 0 1.79 315 18:22 03.04.2020
5359 Clouds 9 1016 55 0 2.24 315 17:54 03.04.2020
5360 Clouds 9 1015 39 10000 6.2 300 17:36 03.04.2020
5361 Clouds 9 1015 39 10000 6.2 300 17:18 03.04.2020
5362 Clouds 9 1015 39 10000 6.2 300 16:42 03.04.2020
5363 Clouds 9 1015 52 0 0.89 0 16:21 03.04.2020
5364 Clouds 9 1014 39 10000 7.2 300 15:58 03.04.2020
5365 Clouds 9 1014 39 10000 7.2 300 15:39 03.04.2020
5366 Clouds 9 1014 39 10000 7.2 300 15:19 03.04.2020
5367 Clouds 9 1015 52 0 1.79 315 14:55 03.04.2020
5368 Clouds 9 1015 52 0 1.79 315 14:55 03.04.2020
5369 Clouds 9 1014 42 10000 6.7 300 14:37 03.04.2020
5370 Clouds 9 1014 42 10000 6.7 300 14:18 03.04.2020
5371 Clouds 9 1014 42 10000 6.7 300 13:42 03.04.2020
5372 Clouds 9 1014 42 10000 6.7 300 13:24 03.04.2020
5373 Clouds 8 1014 52 10000 6.7 270 12:44 03.04.2020
5374 Clouds 8 1013 52 10000 5.7 280 12:21 03.04.2020
5375 Clouds 7 1013 52 10000 5.7 280 11:57 03.04.2020
5376 Clouds 7 1013 58 10000 5.1 290 11:39 03.04.2020
5377 Clouds 7 1013 58 10000 5.1 290 11:21 03.04.2020
5378 Clouds 6 1013 56 10000 6.2 280 10:59 03.04.2020
5379 Clouds 6 1013 56 10000 6.7 290 10:39 03.04.2020
5380 Clouds 6 1012 60 10000 6.2 280 10:20 03.04.2020
5381 Clouds 6 1012 60 10000 6.2 280 10:20 03.04.2020
5382 Clouds 6 1012 60 10000 6.2 280 09:59 03.04.2020
5383 Clouds 5 1012 60 10000 5.7 280 09:40 03.04.2020
5384 Clouds 5 1012 60 10000 5.7 280 09:21 03.04.2020
5385 Rain 4 1013 81 0 3.61 275 08:56 03.04.2020
5386 Rain 4 1012 81 0 0.45 90 08:38 03.04.2020
5387 Rain 4 1013 82 0 3.61 275 08:20 03.04.2020
5388 Rain 4 1012 82 0 3.61 275 07:46 03.04.2020
5389 Rain 5 1008 89 0 3.61 275 07:28 03.04.2020
5390 Rain 5 1011 82 0 3.61 275 06:41 03.04.2020
5391 Rain 5 1011 88 0 3.61 275 06:22 03.04.2020
5392 Rain 5 1011 83 0 1.34 90 05:39 03.04.2020
5393 Rain 5 1009 76 0 4.02 225 03:42 03.04.2020
5394 Rain 5 1009 72 0 5.81 225 02:56 03.04.2020
5395 Rain 6 1009 71 0 5.81 225 02:18 03.04.2020
5396 Rain 6 1010 65 0 3.58 180 01:22 03.04.2020
5397 Rain 5 1010 64 0 4.92 225 00:36 03.04.2020
5398 Clouds 5 1010 64 0 3.58 225 00:18 03.04.2020
5399 Clouds 5 1010 65 0 1.79 225 23:42 02.04.2020
5400 Clouds 5 1009 63 0 2.24 225 23:23 02.04.2020
5401 Clouds 5 1010 63 0 1.79 225 22:58 02.04.2020
5402 Clouds 5 1010 63 0 4.92 225 22:38 02.04.2020
5403 Clouds 6 1010 62 0 4.02 225 22:20 02.04.2020
5404 Clouds 6 1010 62 0 4.92 225 21:39 02.04.2020
5405 Clouds 6 1010 62 0 4.92 225 21:39 02.04.2020
5406 Clouds 6 1010 63 0 4.47 225 21:20 02.04.2020
5407 Clouds 6 1010 63 0 3.58 225 20:58 02.04.2020
5408 Clouds 6 1010 62 0 4.47 225 20:40 02.04.2020
5409 Clouds 7 1006 65 0 1.79 261 20:21 02.04.2020
5410 Clouds 7 1010 62 0 4.94 263 19:44 02.04.2020
5411 Clouds 7 1010 60 0 4.94 263 19:21 02.04.2020
5412 Clouds 8 1009 52 10000 7.7 260 18:59 02.04.2020
5413 Clouds 8 1009 52 10000 7.7 260 18:39 02.04.2020
5414 Clouds 8 1009 52 10000 7.7 260 18:39 02.04.2020
5415 Clouds 8 1009 52 10000 7.7 260 18:20 02.04.2020
5416 Clouds 9 1009 52 10000 7.7 260 17:56 02.04.2020
5417 Clouds 9 1009 52 10000 7.7 260 17:38 02.04.2020
5418 Clouds 9 1009 52 10000 8.7 260 17:20 02.04.2020
5419 Clouds 9 1009 52 10000 8.7 260 16:55 02.04.2020
5420 Clouds 9 1010 49 10000 8.2 260 16:37 02.04.2020
5421 Clouds 9 1010 45 10000 7.7 270 16:19 02.04.2020
5422 Clouds 9 1010 49 10000 7.2 270 15:45 02.04.2020
5423 Clouds 9 1010 49 10000 7.2 270 15:22 02.04.2020
5424 Clouds 9 1011 52 10000 6.7 260 14:59 02.04.2020
5425 Clouds 8 1011 52 10000 6.7 260 14:40 02.04.2020
5426 Clouds 8 1011 49 10000 5.1 260 14:20 02.04.2020
5427 Clouds 8 1011 49 10000 5.1 260 13:58 02.04.2020
5428 Clouds 8 1011 49 10000 5.1 260 13:39 02.04.2020
5429 Clouds 7 1012 49 10000 6.2 270 13:21 02.04.2020
5430 Clouds 8 1012 49 10000 6.2 270 12:56 02.04.2020
5431 Clouds 8 1012 49 10000 6.2 270 12:56 02.04.2020
5432 Clouds 7 1012 52 10000 5.1 250 12:37 02.04.2020
5433 Clouds 7 1012 52 10000 6.2 270 12:19 02.04.2020
5434 Clouds 7 1012 52 10000 6.2 270 11:57 02.04.2020
5435 Clouds 7 1012 52 10000 5.7 260 11:38 02.04.2020
5436 Clouds 6 1013 58 10000 4.6 250 11:19 02.04.2020
5437 Clouds 6 1013 58 10000 4.6 250 11:19 02.04.2020
5438 Clouds 6 1013 58 10000 4.6 250 10:55 02.04.2020
5439 Clouds 6 1013 58 10000 4.6 250 10:55 02.04.2020
5440 Clouds 6 1013 58 10000 4.6 240 10:37 02.04.2020
5441 Clouds 6 1013 58 10000 4.6 250 10:18 02.04.2020
5442 Clouds 4 1013 58 10000 4.1 250 09:43 02.04.2020
5443 Clouds 4 1013 60 10000 4.1 250 09:25 02.04.2020
5444 Clouds 2 1014 83 0 1.79 225 08:59 02.04.2020
5445 Clouds 1 1013 82 10000 3.1 250 08:40 02.04.2020
5446 Clouds 1 1013 82 10000 3.1 250 08:22 02.04.2020
5447 Clouds 0 1013 82 10000 2.6 260 07:45 02.04.2020
5448 Clouds 0 1013 82 10000 2.6 270 07:20 02.04.2020
5449 Clouds 0 1013 82 10000 2.6 270 06:58 02.04.2020
5450 Clouds -2 1014 81 0 2.14 233 06:21 02.04.2020
5451 Clouds -1 1015 81 0 0.45 0 05:45 02.04.2020
5452 Clouds -2 1015 80 0 0.45 0 04:33 02.04.2020
5453 Clouds -1 1016 80 0 0.45 0 01:51 02.04.2020
5454 Clouds 0 1016 79 0 0.45 0 00:48 02.04.2020
5455 Clouds 0 1016 77 0 0.89 0 00:27 02.04.2020
5456 Clear 0 1016 77 0 1.88 249 23:55 01.04.2020
5457 Clear 0 1017 76 0 0.45 0 23:37 01.04.2020
5458 Clear 0 1017 76 0 0.45 0 23:18 01.04.2020
5459 Clear 0 1017 76 0 0.45 0 23:18 01.04.2020
5460 Clear 1 1017 74 0 0.89 0 22:40 01.04.2020
5461 Clear 1 1017 73 0 1.88 249 22:22 01.04.2020
5462 Clear 2 1017 72 0 0.45 45 21:57 01.04.2020
5463 Clear 1 1017 71 0 0.89 45 21:38 01.04.2020
5464 Clouds 3 1017 70 0 0.89 45 21:18 01.04.2020
5465 Clouds 3 1017 66 0 0.45 0 20:55 01.04.2020
5466 Clouds 2 1017 63 0 0.45 22 20:37 01.04.2020
5467 Clouds 4 1017 62 0 0.45 22 20:18 01.04.2020
5468 Clouds 6 1018 62 0 2.12 283 19:43 01.04.2020
5469 Clouds 7 1017 52 0 1.34 0 19:22 01.04.2020
5470 Clouds 8 1017 49 10000 4.1 300 18:59 01.04.2020
5471 Clouds 8 1017 49 10000 4.1 300 18:40 01.04.2020
5472 Clouds 9 1017 49 10000 4.1 300 18:21 01.04.2020
5473 Clouds 9 1018 45 10000 4.6 290 17:55 01.04.2020
5474 Clouds 9 1018 45 10000 4.6 290 17:36 01.04.2020
5475 Clouds 9 1018 45 10000 4.6 290 17:18 01.04.2020
5476 Clouds 9 1019 49 10000 5.1 290 16:43 01.04.2020
5477 Clouds 9 1019 49 10000 5.1 290 16:25 01.04.2020
5478 Clouds 9 1019 49 10000 5.1 290 15:59 01.04.2020
5479 Clouds 9 1019 39 10000 4.6 280 15:41 01.04.2020
5480 Clouds 9 1019 39 10000 4.6 280 15:22 01.04.2020
5481 Clouds 9 1019 39 10000 4.6 280 14:58 01.04.2020
5482 Clear 8 1019 36 10000 5.7 270 14:39 01.04.2020
5483 Clear 8 1020 36 10000 4.1 0 14:20 01.04.2020
5484 Clear 8 1020 36 10000 4.1 0 13:58 01.04.2020
5485 Clear 7 1020 42 10000 5.7 260 13:38 01.04.2020
5486 Clear 7 1020 42 10000 5.7 260 13:38 01.04.2020
5487 Clear 7 1021 42 10000 5.1 280 13:19 01.04.2020
5488 Clear 7 1021 42 10000 5.1 280 12:56 01.04.2020
5489 Clear 7 1021 42 10000 6.2 270 12:37 01.04.2020
5490 Clear 6 1021 45 10000 5.1 280 12:18 01.04.2020
5491 Clear 6 1022 48 10000 4.6 270 11:54 01.04.2020
5492 Clear 5 1022 48 10000 4.6 270 11:36 01.04.2020
5493 Clear 5 1022 48 10000 5.1 270 11:18 01.04.2020
5494 Clear 4 1022 48 10000 4.1 270 10:38 01.04.2020
5495 Clear 4 1022 51 10000 4.1 250 10:20 01.04.2020
5496 Clear 3 1022 51 10000 4.1 250 09:58 01.04.2020
5497 Clear 2 1022 55 10000 3.1 250 09:39 01.04.2020
5498 Clear 1 1023 59 10000 3.1 260 09:19 01.04.2020
5499 Clear 0 1020 59 0 1.94 237 08:43 01.04.2020
5500 Clear -3 1021 71 0 1.94 237 08:18 01.04.2020
5501 Clear -2 1023 77 0 1.94 237 07:48 01.04.2020
5502 Clear -4 1022 72 0 1.94 237 07:23 01.04.2020
5503 Clear -3 1025 84 0 1.94 237 06:59 01.04.2020
5504 Clear -3 1024 84 0 1.94 237 06:39 01.04.2020
5505 Clear -4 1025 83 0 1.8 221 06:20 01.04.2020
5506 Clear -3 1022 84 0 0.45 62 04:55 01.04.2020
5507 Clear -3 1023 76 0 1.8 221 03:36 01.04.2020
5508 Clear -3 1023 76 0 1.19 200 02:59 01.04.2020
5509 Clear -3 1027 77 0 1.19 200 02:31 01.04.2020
5510 Clear -3 1025 71 0 1.29 203 01:46 01.04.2020
5511 Clear -4 1025 70 0 0.45 0 01:24 01.04.2020
5512 Clear -3 1025 70 0 0.45 0 00:47 01.04.2020
5513 Clear -2 1024 81 0 1.29 203 00:21 01.04.2020
5514 Clear -3 1026 67 0 0.45 0 23:54 31.03.2020
5515 Clear -2 1026 66 0 1.07 171 23:36 31.03.2020
5516 Clear -2 1026 66 0 0.45 0 23:18 31.03.2020
5517 Clear -2 1026 65 0 1.07 171 22:40 31.03.2020
5518 Clear -2 1026 65 0 1.07 171 22:40 31.03.2020
5519 Clear -1 1026 65 0 0.45 0 22:20 31.03.2020
5520 Clear -1 1026 63 0 1.07 171 21:58 31.03.2020
5521 Clear -1 1026 63 0 1.07 171 21:58 31.03.2020
5522 Clear -1 1027 61 0 1.07 171 21:39 31.03.2020
5523 Clear 0 1027 60 0 0.89 0 21:21 31.03.2020
5524 Clouds 1 1027 60 0 0.45 0 20:57 31.03.2020
5525 Clouds 1 1027 58 0 0.45 0 20:37 31.03.2020
5526 Clouds 2 1027 53 0 0.45 45 20:18 31.03.2020
5527 Clouds 2 1027 50 0 0.89 45 19:55 31.03.2020
5528 Clouds 4 1026 51 0 0.86 39 19:37 31.03.2020
5529 Clouds 4 1027 43 0 2.24 45 19:18 31.03.2020
5530 Clouds 4 1027 43 0 2.24 45 19:18 31.03.2020
5531 Clouds 5 1029 35 10000 2.6 90 18:43 31.03.2020
5532 Clouds 5 1029 35 10000 2.6 90 18:20 31.03.2020
5533 Clouds 6 1029 35 10000 2.6 90 17:56 31.03.2020
5534 Clouds 6 1029 35 10000 2.6 90 17:38 31.03.2020
5535 Clouds 6 1029 35 10000 3.1 110 17:20 31.03.2020
5536 Clouds 6 1030 33 10000 2.1 0 16:42 31.03.2020
5537 Clouds 6 1030 33 10000 2.1 0 16:20 31.03.2020
5538 Clouds 6 1030 33 10000 2.1 0 15:59 31.03.2020
5539 Clouds 6 1030 36 10000 1.5 0 15:41 31.03.2020
5540 Clouds 6 1030 36 10000 1.5 0 15:23 31.03.2020
5541 Clouds 5 1031 35 10000 1.5 0 15:00 31.03.2020
5542 Clouds 5 1031 35 10000 1.5 0 15:00 31.03.2020
5543 Clouds 5 1031 38 10000 1.5 0 14:41 31.03.2020
5544 Clouds 5 1031 38 10000 1.5 0 14:22 31.03.2020
5545 Clouds 5 1031 38 10000 2.6 100 13:58 31.03.2020
5546 Clouds 5 1031 32 10000 3.1 0 13:39 31.03.2020
5547 Clouds 4 1031 55 10000 2.1 160 13:19 31.03.2020
5548 Clouds 5 1031 55 10000 2.1 160 12:44 31.03.2020
5549 Clouds 4 1031 74 10000 2.6 110 12:20 31.03.2020
5550 Clouds 4 1031 74 10000 2.6 110 11:56 31.03.2020
5551 Clouds 4 1029 40 0 3.13 90 11:37 31.03.2020
5552 Clouds 3 1032 69 10000 1.5 0 11:18 31.03.2020
5553 Clouds 3 1032 69 10000 1.5 0 10:55 31.03.2020
5554 Clouds 3 1032 69 10000 1.5 0 10:55 31.03.2020
5555 Clouds 2 1032 100 10000 1 0 10:37 31.03.2020
5556 Clouds 2 1031 92 7000 1 0 10:18 31.03.2020
5557 Mist 1 1031 92 2400 4.05 80 09:43 31.03.2020
5558 Mist 0 1031 92 2400 3.81 88 09:25 31.03.2020
5559 Clouds 0 1027 81 0 1.53 75 08:58 31.03.2020
5560 Clouds 0 1027 81 0 1.53 75 08:58 31.03.2020
5561 Clouds 0 1029 66 0 0.89 45 08:40 31.03.2020
5562 Clouds -1 1028 66 0 1.79 45 08:20 31.03.2020
5563 Clouds -1 1028 66 0 1.79 45 08:20 31.03.2020
5564 Clouds -1 1028 77 0 1.79 45 07:57 31.03.2020
5565 Clouds -1 1028 81 0 0.89 45 07:38 31.03.2020
5566 Clouds -1 1028 81 0 0.89 0 07:20 31.03.2020
5567 Clouds -1 1028 81 0 0.89 45 06:51 31.03.2020
5568 Clouds -1 1027 81 0 1.79 45 06:31 31.03.2020
5569 Clear -1 1027 81 0 1.34 45 05:41 31.03.2020
5570 Clear -1 1026 80 0 4.02 45 03:57 31.03.2020
5571 Clouds -1 1026 81 0 3.13 45 02:26 31.03.2020
5572 Clouds 0 1026 82 0 1.79 45 01:46 31.03.2020
5573 Clouds 0 1026 84 0 1.34 45 00:52 31.03.2020
5574 Clouds 0 1025 84 0 1.79 45 00:25 31.03.2020
5575 Clouds 0 1025 84 0 0.45 0 23:59 30.03.2020
5576 Clouds 0 1025 84 0 0.89 45 23:38 30.03.2020
5577 Clouds 1 1025 84 0 0.89 0 23:19 30.03.2020
5578 Clouds 1 1025 84 0 0.89 45 22:56 30.03.2020
5579 Clouds 1 1025 83 0 0.45 45 22:37 30.03.2020
5580 Clouds 1 1025 84 0 0.63 27 22:18 30.03.2020
5581 Clouds 1 1025 84 0 0.45 45 21:57 30.03.2020
5582 Clouds 1 1025 84 0 0.63 27 21:37 30.03.2020
5583 Snow 1 1025 84 0 0.45 0 21:19 30.03.2020
5584 Snow 1 1025 84 0 0.45 45 20:55 30.03.2020
5585 Snow 1 1024 84 0 0.45 225 20:36 30.03.2020
5586 Snow 1 1024 84 0 0.45 225 20:36 30.03.2020
5587 Snow 2 1024 84 0 1.92 317 20:18 30.03.2020
5588 Snow 2 1024 84 0 0.89 225 19:41 30.03.2020
5589 Snow 2 1024 84 0 0.89 225 19:22 30.03.2020
5590 Snow 2 1024 84 0 0.89 225 18:57 30.03.2020
5591 Snow 2 1024 84 0 0.89 225 18:39 30.03.2020
5592 Snow 2 1024 84 0 0.89 225 18:20 30.03.2020
5593 Snow 2 1024 84 0 0.89 225 17:57 30.03.2020
5594 Snow 2 1024 84 0 0.89 225 17:38 30.03.2020
5595 Snow 2 1024 84 0 2.24 225 17:19 30.03.2020
5596 Snow 2 1024 83 0 1.79 225 16:56 30.03.2020
5597 Snow 2 1023 92 0 5.41 287 16:38 30.03.2020
5598 Snow 2 1025 79 3000 4.6 240 16:19 30.03.2020
5599 Snow 2 1025 79 3000 4.6 240 15:54 30.03.2020
5600 Snow 2 1025 79 3000 4.6 240 15:36 30.03.2020
5601 Snow 2 1025 61 3000 4.6 240 15:18 30.03.2020
5602 Snow 3 1025 61 3000 4.6 240 14:54 30.03.2020
5603 Snow 3 1026 86 2400 5.1 240 14:36 30.03.2020
5604 Snow 2 1026 86 3800 5.7 240 14:18 30.03.2020
5605 Snow 3 1026 74 4500 6.7 260 13:43 30.03.2020
5606 Clouds 2 1027 64 10000 7.2 260 13:21 30.03.2020
5607 Clouds 2 1027 64 10000 7.2 260 12:57 30.03.2020
5608 Clouds 2 1027 64 10000 6.7 260 12:38 30.03.2020
5609 Clouds 2 1027 64 10000 6.7 260 12:38 30.03.2020
5610 Clouds 3 1027 64 10000 6.7 260 12:19 30.03.2020
5611 Clouds 2 1027 64 10000 6.7 260 11:56 30.03.2020
5612 Clouds 2 1028 55 10000 5.7 260 11:38 30.03.2020
5613 Snow 2 1028 55 10000 5.7 260 11:20 30.03.2020
5614 Clouds 1 1028 55 10000 4.1 260 10:39 30.03.2020
5615 Clouds 0 1028 55 10000 4.1 260 10:21 30.03.2020
5616 Clouds 0 1028 66 10000 4.1 260 09:56 30.03.2020
5617 Clouds -1 1028 66 10000 4.1 260 09:38 30.03.2020
5618 Clear -1 1029 63 10000 3.6 260 09:18 30.03.2020
5619 Clouds -2 1029 63 10000 2.6 240 08:41 30.03.2020
5620 Clouds -3 1029 63 10000 2.6 240 08:22 30.03.2020
5621 Clear -5 1029 73 10000 2.1 250 07:49 30.03.2020
5622 Clear -5 1029 73 10000 2.1 250 07:27 30.03.2020
5623 Clear -5 1027 86 0 2.17 255 06:54 30.03.2020
5624 Clear -5 1031 79 0 2.17 255 06:31 30.03.2020
5625 Clear -5 1031 79 0 2.17 255 06:31 30.03.2020
5626 Clear -5 1027 64 0 1.3 283 05:53 30.03.2020
5627 Clear -5 1028 84 0 1.3 283 05:22 30.03.2020
5628 Clear -5 1027 59 0 1.3 283 04:23 30.03.2020
5629 Clear -5 1027 64 0 1.3 283 03:38 30.03.2020
5630 Clouds -5 1029 62 0 1.48 334 02:39 30.03.2020
5631 Clouds -4 1029 62 0 0.45 45 01:44 30.03.2020
5632 Clouds -3 1029 54 0 0.89 45 00:49 30.03.2020
5633 Clouds -2 1029 54 0 2.68 45 00:22 30.03.2020
5634 Clouds -2 1029 53 0 1.79 45 23:42 29.03.2020
5635 Clouds -2 1029 53 0 2.68 45 23:23 29.03.2020
5636 Clouds -1 1029 58 0 2.57 34 22:57 29.03.2020
5637 Clouds -1 1029 58 0 3.58 45 22:38 29.03.2020
5638 Clouds 0 1032 53 0 2.57 34 22:19 29.03.2020
5639 Clouds 0 1027 71 0 2.57 34 21:56 29.03.2020
5640 Clouds 1 1028 56 0 0.45 90 21:36 29.03.2020
5641 Snow 1 1028 62 0 0.45 90 21:18 29.03.2020
5642 Snow 1 1028 70 0 0.45 355 20:55 29.03.2020
5643 Snow 1 1028 72 0 5.48 29 20:36 29.03.2020
5644 Snow 1 1027 71 0 0.45 90 20:18 29.03.2020
5645 Snow 2 1025 82 0 5.48 29 19:42 29.03.2020
5646 Snow 2 1024 84 0 5.48 29 19:24 29.03.2020
5647 Snow 2 1026 81 0 3.58 0 18:58 29.03.2020
5648 Snow 2 1026 81 0 4.92 45 18:40 29.03.2020
5649 Snow 3 1029 81 0 5.48 29 18:21 29.03.2020
5650 Snow 2 1026 84 0 6.71 45 17:59 29.03.2020
5651 Snow 2 1025 84 0 3.58 45 17:41 29.03.2020
5652 Snow 2 1025 84 0 4.92 45 17:22 29.03.2020
5653 Snow 2 1025 84 0 5.81 45 16:58 29.03.2020
5654 Snow 2 1024 84 0 3.13 90 16:39 29.03.2020
5655 Snow 3 1024 84 0 5.36 0 16:21 29.03.2020
5656 Rain 3 1026 76 10000 5.1 40 15:58 29.03.2020
5657 Rain 3 1026 76 10000 5.1 40 15:39 29.03.2020
5658 Rain 3 1026 80 10000 5.1 40 15:19 29.03.2020
5659 Rain 2 1026 80 10000 5.1 40 14:56 29.03.2020
5660 Clouds 2 1026 80 10000 5.7 40 14:37 29.03.2020
5661 Rain 3 1025 86 10000 4.6 40 14:18 29.03.2020
5662 Rain 3 1025 80 10000 4.6 40 13:55 29.03.2020
5663 Rain 3 1025 80 10000 4.6 40 13:55 29.03.2020
5664 Rain 3 1025 80 10000 4.6 40 13:36 29.03.2020
5665 Rain 3 1025 86 10000 4.6 30 13:18 29.03.2020
5666 Clouds 3 1024 86 10000 4.6 30 12:54 29.03.2020
5667 Clouds 3 1024 86 10000 4.6 30 12:36 29.03.2020
5668 Clouds 3 1023 86 10000 2.6 10 12:18 29.03.2020
5669 Clouds 3 1023 86 10000 2.6 10 12:18 29.03.2020
5670 Drizzle 3 1023 93 10000 4.1 340 11:38 29.03.2020
5671 Snow 3 1023 79 10000 4.6 340 11:20 29.03.2020
5672 Drizzle 3 1022 69 10000 5.1 330 10:40 29.03.2020
5673 Clouds 3 1022 69 10000 4.6 320 10:21 29.03.2020
5674 Clouds 3 1022 69 10000 4.6 320 09:59 29.03.2020
5675 Snow 3 1022 78 0 0.89 45 09:38 29.03.2020
5676 Snow 3 1021 80 0 2.68 0 09:19 29.03.2020
5677 Clouds 3 1021 81 0 3.58 45 08:45 29.03.2020
5678 Clouds 3 1021 82 0 1.79 0 08:27 29.03.2020
5679 Clouds 3 1017 92 0 4.68 318 07:56 29.03.2020
5680 Clouds 3 1020 84 0 1.79 68 07:37 29.03.2020
5681 Clouds 3 1020 85 0 2.24 0 07:19 29.03.2020
5682 Clouds 3 1020 84 0 0.89 45 04:58 29.03.2020
5683 Clouds 4 1022 84 0 3.81 297 03:42 29.03.2020
5684 Clouds 4 1016 87 0 3.81 297 03:23 29.03.2020
5685 Clouds 3 1020 81 0 0.89 315 01:50 29.03.2020
5686 Clouds 3 1021 81 0 1.79 0 01:23 29.03.2020
5687 Clouds 3 1021 80 0 1.79 315 00:53 29.03.2020
5688 Clouds 4 1021 80 0 1.34 315 00:29 29.03.2020
5689 Clouds 4 1020 78 0 2.24 315 23:42 28.03.2020
5690 Clouds 4 1020 78 0 0.89 315 23:23 28.03.2020
5691 Clear 5 1020 78 0 2.68 0 22:57 28.03.2020
5692 Clear 5 1020 78 0 0.89 90 22:37 28.03.2020
5693 Clear 5 1019 81 0 0.45 90 22:18 28.03.2020
5694 Clear 5 1021 75 0 0.89 45 21:41 28.03.2020
5695 Clear 6 1020 74 0 0.45 45 21:23 28.03.2020
5696 Clear 6 1021 72 0 1.79 0 20:58 28.03.2020
5697 Clear 6 1020 66 0 1.34 270 20:39 28.03.2020
5698 Clouds 7 1021 61 0 0.89 45 20:21 28.03.2020
5699 Clouds 7 1020 51 0 0.89 90 19:56 28.03.2020
5700 Clouds 7 1020 51 0 0.89 90 19:56 28.03.2020
5701 Clouds 8 1016 57 0 3.94 321 19:37 28.03.2020
5702 Clouds 8 1020 53 0 0.89 0 19:19 28.03.2020
5703 Clouds 9 1020 54 0 0.89 0 18:55 28.03.2020
5704 Clouds 10 1020 53 0 2.24 0 18:36 28.03.2020
5705 Clouds 10 1020 47 0 2.68 45 18:18 28.03.2020
5706 Clouds 11 1020 43 0 2.68 0 17:38 28.03.2020
5707 Clear 12 1020 40 0 1.79 315 17:19 28.03.2020
5708 Clear 13 1019 35 10000 3.6 330 16:42 28.03.2020
5709 Clear 13 1019 35 10000 3.6 330 16:20 28.03.2020
5710 Clear 13 1019 35 10000 3.6 330 15:56 28.03.2020
5711 Clear 13 1019 35 10000 3.6 330 15:38 28.03.2020
5712 Clear 13 1020 35 10000 3.6 340 15:19 28.03.2020
5713 Clear 13 1020 35 10000 3.1 330 14:43 28.03.2020
5714 Clear 13 1020 35 10000 3.1 330 14:23 28.03.2020
5715 Clear 13 1020 35 10000 5.1 330 13:57 28.03.2020
5716 Clear 13 1021 35 10000 4.1 330 13:37 28.03.2020
5717 Clear 13 1021 32 10000 3.6 0 13:18 28.03.2020
5718 Clear 13 1021 30 10000 2.1 0 12:39 28.03.2020
5719 Clear 12 1021 34 10000 2.1 330 12:21 28.03.2020
5720 Clear 12 1022 43 10000 2.1 310 11:42 28.03.2020
5721 Clear 11 1022 45 10000 2.1 0 11:21 28.03.2020
5722 Clear 10 1021 30 0 4.92 45 10:56 28.03.2020
5723 Clear 10 1022 49 10000 2.1 330 10:37 28.03.2020
5724 Clear 9 1022 56 10000 2.6 20 10:18 28.03.2020
5725 Clear 8 1022 68 0 2.47 30 09:41 28.03.2020
5726 Clear 8 1021 36 0 1.79 45 09:22 28.03.2020
5727 Clear 6 1021 42 0 2.68 90 08:45 28.03.2020
5728 Clear 5 1021 43 0 4.02 0 08:27 28.03.2020
5729 Clear 4 1019 79 0 1.08 13 07:59 28.03.2020
5730 Clear 3 1021 81 0 1.08 13 07:41 28.03.2020
5731 Clear 3 1017 72 0 1.08 13 06:54 28.03.2020
5732 Clear 3 1021 60 0 1.79 22 06:32 28.03.2020
5733 Clear 3 1020 61 0 1.79 45 05:39 28.03.2020
5734 Clear 3 1021 61 0 2.24 45 05:19 28.03.2020
5735 Clear 3 1021 66 0 1.79 45 04:39 28.03.2020
5736 Clear 4 1021 63 0 0.89 45 02:55 28.03.2020
5737 Clear 5 1021 65 0 1.34 45 01:48 28.03.2020
5738 Clear 5 1021 63 0 1.79 45 01:24 28.03.2020
5739 Clear 5 1021 62 0 1.79 45 00:54 28.03.2020
5740 Clear 6 1021 61 0 1.34 90 00:33 28.03.2020
5741 Clear 7 1021 59 0 1.34 45 23:45 27.03.2020
5742 Clear 7 1021 57 0 0.89 45 23:26 27.03.2020
5743 Clear 8 1022 56 0 1.79 22 22:58 27.03.2020
5744 Clear 8 1021 50 0 1.79 45 22:40 27.03.2020
5745 Clear 9 1022 50 0 1.79 45 22:21 27.03.2020
5746 Clear 9 1021 50 0 1.34 45 21:59 27.03.2020
5747 Clear 9 1021 49 0 1.34 45 21:41 27.03.2020
5748 Clear 9 1021 47 0 2.24 45 21:23 27.03.2020
5749 Clear 9 1021 48 0 2.68 90 20:57 27.03.2020
5750 Clear 9 1021 48 0 2.68 45 20:39 27.03.2020
5751 Clouds 11 1021 47 0 2.24 90 20:19 27.03.2020
5752 Clouds 11 1021 47 0 3.13 45 19:56 27.03.2020
5753 Clouds 11 1021 46 0 3.58 45 19:38 27.03.2020
5754 Clouds 12 1020 49 0 4.42 66 19:19 27.03.2020
5755 Clouds 13 1020 47 0 4.42 66 18:43 27.03.2020
5756 Clouds 13 1021 44 0 3.13 315 18:23 27.03.2020
5757 Clouds 14 1018 42 0 0.45 90 17:57 27.03.2020
5758 Clouds 15 1017 44 0 0.89 177 17:38 27.03.2020
5759 Clouds 14 1020 39 0 4.92 45 17:19 27.03.2020
5760 Clouds 15 1020 34 0 2.68 90 16:44 27.03.2020
5761 Clouds 15 1020 33 0 4.92 45 16:25 27.03.2020
5762 Clouds 15 1020 33 0 4.92 45 16:25 27.03.2020
5763 Clouds 15 1020 33 0 4.92 45 16:25 27.03.2020
5764 Clouds 15 1020 33 0 4.92 45 16:25 27.03.2020
5765 Clouds 15 1021 29 10000 5.7 80 15:45 27.03.2020
5766 Clouds 14 1020 33 0 4.92 90 15:27 27.03.2020
5767 Clouds 14 1020 32 0 4.92 0 14:57 27.03.2020
5768 Clouds 14 1020 33 0 4.92 45 14:39 27.03.2020
5769 Clouds 14 1020 33 0 2.68 90 14:21 27.03.2020
5770 Clear 14 1021 32 0 4.02 90 13:54 27.03.2020
5771 Clear 15 1021 32 0 2.68 45 13:36 27.03.2020
5772 Clear 15 1021 31 0 4.92 135 13:18 27.03.2020
5773 Clear 14 1021 31 0 5.81 45 12:42 27.03.2020
5774 Clear 14 1021 31 0 6.26 90 12:19 27.03.2020
5775 Clear 14 1021 31 0 6.71 45 11:44 27.03.2020
5776 Clear 14 1021 31 0 6.71 45 11:25 27.03.2020
5777 Clear 13 1021 31 0 5.36 90 10:59 27.03.2020
5778 Clear 13 1021 30 0 4.92 135 10:41 27.03.2020
5779 Clear 4 1022 63 0 5.77 86 10:22 27.03.2020
5780 Clear 5 1020 68 0 5.77 86 09:58 27.03.2020
5781 Clear 5 1020 68 0 5.77 86 09:40 27.03.2020
5782 Clear 5 1020 68 0 5.77 86 09:22 27.03.2020
5783 Clear 5 1020 68 0 5.77 86 08:58 27.03.2020
5784 Clear 5 1020 68 0 5.77 86 08:40 27.03.2020
5785 Clear 3 1019 70 0 5.9 86 08:21 27.03.2020
5786 Clouds 3 1019 70 0 3.53 84 07:55 27.03.2020
5787 Clouds 3 1019 70 0 3.53 84 07:37 27.03.2020
5788 Clouds 2 1020 72 0 3.53 84 07:19 27.03.2020
5789 Clouds 2 1019 72 0 3.53 84 06:38 27.03.2020
5790 Clouds 2 1019 68 0 3.53 84 05:44 27.03.2020
5791 Clouds -3 1023 86 0 3.36 85 03:26 27.03.2020
5792 Clouds 3 1021 52 0 1.34 0 01:55 27.03.2020
5793 Clear -3 1023 83 0 3.29 77 00:58 27.03.2020
5794 Clear -3 1023 83 0 3.29 77 00:38 27.03.2020
5795 Clear -3 1023 83 0 3.29 77 00:19 27.03.2020
5796 Clear 4 1022 48 0 1.34 45 23:37 26.03.2020
5797 Clear 4 1022 48 0 2.24 45 23:18 26.03.2020
5798 Clear 4 1022 47 0 3.58 45 22:56 26.03.2020
5799 Clear 4 1022 48 0 3.58 45 22:36 26.03.2020
5800 Clear 4 1023 47 0 4.47 45 22:18 26.03.2020
5801 Clear 5 1023 48 0 2.68 90 21:40 26.03.2020
5802 Clear 5 1023 48 0 4.92 45 21:21 26.03.2020
5803 Clear 5 1023 49 0 4.47 45 20:58 26.03.2020
5804 Clear 5 1023 50 0 3.13 180 20:39 26.03.2020
5805 Clear 4 1023 51 0 4.92 90 20:21 26.03.2020
5806 Clear 4 1023 51 0 2.24 68 19:58 26.03.2020
5807 Clear 4 1023 51 0 2.24 45 19:39 26.03.2020
5808 Clear 6 1023 50 0 2.68 45 19:20 26.03.2020
5809 Clear 6 1023 50 0 3.13 45 18:58 26.03.2020
5810 Clear 6 1023 48 0 3.58 90 18:39 26.03.2020
5811 Clear 7 1023 46 0 3.13 90 18:21 26.03.2020
5812 Clear 8 1023 37 0 2.24 45 17:44 26.03.2020
5813 Clouds 8 1023 35 0 2.68 45 17:19 26.03.2020
5814 Clouds 8 1023 34 0 4.47 45 16:57 26.03.2020
5815 Clouds 8 1023 34 0 3.13 90 16:38 26.03.2020
5816 Clouds 9 1023 34 0 3.13 112 16:18 26.03.2020
5817 Clouds 9 1023 34 0 2.68 90 15:42 26.03.2020
5818 Clouds 8 1023 33 0 3.13 135 15:22 26.03.2020
5819 Clouds 9 1023 34 0 0.89 45 14:59 26.03.2020
5820 Clouds 9 1023 34 0 3.13 135 14:41 26.03.2020
5821 Clouds 8 1023 34 0 3.58 90 14:23 26.03.2020
5822 Clear 8 1023 33 0 5.36 45 13:54 26.03.2020
5823 Clear 8 1024 33 0 4.92 90 13:36 26.03.2020
5824 Clear 8 1024 33 0 6.71 135 13:18 26.03.2020
5825 Clear 8 1024 40 0 4.92 90 12:38 26.03.2020
5826 Clear 8 1024 40 0 4.92 90 12:20 26.03.2020
5827 Clear 8 1024 38 0 4.02 112 11:46 26.03.2020
5828 Clear 7 1024 38 0 2.68 90 11:23 26.03.2020
5829 Clear 7 1024 36 0 3.13 135 10:57 26.03.2020
5830 Clear 6 1024 36 0 4.02 45 10:38 26.03.2020
5831 Clear 6 1024 38 0 6.71 90 10:19 26.03.2020
5832 Clear 6 1024 40 0 3.58 90 09:44 26.03.2020
5833 Clear 5 1024 40 0 3.58 45 09:21 26.03.2020
5834 Clear 4 1025 41 0 3.58 45 08:57 26.03.2020
5835 Clear 4 1025 41 0 5.36 90 08:38 26.03.2020
5836 Clear -6 1026 89 0 3.61 84 08:19 26.03.2020
5837 Clear -6 1026 89 0 3.61 84 07:44 26.03.2020
5838 Clear -1 1023 61 0 3.61 84 07:22 26.03.2020
5839 Clear -1 1023 61 0 3.61 84 06:57 26.03.2020
5840 Clear -1 1024 50 0 0.89 90 06:27 26.03.2020
5841 Clear -2 1024 44 0 0.45 90 05:22 26.03.2020
5842 Clear -1 1024 42 0 0.89 135 03:45 26.03.2020
5843 Clear -1 1024 43 0 0.89 90 02:56 26.03.2020
5844 Clear -1 1025 42 0 0.45 68 01:51 26.03.2020
5845 Clear 1 1025 40 0 0.89 45 00:56 26.03.2020
5846 Clear -6 1028 89 0 2.8 86 00:22 26.03.2020
5847 Clear 2 1025 35 0 2.24 180 23:41 25.03.2020
5848 Clear 2 1026 35 0 3.13 90 23:22 25.03.2020
5849 Clear 2 1026 35 0 4.02 45 22:42 25.03.2020
5850 Clear 2 1026 35 0 2.24 90 22:22 25.03.2020
5851 Clear 3 1026 33 0 1.79 135 21:57 25.03.2020
5852 Clear 3 1026 33 0 2.68 135 21:38 25.03.2020
5853 Clear 3 1026 33 0 3.13 45 21:20 25.03.2020
5854 Clear 3 1026 33 0 3.58 90 20:56 25.03.2020
5855 Clear -4 1028 83 0 4.47 95 20:37 25.03.2020
5856 Clouds 3 1026 35 0 3.13 90 20:18 25.03.2020
5857 Clouds 3 1026 35 0 3.13 90 20:18 25.03.2020
5858 Clouds 3 1026 35 0 2.24 90 19:43 25.03.2020
5859 Clouds 3 1026 35 0 3.58 90 19:24 25.03.2020
5860 Clouds 3 1026 35 0 1.79 90 18:59 25.03.2020
5861 Clouds 4 1026 35 0 3.58 45 18:40 25.03.2020
5862 Clouds 5 1026 33 0 1.79 90 18:22 25.03.2020
5863 Clouds 6 1026 31 0 2.24 45 17:57 25.03.2020
5864 Clouds 7 1026 31 0 3.13 45 17:39 25.03.2020
5865 Clouds 8 1026 31 0 1.34 90 17:21 25.03.2020
5866 -273 0 0 0 0 0 16:55 25.03.2020
5867 Clouds 8 1026 23 0 1.79 0 16:36 25.03.2020
5868 Clouds 8 1026 23 0 3.58 45 16:18 25.03.2020
5869 Clouds 9 1027 23 0 4.92 45 15:41 25.03.2020
5870 Clouds 3 1028 53 0 7.01 94 15:20 25.03.2020
5871 Clouds 3 1028 53 0 7.01 94 14:56 25.03.2020
5872 Clouds 3 1028 53 0 7.01 94 14:37 25.03.2020
5873 Clouds 3 1029 52 0 7.06 93 14:19 25.03.2020
5874 Clouds 10 1027 23 0 2.68 180 13:42 25.03.2020
5875 Clouds 10 1028 23 0 4.92 135 13:22 25.03.2020
5876 Clouds 9 1028 23 0 3.58 90 12:38 25.03.2020
5877 Clouds 3 1029 52 0 7.06 93 12:20 25.03.2020
5878 Clouds 2 1029 52 0 7.07 96 11:57 25.03.2020
5879 Clouds 2 1029 52 0 7.07 96 11:39 25.03.2020
5880 Clouds 0 1031 58 0 5.5 101 11:20 25.03.2020
5881 Clouds 0 1031 58 0 5.5 101 10:57 25.03.2020
5882 Clouds 3 1029 53 0 5.5 101 10:39 25.03.2020
5883 Clouds 3 1029 53 0 5.5 101 10:18 25.03.2020
5884 Clouds 3 1029 53 0 5.5 101 09:43 25.03.2020
5885 Clouds 3 1029 53 0 5.5 101 09:25 25.03.2020
5886 Clouds 4 1029 30 0 1.34 90 08:58 25.03.2020
5887 Clouds 4 1029 30 0 1.34 90 08:58 25.03.2020
5888 Clouds 3 1029 30 0 2.68 135 08:39 25.03.2020
5889 Clear 0 1029 60 0 2.44 96 08:20 25.03.2020
5890 Clear -6 1032 85 0 2.44 96 07:44 25.03.2020
5891 Clear -6 1032 85 0 2.44 96 07:24 25.03.2020
5892 Clear -3 1029 58 0 0.89 45 06:57 25.03.2020
5893 Clear -6 1029 58 0 0.89 0 06:37 25.03.2020
5894 Clear -6 1030 58 0 0.89 90 06:19 25.03.2020
5895 Clear -6 1029 55 0 0.45 0 05:42 25.03.2020
5896 Clear -4 1030 51 0 0.89 45 04:41 25.03.2020
5897 Clear -3 1030 42 0 0.89 0 03:53 25.03.2020
5898 Clear -2 1030 40 0 0.45 0 03:29 25.03.2020
5899 Clear 0 1030 36 0 3.58 135 01:39 25.03.2020
5900 Clear 0 1030 38 0 2.24 135 00:50 25.03.2020
5901 Clear -1 1031 38 0 0.89 90 00:26 25.03.2020
5902 Clear 1 1031 38 0 1.34 45 23:54 24.03.2020
5903 Clear 1 1031 36 0 0.89 45 23:28 24.03.2020
5904 Clear 1 1031 36 0 1.79 45 22:58 24.03.2020
5905 Clear 1 1031 35 0 2.68 90 22:38 24.03.2020
5906 Clear 1 1031 35 0 1.79 90 22:20 24.03.2020
5907 Clear 1 1031 35 0 1.79 90 22:20 24.03.2020
5908 Clear 1 1032 35 0 1.34 45 21:58 24.03.2020
5909 Clear 1 1032 35 0 1.34 90 21:40 24.03.2020
5910 Clear -5 1034 85 0 2.61 109 21:18 24.03.2020
5911 Clear -5 1034 85 0 2.61 109 21:18 24.03.2020
5912 Clear -5 1034 85 0 2.61 109 20:58 24.03.2020
5913 Clear 3 1031 41 0 2.61 109 20:39 24.03.2020
5914 Clear 2 1031 35 0 2.24 45 20:21 24.03.2020
5915 Clear 2 1031 35 0 1.79 45 19:47 24.03.2020
5916 Clear 3 1032 33 0 0.89 90 19:22 24.03.2020
5917 Clear 3 1031 33 0 0.89 45 18:58 24.03.2020
5918 Clear 4 1031 31 0 0.89 90 18:38 24.03.2020
5919 Clear 5 1031 30 0 0.89 90 18:20 24.03.2020
5920 Clear 8 1030 32 0 3.13 158 17:56 24.03.2020
5921 Clear 8 1030 32 0 3.13 158 17:56 24.03.2020
5922 Clear 8 1030 32 0 3.13 158 17:38 24.03.2020
5923 Clear 8 1030 32 0 3.13 158 17:20 24.03.2020
5924 Clear 7 1033 26 10000 6.7 110 16:56 24.03.2020
5925 Clear 8 1033 26 10000 6.7 110 16:37 24.03.2020
5926 Clear 8 1033 24 10000 6.2 110 16:19 24.03.2020
5927 Clear 8 1033 22 10000 5.1 140 15:42 24.03.2020
5928 Clear 8 1033 22 10000 5.1 140 15:24 24.03.2020
5929 Clear 8 1034 28 10000 6.2 110 14:44 24.03.2020
5930 Clear 8 1034 28 10000 6.2 110 14:44 24.03.2020
5931 Clear 7 1033 34 0 3.13 135 14:23 24.03.2020
5932 Clear 2 1035 50 0 5.35 117 13:59 24.03.2020
5933 Clear 7 1033 34 0 3.13 135 13:41 24.03.2020
5934 Clear 7 1033 34 0 3.13 135 13:22 24.03.2020
5935 Clear 6 1034 38 0 2.68 126 12:43 24.03.2020
5936 Clear 6 1034 38 0 2.68 126 12:25 24.03.2020
5937 Clear 6 1034 38 0 2.68 126 11:56 24.03.2020
5938 Clear 6 1034 38 0 2.68 126 11:37 24.03.2020
5939 Clear 5 1036 30 10000 5.1 140 11:18 24.03.2020
5940 Clear 4 1036 32 10000 5.1 140 10:41 24.03.2020
5941 Clear 4 1036 38 10000 4.6 110 10:19 24.03.2020
5942 Clear 3 1034 43 0 0.45 292 09:48 24.03.2020
5943 Clear 2 1033 47 0 0.45 270 09:27 24.03.2020
5944 Clear 1 1036 33 10000 3.1 100 08:58 24.03.2020
5945 Clear 0 1036 33 10000 3.1 100 08:38 24.03.2020
5946 Clear -1 1033 57 0 1.58 111 08:20 24.03.2020
5947 Clear -1 1034 54 0 0.45 49 07:45 24.03.2020
5948 Clear -2 1033 71 0 1.73 113 07:23 24.03.2020
5949 Clear -3 1033 60 0 1.73 113 06:42 24.03.2020
5950 Clear -3 1033 73 0 1.73 113 06:24 24.03.2020
5951 Clear -3 1033 73 0 1.57 132 04:57 24.03.2020
5952 Clear -3 1033 72 0 1.57 132 03:46 24.03.2020
5953 Clear -2 1032 69 0 1.57 132 02:45 24.03.2020
5954 Clear -2 1033 68 0 1.86 126 01:42 24.03.2020
5955 Clear -1 1033 54 0 1.87 123 00:44 24.03.2020
5956 Clear -1 1033 53 0 1.87 123 00:23 24.03.2020
5957 Clear -1 1033 52 0 1.87 123 23:44 23.03.2020
5958 Clear -1 1033 64 0 1.87 123 23:26 23.03.2020
5959 Clear -1 1033 62 0 2.96 131 22:55 23.03.2020
5960 Clear 0 1033 61 0 2.96 131 22:36 23.03.2020
5961 Clear 0 1033 61 0 2.96 131 22:18 23.03.2020
5962 Clear 0 1033 51 0 2.96 131 21:42 23.03.2020
5963 Clear 0 1033 58 0 2.96 131 21:20 23.03.2020
5964 Clear 1 1033 53 0 2.96 131 20:57 23.03.2020
5965 Clear 1 1033 50 0 2.96 131 20:39 23.03.2020
5966 Clear 2 1033 48 0 3.43 106 20:19 23.03.2020
5967 Clear 2 1033 47 0 3.43 106 19:45 23.03.2020
5968 Clear 2 1033 46 0 3.43 106 19:27 23.03.2020
5969 Clear 3 1034 48 0 3.43 106 18:59 23.03.2020
5970 Clear 3 1033 42 0 3.43 106 18:40 23.03.2020
5971 Clear 4 1033 41 0 3.43 106 18:21 23.03.2020
5972 Clear 5 1033 37 0 0.45 90 17:43 23.03.2020
5973 Clear 5 1033 40 0 1.79 148 17:21 23.03.2020
5974 Clear 6 1033 36 0 0.45 90 16:59 23.03.2020
5975 Clear 6 1033 36 0 1.34 90 16:39 23.03.2020
5976 Clear 6 1037 30 10000 5.7 120 16:20 23.03.2020
5977 Clear 7 1037 30 10000 5.7 120 15:42 23.03.2020
5978 Clear 7 1037 30 10000 5.7 120 15:20 23.03.2020
5979 Clear 7 1037 30 10000 5.7 120 14:55 23.03.2020
5980 Clear 7 1037 30 10000 6.7 120 14:36 23.03.2020
5981 Clear 6 1037 30 10000 6.7 100 14:18 23.03.2020
5982 Clear 6 1037 32 10000 6.2 100 13:40 23.03.2020
5983 Clear 6 1038 32 10000 4.6 130 13:21 23.03.2020
5984 Clear 5 1038 32 10000 5.7 110 12:46 23.03.2020
5985 Clear 4 1038 32 10000 7.2 110 12:26 23.03.2020
5986 Clear 4 1038 32 10000 7.2 110 11:59 23.03.2020
5987 Clear 4 1038 29 10000 7.2 110 11:40 23.03.2020
5988 Clear 4 1038 32 10000 7.2 100 11:20 23.03.2020
5989 Clear 3 1039 32 10000 5.1 120 10:58 23.03.2020
5990 Clear 3 1039 32 10000 5.1 120 10:39 23.03.2020
5991 Clear 3 1039 32 10000 4.6 140 10:21 23.03.2020
5992 Clear 2 1035 35 0 0.45 90 09:46 23.03.2020
5993 Clear 2 1036 37 0 0.45 90 09:21 23.03.2020
5994 Clear 1 1036 44 0 4.92 87 08:58 23.03.2020
5995 Clear 0 1036 40 0 5.48 111 08:36 23.03.2020
5996 Clear 0 1035 44 0 2.59 101 08:18 23.03.2020
5997 Clear -1 1035 48 0 2.59 101 07:47 23.03.2020
5998 Clear -2 1035 51 0 2.59 101 07:29 23.03.2020
5999 Clear -3 1035 56 0 2.59 101 06:52 23.03.2020
6000 Clear -3 1036 51 0 0.89 118 05:55 23.03.2020
6001 Clear -3 1035 50 0 2.59 101 05:29 23.03.2020
6002 Clear -2 1035 47 0 2.31 118 03:41 23.03.2020
6003 Clear -1 1035 57 0 2.31 118 02:29 23.03.2020
6004 Clear -1 1035 50 0 0.45 86 01:34 23.03.2020
6005 Clear -1 1035 50 0 0.45 86 01:34 23.03.2020
6006 Clear -1 1035 64 0 3.23 116 00:40 23.03.2020
6007 Clear -1 1034 62 0 3.23 116 23:53 22.03.2020
6008 Clear -1 1035 55 0 0.45 103 23:26 22.03.2020
6009 Clear -1 1035 55 0 0.45 103 23:26 22.03.2020
6010 Clear 0 1034 65 0 3.45 111 22:56 22.03.2020
6011 Clear 0 1034 64 0 3.45 111 22:36 22.03.2020
6012 Clear 0 1034 62 0 3.45 111 22:18 22.03.2020
6013 Clear 1 1034 61 0 3.45 111 21:39 22.03.2020
6014 Clear 1 1034 64 0 3.45 111 21:20 22.03.2020
6015 Clear 1 1034 62 0 3.45 111 20:56 22.03.2020
6016 Clear 2 1034 55 0 3.45 111 20:38 22.03.2020
6017 Clear 2 1034 51 0 0.45 92 20:20 22.03.2020
6018 Clear 2 1033 51 0 5.06 90 19:55 22.03.2020
6019 Clear 3 1033 50 0 5.06 90 19:37 22.03.2020
6020 Clear 3 1035 32 10000 5.1 100 19:18 22.03.2020
6021 Clear 3 1035 32 10000 5.1 100 18:55 22.03.2020
6022 Clear 4 1035 32 10000 5.1 100 18:37 22.03.2020
6023 Clear 5 1035 32 10000 5.1 100 18:18 22.03.2020
6024 Clear 5 1035 33 10000 5.7 100 17:55 22.03.2020
6025 Clear 5 1035 33 10000 5.7 100 17:36 22.03.2020
6026 -273 0 0 0 0 0 17:18 22.03.2020
6027 Clear 6 1035 33 10000 6.7 110 16:41 22.03.2020
6028 Clear 6 1035 33 10000 6.7 110 16:22 22.03.2020
6029 Clear 6 1035 33 10000 5.7 90 15:59 22.03.2020
6030 Clear 6 1035 38 10000 6.2 110 15:39 22.03.2020
6031 Clear 6 1035 38 10000 6.2 110 14:47 22.03.2020
6032 Clear 6 1035 38 10000 5.1 90 14:20 22.03.2020
6033 Clear 6 1035 38 10000 5.1 90 13:58 22.03.2020
6034 Clear 6 1035 38 10000 5.1 90 13:58 22.03.2020
6035 Clear 6 1035 38 10000 6.7 100 13:40 22.03.2020
6036 Clear 5 1035 41 10000 6.2 100 13:19 22.03.2020
6037 Clear 5 1036 41 10000 6.2 90 12:47 22.03.2020
6038 Clear 5 1036 41 10000 6.7 100 12:23 22.03.2020
6039 Clear 4 1036 41 10000 6.7 100 11:59 22.03.2020
6040 Clear 4 1036 38 10000 7.7 90 11:41 22.03.2020
6041 Clear 4 1036 41 10000 6.7 100 11:22 22.03.2020
6042 Clear 3 1036 41 10000 7.7 90 10:54 22.03.2020
6043 Clear 3 1036 41 10000 7.7 90 10:36 22.03.2020
6044 Clear 3 1036 44 10000 7.7 100 10:18 22.03.2020
6045 Clear 2 1036 55 10000 6.2 90 09:41 22.03.2020
6046 Clear 1 1036 64 10000 5.7 90 09:19 22.03.2020
6047 Clear 1 1035 64 10000 4.6 90 08:43 22.03.2020
6048 Clear 1 1035 64 10000 4.6 90 08:24 22.03.2020
6049 Clear 0 1031 64 0 4.91 88 07:51 22.03.2020
6050 Clear -1 1030 67 0 2.68 101 07:23 22.03.2020
6051 Clear -1 1031 69 0 4.91 88 06:35 22.03.2020
6052 Clear -2 1030 68 0 4.91 88 05:34 22.03.2020
6053 Clear -1 1030 77 0 3.26 87 03:30 22.03.2020
6054 Clear 0 1030 73 0 3.8 92 01:27 22.03.2020
6055 Clear 0 1030 72 0 3.8 92 00:48 22.03.2020
6056 Clear 0 1030 72 0 3.8 92 00:28 22.03.2020
6057 Clear 1 1028 66 0 0.89 119 23:43 21.03.2020
6058 Clear 1 1029 69 0 0.45 90 23:19 21.03.2020
6059 Clear 1 1029 69 0 5.84 75 22:55 21.03.2020
6060 Clear 1 1029 69 0 5.84 75 22:37 21.03.2020
6061 Clear 1 1032 70 0 5.84 75 22:18 21.03.2020
6062 Clear 1 1029 68 0 5.84 75 21:56 21.03.2020
6063 Clear 2 1029 71 0 0.89 59 21:37 21.03.2020
6064 Clear 2 1029 65 0 5.84 75 21:18 21.03.2020
6065 Clear 2 1028 63 0 5.84 75 20:41 21.03.2020
6066 Clouds 2 1029 65 0 0.45 105 20:20 21.03.2020
6067 Clouds 3 1028 64 0 0.45 130 19:44 21.03.2020
6068 Clouds 3 1027 65 0 5.52 66 19:25 21.03.2020
6069 Clouds 3 1030 44 10000 4.6 70 18:59 21.03.2020
6070 Clouds 4 1030 44 10000 4.6 70 18:40 21.03.2020
6071 Clouds 4 1030 44 10000 4.6 70 18:20 21.03.2020
6072 Clouds 5 1030 44 10000 4.6 70 17:57 21.03.2020
6073 Clouds 5 1030 41 10000 5.1 90 17:39 21.03.2020
6074 Clouds 5 1030 45 10000 5.7 90 17:21 21.03.2020
6075 Clouds 5 1030 41 10000 5.7 70 16:41 21.03.2020
6076 Clouds 5 1030 45 10000 5.1 80 16:22 21.03.2020
6077 Clouds 5 1030 45 10000 5.1 80 15:58 21.03.2020
6078 Clouds 6 1030 45 10000 6.7 90 15:39 21.03.2020
6079 Clouds 6 1031 41 10000 6.7 90 15:21 21.03.2020
6080 Clouds 5 1031 41 10000 6.7 90 14:55 21.03.2020
6081 Clouds 6 1031 41 10000 5.1 70 14:37 21.03.2020
6082 Clouds 6 1031 45 10000 5.1 70 14:19 21.03.2020
6083 Clouds 5 1031 45 10000 5.1 70 13:57 21.03.2020
6084 Clouds 6 1031 45 10000 5.7 80 13:38 21.03.2020
6085 Clouds 5 1031 52 10000 4.1 70 13:20 21.03.2020
6086 Clouds 6 1031 52 10000 5.1 70 12:41 21.03.2020
6087 Clouds 5 1031 48 10000 5.7 70 12:21 21.03.2020
6088 Clouds 5 1031 48 10000 5.7 70 11:59 21.03.2020
6089 Clouds 5 1031 52 10000 4.1 0 11:39 21.03.2020
6090 Clouds 5 1031 52 10000 4.1 0 11:39 21.03.2020
6091 Clouds 5 1031 48 10000 6.2 80 11:20 21.03.2020
6092 Clouds 5 1031 55 10000 6.7 80 10:58 21.03.2020
6093 Clouds 5 1031 55 10000 6.7 80 10:58 21.03.2020
6094 Clouds 4 1031 55 10000 6.7 80 10:40 21.03.2020
6095 Clouds 5 1031 56 10000 6.2 80 10:22 21.03.2020
6096 Clouds 5 1031 56 10000 6.2 80 09:59 21.03.2020
6097 Clouds 4 1030 65 10000 6.7 80 09:39 21.03.2020
6098 Clouds 3 1030 69 10000 6.2 90 09:20 21.03.2020
6099 Clouds 4 1030 69 10000 6.2 90 08:55 21.03.2020
6100 Clouds 3 1027 87 0 0.45 90 08:37 21.03.2020
6101 Clouds 2 1027 88 0 0.89 90 08:19 21.03.2020
6102 Clouds 2 1025 86 0 0.45 117 07:39 21.03.2020
6103 Clouds 2 1026 83 0 0.45 105 07:20 21.03.2020
6104 Clouds 2 1026 87 0 5.45 70 06:44 21.03.2020
6105 Clouds 2 1026 82 0 1.79 49 06:25 21.03.2020
6106 Clouds 2 1026 81 0 0.89 49 05:40 21.03.2020
6107 Clouds 2 1025 87 0 0.89 90 04:34 21.03.2020
6108 Clouds 4 1023 88 0 2.54 50 02:37 21.03.2020
6109 Clouds 4 1025 88 0 0.45 90 01:49 21.03.2020
6110 Clouds 4 1025 88 0 0.45 90 01:26 21.03.2020
6111 Clouds 5 1023 89 0 2.4 26 00:43 21.03.2020
6112 Clouds 5 1025 86 0 2.4 26 00:23 21.03.2020
6113 Clouds 5 1025 84 0 0.45 90 23:44 20.03.2020
6114 Clouds 5 1025 83 0 0.45 90 23:22 20.03.2020
6115 Clouds 5 1028 70 10000 2.1 40 22:44 20.03.2020
6116 Clouds 5 1028 70 10000 2.1 40 22:44 20.03.2020
6117 Clouds 5 1028 70 10000 2.1 40 22:25 20.03.2020
6118 Clouds 5 1028 70 10000 2.1 40 21:59 20.03.2020
6119 Clouds 6 1028 70 10000 2.6 40 21:40 20.03.2020
6120 Clouds 6 1027 65 10000 2.6 30 21:20 20.03.2020
6121 Clouds 6 1027 65 10000 2.6 30 20:59 20.03.2020
6122 Clouds 6 1027 65 10000 2.1 30 20:41 20.03.2020
6123 Clouds 6 1027 61 10000 1.5 0 20:20 20.03.2020
6124 Rain 6 1027 61 10000 1.5 0 19:48 20.03.2020
6125 Rain 6 1026 83 10000 1.5 0 19:22 20.03.2020
6126 Rain 6 1026 83 10000 1.5 0 19:22 20.03.2020
6127 Rain 6 1026 83 10000 1.5 0 18:59 20.03.2020
6128 Clouds 6 1026 42 10000 3.6 70 18:39 20.03.2020
6129 Rain 6 1026 39 10000 3.1 40 18:20 20.03.2020
6130 Rain 7 1026 45 10000 2.1 0 17:56 20.03.2020
6131 Rain 7 1026 45 10000 2.1 0 17:38 20.03.2020
6132 Rain 6 1026 49 10000 2.6 40 17:19 20.03.2020
6133 Clouds 6 1026 57 10000 2.6 10 16:43 20.03.2020
6134 Clouds 7 1026 61 10000 2.6 10 16:21 20.03.2020
6135 Clouds 7 1026 61 10000 2.6 10 15:58 20.03.2020
6136 Clouds 7 1026 61 10000 2.1 50 15:39 20.03.2020
6137 Clouds 7 1026 61 10000 2.1 50 15:20 20.03.2020
6138 Rain 7 1026 61 10000 1.5 0 14:42 20.03.2020
6139 Clouds 7 1026 65 10000 1.5 0 14:21 20.03.2020
6140 Clouds 7 1026 65 10000 1.5 0 14:21 20.03.2020
6141 Clouds 7 1026 70 10000 1 0 13:51 20.03.2020
6142 Clouds 7 1026 70 10000 1 0 13:26 20.03.2020
6143 Clouds 7 1026 70 10000 1 0 12:59 20.03.2020
6144 Clouds 7 1026 70 10000 1.5 0 12:38 20.03.2020
6145 Clouds 7 1026 65 10000 2.1 40 12:20 20.03.2020
6146 Clouds 6 1026 70 10000 1.5 0 11:41 20.03.2020
6147 Clouds 6 1026 70 10000 1 0 11:21 20.03.2020
6148 Clouds 6 1026 75 10000 1 0 10:58 20.03.2020
6149 Clouds 6 1026 75 10000 1 0 10:40 20.03.2020
6150 Clouds 6 1026 81 10000 1 0 10:18 20.03.2020
6151 Clouds 7 1026 81 10000 3.1 100 09:47 20.03.2020
6152 Clouds 7 1026 81 10000 3.1 100 09:21 20.03.2020
6153 Clouds 6 1026 81 10000 2.1 80 08:59 20.03.2020
6154 Clouds 6 1026 87 10000 2.1 40 08:40 20.03.2020
6155 Clouds 6 1026 81 10000 2.1 30 08:20 20.03.2020
6156 Clouds 7 1025 75 10000 1.5 0 07:46 20.03.2020
6157 Clouds 7 1025 75 10000 1.5 0 07:26 20.03.2020
6158 Rain 7 1022 91 0 3.47 52 06:49 20.03.2020
6159 Rain 7 1022 94 0 3.47 52 06:31 20.03.2020
6160 Clouds 8 1022 93 0 2.51 85 04:51 20.03.2020
6161 Clouds 8 1023 91 0 2.51 85 03:20 20.03.2020
6162 Clouds 8 1022 92 0 2.15 79 01:51 20.03.2020
6163 Clouds 8 1023 91 0 2.28 68 00:51 20.03.2020
6164 Clouds 8 1021 92 0 2.28 68 00:29 20.03.2020
6165 Clouds 8 1023 90 0 2.28 68 23:47 19.03.2020
6166 Clouds 8 1021 91 0 2.28 68 23:26 19.03.2020
6167 Clouds 8 1026 81 10000 1.5 0 22:56 19.03.2020
6168 Clouds 9 1026 81 10000 1.5 0 22:38 19.03.2020
6169 Clouds 9 1026 81 10000 1.5 0 22:18 19.03.2020
6170 Clouds 9 1026 81 10000 1.5 0 21:42 19.03.2020
6171 Clouds 9 1026 87 10000 2.1 90 21:20 19.03.2020
6172 Clouds 9 1026 87 10000 2.1 90 20:59 19.03.2020
6173 Clouds 9 1026 81 10000 2.1 50 20:41 19.03.2020
6174 Clouds 9 1026 81 10000 2.1 50 20:22 19.03.2020
6175 Clouds 9 1026 81 10000 2.1 50 19:55 19.03.2020
6176 Clouds 10 1026 81 10000 2.6 0 19:37 19.03.2020
6177 Clouds 10 1025 81 10000 2.6 50 19:19 19.03.2020
6178 Clouds 11 1025 81 10000 2.1 0 18:54 19.03.2020
6179 Clouds 11 1025 81 10000 2.1 0 18:36 19.03.2020
6180 Clouds 12 1025 76 10000 3.1 350 18:18 19.03.2020
6181 Clouds 12 1025 76 10000 3.1 350 17:41 19.03.2020
6182 Clouds 13 1025 71 10000 3.1 360 17:19 19.03.2020
6183 Clouds 14 1025 66 10000 3.1 360 16:44 19.03.2020
6184 Clouds 14 1025 66 10000 3.1 360 16:24 19.03.2020
6185 Clouds 14 1025 67 10000 3.6 360 15:46 19.03.2020
6186 Clouds 14 1025 67 10000 3.6 360 15:27 19.03.2020
6187 Clouds 14 1025 71 10000 3.1 360 14:58 19.03.2020
6188 Clouds 15 1025 67 10000 3.6 360 14:40 19.03.2020
6189 Clouds 15 1025 62 10000 3.1 310 14:19 19.03.2020
6190 Clouds 14 1025 67 10000 3.1 300 13:40 19.03.2020
6191 Clouds 14 1025 67 10000 3.1 300 13:40 19.03.2020
6192 Clouds 14 1025 62 10000 3.6 300 13:19 19.03.2020
6193 Clouds 14 1025 62 10000 4.1 280 12:56 19.03.2020
6194 Clouds 14 1025 62 10000 4.1 280 12:38 19.03.2020
6195 Rain 14 1025 62 10000 3.1 290 12:19 19.03.2020
6196 Clouds 14 1025 62 10000 2.6 300 11:42 19.03.2020
6197 Clouds 13 1025 62 10000 3.1 310 11:23 19.03.2020
6198 Clouds 12 1025 66 10000 3.1 280 10:57 19.03.2020
6199 Clouds 12 1025 66 10000 3.1 280 10:37 19.03.2020
6200 Clouds 12 1025 66 10000 3.1 260 10:18 19.03.2020
6201 Clouds 11 1025 62 10000 3.1 250 09:44 19.03.2020
6202 Clouds 11 1025 62 10000 3.1 250 09:26 19.03.2020
6203 Clouds 9 1025 66 10000 3.1 240 08:57 19.03.2020
6204 Clouds 9 1024 66 10000 2.6 240 08:38 19.03.2020
6205 Clouds 8 1024 71 10000 2.1 270 08:18 19.03.2020
6206 Clouds 8 1024 66 10000 2.1 290 07:43 19.03.2020
6207 Clouds 7 1024 66 10000 2.6 240 07:22 19.03.2020
6208 Clouds 7 1024 66 10000 2.6 220 06:29 19.03.2020
6209 Clouds 7 1023 89 0 2.44 220 05:46 19.03.2020
6210 Clear 7 1023 88 0 2.58 218 04:51 19.03.2020
6211 Clear 8 1021 88 0 2.58 218 04:24 19.03.2020
6212 Clear 8 1023 85 0 2.58 218 02:34 19.03.2020
6213 Clouds 8 1021 89 0 3.03 216 00:55 19.03.2020
6214 Clouds 7 1025 84 0 3.03 216 00:21 19.03.2020
6215 Clouds 8 1023 83 0 3.03 216 23:46 18.03.2020
6216 Clouds 8 1022 84 0 3.03 216 23:26 18.03.2020
6217 Clouds 9 1024 62 10000 2.1 260 22:44 18.03.2020
6218 Clouds 9 1024 62 10000 2.1 260 22:24 18.03.2020
6219 Clouds 9 1024 62 10000 2.1 260 21:59 18.03.2020
6220 Clouds 10 1024 62 10000 2.1 280 21:41 18.03.2020
6221 Clouds 10 1024 66 10000 2.6 270 21:21 18.03.2020
6222 Clouds 11 1024 66 10000 2.6 270 20:57 18.03.2020
6223 Clouds 11 1024 62 10000 3.1 270 20:39 18.03.2020
6224 Clouds 11 1024 62 10000 3.6 260 20:19 18.03.2020
6225 Clouds 11 1024 62 10000 3.6 260 19:55 18.03.2020
6226 Clouds 12 1024 58 10000 4.1 250 19:36 18.03.2020
6227 Clouds 12 1024 54 10000 4.1 240 19:18 18.03.2020
6228 Clouds 12 1024 54 10000 4.1 270 18:41 18.03.2020
6229 Clouds 14 1024 54 10000 5.1 270 18:20 18.03.2020
6230 Clouds 14 1024 51 10000 6.2 280 17:57 18.03.2020
6231 Clouds 15 1024 51 10000 6.2 280 17:39 18.03.2020
6232 Clouds 15 1024 51 10000 5.1 280 17:21 18.03.2020
6233 Clouds 16 1024 48 10000 5.7 270 16:54 18.03.2020
6234 Clouds 16 1024 48 10000 5.7 270 16:36 18.03.2020
6235 Clouds 16 1024 48 10000 6.2 250 16:18 18.03.2020
6236 Clouds 17 1024 45 10000 7.2 260 15:44 18.03.2020
6237 Clouds 16 1024 42 10000 6.2 260 15:20 18.03.2020
6238 Clouds 16 1024 42 10000 6.7 270 14:45 18.03.2020
6239 Clouds 16 1025 42 10000 6.2 260 14:22 18.03.2020
6240 Clouds 16 1025 42 10000 6.2 260 13:56 18.03.2020
6241 Clouds 15 1025 41 10000 7.2 250 13:36 18.03.2020
6242 Clouds 15 1025 44 10000 6.7 260 13:18 18.03.2020
6243 Clouds 15 1025 47 10000 5.7 230 12:41 18.03.2020
6244 Clouds 14 1026 54 10000 5.7 240 12:19 18.03.2020
6245 Clouds 13 1026 54 10000 5.7 240 11:39 18.03.2020
6246 Clouds 12 1026 58 10000 6.7 250 11:21 18.03.2020
6247 Clouds 12 1026 58 10000 6.7 250 10:58 18.03.2020
6248 Clouds 12 1026 58 10000 6.7 250 10:39 18.03.2020
6249 Clouds 11 1026 57 10000 6.7 240 10:20 18.03.2020
6250 Clouds 11 1026 53 10000 5.7 230 09:44 18.03.2020
6251 Clouds 10 1026 53 10000 5.7 230 09:26 18.03.2020
6252 Clouds 9 1026 57 10000 4.6 220 08:58 18.03.2020
6253 Clouds 9 1026 57 10000 5.1 220 08:39 18.03.2020
6254 Clouds 8 1026 66 10000 4.1 220 08:21 18.03.2020
6255 Clouds 6 1026 79 10000 3.1 220 07:49 18.03.2020
6256 Clouds 6 1026 79 10000 3.1 220 07:30 18.03.2020
6257 Clouds 6 1026 79 10000 3.1 220 06:45 18.03.2020
6258 Clouds 6 1025 64 0 0.45 292 06:23 18.03.2020
6259 Clouds 6 1025 61 0 0.45 270 05:35 18.03.2020
6260 Clouds 6 1024 72 0 3.56 217 04:27 18.03.2020
6261 Clouds 6 1026 56 0 0.45 270 02:49 18.03.2020
6262 Clouds 5 1028 71 0 0.45 225 01:48 18.03.2020
6263 Clouds 6 1025 69 0 2.74 220 01:29 18.03.2020
6264 Clouds 6 1028 69 0 2.68 42 00:26 18.03.2020
6265 Clouds 6 1025 66 0 3.12 211 23:59 17.03.2020
6266 Clouds 6 1028 57 10000 1.5 210 23:40 17.03.2020
6267 Clouds 7 1028 57 10000 1.5 210 23:19 17.03.2020
6268 Clouds 7 1028 57 10000 1.5 210 22:42 17.03.2020
6269 Clouds 7 1028 57 10000 2.1 190 22:23 17.03.2020
6270 Clouds 8 1028 53 10000 2.1 230 21:42 17.03.2020
6271 Clouds 9 1028 53 10000 2.1 250 21:22 17.03.2020
6272 Clouds 9 1028 53 10000 2.1 250 20:56 17.03.2020
6273 Clouds 9 1028 53 10000 2.1 230 20:37 17.03.2020
6274 Clouds 9 1028 57 10000 2.6 280 20:19 17.03.2020
6275 Clouds 10 1028 57 10000 2.6 270 19:41 17.03.2020
6276 Clouds 10 1028 50 10000 2.6 260 19:18 17.03.2020
6277 Clouds 10 1027 46 10000 3.1 260 18:57 17.03.2020
6278 Clouds 11 1027 46 10000 3.1 260 18:39 17.03.2020
6279 Clouds 12 1027 63 10000 4.6 270 18:20 17.03.2020
6280 Clouds 12 1027 63 10000 5.1 270 17:55 17.03.2020
6281 Clouds 13 1027 63 10000 5.1 270 17:36 17.03.2020
6282 Clouds 13 1027 50 10000 5.7 260 17:18 17.03.2020
6283 Clouds 14 1028 50 10000 5.7 260 16:41 17.03.2020
6284 Clouds 14 1028 41 10000 5.7 250 16:19 17.03.2020
6285 Clouds 14 1028 41 10000 5.7 250 15:44 17.03.2020
6286 Clouds 14 1028 50 10000 5.7 260 15:22 17.03.2020
6287 Clouds 14 1028 44 10000 4.6 290 14:44 17.03.2020
6288 Clouds 14 1028 44 10000 4.6 290 14:24 17.03.2020
6289 Clouds 13 1028 44 10000 5.1 260 13:57 17.03.2020
6290 Clouds 13 1028 43 10000 5.7 270 13:39 17.03.2020
6291 Clouds 13 1028 49 10000 6.2 270 13:21 17.03.2020
6292 Clouds 12 1028 47 10000 5.7 260 12:44 17.03.2020
6293 Clouds 12 1028 50 10000 5.7 270 12:24 17.03.2020
6294 Clouds 12 1028 50 10000 5.7 270 11:48 17.03.2020
6295 Clouds 11 1028 50 10000 5.7 270 11:29 17.03.2020
6296 Rain 11 1028 54 10000 5.7 260 10:58 17.03.2020
6297 Clouds 11 1028 54 10000 5.7 260 10:58 17.03.2020
6298 Clouds 11 1028 54 10000 5.7 260 10:40 17.03.2020
6299 Rain 11 1028 66 10000 4.6 280 10:22 17.03.2020
6300 Rain 10 1028 66 10000 4.6 280 09:59 17.03.2020
6301 Rain 10 1028 71 10000 3.1 290 09:41 17.03.2020
6302 Clouds 9 1028 76 10000 4.6 290 09:20 17.03.2020
6303 Clouds 9 1027 81 10000 3.6 280 08:50 17.03.2020
6304 Clouds 8 1027 81 10000 3.6 280 08:23 17.03.2020
6305 Clouds 8 1027 81 10000 3.1 280 07:57 17.03.2020
6306 Clouds 8 1026 87 10000 2.1 280 07:38 17.03.2020
6307 Clouds 8 1026 87 10000 1.5 270 07:19 17.03.2020
6308 Rain 8 1022 81 0 2.49 253 06:39 17.03.2020
6309 Rain 7 1026 91 0 2.49 253 05:58 17.03.2020
6310 Rain 7 1022 82 0 1.74 246 04:40 17.03.2020
6311 Rain 7 1021 85 0 1.74 246 02:56 17.03.2020
6312 Clouds 7 1023 88 0 1.06 219 01:49 17.03.2020
6313 Clouds 7 1023 87 0 1.06 219 01:28 17.03.2020
6314 Clouds 7 1022 89 0 0.92 236 00:48 17.03.2020
6315 Clouds 7 1022 86 0 0.92 236 23:51 16.03.2020
6316 Clouds 8 1022 85 0 0.92 236 23:33 16.03.2020
6317 Clouds 8 1024 75 10000 0.85 191 22:45 16.03.2020
6318 Clouds 8 1024 75 10000 0.85 191 22:26 16.03.2020
6319 Clouds 8 1024 75 10000 0.85 191 21:59 16.03.2020
6320 Clouds 8 1023 75 10000 0.85 191 21:41 16.03.2020
6321 Clouds 8 1023 75 10000 0.85 191 21:23 16.03.2020
6322 Clouds 9 1023 70 10000 0.5 340 20:58 16.03.2020
6323 Clouds 9 1023 66 10000 0.85 191 20:38 16.03.2020
6324 Clouds 10 1022 66 10000 1.5 320 20:19 16.03.2020
6325 Clouds 10 1022 66 10000 0.63 306 19:42 16.03.2020
6326 Clouds 11 1022 62 10000 0.63 306 19:23 16.03.2020
6327 Clouds 11 1022 62 10000 0.63 306 18:57 16.03.2020
6328 Clouds 12 1021 54 10000 2.1 310 18:37 16.03.2020
6329 Clouds 13 1021 51 10000 3.1 300 18:18 16.03.2020
6330 Clouds 14 1021 51 10000 3.6 300 17:43 16.03.2020
6331 Clouds 14 1020 51 10000 4.1 290 17:24 16.03.2020
6332 Clouds 15 1020 54 10000 3.6 300 16:47 16.03.2020
6333 Clouds 15 1020 54 10000 3.6 300 16:29 16.03.2020
6334 Clouds 16 1020 51 10000 3.6 300 15:57 16.03.2020
6335 Clouds 16 1020 51 10000 4.1 300 15:39 16.03.2020
6336 Clouds 16 1019 48 10000 4.6 280 15:19 16.03.2020
6337 Clouds 16 1019 51 10000 4.1 300 14:43 16.03.2020
6338 Clouds 15 1019 48 10000 3.1 270 14:19 16.03.2020
6339 Clouds 15 1019 47 10000 4.1 270 13:42 16.03.2020
6340 Clouds 15 1019 47 10000 4.1 270 13:24 16.03.2020
6341 Clouds 15 1019 47 10000 4.6 280 12:55 16.03.2020
6342 Clouds 15 1018 47 10000 4.1 280 12:36 16.03.2020
6343 Clouds 14 1018 47 10000 4.1 290 12:18 16.03.2020
6344 Clouds 14 1018 47 10000 4.1 270 11:41 16.03.2020
6345 Clouds 12 1018 47 10000 4.1 260 11:19 16.03.2020
6346 Clouds 12 1018 47 10000 4.6 240 10:43 16.03.2020
6347 Clouds 12 1018 47 10000 4.6 240 10:24 16.03.2020
6348 Clouds 10 1017 50 10000 3.6 250 09:46 16.03.2020
6349 Clouds 10 1017 50 10000 3.6 250 09:28 16.03.2020
6350 Clouds 9 1017 66 10000 2.1 230 08:58 16.03.2020
6351 Clouds 8 1016 66 10000 2.1 210 08:26 16.03.2020
6352 Clouds 6 1016 56 10000 2.1 190 07:54 16.03.2020
6353 Clouds 5 1015 60 10000 2.6 160 07:28 16.03.2020
6354 Clouds 5 1015 60 10000 2.6 170 06:54 16.03.2020
6355 Clouds 4 1014 70 0 0.45 270 06:27 16.03.2020
6356 Clouds 5 1013 76 0 3.32 212 05:54 16.03.2020
6357 Clouds 5 1013 65 0 0.45 270 03:31 16.03.2020
6358 Clouds 5 1015 74 0 0.45 104 01:20 16.03.2020
6359 Clouds 6 1013 62 0 2.72 204 00:43 16.03.2020
6360 Clouds 6 1013 61 0 0.45 292 23:49 15.03.2020
6361 Clouds 6 1013 63 0 0.45 270 23:22 15.03.2020
6362 Clouds 6 1012 72 0 2.57 198 22:58 15.03.2020
6363 Clouds 6 1012 70 0 2.57 198 22:38 15.03.2020
6364 Clouds 7 1014 52 10000 2.1 150 22:19 15.03.2020
6365 Clouds 7 1014 52 10000 2.1 150 21:39 15.03.2020
6366 Clouds 7 1014 52 10000 2.1 150 21:19 15.03.2020
6367 Clouds 7 1014 68 10000 2.1 130 20:44 15.03.2020
6368 Clouds 8 1014 67 10000 2.1 120 20:22 15.03.2020
6369 Clouds 9 1014 60 10000 2.1 120 19:59 15.03.2020
6370 Clouds 9 1014 60 10000 2.1 120 19:59 15.03.2020
6371 Clouds 9 1015 66 0 3.35 193 19:41 15.03.2020
6372 Clouds 9 1012 54 0 1.34 292 19:23 15.03.2020
6373 Clouds 10 1012 60 0 3.35 193 18:58 15.03.2020
6374 Clouds 10 1012 54 0 1.34 292 18:39 15.03.2020
6375 Clouds 11 1014 37 10000 4.6 190 18:21 15.03.2020
6376 Clouds 12 1014 60 10000 3.6 190 17:54 15.03.2020
6377 Clouds 12 1014 60 10000 3.6 190 17:36 15.03.2020
6378 Clouds 12 1014 52 10000 5.7 190 17:18 15.03.2020
6379 Clouds 13 1014 35 10000 6.2 190 16:42 15.03.2020
6380 Clouds 13 1014 35 10000 6.2 190 16:24 15.03.2020
6381 Clouds 13 1014 52 10000 6.7 200 15:57 15.03.2020
6382 Clouds 13 1015 52 10000 6.2 210 15:38 15.03.2020
6383 Clouds 13 1015 52 10000 6.7 210 15:19 15.03.2020
6384 Clouds 13 1015 52 10000 7.2 200 14:46 15.03.2020
6385 Clouds 13 1015 52 10000 7.2 200 14:24 15.03.2020
6386 Clouds 13 1016 54 10000 6.7 200 13:57 15.03.2020
6387 Clouds 13 1016 41 10000 6.2 210 13:38 15.03.2020
6388 Clouds 13 1016 41 10000 6.2 210 13:38 15.03.2020
6389 Clouds 12 1017 43 10000 7.2 200 13:19 15.03.2020
6390 Clouds 12 1017 54 10000 7.7 200 12:43 15.03.2020
6391 Clouds 12 1017 54 10000 6.2 200 12:25 15.03.2020
6392 Clouds 12 1017 46 10000 5.1 210 11:54 15.03.2020
6393 Clouds 11 1017 46 10000 5.1 210 11:36 15.03.2020
6394 Clouds 10 1018 60 10000 6.2 200 11:18 15.03.2020
6395 Clouds 10 1018 60 10000 5.1 200 10:55 15.03.2020
6396 Clouds 10 1018 60 10000 5.1 200 10:36 15.03.2020
6397 Clouds 9 1018 60 10000 4.6 170 10:18 15.03.2020
6398 Clouds 8 1018 60 10000 3.6 180 09:39 15.03.2020
6399 Clouds 8 1018 56 10000 3.6 170 09:20 15.03.2020
6400 Clouds 7 1018 56 10000 4.1 170 08:42 15.03.2020
6401 Clouds 5 1017 79 0 6 197 08:20 15.03.2020
6402 Clouds 4 1020 85 0 0.89 142 07:51 15.03.2020
6403 Clouds 4 1017 84 0 6 197 07:23 15.03.2020
6404 Clouds 4 1016 74 0 0.89 270 06:45 15.03.2020
6405 Clouds 4 1017 72 0 0.89 292 05:50 15.03.2020
6406 Clouds 4 1017 73 0 0.45 315 05:18 15.03.2020
6407 Clouds 4 1018 75 0 0.45 270 04:41 15.03.2020
6408 Clouds 4 1018 75 0 0.45 270 04:41 15.03.2020
6409 Clouds 3 1018 76 0 0.89 225 04:23 15.03.2020
6410 Clouds 3 1018 86 0 3.99 182 03:30 15.03.2020
6411 Clouds 3 1018 76 0 0.45 292 02:37 15.03.2020
6412 Clear 2 1019 75 0 0.45 292 01:34 15.03.2020
6413 Clear 3 1019 73 0 0.45 292 00:45 15.03.2020
6414 Clear 3 1019 72 0 0.45 292 00:22 15.03.2020
6415 Clear 4 1019 71 0 0.45 292 23:55 14.03.2020
6416 Clear 4 1019 70 0 3.73 172 23:36 14.03.2020
6417 Clear 4 1019 68 0 0.45 292 23:18 14.03.2020
6418 Clear 4 1019 69 0 4.28 158 22:41 14.03.2020
6419 Clear 4 1019 69 0 0.45 292 22:23 14.03.2020
6420 Clear 4 1020 68 0 4.28 158 21:56 14.03.2020
6421 Clear 4 1020 67 0 4.28 158 21:36 14.03.2020
6422 Clear 4 1020 67 0 4.28 158 21:36 14.03.2020
6423 Clear 5 1020 66 0 4.28 158 21:18 14.03.2020
6424 Clear 5 1020 66 0 4.28 158 20:58 14.03.2020
6425 Clear 5 1020 66 0 4.28 158 20:40 14.03.2020
6426 Clouds 5 1020 65 0 2.89 145 20:19 14.03.2020
6427 Clouds 6 1020 65 0 2.89 145 19:43 14.03.2020
6428 Clouds 5 1020 78 0 2.89 145 19:25 14.03.2020
6429 Clouds 6 1022 72 10000 3.6 110 18:42 14.03.2020
6430 Clouds 7 1022 72 10000 3.6 110 18:24 14.03.2020
6431 Clouds 8 1022 72 10000 5.1 110 17:58 14.03.2020
6432 Clouds 8 1022 72 10000 5.1 110 17:38 14.03.2020
6433 Clouds 8 1022 72 10000 5.1 110 17:38 14.03.2020
6434 Clouds 8 1022 61 10000 4.1 110 17:20 14.03.2020
6435 Clouds 8 1022 61 10000 4.1 110 17:20 14.03.2020
6436 Clouds 9 1022 56 10000 3.6 140 16:41 14.03.2020
6437 Clouds 9 1022 56 10000 3.6 140 16:23 14.03.2020
6438 Clouds 8 1022 56 10000 3.6 140 15:58 14.03.2020
6439 Clouds 8 1023 56 10000 3.6 150 15:27 14.03.2020
6440 Clouds 9 1023 56 10000 3.1 160 14:58 14.03.2020
6441 Clouds 8 1023 52 10000 3.6 160 14:37 14.03.2020
6442 Clouds 8 1023 52 10000 3.1 170 14:18 14.03.2020
6443 Clouds 8 1023 56 10000 3.1 150 13:42 14.03.2020
6444 Clouds 8 1024 56 10000 3.1 110 13:23 14.03.2020
6445 Clear 8 1024 56 10000 3.1 110 12:57 14.03.2020
6446 Clear 7 1024 56 10000 3.1 110 12:38 14.03.2020
6447 Clear 7 1024 60 10000 3.6 130 12:19 14.03.2020
6448 Clear 7 1024 60 10000 3.1 140 11:42 14.03.2020
6449 Clouds 6 1024 60 10000 2.6 120 11:24 14.03.2020
6450 Clouds 6 1024 65 10000 3.1 120 10:46 14.03.2020
6451 Clear 5 1024 64 10000 2.6 150 10:27 14.03.2020
6452 Clear 5 1024 64 10000 2.6 150 09:58 14.03.2020
6453 Clear 4 1023 74 10000 1.5 120 09:40 14.03.2020
6454 Clouds 3 1023 58 10000 1.5 0 09:20 14.03.2020
6455 Clear 2 1021 92 0 1.66 121 08:46 14.03.2020
6456 Clear 1 1020 95 0 1.93 116 08:24 14.03.2020
6457 Clear 0 1019 99 0 1.21 168 07:40 14.03.2020
6458 Clear 0 1020 95 0 1.21 168 07:21 14.03.2020
6459 Clear 0 1020 95 0 1.21 168 06:45 14.03.2020
6460 Clear -1 1019 99 0 1.21 168 06:26 14.03.2020
6461 Clear 0 1018 98 0 0.76 244 04:53 14.03.2020
6462 Clear 1 1019 90 0 0.76 244 03:34 14.03.2020
6463 Clear 2 1019 88 0 0.76 244 02:43 14.03.2020
6464 Clouds 2 1019 88 0 2.34 282 01:42 14.03.2020
6465 Clouds 3 1019 87 0 1.81 273 00:34 14.03.2020
6466 Clouds 4 1018 92 0 1.81 273 23:42 13.03.2020
6467 Clouds 4 1018 92 0 1.81 273 23:23 13.03.2020
6468 Clouds 4 1019 80 10000 3.1 310 22:44 13.03.2020
6469 Clouds 4 1019 80 10000 3.1 310 22:22 13.03.2020
6470 Clouds 4 1018 80 10000 3.6 300 21:41 13.03.2020
6471 Clouds 4 1018 80 10000 4.6 280 21:19 13.03.2020
6472 Clouds 4 1017 86 10000 4.1 280 20:43 13.03.2020
6473 Clouds 4 1017 86 10000 4.1 280 20:23 13.03.2020
6474 Clouds 5 1017 86 10000 4.6 280 19:59 13.03.2020
6475 Rain 5 1016 81 10000 5.7 270 19:40 13.03.2020
6476 Rain 5 1016 81 10000 5.7 270 19:22 13.03.2020
6477 Clouds 5 1015 81 10000 5.1 270 18:44 13.03.2020
6478 Rain 5 1015 75 10000 7.2 280 18:23 13.03.2020
6479 Rain 6 1014 81 10000 6.7 290 17:43 13.03.2020
6480 Rain 7 1014 65 10000 8.7 280 17:21 13.03.2020
6481 Rain 7 1014 65 10000 8.7 280 16:59 13.03.2020
6482 Rain 7 1013 70 10000 8.7 270 16:39 13.03.2020
6483 Clouds 7 1013 75 10000 8.2 270 16:20 13.03.2020
6484 Clouds 6 1013 75 10000 8.7 270 15:46 13.03.2020
6485 Clouds 7 1013 75 10000 8.7 270 15:23 13.03.2020
6486 Clouds 7 1013 86 10000 8.2 280 14:59 13.03.2020
6487 Rain 7 1012 81 10000 8.7 290 14:40 13.03.2020
6488 Rain 7 1012 81 10000 7.7 290 14:21 13.03.2020
6489 Rain 7 1011 75 5000 10.8 270 13:43 13.03.2020
6490 Rain 7 1011 87 10000 7.2 280 13:24 13.03.2020
6491 Rain 7 1011 87 10000 7.2 280 12:59 13.03.2020
6492 Rain 7 1011 87 10000 7.2 280 12:39 13.03.2020
6493 Rain 7 1010 81 10000 6.2 280 12:20 13.03.2020
6494 Clouds 7 1010 70 10000 10.3 260 11:57 13.03.2020
6495 Clouds 7 1010 70 10000 10.3 260 11:37 13.03.2020
6496 Clouds 7 1009 75 10000 10.3 250 11:19 13.03.2020
6497 Clouds 7 1009 65 10000 10.3 250 10:47 13.03.2020
6498 Clouds 6 1009 65 10000 10.3 250 10:26 13.03.2020
6499 Clouds 6 1009 65 10000 9.8 250 09:56 13.03.2020
6500 Clouds 6 1009 70 10000 9.8 250 09:38 13.03.2020
6501 Clouds 5 1008 78 10000 9.3 240 09:18 13.03.2020
6502 Clouds 6 1008 78 10000 8.2 240 08:41 13.03.2020
6503 Clouds 6 1008 78 10000 8.7 240 08:22 13.03.2020
6504 Clouds 6 1008 74 10000 8.2 240 07:45 13.03.2020
6505 Clouds 6 1008 74 10000 8.2 240 07:27 13.03.2020
6506 Clouds 6 1008 75 0 3.13 270 06:46 13.03.2020
6507 Clouds 6 1008 73 0 3.13 270 06:23 13.03.2020
6508 Clouds 5 1008 76 0 2.24 270 05:46 13.03.2020
6509 Clouds 5 1008 76 0 3.13 225 05:19 13.03.2020
6510 Clouds 5 1008 80 0 0.89 270 04:35 13.03.2020
6511 Clouds 5 1008 83 0 0.89 270 02:58 13.03.2020
6512 Rain 5 1008 74 0 1.34 270 01:41 13.03.2020
6513 Rain 5 1008 75 0 1.34 270 01:18 13.03.2020
6514 Rain 5 1008 78 0 0.89 270 00:43 13.03.2020
6515 Rain 4 1007 83 0 7.32 237 00:20 13.03.2020
6516 Rain 4 1008 82 0 0.89 270 23:45 12.03.2020
6517 Rain 4 1007 86 0 7.32 237 23:26 12.03.2020
6518 Rain 4 1009 74 10000 6.2 250 22:55 12.03.2020
6519 Rain 4 1009 74 10000 6.2 250 22:37 12.03.2020
6520 Rain 4 1009 74 10000 6.2 250 22:37 12.03.2020
6521 Rain 4 1009 74 10000 6.2 250 22:18 12.03.2020
6522 Clouds 4 1009 74 10000 6.2 240 21:42 12.03.2020
6523 Clouds 5 1009 74 10000 6.2 240 21:24 12.03.2020
6524 Rain 6 1009 56 10000 11.3 270 20:55 12.03.2020
6525 Rain 6 1008 48 10000 2.6 220 20:37 12.03.2020
6526 Clear 7 1008 48 10000 3.1 250 20:18 12.03.2020
6527 Clear 7 1008 48 10000 3.1 260 19:39 12.03.2020
6528 Clear 7 1008 48 10000 3.6 270 19:19 12.03.2020
6529 Clear 8 1009 42 10000 5.1 270 18:43 12.03.2020
6530 Clear 8 1009 39 10000 6.2 270 18:23 12.03.2020
6531 Clear 9 1008 37 10000 8.7 270 17:56 12.03.2020
6532 Clear 9 1008 37 10000 8.7 270 17:37 12.03.2020
6533 Clear 10 1008 39 10000 7.7 270 17:18 12.03.2020
6534 Clear 10 1008 37 10000 9.8 270 16:43 12.03.2020
6535 Clear 10 1008 37 10000 9.8 270 16:24 12.03.2020
6536 Clear 10 1008 37 10000 9.8 270 15:59 12.03.2020
6537 Clear 10 1008 43 10000 7.7 280 15:39 12.03.2020
6538 Clear 10 1008 45 10000 8.7 280 15:21 12.03.2020
6539 Clear 10 1008 45 10000 9.3 290 14:38 12.03.2020
6540 Clouds 10 1007 40 10000 11.3 270 14:19 12.03.2020
6541 Rain 10 1007 43 10000 10.8 270 13:40 12.03.2020
6542 Rain 10 1007 42 10000 13.4 280 13:22 12.03.2020
6543 Rain 9 1007 42 10000 13.4 280 12:55 12.03.2020
6544 Clouds 10 1007 42 10000 11.8 280 12:37 12.03.2020
6545 Clouds 10 1007 42 10000 11.8 280 12:37 12.03.2020
6546 Rain 10 1006 52 10000 10.8 280 12:18 12.03.2020
6547 Clouds 9 1006 52 10000 10.8 280 11:56 12.03.2020
6548 Clouds 9 1006 52 10000 10.8 280 11:37 12.03.2020
6549 Rain 9 1005 66 10000 11.8 270 11:19 12.03.2020
6550 Rain 9 1004 61 10000 12.9 270 10:56 12.03.2020
6551 Rain 9 1004 61 10000 12.9 270 10:38 12.03.2020
6552 Clouds 9 1004 75 10000 9.8 270 10:19 12.03.2020
6553 Clouds 9 1003 81 10000 11.8 290 09:43 12.03.2020
6554 Clouds 10 1003 81 10000 11.8 290 09:25 12.03.2020
6555 Clouds 10 1002 76 10000 8.7 260 08:41 12.03.2020
6556 Clouds 10 1002 76 10000 10.3 260 08:19 12.03.2020
6557 Clouds 10 1002 76 10000 10.3 260 07:53 12.03.2020
6558 Drizzle 11 1000 71 10000 8.2 240 07:23 12.03.2020
6559 Clouds 12 1001 71 10000 8.2 240 06:44 12.03.2020
6560 Rain 12 1001 83 0 3.13 225 05:40 12.03.2020
6561 Rain 12 1002 89 0 3.13 270 04:27 12.03.2020
6562 Rain 12 1004 93 0 3.58 225 02:36 12.03.2020
6563 Rain 11 1004 98 0 0.89 226 01:30 12.03.2020
6564 Rain 11 1005 93 0 2.24 270 00:42 12.03.2020
6565 Rain 11 1005 94 0 1.34 329 00:24 12.03.2020
6566 Rain 11 1006 93 0 0.89 270 23:42 11.03.2020
6567 Rain 11 1006 95 0 1.34 300 23:23 11.03.2020
6568 Clouds 11 1008 76 10000 3.6 220 22:45 11.03.2020
6569 Clouds 11 1008 76 10000 3.6 220 22:27 11.03.2020
6570 Clouds 11 1008 76 10000 3.6 220 21:59 11.03.2020
6571 Clouds 10 1009 76 10000 5.1 240 21:41 11.03.2020
6572 Clouds 10 1009 76 10000 5.1 230 21:22 11.03.2020
6573 Clouds 10 1009 76 10000 5.1 230 20:58 11.03.2020
6574 Clouds 10 1009 76 10000 5.1 230 20:58 11.03.2020
6575 Clouds 10 1009 76 10000 4.1 230 20:39 11.03.2020
6576 Clouds 10 1010 76 10000 4.6 230 20:19 11.03.2020
6577 Clouds 10 1010 76 10000 3.1 220 19:43 11.03.2020
6578 Clouds 11 1010 76 10000 3.1 220 19:25 11.03.2020
6579 Clouds 11 1010 71 10000 3.6 230 18:58 11.03.2020
6580 Rain 11 1010 71 10000 3.1 230 18:39 11.03.2020
6581 Rain 11 1010 71 10000 4.6 240 18:20 11.03.2020
6582 Clouds 11 1010 66 10000 6.2 240 17:56 11.03.2020
6583 Clouds 11 1010 66 10000 6.2 240 17:37 11.03.2020
6584 Clouds 11 1010 62 10000 5.7 260 17:19 11.03.2020
6585 Clouds 12 1010 62 10000 6.2 280 16:45 11.03.2020
6586 Clouds 12 1010 62 10000 6.2 280 16:22 11.03.2020
6587 Clouds 11 1010 62 10000 6.2 270 15:45 11.03.2020
6588 Clouds 11 1010 71 10000 5.7 270 15:24 11.03.2020
6589 Clouds 11 1010 71 10000 5.7 270 14:58 11.03.2020
6590 Clouds 11 1010 76 10000 5.1 270 14:40 11.03.2020
6591 Clouds 11 1010 76 10000 6.7 270 14:21 11.03.2020
6592 Clouds 11 1010 71 10000 7.2 270 13:44 11.03.2020
6593 Clouds 11 1010 71 10000 7.2 270 13:26 11.03.2020
6594 Clouds 10 1010 66 10000 7.7 270 12:58 11.03.2020
6595 Clouds 10 1010 66 10000 8.2 260 12:40 11.03.2020
6596 Clouds 10 1009 66 10000 7.7 250 12:19 11.03.2020
6597 Clouds 10 1009 66 10000 7.2 260 11:42 11.03.2020
6598 Clouds 9 1009 66 10000 7.2 260 11:24 11.03.2020
6599 Clouds 9 1009 66 10000 7.2 260 10:59 11.03.2020
6600 Rain 9 1009 71 10000 6.2 260 10:41 11.03.2020
6601 Rain 9 1009 71 10000 6.2 260 10:18 11.03.2020
6602 Rain 8 1009 76 10000 4.6 260 09:43 11.03.2020
6603 Rain 8 1009 76 10000 4.6 260 09:25 11.03.2020
6604 Rain 8 1008 76 10000 5.1 250 08:49 11.03.2020
6605 Rain 8 1008 76 10000 5.1 250 08:31 11.03.2020
6606 Rain 8 1008 81 10000 4.6 260 07:59 11.03.2020
6607 Clouds 8 1007 81 10000 4.6 270 07:38 11.03.2020
6608 Clouds 8 1007 81 10000 4.6 270 07:18 11.03.2020
6609 Rain 8 1006 92 0 5.32 271 06:37 11.03.2020
6610 Rain 8 1006 91 0 0.45 270 05:35 11.03.2020
6611 Rain 8 1005 90 0 0.89 270 04:18 11.03.2020
6612 Rain 9 1004 92 0 0.89 270 02:19 11.03.2020
6613 Rain 10 1002 92 0 3.13 270 01:27 11.03.2020
6614 Rain 11 1001 92 0 2.68 270 00:46 11.03.2020
6615 Rain 11 1001 94 0 2.68 270 23:58 10.03.2020
6616 Rain 12 1001 93 0 2.24 270 23:39 10.03.2020
6617 Rain 11 1003 98 0 4.92 248 23:20 10.03.2020
6618 Rain 11 1000 10 0 0.89 300 22:39 10.03.2020
6619 Rain 11 1001 95 0 2.24 270 22:20 10.03.2020
6620 Rain 11 1000 96 0 2.68 270 21:57 10.03.2020
6621 Rain 11 1000 96 0 2.68 270 21:57 10.03.2020
6622 Rain 11 1000 96 0 2.24 270 21:38 10.03.2020
6623 Rain 11 1000 96 0 2.24 270 21:38 10.03.2020
6624 Rain 10 1000 87 4200 5.7 230 21:20 10.03.2020
6625 Rain 10 1000 87 4200 5.7 230 20:58 10.03.2020
6626 Rain 10 1000 87 4200 5.7 230 20:40 10.03.2020
6627 Rain 9 1000 87 4200 5.7 230 20:18 10.03.2020
6628 Rain 9 1000 87 4200 5.7 230 19:56 10.03.2020
6629 Drizzle 9 1000 87 10000 6.2 240 19:37 10.03.2020
6630 Drizzle 9 1000 87 10000 6.2 230 19:19 10.03.2020
6631 Drizzle 9 1000 93 10000 5.7 230 18:44 10.03.2020
6632 Drizzle 9 1000 93 10000 5.7 230 18:25 10.03.2020
6633 Drizzle 9 1000 93 10000 5.7 220 17:57 10.03.2020
6634 Rain 9 1001 87 10000 6.2 230 17:39 10.03.2020
6635 Rain 9 1001 87 10000 5.1 230 17:21 10.03.2020
6636 Rain 8 1001 87 10000 5.7 220 16:39 10.03.2020
6637 Rain 8 1001 93 10000 5.7 220 16:19 10.03.2020
6638 Rain 8 1001 93 10000 5.7 220 15:56 10.03.2020
6639 Rain 8 1001 93 10000 5.7 220 15:56 10.03.2020
6640 Rain 8 1001 87 10000 5.7 220 15:37 10.03.2020
6641 Rain 8 1002 87 10000 5.7 230 15:19 10.03.2020
6642 Drizzle 8 1002 81 8000 6.2 220 14:41 10.03.2020
6643 Clouds 8 1002 76 10000 6.2 230 14:20 10.03.2020
6644 Clouds 8 1002 76 10000 6.2 230 13:59 10.03.2020
6645 Clouds 8 1002 81 10000 7.2 230 13:41 10.03.2020
6646 Clouds 8 1002 81 10000 7.2 230 13:22 10.03.2020
6647 Clouds 7 1003 81 10000 6.7 230 12:42 10.03.2020
6648 Rain 7 1002 81 9000 6.2 230 12:21 10.03.2020
6649 Rain 7 1002 81 9000 6.2 230 11:58 10.03.2020
6650 Rain 7 1002 81 9000 6.2 230 11:40 10.03.2020
6651 Rain 7 1002 87 8000 6.7 230 11:22 10.03.2020
6652 Rain 6 1002 81 10000 7.2 220 10:43 10.03.2020
6653 Rain 6 1002 81 10000 7.2 220 10:23 10.03.2020
6654 Clouds 6 1003 81 10000 6.7 220 09:58 10.03.2020
6655 Rain 6 1003 81 10000 7.7 220 09:40 10.03.2020
6656 Rain 5 1004 81 10000 6.7 210 09:19 10.03.2020
6657 Rain 5 1004 81 10000 6.7 210 09:19 10.03.2020
6658 Rain 5 1004 81 10000 5.1 200 08:51 10.03.2020
6659 Rain 5 1004 81 10000 5.1 200 08:32 10.03.2020
6660 Rain 5 1005 81 10000 4.1 190 07:51 10.03.2020
6661 Rain 5 1005 81 10000 4.1 190 07:51 10.03.2020
6662 Rain 5 1005 81 10000 4.1 190 07:32 10.03.2020
6663 Rain 5 1004 90 0 2.68 292 06:48 10.03.2020
6664 Rain 5 1007 89 0 1.79 150 06:30 10.03.2020
6665 Rain 5 1007 89 0 1.79 150 06:30 10.03.2020
6666 Rain 5 1005 85 0 2.24 270 05:42 10.03.2020
6667 Rain 5 1005 85 0 2.24 270 05:42 10.03.2020
6668 Clouds 5 1006 84 0 1.79 270 04:53 10.03.2020
6669 Clouds 5 1007 91 0 4.42 212 04:24 10.03.2020
6670 Clouds 5 1008 81 0 0.89 270 02:44 10.03.2020
6671 Clear 4 1010 82 0 0.45 292 01:30 10.03.2020
6672 Clouds 4 1010 82 0 0.89 270 00:47 10.03.2020
6673 Clouds 4 1010 90 0 3.98 213 00:27 10.03.2020
6674 Clouds 4 1011 84 0 0.45 247 23:41 09.03.2020
6675 Clouds 4 1011 84 0 0.45 292 23:22 09.03.2020
6676 Clear 5 1013 70 10000 3.1 230 22:56 09.03.2020
6677 Clear 5 1013 70 10000 3.1 230 22:37 09.03.2020
6678 Clear 5 1013 70 10000 3.1 230 22:18 09.03.2020
6679 Clouds 5 1013 70 10000 3.6 240 21:42 09.03.2020
6680 Clouds 5 1013 70 10000 3.1 260 21:21 09.03.2020
6681 Clouds 6 1013 70 10000 3.1 260 20:58 09.03.2020
6682 Clouds 5 1013 75 10000 4.1 240 20:39 09.03.2020
6683 Clouds 6 1013 75 10000 3.1 240 20:20 09.03.2020
6684 Clouds 6 1013 75 10000 4.1 240 19:45 09.03.2020
6685 Clouds 6 1013 75 10000 4.1 240 19:45 09.03.2020
6686 Clouds 6 1013 75 10000 4.1 240 19:26 09.03.2020
6687 Clouds 6 1013 75 10000 2.6 250 18:59 09.03.2020
6688 Clouds 7 1013 65 10000 2.6 260 18:40 09.03.2020
6689 Clouds 7 1012 70 10000 3.6 260 18:20 09.03.2020
6690 Clouds 8 1012 70 10000 3.6 260 17:58 09.03.2020
6691 Clouds 9 1012 66 10000 4.6 270 17:38 09.03.2020
6692 Clouds 9 1012 66 10000 4.1 280 17:20 09.03.2020
6693 Clouds 9 1012 66 10000 4.1 280 16:59 09.03.2020
6694 Clouds 10 1012 70 10000 5.1 270 16:41 09.03.2020
6695 Clouds 10 1011 61 10000 7.2 260 16:22 09.03.2020
6696 Clouds 9 1011 61 10000 7.2 260 15:58 09.03.2020
6697 Clouds 9 1011 61 10000 7.2 260 15:39 09.03.2020
6698 Clouds 9 1011 53 10000 5.7 260 15:21 09.03.2020
6699 Clouds 9 1011 57 10000 5.7 270 14:57 09.03.2020
6700 Clouds 9 1011 57 10000 5.7 270 14:38 09.03.2020
6701 Clouds 10 1011 61 10000 5.1 280 14:19 09.03.2020
6702 Clouds 9 1011 62 10000 6.2 260 13:57 09.03.2020
6703 Clouds 10 1011 62 10000 6.2 260 13:38 09.03.2020
6704 Clouds 9 1011 61 10000 5.1 270 13:18 09.03.2020
6705 Clouds 9 1011 61 10000 6.2 270 12:43 09.03.2020
6706 Clouds 9 1010 66 10000 6.7 260 12:22 09.03.2020
6707 Clouds 9 1010 71 10000 6.2 270 11:55 09.03.2020
6708 Clouds 9 1010 70 10000 7.2 270 11:37 09.03.2020
6709 Clouds 9 1010 70 10000 7.2 270 11:19 09.03.2020
6710 Clouds 9 1010 70 10000 5.7 260 10:55 09.03.2020
6711 Clouds 8 1010 70 10000 5.7 260 10:36 09.03.2020
6712 Clouds 8 1010 70 10000 5.7 260 10:18 09.03.2020
6713 Clouds 8 1009 75 10000 3.6 250 09:39 09.03.2020
6714 Clouds 8 1009 75 10000 3.6 250 09:39 09.03.2020
6715 Clouds 8 1009 75 10000 3.6 250 09:21 09.03.2020
6716 Clouds 7 1009 75 10000 3.1 270 08:44 09.03.2020
6717 Clouds 7 1009 81 10000 4.1 250 08:26 09.03.2020
6718 Clouds 6 1008 87 10000 2.6 240 07:42 09.03.2020
6719 Clouds 7 1008 81 10000 3.1 260 07:22 09.03.2020
6720 Clouds 6 1007 92 0 4.67 239 06:46 09.03.2020
6721 Clouds 7 1007 92 0 4.67 239 06:27 09.03.2020
6722 Clouds 7 1007 93 0 4.67 239 05:58 09.03.2020
6723 Clouds 7 1007 92 0 4.67 239 05:39 09.03.2020
6724 Clouds 7 1006 91 0 0.89 270 04:43 09.03.2020
6725 Clouds 8 1006 89 0 1.34 270 04:23 09.03.2020
6726 Clouds 8 1005 90 0 3.73 223 03:29 09.03.2020
6727 Clouds 8 1006 80 0 0.45 270 01:58 09.03.2020
6728 Clouds 8 1007 81 0 0.45 270 00:40 09.03.2020
6729 Clouds 8 1007 81 0 0.45 270 00:22 09.03.2020
6730 Clouds 8 1007 85 0 3.31 208 23:53 08.03.2020
6731 Clouds 8 1007 83 0 3.31 208 23:28 08.03.2020
6732 Rain 8 1007 82 0 3.66 206 22:58 08.03.2020
6733 Rain 8 1008 77 0 1.34 270 22:39 08.03.2020
6734 Rain 8 1010 78 0 0.89 75 22:21 08.03.2020
6735 Rain 8 1008 81 0 3.66 206 21:57 08.03.2020
6736 Rain 8 1008 77 0 0.45 225 21:39 08.03.2020
6737 Rain 9 1008 77 0 0.89 270 21:19 08.03.2020
6738 Rain 9 1008 77 0 0.89 270 21:19 08.03.2020
6739 Rain 9 1008 80 0 3.66 206 20:56 08.03.2020
6740 Rain 9 1009 78 0 0.45 292 20:37 08.03.2020
6741 Clouds 9 1011 61 10000 5.7 220 20:18 08.03.2020
6742 Clouds 9 1011 61 10000 5.7 220 19:38 08.03.2020
6743 Clouds 9 1011 61 10000 5.7 220 19:19 08.03.2020
6744 Clouds 9 1011 61 10000 4.6 220 18:43 08.03.2020
6745 Clouds 9 1010 61 10000 5.7 230 18:24 08.03.2020
6746 Clouds 10 1010 57 10000 5.7 210 17:57 08.03.2020
6747 Clouds 10 1011 57 10000 4.1 200 17:38 08.03.2020
6748 Clouds 10 1011 57 10000 4.1 200 17:20 08.03.2020
6749 Clouds 10 1011 57 10000 4.1 200 16:47 08.03.2020
6750 Clouds 11 1011 57 10000 4.1 200 16:28 08.03.2020
6751 Clouds 11 1011 57 10000 5.7 230 15:59 08.03.2020
6752 Clouds 11 1011 57 10000 5.7 200 15:40 08.03.2020
6753 Clouds 11 1011 57 10000 5.7 200 15:21 08.03.2020
6754 Clouds 11 1011 57 10000 5.7 200 14:55 08.03.2020
6755 Clouds 10 1012 57 10000 5.7 220 14:37 08.03.2020
6756 Clouds 10 1012 57 10000 5.7 220 14:18 08.03.2020
6757 Clouds 10 1013 61 10000 5.1 200 13:40 08.03.2020
6758 Clouds 10 1013 61 10000 5.1 200 13:20 08.03.2020
6759 Clouds 10 1013 61 10000 5.1 200 12:43 08.03.2020
6760 Clouds 9 1014 61 10000 5.7 200 12:25 08.03.2020
6761 Clouds 9 1014 61 10000 6.7 210 11:57 08.03.2020
6762 Clouds 9 1014 61 10000 6.7 210 11:57 08.03.2020
6763 Clouds 9 1014 61 10000 6.7 210 11:39 08.03.2020
6764 Clouds 8 1014 61 10000 6.7 210 11:20 08.03.2020
6765 Clouds 7 1015 65 10000 4.6 200 10:41 08.03.2020
6766 Clouds 7 1015 65 10000 4.6 200 10:23 08.03.2020
6767 Clouds 8 1015 65 10000 3.1 190 09:57 08.03.2020
6768 Clouds 7 1015 65 10000 3.1 190 09:36 08.03.2020
6769 Clouds 7 1015 65 10000 3.1 190 09:18 08.03.2020
6770 Clouds 7 1015 65 10000 3.1 190 09:18 08.03.2020
6771 Clouds 6 1015 70 10000 2.6 160 08:40 08.03.2020
6772 Clouds 5 1015 70 10000 2.6 190 08:19 08.03.2020
6773 Clouds 5 1014 78 0 0.89 270 07:44 08.03.2020
6774 Clouds 5 1014 78 0 0.89 225 07:25 08.03.2020
6775 Clouds 4 1014 78 0 1.34 292 06:42 08.03.2020
6776 Clouds 4 1014 77 0 0.45 292 06:22 08.03.2020
6777 Clouds 5 1014 76 0 0.89 270 05:39 08.03.2020
6778 Clouds 3 1015 79 0 0.89 270 03:52 08.03.2020
6779 Clouds 3 1018 93 0 2.68 41 02:30 08.03.2020
6780 Clouds 2 1016 82 0 0.89 292 01:34 08.03.2020
6781 Clouds 2 1017 97 0 3.76 205 00:55 08.03.2020
6782 Clouds 2 1017 97 0 3.76 205 00:28 08.03.2020
6783 Clouds 2 1017 84 0 0.45 270 23:47 07.03.2020
6784 Clouds 1 1017 83 0 0.45 270 23:24 07.03.2020
6785 Clear 1 1017 96 0 3.76 210 22:55 07.03.2020
6786 Clear 1 1017 82 0 0.45 270 22:36 07.03.2020
6787 Clear 1 1017 82 0 0.45 270 22:18 07.03.2020
6788 Clear 2 1017 84 0 0.45 270 21:43 07.03.2020
6789 Clear 2 1018 84 0 3.76 210 21:19 07.03.2020
6790 Clear 3 1017 85 0 3.76 210 20:39 07.03.2020
6791 Clouds 3 1017 84 0 2.53 251 20:20 07.03.2020
6792 Clouds 3 1017 82 0 2.67 253 19:41 07.03.2020
6793 Clouds 4 1017 80 0 2.67 253 19:22 07.03.2020
6794 Clouds 5 1018 82 10000 3.1 290 18:58 07.03.2020
6795 Clouds 5 1018 82 10000 3.1 290 18:39 07.03.2020
6796 Clouds 6 1018 82 10000 3.1 290 18:20 07.03.2020
6797 Clouds 6 1017 82 10000 4.1 280 17:41 07.03.2020
6798 Rain 6 1017 66 10000 5.1 280 17:19 07.03.2020
6799 Clouds 6 1017 65 10000 5.1 280 16:56 07.03.2020
6800 Clouds 6 1017 65 10000 5.1 280 16:38 07.03.2020
6801 Rain 7 1017 65 10000 5.1 280 16:19 07.03.2020
6802 Clouds 7 1016 65 10000 5.7 280 15:42 07.03.2020
6803 Clouds 6 1016 65 10000 5.1 280 15:22 07.03.2020
6804 Clouds 6 1016 65 10000 4.6 280 14:59 07.03.2020
6805 Clouds 6 1016 65 10000 4.6 280 14:41 07.03.2020
6806 Clouds 6 1015 70 10000 6.2 280 14:23 07.03.2020
6807 Clouds 6 1015<